<?xml version='1.0' encoding='UTF-8'?><gpx version="1.1" creator="JPX - https://github.com/jenetics/jpx" xmlns="http://www.topografix.com/GPX/1/1"><trk><trkseg><trkpt lat="46.10780522490638" lon="1.3716269225912847"><ele>333.0</ele><time>2026-03-28T14:45:41.999Z</time></trkpt><trkpt lat="46.1078534837932" lon="1.371568426066457"><ele>333.0</ele><time>2026-03-28T14:45:47.999Z</time></trkpt><trkpt lat="46.10785231006776" lon="1.371460882538877"><ele>333.0</ele><time>2026-03-28T14:45:50.999Z</time></trkpt><trkpt lat="46.10778563291757" lon="1.371354314537269"><ele>333.0</ele><time>2026-03-28T14:45:51.999Z</time></trkpt><trkpt lat="46.10770478435561" lon="1.3712312817980372"><ele>333.0</ele><time>2026-03-28T14:45:52.999Z</time></trkpt><trkpt lat="46.107635599212" lon="1.3710996178798132"><ele>332.75</ele><time>2026-03-28T14:45:53.999Z</time></trkpt><trkpt lat="46.10754261122719" lon="1.3709523259860783"><ele>332.5</ele><time>2026-03-28T14:45:54.999Z</time></trkpt><trkpt lat="46.107460371909724" lon="1.3707773367561937"><ele>332.25</ele><time>2026-03-28T14:45:55.999Z</time></trkpt><trkpt lat="46.107395084143874" lon="1.3706489974569065"><ele>332.0</ele><time>2026-03-28T14:45:56.999Z</time></trkpt><trkpt lat="46.107316023069195" lon="1.370524125587516"><ele>331.0</ele><time>2026-03-28T14:45:57.999Z</time></trkpt><trkpt lat="46.10723762861451" lon="1.3704002463305374"><ele>330.0</ele><time>2026-03-28T14:45:58.999Z</time></trkpt><trkpt lat="46.10717092190614" lon="1.3702909360115463"><ele>329.0</ele><time>2026-03-28T14:45:59.999Z</time></trkpt><trkpt lat="46.10710645216509" lon="1.3702008948792832"><ele>328.0</ele><time>2026-03-28T14:46:00.999Z</time></trkpt><trkpt lat="46.10704965833534" lon="1.3701175616200305"><ele>327.0</ele><time>2026-03-28T14:46:01.999Z</time></trkpt><trkpt lat="46.10700207911237" lon="1.3700499319948771"><ele>327.0</ele><time>2026-03-28T14:46:02.999Z</time></trkpt><trkpt lat="46.106960809769056" lon="1.3699536009205397"><ele>327.0</ele><time>2026-03-28T14:46:04.999Z</time></trkpt><trkpt lat="46.106980671261454" lon="1.3697972412918975"><ele>327.0</ele><time>2026-03-28T14:46:08.999Z</time></trkpt><trkpt lat="46.107028303895866" lon="1.3696485250107033"><ele>327.0</ele><time>2026-03-28T14:46:10.999Z</time></trkpt><trkpt lat="46.10710398836522" lon="1.3695574050881958"><ele>327.0</ele><time>2026-03-28T14:46:27.999Z</time></trkpt><trkpt lat="46.10715044347326" lon="1.3694899747252123"><ele>326.0</ele><time>2026-03-28T14:46:28.999Z</time></trkpt><trkpt lat="46.10721008490462" lon="1.3694178581993515"><ele>325.0</ele><time>2026-03-28T14:46:29.999Z</time></trkpt><trkpt lat="46.10729605312414" lon="1.369384803522821"><ele>324.0</ele><time>2026-03-28T14:46:30.999Z</time></trkpt><trkpt lat="46.107467647463736" lon="1.3692745650691336"><ele>323.0</ele><time>2026-03-28T14:46:32.999Z</time></trkpt><trkpt lat="46.10756138424973" lon="1.3692164216460676"><ele>323.0</ele><time>2026-03-28T14:46:33.998Z</time></trkpt><trkpt lat="46.107659367438735" lon="1.369153745358958"><ele>323.0</ele><time>2026-03-28T14:46:34.998Z</time></trkpt><trkpt lat="46.10775566738547" lon="1.3690885244824251"><ele>323.0</ele><time>2026-03-28T14:46:35.998Z</time></trkpt><trkpt lat="46.10784777886618" lon="1.3690159823217916"><ele>323.0</ele><time>2026-03-28T14:46:36.998Z</time></trkpt><trkpt lat="46.10793732021539" lon="1.3689460988446576"><ele>323.0</ele><time>2026-03-28T14:46:37.998Z</time></trkpt><trkpt lat="46.10803116497112" lon="1.3688745292271833"><ele>322.6666666666667</ele><time>2026-03-28T14:46:38.998Z</time></trkpt><trkpt lat="46.10811609519118" lon="1.3688093968148036"><ele>322.33333333333337</ele><time>2026-03-28T14:46:39.998Z</time></trkpt><trkpt lat="46.108190985475055" lon="1.3687541429572412"><ele>322.0</ele><time>2026-03-28T14:46:40.998Z</time></trkpt><trkpt lat="46.10826643392978" lon="1.368703984585703"><ele>321.6666666666667</ele><time>2026-03-28T14:46:41.998Z</time></trkpt><trkpt lat="46.10833168780287" lon="1.3686788450489453"><ele>321.3333333333333</ele><time>2026-03-28T14:46:42.998Z</time></trkpt><trkpt lat="46.10841108785272" lon="1.3686553351120516"><ele>321.0</ele><time>2026-03-28T14:46:43.998Z</time></trkpt><trkpt lat="46.108499425215925" lon="1.368640110205666"><ele>321.0</ele><time>2026-03-28T14:46:45Z</time></trkpt><trkpt lat="46.10857592015041" lon="1.3686406275193443"><ele>321.0</ele><time>2026-03-28T14:46:46Z</time></trkpt><trkpt lat="46.108654049968976" lon="1.3686505377697613"><ele>321.0</ele><time>2026-03-28T14:46:47Z</time></trkpt><trkpt lat="46.10874222594157" lon="1.368666604133829"><ele>321.0</ele><time>2026-03-28T14:46:48Z</time></trkpt><trkpt lat="46.10881044498127" lon="1.3686790341855153"><ele>321.0</ele><time>2026-03-28T14:46:49Z</time></trkpt><trkpt lat="46.10889305665714" lon="1.368694086686554"><ele>321.0</ele><time>2026-03-28T14:46:51Z</time></trkpt><trkpt lat="46.10900041746456" lon="1.3685887638569538"><ele>321.0</ele><time>2026-03-28T14:46:55Z</time></trkpt><trkpt lat="46.109061576903514" lon="1.3685210662536276"><ele>321.0</ele><time>2026-03-28T14:46:57Z</time></trkpt><trkpt lat="46.10923514168012" lon="1.368788528056151"><ele>321.0</ele><time>2026-03-28T14:47:00Z</time></trkpt><trkpt lat="46.109204642642965" lon="1.3685615145294407"><ele>321.20000000000005</ele><time>2026-03-28T14:47:01Z</time></trkpt><trkpt lat="46.10927100170506" lon="1.3685834872285358"><ele>321.40000000000003</ele><time>2026-03-28T14:47:02Z</time></trkpt><trkpt lat="46.10936340950888" lon="1.3686139429815618"><ele>321.6</ele><time>2026-03-28T14:47:03Z</time></trkpt><trkpt lat="46.10945583645339" lon="1.368644770727131"><ele>321.8</ele><time>2026-03-28T14:47:04Z</time></trkpt><trkpt lat="46.109578614381455" lon="1.3686891705919815"><ele>322.0</ele><time>2026-03-28T14:47:05Z</time></trkpt><trkpt lat="46.109684038157674" lon="1.3687279740235112"><ele>322.0</ele><time>2026-03-28T14:47:06Z</time></trkpt><trkpt lat="46.10976413517471" lon="1.368757455411738"><ele>322.0</ele><time>2026-03-28T14:47:07Z</time></trkpt><trkpt lat="46.109832572468015" lon="1.3687261370877777"><ele>322.0</ele><time>2026-03-28T14:47:08Z</time></trkpt><trkpt lat="46.10991638562843" lon="1.3686728409618445"><ele>322.0</ele><time>2026-03-28T14:47:10Z</time></trkpt><trkpt lat="46.11000479284412" lon="1.3686042165816725"><ele>322.0</ele><time>2026-03-28T14:47:12Z</time></trkpt><trkpt lat="46.11013849092127" lon="1.3686488680556033"><ele>320.6</ele><time>2026-03-28T14:47:14Z</time></trkpt><trkpt lat="46.11024127050925" lon="1.3686648851982066"><ele>319.20000000000005</ele><time>2026-03-28T14:47:15Z</time></trkpt><trkpt lat="46.11032365595488" lon="1.36868000629232"><ele>317.8</ele><time>2026-03-28T14:47:16Z</time></trkpt><trkpt lat="46.11042443745468" lon="1.3686758016296803"><ele>316.4</ele><time>2026-03-28T14:47:17Z</time></trkpt><trkpt lat="46.11051550089913" lon="1.3686674720641268"><ele>315.0</ele><time>2026-03-28T14:47:18Z</time></trkpt><trkpt lat="46.1106169903102" lon="1.3686535461104765"><ele>315.0</ele><time>2026-03-28T14:47:19Z</time></trkpt><trkpt lat="46.11073066296078" lon="1.3686453814563893"><ele>315.0</ele><time>2026-03-28T14:47:20Z</time></trkpt><trkpt lat="46.110834439204176" lon="1.3686393294097694"><ele>315.0</ele><time>2026-03-28T14:47:21Z</time></trkpt><trkpt lat="46.11094179562816" lon="1.3686401148918859"><ele>315.0</ele><time>2026-03-28T14:47:22Z</time></trkpt><trkpt lat="46.11105671746495" lon="1.3686379358638696"><ele>315.0</ele><time>2026-03-28T14:47:23Z</time></trkpt><trkpt lat="46.11118343967517" lon="1.3686686241066681"><ele>312.8</ele><time>2026-03-28T14:47:24Z</time></trkpt><trkpt lat="46.11128849526051" lon="1.3686895681498255"><ele>310.6</ele><time>2026-03-28T14:47:25Z</time></trkpt><trkpt lat="46.11138406067507" lon="1.3686898991429048"><ele>308.4</ele><time>2026-03-28T14:47:26Z</time></trkpt><trkpt lat="46.111484737926546" lon="1.3687380728641703"><ele>306.2</ele><time>2026-03-28T14:47:27Z</time></trkpt><trkpt lat="46.11158606664784" lon="1.3687705289133945"><ele>304.0</ele><time>2026-03-28T14:47:28Z</time></trkpt><trkpt lat="46.11169771578352" lon="1.3687790933186093"><ele>303.59999999999997</ele><time>2026-03-28T14:47:29Z</time></trkpt><trkpt lat="46.11180581618161" lon="1.3687858790999754"><ele>303.2</ele><time>2026-03-28T14:47:30Z</time></trkpt><trkpt lat="46.11190953835368" lon="1.3688089209027512"><ele>302.79999999999995</ele><time>2026-03-28T14:47:30.999Z</time></trkpt><trkpt lat="46.1120152153371" lon="1.3688176527947646"><ele>302.4</ele><time>2026-03-28T14:47:31.999Z</time></trkpt><trkpt lat="46.11209771414056" lon="1.3688610561796213"><ele>302.0</ele><time>2026-03-28T14:47:32.999Z</time></trkpt><trkpt lat="46.11217575564551" lon="1.3689047259205602"><ele>302.0</ele><time>2026-03-28T14:47:33.999Z</time></trkpt><trkpt lat="46.112234770487646" lon="1.3689653376323376"><ele>302.0</ele><time>2026-03-28T14:47:34.999Z</time></trkpt><trkpt lat="46.112303702975446" lon="1.3690360552135874"><ele>302.0</ele><time>2026-03-28T14:47:35.999Z</time></trkpt><trkpt lat="46.11238411963597" lon="1.3691187236491618"><ele>302.0</ele><time>2026-03-28T14:47:36.999Z</time></trkpt><trkpt lat="46.11246655927163" lon="1.3691950894863798"><ele>302.0</ele><time>2026-03-28T14:47:37.999Z</time></trkpt><trkpt lat="46.112540635459105" lon="1.369301349598442"><ele>300.4</ele><time>2026-03-28T14:47:38.999Z</time></trkpt><trkpt lat="46.11262855277229" lon="1.369400931009293"><ele>298.79999999999995</ele><time>2026-03-28T14:47:39.999Z</time></trkpt><trkpt lat="46.11271837135164" lon="1.3694842304844943"><ele>297.2</ele><time>2026-03-28T14:47:40.999Z</time></trkpt><trkpt lat="46.11279603283215" lon="1.3695915017582838"><ele>295.59999999999997</ele><time>2026-03-28T14:47:41.999Z</time></trkpt><trkpt lat="46.112885211367534" lon="1.3696978693305293"><ele>294.0</ele><time>2026-03-28T14:47:42.999Z</time></trkpt><trkpt lat="46.11296622268116" lon="1.3697944954829226"><ele>294.0</ele><time>2026-03-28T14:47:43.999Z</time></trkpt><trkpt lat="46.11304410538574" lon="1.3698873900726318"><ele>294.0</ele><time>2026-03-28T14:47:44.999Z</time></trkpt><trkpt lat="46.11313309148203" lon="1.3699739666996797"><ele>294.0</ele><time>2026-03-28T14:47:45.999Z</time></trkpt><trkpt lat="46.113207830897196" lon="1.37005277819816"><ele>294.0</ele><time>2026-03-28T14:47:46.999Z</time></trkpt><trkpt lat="46.11328600199847" lon="1.37016430704305"><ele>294.0</ele><time>2026-03-28T14:47:47.999Z</time></trkpt><trkpt lat="46.1133789465782" lon="1.3702466126202861"><ele>291.4</ele><time>2026-03-28T14:47:48.999Z</time></trkpt><trkpt lat="46.11345239588311" lon="1.3703360338922927"><ele>288.79999999999995</ele><time>2026-03-28T14:47:49.999Z</time></trkpt><trkpt lat="46.11354000424504" lon="1.3704428349645195"><ele>286.20000000000005</ele><time>2026-03-28T14:47:50.999Z</time></trkpt><trkpt lat="46.11360984109534" lon="1.3705484719565593"><ele>283.6</ele><time>2026-03-28T14:47:51.999Z</time></trkpt><trkpt lat="46.11368751254407" lon="1.3706307240716844"><ele>281.0</ele><time>2026-03-28T14:47:52.999Z</time></trkpt><trkpt lat="46.113756056523634" lon="1.3707010621489253"><ele>281.0</ele><time>2026-03-28T14:47:53.999Z</time></trkpt><trkpt lat="46.11383114299724" lon="1.3707631993754648"><ele>281.0</ele><time>2026-03-28T14:47:54.999Z</time></trkpt><trkpt lat="46.11390707581101" lon="1.3708065893840478"><ele>281.0</ele><time>2026-03-28T14:47:55.999Z</time></trkpt><trkpt lat="46.11398191829504" lon="1.3708453360974002"><ele>281.0</ele><time>2026-03-28T14:47:56.999Z</time></trkpt><trkpt lat="46.11404153062922" lon="1.3709272125075618"><ele>281.0</ele><time>2026-03-28T14:47:57.999Z</time></trkpt><trkpt lat="46.11411539657262" lon="1.37099087726836"><ele>281.0</ele><time>2026-03-28T14:47:58.999Z</time></trkpt><trkpt lat="46.11419219347532" lon="1.3710258307737018"><ele>278.5</ele><time>2026-03-28T14:47:59.999Z</time></trkpt><trkpt lat="46.11426190581352" lon="1.3710571001535978"><ele>276.0</ele><time>2026-03-28T14:48:00.999Z</time></trkpt><trkpt lat="46.11434261256368" lon="1.3710676425689687"><ele>273.5</ele><time>2026-03-28T14:48:01.999Z</time></trkpt><trkpt lat="46.11442895168961" lon="1.3710485000025012"><ele>271.0</ele><time>2026-03-28T14:48:02.999Z</time></trkpt><trkpt lat="46.114508040038444" lon="1.3710404058563885"><ele>268.5</ele><time>2026-03-28T14:48:03.999Z</time></trkpt><trkpt lat="46.11461542720051" lon="1.3710118470340145"><ele>266.0</ele><time>2026-03-28T14:48:05.999Z</time></trkpt><trkpt lat="46.1146902289743" lon="1.3709475745135304"><ele>266.0</ele><time>2026-03-28T14:48:07.999Z</time></trkpt><trkpt lat="46.114759357415025" lon="1.3708940773962213"><ele>266.0</ele><time>2026-03-28T14:48:10.999Z</time></trkpt><trkpt lat="46.11485980501776" lon="1.3708508121790746"><ele>266.0</ele><time>2026-03-28T14:48:12.999Z</time></trkpt><trkpt lat="46.1149568311742" lon="1.3709807024040768"><ele>266.0</ele><time>2026-03-28T14:48:15.999Z</time></trkpt><trkpt lat="46.115036640855905" lon="1.3711312295937783"><ele>266.0</ele><time>2026-03-28T14:48:16.999Z</time></trkpt><trkpt lat="46.11511307180292" lon="1.3712847635922956"><ele>266.75</ele><time>2026-03-28T14:48:17.999Z</time></trkpt><trkpt lat="46.11519326814931" lon="1.3714200492386515"><ele>267.5</ele><time>2026-03-28T14:48:18.999Z</time></trkpt><trkpt lat="46.11527572803034" lon="1.3715244299506613"><ele>268.25</ele><time>2026-03-28T14:48:19.999Z</time></trkpt><trkpt lat="46.11535247443623" lon="1.371629534222758"><ele>269.0</ele><time>2026-03-28T14:48:20.999Z</time></trkpt><trkpt lat="46.11544461427672" lon="1.3717242302827812"><ele>269.0</ele><time>2026-03-28T14:48:21.999Z</time></trkpt><trkpt lat="46.1155392660014" lon="1.3718335021511268"><ele>269.0</ele><time>2026-03-28T14:48:22.999Z</time></trkpt><trkpt lat="46.11563204818353" lon="1.3719464626429663"><ele>269.0</ele><time>2026-03-28T14:48:23.999Z</time></trkpt><trkpt lat="46.115735300795215" lon="1.372010477160736"><ele>269.0</ele><time>2026-03-28T14:48:24.999Z</time></trkpt><trkpt lat="46.11584270820722" lon="1.3721096609372818"><ele>272.2</ele><time>2026-03-28T14:48:25.999Z</time></trkpt><trkpt lat="46.11594727723831" lon="1.3721396967167947"><ele>275.4</ele><time>2026-03-28T14:48:26.999Z</time></trkpt><trkpt lat="46.11602354262582" lon="1.3722043982556487"><ele>278.6</ele><time>2026-03-28T14:48:27.999Z</time></trkpt><trkpt lat="46.11610725967781" lon="1.3722119721537374"><ele>281.8</ele><time>2026-03-28T14:48:28.999Z</time></trkpt><trkpt lat="46.116197403498326" lon="1.3722493747671913"><ele>285.0</ele><time>2026-03-28T14:48:34.999Z</time></trkpt><trkpt lat="46.11630683645553" lon="1.3721797098426909"><ele>285.0</ele><time>2026-03-28T14:48:36.998Z</time></trkpt><trkpt lat="46.11638055226329" lon="1.372140991177869"><ele>285.0</ele><time>2026-03-28T14:48:37.998Z</time></trkpt><trkpt lat="46.11646030735461" lon="1.372103242389026"><ele>285.0</ele><time>2026-03-28T14:48:38.998Z</time></trkpt><trkpt lat="46.1165484797379" lon="1.372041213377764"><ele>285.0</ele><time>2026-03-28T14:48:39.998Z</time></trkpt><trkpt lat="46.11662921775862" lon="1.3719844144360138"><ele>285.0</ele><time>2026-03-28T14:48:40.998Z</time></trkpt><trkpt lat="46.116714941681394" lon="1.3719241079272784"><ele>285.0</ele><time>2026-03-28T14:48:41.998Z</time></trkpt><trkpt lat="46.116807379914505" lon="1.37185907792125"><ele>286.8</ele><time>2026-03-28T14:48:42.998Z</time></trkpt><trkpt lat="46.11688332288187" lon="1.3717819726405607"><ele>288.6</ele><time>2026-03-28T14:48:43.998Z</time></trkpt><trkpt lat="46.11694562222438" lon="1.371747423814553"><ele>290.4</ele><time>2026-03-28T14:48:44.998Z</time></trkpt><trkpt lat="46.11701032166191" lon="1.371718081999915"><ele>292.2</ele><time>2026-03-28T14:48:46.998Z</time></trkpt><trkpt lat="46.11708277248868" lon="1.3716678143204069"><ele>294.0</ele><time>2026-03-28T14:48:48.998Z</time></trkpt><trkpt lat="46.11706073323865" lon="1.3714505020805274"><ele>295.0</ele><time>2026-03-28T14:48:49.998Z</time></trkpt><trkpt lat="46.11707991111332" lon="1.3712971852595213"><ele>296.0</ele><time>2026-03-28T14:48:51Z</time></trkpt><trkpt lat="46.117105215030605" lon="1.3711276245769384"><ele>297.0</ele><time>2026-03-28T14:48:52Z</time></trkpt><trkpt lat="46.11716545393725" lon="1.3709797419891687"><ele>298.0</ele><time>2026-03-28T14:48:53Z</time></trkpt><trkpt lat="46.11725988797984" lon="1.370886918597607"><ele>298.0</ele><time>2026-03-28T14:48:54Z</time></trkpt><trkpt lat="46.11737731412116" lon="1.3708450787965205"><ele>298.0</ele><time>2026-03-28T14:48:55Z</time></trkpt><trkpt lat="46.11749800119589" lon="1.3708513929918045"><ele>298.0</ele><time>2026-03-28T14:48:56Z</time></trkpt><trkpt lat="46.11760113550076" lon="1.3709265736942924"><ele>298.0</ele><time>2026-03-28T14:48:57Z</time></trkpt><trkpt lat="46.11766380643522" lon="1.3709535973688995"><ele>298.0</ele><time>2026-03-28T14:48:58Z</time></trkpt><trkpt lat="46.11771786485442" lon="1.3710066850539047"><ele>299.0</ele><time>2026-03-28T14:48:59Z</time></trkpt><trkpt lat="46.11778626367013" lon="1.3710249093383253"><ele>300.0</ele><time>2026-03-28T14:49:00Z</time></trkpt><trkpt lat="46.11786504380264" lon="1.3710958505030417"><ele>301.0</ele><time>2026-03-28T14:49:01Z</time></trkpt><trkpt lat="46.11795514522085" lon="1.3711522471441093"><ele>302.0</ele><time>2026-03-28T14:49:02Z</time></trkpt><trkpt lat="46.11805617271334" lon="1.3712062519140757"><ele>303.0</ele><time>2026-03-28T14:49:03Z</time></trkpt><trkpt lat="46.11815585792225" lon="1.37126499314492"><ele>303.4</ele><time>2026-03-28T14:49:04Z</time></trkpt><trkpt lat="46.11825268131933" lon="1.3713248638823323"><ele>303.8</ele><time>2026-03-28T14:49:05Z</time></trkpt><trkpt lat="46.118340107454365" lon="1.3713994378686138"><ele>304.2</ele><time>2026-03-28T14:49:06Z</time></trkpt><trkpt lat="46.11843423321077" lon="1.3714764275784115"><ele>304.6</ele><time>2026-03-28T14:49:07Z</time></trkpt><trkpt lat="46.1185293370459" lon="1.3715264381245322"><ele>305.0</ele><time>2026-03-28T14:49:08Z</time></trkpt><trkpt lat="46.11861937480901" lon="1.3715625466048746"><ele>305.0</ele><time>2026-03-28T14:49:09Z</time></trkpt><trkpt lat="46.11869009822216" lon="1.3716013295758251"><ele>305.0</ele><time>2026-03-28T14:49:10Z</time></trkpt><trkpt lat="46.11877695370162" lon="1.3716545882842675"><ele>305.0</ele><time>2026-03-28T14:49:11Z</time></trkpt><trkpt lat="46.118844804412745" lon="1.371706962357269"><ele>305.0</ele><time>2026-03-28T14:49:12Z</time></trkpt><trkpt lat="46.118910916627925" lon="1.3717361581095662"><ele>305.0</ele><time>2026-03-28T14:49:13Z</time></trkpt><trkpt lat="46.118970654528034" lon="1.371772557715408"><ele>305.0</ele><time>2026-03-28T14:49:14Z</time></trkpt><trkpt lat="46.119067415702325" lon="1.3717937715423325"><ele>305.75</ele><time>2026-03-28T14:49:16Z</time></trkpt><trkpt lat="46.119128969628605" lon="1.3718128996326433"><ele>306.5</ele><time>2026-03-28T14:49:17Z</time></trkpt><trkpt lat="46.1191718837522" lon="1.3720994057538891"><ele>307.25</ele><time>2026-03-28T14:49:19Z</time></trkpt><trkpt lat="46.11923407359841" lon="1.3720741732533137"><ele>308.0</ele><time>2026-03-28T14:49:21Z</time></trkpt><trkpt lat="46.11933177151378" lon="1.3716618535756104"><ele>308.0</ele><time>2026-03-28T14:49:22Z</time></trkpt><trkpt lat="46.11935232420513" lon="1.3715727661419423"><ele>308.0</ele><time>2026-03-28T14:49:23Z</time></trkpt><trkpt lat="46.1193666421731" lon="1.371446879994031"><ele>308.0</ele><time>2026-03-28T14:49:24Z</time></trkpt><trkpt lat="46.1194082677411" lon="1.3712991509811001"><ele>308.0</ele><time>2026-03-28T14:49:25Z</time></trkpt><trkpt lat="46.11945341396663" lon="1.3711277249890343"><ele>308.0</ele><time>2026-03-28T14:49:26Z</time></trkpt><trkpt lat="46.119495433362545" lon="1.3709391635440882"><ele>307.5</ele><time>2026-03-28T14:49:27Z</time></trkpt><trkpt lat="46.11954913632171" lon="1.3707461619405152"><ele>307.0</ele><time>2026-03-28T14:49:28Z</time></trkpt><trkpt lat="46.119594625212436" lon="1.3705406078610018"><ele>306.5</ele><time>2026-03-28T14:49:29Z</time></trkpt><trkpt lat="46.11964056444542" lon="1.370331261457357"><ele>306.0</ele><time>2026-03-28T14:49:30Z</time></trkpt><trkpt lat="46.11970330229966" lon="1.3701309980377232"><ele>306.0</ele><time>2026-03-28T14:49:31Z</time></trkpt><trkpt lat="46.11975660721605" lon="1.3699129370833998"><ele>306.0</ele><time>2026-03-28T14:49:32Z</time></trkpt><trkpt lat="46.11980764115941" lon="1.3697041662744478"><ele>306.0</ele><time>2026-03-28T14:49:33Z</time></trkpt><trkpt lat="46.11985930503039" lon="1.369492818516466"><ele>307.6666666666667</ele><time>2026-03-28T14:49:34Z</time></trkpt><trkpt lat="46.11990978583645" lon="1.3692816805041754"><ele>309.33333333333337</ele><time>2026-03-28T14:49:35Z</time></trkpt><trkpt lat="46.11995816631934" lon="1.369077167697579"><ele>311.0</ele><time>2026-03-28T14:49:35.999Z</time></trkpt><trkpt lat="46.120005136009745" lon="1.3688660462209805"><ele>311.6666666666667</ele><time>2026-03-28T14:49:36.999Z</time></trkpt><trkpt lat="46.12004243168642" lon="1.3686521769674018"><ele>312.3333333333333</ele><time>2026-03-28T14:49:37.999Z</time></trkpt><trkpt lat="46.12005903218416" lon="1.3684254937324725"><ele>313.0</ele><time>2026-03-28T14:49:38.999Z</time></trkpt><trkpt lat="46.1200651182494" lon="1.3681929902036372"><ele>312.75</ele><time>2026-03-28T14:49:39.999Z</time></trkpt><trkpt lat="46.12005366642463" lon="1.3679772188369412"><ele>312.5</ele><time>2026-03-28T14:49:40.999Z</time></trkpt><trkpt lat="46.12006860723217" lon="1.367771025984118"><ele>312.25</ele><time>2026-03-28T14:49:41.999Z</time></trkpt><trkpt lat="46.12007681320391" lon="1.3675825595953868"><ele>312.0</ele><time>2026-03-28T14:49:42.999Z</time></trkpt><trkpt lat="46.12008476568738" lon="1.3674066305136487"><ele>312.0</ele><time>2026-03-28T14:49:43.999Z</time></trkpt><trkpt lat="46.12008361928731" lon="1.3672245909498535"><ele>312.0</ele><time>2026-03-28T14:49:44.999Z</time></trkpt><trkpt lat="46.12008518907308" lon="1.3670527705744753"><ele>312.0</ele><time>2026-03-28T14:49:45.999Z</time></trkpt><trkpt lat="46.12008923429798" lon="1.3668890616160678"><ele>312.0</ele><time>2026-03-28T14:49:46.999Z</time></trkpt><trkpt lat="46.12008906167941" lon="1.3667341488485394"><ele>311.8</ele><time>2026-03-28T14:49:47.999Z</time></trkpt><trkpt lat="46.12009098094205" lon="1.3665816125255412"><ele>311.6</ele><time>2026-03-28T14:49:48.999Z</time></trkpt><trkpt lat="46.12009296498327" lon="1.3664274706044386"><ele>311.40000000000003</ele><time>2026-03-28T14:49:49.999Z</time></trkpt><trkpt lat="46.12008403232113" lon="1.3662659667899888"><ele>311.2</ele><time>2026-03-28T14:49:50.999Z</time></trkpt><trkpt lat="46.120082774152905" lon="1.3661149237547945"><ele>311.0</ele><time>2026-03-28T14:49:51.999Z</time></trkpt><trkpt lat="46.120083424664394" lon="1.3659667440293668"><ele>310.40000000000003</ele><time>2026-03-28T14:49:52.999Z</time></trkpt><trkpt lat="46.12008780698179" lon="1.3658088107982245"><ele>309.8</ele><time>2026-03-28T14:49:53.999Z</time></trkpt><trkpt lat="46.12008928388933" lon="1.3656559619305717"><ele>309.20000000000005</ele><time>2026-03-28T14:49:54.999Z</time></trkpt><trkpt lat="46.12008672177004" lon="1.3655027393689927"><ele>308.6</ele><time>2026-03-28T14:49:55.999Z</time></trkpt><trkpt lat="46.120080742909195" lon="1.3653492704772923"><ele>308.0</ele><time>2026-03-28T14:49:56.999Z</time></trkpt><trkpt lat="46.12007144106922" lon="1.3651943048488093"><ele>307.5</ele><time>2026-03-28T14:49:57.999Z</time></trkpt><trkpt lat="46.120083469025325" lon="1.3650430314336832"><ele>307.0</ele><time>2026-03-28T14:49:58.999Z</time></trkpt><trkpt lat="46.120078397539544" lon="1.3648795560640938"><ele>306.5</ele><time>2026-03-28T14:49:59.999Z</time></trkpt><trkpt lat="46.120073058299646" lon="1.3647137170934"><ele>306.0</ele><time>2026-03-28T14:50:00.999Z</time></trkpt><trkpt lat="46.12006723346921" lon="1.3645195436043507"><ele>306.0</ele><time>2026-03-28T14:50:01.999Z</time></trkpt><trkpt lat="46.12006237317984" lon="1.3643039709244398"><ele>306.0</ele><time>2026-03-28T14:50:02.999Z</time></trkpt><trkpt lat="46.12002341282483" lon="1.3640638883133578"><ele>306.0</ele><time>2026-03-28T14:50:03.999Z</time></trkpt><trkpt lat="46.12002559840993" lon="1.3638037363416333"><ele>306.6666666666667</ele><time>2026-03-28T14:50:04.999Z</time></trkpt><trkpt lat="46.120029247105165" lon="1.3635249032653267"><ele>307.33333333333337</ele><time>2026-03-28T14:50:05.999Z</time></trkpt><trkpt lat="46.120002010559496" lon="1.363235366414232"><ele>308.0</ele><time>2026-03-28T14:50:06.999Z</time></trkpt><trkpt lat="46.120004051574846" lon="1.362944725785828"><ele>308.6666666666667</ele><time>2026-03-28T14:50:07.999Z</time></trkpt><trkpt lat="46.12001418697504" lon="1.3626581665913424"><ele>309.3333333333333</ele><time>2026-03-28T14:50:08.999Z</time></trkpt><trkpt lat="46.12000957171997" lon="1.3623600332821124"><ele>310.0</ele><time>2026-03-28T14:50:09.999Z</time></trkpt><trkpt lat="46.12000307253368" lon="1.3620751031813771"><ele>310.0</ele><time>2026-03-28T14:50:10.999Z</time></trkpt><trkpt lat="46.11999619889199" lon="1.361797297168213"><ele>310.0</ele><time>2026-03-28T14:50:11.999Z</time></trkpt><trkpt lat="46.11999042206394" lon="1.3615276424808074"><ele>310.0</ele><time>2026-03-28T14:50:12.999Z</time></trkpt><trkpt lat="46.119983449791704" lon="1.3612605381170597"><ele>310.0</ele><time>2026-03-28T14:50:13.999Z</time></trkpt><trkpt lat="46.119975183254816" lon="1.3609919469916372"><ele>310.0</ele><time>2026-03-28T14:50:14.999Z</time></trkpt><trkpt lat="46.11996701501174" lon="1.3607265495173586"><ele>310.0</ele><time>2026-03-28T14:50:15.999Z</time></trkpt><trkpt lat="46.11995958829084" lon="1.3604701399738015"><ele>309.0</ele><time>2026-03-28T14:50:16.999Z</time></trkpt><trkpt lat="46.11995246932606" lon="1.3602190658455782"><ele>308.0</ele><time>2026-03-28T14:50:17.999Z</time></trkpt><trkpt lat="46.119945623128245" lon="1.359977612245932"><ele>307.0</ele><time>2026-03-28T14:50:18.999Z</time></trkpt><trkpt lat="46.119940623963956" lon="1.3597398350911447"><ele>306.0</ele><time>2026-03-28T14:50:19.999Z</time></trkpt><trkpt lat="46.11993615718088" lon="1.3595120692555467"><ele>305.0</ele><time>2026-03-28T14:50:20.999Z</time></trkpt><trkpt lat="46.11993128811826" lon="1.3592917335122736"><ele>304.0</ele><time>2026-03-28T14:50:21.999Z</time></trkpt><trkpt lat="46.1199246448499" lon="1.359077397320467"><ele>302.66666666666663</ele><time>2026-03-28T14:50:22.999Z</time></trkpt><trkpt lat="46.119903133246964" lon="1.358860866892075"><ele>301.3333333333333</ele><time>2026-03-28T14:50:23.999Z</time></trkpt><trkpt lat="46.11985665544696" lon="1.3586499146468731"><ele>300.0</ele><time>2026-03-28T14:50:24.999Z</time></trkpt><trkpt lat="46.11979330873709" lon="1.3584486321173508"><ele>297.75</ele><time>2026-03-28T14:50:25.999Z</time></trkpt><trkpt lat="46.11973140283214" lon="1.3582586450498257"><ele>295.5</ele><time>2026-03-28T14:50:26.999Z</time></trkpt><trkpt lat="46.11967292059595" lon="1.3580690031836056"><ele>293.25</ele><time>2026-03-28T14:50:27.999Z</time></trkpt><trkpt lat="46.11960832273785" lon="1.3578965017153688"><ele>291.0</ele><time>2026-03-28T14:50:28.999Z</time></trkpt><trkpt lat="46.119597350523925" lon="1.357716605001588"><ele>290.75</ele><time>2026-03-28T14:50:29.999Z</time></trkpt><trkpt lat="46.11960286412381" lon="1.3575486142077395"><ele>290.5</ele><time>2026-03-28T14:50:30.999Z</time></trkpt><trkpt lat="46.119629771049546" lon="1.3573861725885799"><ele>290.25</ele><time>2026-03-28T14:50:31.999Z</time></trkpt><trkpt lat="46.11968518205984" lon="1.3572394472426212"><ele>290.0</ele><time>2026-03-28T14:50:32.999Z</time></trkpt><trkpt lat="46.11976285681827" lon="1.3570940032610486"><ele>289.5</ele><time>2026-03-28T14:50:33.999Z</time></trkpt><trkpt lat="46.11985256677669" lon="1.3569432205318679"><ele>289.0</ele><time>2026-03-28T14:50:34.999Z</time></trkpt><trkpt lat="46.119952746788734" lon="1.3567817906627808"><ele>288.5</ele><time>2026-03-28T14:50:35.999Z</time></trkpt><trkpt lat="46.1200498616796" lon="1.3566095893556378"><ele>288.0</ele><time>2026-03-28T14:50:36.999Z</time></trkpt><trkpt lat="46.120178628686055" lon="1.3564667974570506"><ele>287.25</ele><time>2026-03-28T14:50:37.999Z</time></trkpt><trkpt lat="46.12028958596818" lon="1.3563171627999713"><ele>286.5</ele><time>2026-03-28T14:50:38.999Z</time></trkpt><trkpt lat="46.12040655741719" lon="1.3561779304948074"><ele>285.75</ele><time>2026-03-28T14:50:39.999Z</time></trkpt><trkpt lat="46.12051695324218" lon="1.356083722417011"><ele>285.0</ele><time>2026-03-28T14:50:40.999Z</time></trkpt><trkpt lat="46.12065251049742" lon="1.3559865922670378"><ele>285.75</ele><time>2026-03-28T14:50:41.998Z</time></trkpt><trkpt lat="46.12077657334517" lon="1.3558617365999914"><ele>286.5</ele><time>2026-03-28T14:50:42.998Z</time></trkpt><trkpt lat="46.120842261806395" lon="1.3557462072183928"><ele>287.25</ele><time>2026-03-28T14:50:43.998Z</time></trkpt><trkpt lat="46.1209113844467" lon="1.3556131740514166"><ele>288.0</ele><time>2026-03-28T14:50:44.998Z</time></trkpt><trkpt lat="46.12094892683121" lon="1.3554301194362355"><ele>288.0</ele><time>2026-03-28T14:50:45.998Z</time></trkpt><trkpt lat="46.1209817994211" lon="1.3552233100747113"><ele>288.0</ele><time>2026-03-28T14:50:46.998Z</time></trkpt><trkpt lat="46.1209998610853" lon="1.3550244809797962"><ele>288.0</ele><time>2026-03-28T14:50:47.998Z</time></trkpt><trkpt lat="46.12102920855143" lon="1.3548349189345799"><ele>288.0</ele><time>2026-03-28T14:50:48.998Z</time></trkpt><trkpt lat="46.12109171900184" lon="1.3547202790044772"><ele>288.0</ele><time>2026-03-28T14:50:49.998Z</time></trkpt><trkpt lat="46.121167781296045" lon="1.3546682245903219"><ele>288.0</ele><time>2026-03-28T14:50:50.998Z</time></trkpt><trkpt lat="46.12125331420946" lon="1.3547093501170988"><ele>288.0</ele><time>2026-03-28T14:50:51.998Z</time></trkpt><trkpt lat="46.121380314030766" lon="1.3547141139908827"><ele>288.0</ele><time>2026-03-28T14:50:52.998Z</time></trkpt><trkpt lat="46.12151497541665" lon="1.3546945721759895"><ele>288.0</ele><time>2026-03-28T14:50:53.998Z</time></trkpt><trkpt lat="46.121628390556374" lon="1.354701797032205"><ele>290.0</ele><time>2026-03-28T14:50:54.998Z</time></trkpt><trkpt lat="46.12168204889883" lon="1.354958152025876"><ele>292.0</ele><time>2026-03-28T14:50:55.998Z</time></trkpt><trkpt lat="46.12181151373079" lon="1.3550703242845754"><ele>294.0</ele><time>2026-03-28T14:50:57Z</time></trkpt><trkpt lat="46.121921010373796" lon="1.355136894149375"><ele>294.0</ele><time>2026-03-28T14:50:58Z</time></trkpt><trkpt lat="46.12204288789295" lon="1.3552054326731362"><ele>294.0</ele><time>2026-03-28T14:50:59Z</time></trkpt><trkpt lat="46.12216965647173" lon="1.3552737062360953"><ele>294.0</ele><time>2026-03-28T14:51:00Z</time></trkpt><trkpt lat="46.12230810952323" lon="1.3553452415043332"><ele>294.0</ele><time>2026-03-28T14:51:01Z</time></trkpt><trkpt lat="46.12245380406822" lon="1.3554168311988746"><ele>295.5</ele><time>2026-03-28T14:51:02Z</time></trkpt><trkpt lat="46.12259320114776" lon="1.3554700153151995"><ele>297.0</ele><time>2026-03-28T14:51:03Z</time></trkpt><trkpt lat="46.12271393494297" lon="1.3555363506049907"><ele>298.5</ele><time>2026-03-28T14:51:04Z</time></trkpt><trkpt lat="46.12283724934452" lon="1.3555828283191285"><ele>300.0</ele><time>2026-03-28T14:51:05Z</time></trkpt><trkpt lat="46.122955499267505" lon="1.3556238392454036"><ele>300.0</ele><time>2026-03-28T14:51:06Z</time></trkpt><trkpt lat="46.123060719034406" lon="1.3556652025487443"><ele>300.0</ele><time>2026-03-28T14:51:07Z</time></trkpt><trkpt lat="46.12315894410657" lon="1.3556993186153206"><ele>300.0</ele><time>2026-03-28T14:51:08Z</time></trkpt><trkpt lat="46.123245371909086" lon="1.3557443773755176"><ele>300.0</ele><time>2026-03-28T14:51:09Z</time></trkpt><trkpt lat="46.12333263614273" lon="1.3558132584174927"><ele>300.0</ele><time>2026-03-28T14:51:10Z</time></trkpt><trkpt lat="46.123430990104644" lon="1.3558519393239914"><ele>301.2</ele><time>2026-03-28T14:51:11Z</time></trkpt><trkpt lat="46.123527687036415" lon="1.3559160293211758"><ele>302.4</ele><time>2026-03-28T14:51:12Z</time></trkpt><trkpt lat="46.123636906072385" lon="1.3559479366496592"><ele>303.6</ele><time>2026-03-28T14:51:13Z</time></trkpt><trkpt lat="46.12372356039879" lon="1.355999176246189"><ele>304.8</ele><time>2026-03-28T14:51:14Z</time></trkpt><trkpt lat="46.12379513034596" lon="1.3560615644634366"><ele>306.0</ele><time>2026-03-28T14:51:15Z</time></trkpt><trkpt lat="46.123859908994426" lon="1.356102737501039"><ele>306.0</ele><time>2026-03-28T14:51:16Z</time></trkpt><trkpt lat="46.123934587938585" lon="1.3561458724944955"><ele>306.0</ele><time>2026-03-28T14:51:17Z</time></trkpt><trkpt lat="46.12401398307157" lon="1.356207149517378"><ele>306.0</ele><time>2026-03-28T14:51:18Z</time></trkpt><trkpt lat="46.124096108818456" lon="1.3562571732972843"><ele>306.0</ele><time>2026-03-28T14:51:19Z</time></trkpt><trkpt lat="46.1242007305865" lon="1.3562864606402705"><ele>306.0</ele><time>2026-03-28T14:51:20Z</time></trkpt><trkpt lat="46.12429136420451" lon="1.3563473242717594"><ele>307.2</ele><time>2026-03-28T14:51:21Z</time></trkpt><trkpt lat="46.124398173826364" lon="1.3563652567109252"><ele>308.40000000000003</ele><time>2026-03-28T14:51:22Z</time></trkpt><trkpt lat="46.124513470810335" lon="1.356434933721372"><ele>309.6</ele><time>2026-03-28T14:51:23Z</time></trkpt><trkpt lat="46.1246071482043" lon="1.3564733987837765"><ele>310.8</ele><time>2026-03-28T14:51:24Z</time></trkpt><trkpt lat="46.12470739888835" lon="1.356516344857272"><ele>312.0</ele><time>2026-03-28T14:51:25Z</time></trkpt><trkpt lat="46.124793338281556" lon="1.3565577601865937"><ele>313.5</ele><time>2026-03-28T14:51:26Z</time></trkpt><trkpt lat="46.12491352629192" lon="1.3566160256566873"><ele>315.0</ele><time>2026-03-28T14:51:27Z</time></trkpt><trkpt lat="46.12502437152123" lon="1.35666167515848"><ele>316.5</ele><time>2026-03-28T14:51:28Z</time></trkpt><trkpt lat="46.1251347273419" lon="1.3567157554577245"><ele>318.0</ele><time>2026-03-28T14:51:29Z</time></trkpt><trkpt lat="46.12525101042804" lon="1.3567830886636858"><ele>318.0</ele><time>2026-03-28T14:51:30Z</time></trkpt><trkpt lat="46.125383564010484" lon="1.356803069889508"><ele>318.0</ele><time>2026-03-28T14:51:31Z</time></trkpt><trkpt lat="46.125509399679444" lon="1.3568509110424656"><ele>318.0</ele><time>2026-03-28T14:51:32Z</time></trkpt><trkpt lat="46.12565155630203" lon="1.3568839107904545"><ele>318.0</ele><time>2026-03-28T14:51:33Z</time></trkpt><trkpt lat="46.12579951435704" lon="1.3569194215317926"><ele>319.25</ele><time>2026-03-28T14:51:34Z</time></trkpt><trkpt lat="46.12594192707899" lon="1.3569440723430108"><ele>320.5</ele><time>2026-03-28T14:51:35Z</time></trkpt><trkpt lat="46.12608697533924" lon="1.3569569080293682"><ele>321.75</ele><time>2026-03-28T14:51:36Z</time></trkpt><trkpt lat="46.126234400074274" lon="1.3569689497166288"><ele>323.0</ele><time>2026-03-28T14:51:37Z</time></trkpt><trkpt lat="46.1263811204607" lon="1.3570188027795833"><ele>323.0</ele><time>2026-03-28T14:51:38Z</time></trkpt><trkpt lat="46.12652061632821" lon="1.3570833893939236"><ele>323.0</ele><time>2026-03-28T14:51:39Z</time></trkpt><trkpt lat="46.126666321654625" lon="1.3571585889320652"><ele>323.0</ele><time>2026-03-28T14:51:40Z</time></trkpt><trkpt lat="46.12679074587058" lon="1.3572435105128247"><ele>323.0</ele><time>2026-03-28T14:51:41Z</time></trkpt><trkpt lat="46.12690120694315" lon="1.3573409474598486"><ele>324.75</ele><time>2026-03-28T14:51:42Z</time></trkpt><trkpt lat="46.12701095856408" lon="1.3574789463325985"><ele>326.5</ele><time>2026-03-28T14:51:43Z</time></trkpt><trkpt lat="46.12712985910215" lon="1.3576014688503817"><ele>328.25</ele><time>2026-03-28T14:51:44Z</time></trkpt><trkpt lat="46.127229617041344" lon="1.3577270835953088"><ele>330.0</ele><time>2026-03-28T14:51:45Z</time></trkpt><trkpt lat="46.12734419429394" lon="1.3578838620469282"><ele>330.25</ele><time>2026-03-28T14:51:46Z</time></trkpt><trkpt lat="46.12745132222029" lon="1.3580173918134744"><ele>330.5</ele><time>2026-03-28T14:51:47Z</time></trkpt><trkpt lat="46.127557858899124" lon="1.3581515437882408"><ele>330.75</ele><time>2026-03-28T14:51:48Z</time></trkpt><trkpt lat="46.1276515153891" lon="1.3582662332913766"><ele>331.0</ele><time>2026-03-28T14:51:49Z</time></trkpt><trkpt lat="46.12775702431642" lon="1.3584012541782746"><ele>331.0</ele><time>2026-03-28T14:51:50Z</time></trkpt><trkpt lat="46.12786349320707" lon="1.3585347739697438"><ele>331.0</ele><time>2026-03-28T14:51:51Z</time></trkpt><trkpt lat="46.127966342856475" lon="1.3586555611112503"><ele>331.0</ele><time>2026-03-28T14:51:51.999Z</time></trkpt><trkpt lat="46.12808396144057" lon="1.3587728484544208"><ele>331.0</ele><time>2026-03-28T14:51:52.999Z</time></trkpt><trkpt lat="46.12820815920164" lon="1.35888545501104"><ele>332.66666666666663</ele><time>2026-03-28T14:51:53.999Z</time></trkpt><trkpt lat="46.128331909963485" lon="1.3589601345322937"><ele>334.3333333333333</ele><time>2026-03-28T14:51:54.999Z</time></trkpt><trkpt lat="46.128499079504095" lon="1.359038165807157"><ele>336.0</ele><time>2026-03-28T14:51:55.999Z</time></trkpt><trkpt lat="46.12866297185829" lon="1.359089303745538"><ele>336.0</ele><time>2026-03-28T14:51:56.999Z</time></trkpt><trkpt lat="46.12883756227706" lon="1.3591324712331807"><ele>336.0</ele><time>2026-03-28T14:51:57.999Z</time></trkpt><trkpt lat="46.129023578262945" lon="1.35915278036849"><ele>336.0</ele><time>2026-03-28T14:51:58.999Z</time></trkpt><trkpt lat="46.12920216006182" lon="1.3591706142478885"><ele>337.0</ele><time>2026-03-28T14:51:59.999Z</time></trkpt><trkpt lat="46.12938110649366" lon="1.3591998908002891"><ele>338.0</ele><time>2026-03-28T14:52:00.999Z</time></trkpt><trkpt lat="46.12956546811467" lon="1.3592019116991954"><ele>339.0</ele><time>2026-03-28T14:52:01.999Z</time></trkpt><trkpt lat="46.129749730113794" lon="1.3591755960066312"><ele>340.0</ele><time>2026-03-28T14:52:02.999Z</time></trkpt><trkpt lat="46.12993059872755" lon="1.3591736243811485"><ele>341.0</ele><time>2026-03-28T14:52:03.999Z</time></trkpt><trkpt lat="46.13009517567996" lon="1.3591771917020468"><ele>342.0</ele><time>2026-03-28T14:52:04.999Z</time></trkpt><trkpt lat="46.13023291420347" lon="1.359186163883435"><ele>342.0</ele><time>2026-03-28T14:52:05.999Z</time></trkpt><trkpt lat="46.13033767329423" lon="1.3592593847190997"><ele>342.0</ele><time>2026-03-28T14:52:06.999Z</time></trkpt><trkpt lat="46.13044500374531" lon="1.3593505402581556"><ele>342.0</ele><time>2026-03-28T14:52:07.999Z</time></trkpt><trkpt lat="46.13057728064709" lon="1.3594530507732914"><ele>342.0</ele><time>2026-03-28T14:52:08.999Z</time></trkpt><trkpt lat="46.1307040264378" lon="1.3595759152453495"><ele>342.25</ele><time>2026-03-28T14:52:09.999Z</time></trkpt><trkpt lat="46.13082837600472" lon="1.359674474487368"><ele>342.5</ele><time>2026-03-28T14:52:10.999Z</time></trkpt><trkpt lat="46.1309042411864" lon="1.359803442916339"><ele>342.75</ele><time>2026-03-28T14:52:11.999Z</time></trkpt><trkpt lat="46.13094814551362" lon="1.3599386479965914"><ele>343.0</ele><time>2026-03-28T14:52:12.999Z</time></trkpt><trkpt lat="46.13093299670342" lon="1.3600882894502389"><ele>343.4</ele><time>2026-03-28T14:52:13.999Z</time></trkpt><trkpt lat="46.130955223124424" lon="1.36022606319021"><ele>343.79999999999995</ele><time>2026-03-28T14:52:14.999Z</time></trkpt><trkpt lat="46.13099319877661" lon="1.3603316759284712"><ele>344.2</ele><time>2026-03-28T14:52:15.999Z</time></trkpt><trkpt lat="46.131095735668566" lon="1.3603998219181233"><ele>344.6</ele><time>2026-03-28T14:52:16.999Z</time></trkpt><trkpt lat="46.131215049894024" lon="1.3604483123111608"><ele>345.0</ele><time>2026-03-28T14:52:17.999Z</time></trkpt><trkpt lat="46.13130644938647" lon="1.3605218346291215"><ele>346.0</ele><time>2026-03-28T14:52:18.999Z</time></trkpt><trkpt lat="46.13144561792673" lon="1.3605781611046575"><ele>347.0</ele><time>2026-03-28T14:52:19.999Z</time></trkpt><trkpt lat="46.13158211083161" lon="1.360674466284276"><ele>348.0</ele><time>2026-03-28T14:52:20.999Z</time></trkpt><trkpt lat="46.13173484213558" lon="1.360751319315898"><ele>348.0</ele><time>2026-03-28T14:52:21.999Z</time></trkpt><trkpt lat="46.13188751262853" lon="1.3608404216889594"><ele>348.0</ele><time>2026-03-28T14:52:22.999Z</time></trkpt><trkpt lat="46.13204654351641" lon="1.3609227005435416"><ele>348.0</ele><time>2026-03-28T14:52:23.999Z</time></trkpt><trkpt lat="46.13218282647095" lon="1.361010448699932"><ele>348.0</ele><time>2026-03-28T14:52:24.999Z</time></trkpt><trkpt lat="46.13231278024925" lon="1.361051784994946"><ele>348.0</ele><time>2026-03-28T14:52:25.999Z</time></trkpt><trkpt lat="46.132410864232945" lon="1.361073605979529"><ele>348.0</ele><time>2026-03-28T14:52:26.999Z</time></trkpt><trkpt lat="46.13247909329772" lon="1.3611185887534747"><ele>348.0</ele><time>2026-03-28T14:52:27.999Z</time></trkpt><trkpt lat="46.1325604096346" lon="1.3611689246897607"><ele>348.0</ele><time>2026-03-28T14:52:43.999Z</time></trkpt><trkpt lat="46.13255271027894" lon="1.361329579309714"><ele>347.79999999999995</ele><time>2026-03-28T14:52:44.999Z</time></trkpt><trkpt lat="46.132539117267584" lon="1.3614551980093204"><ele>347.6</ele><time>2026-03-28T14:52:45.999Z</time></trkpt><trkpt lat="46.13252635160575" lon="1.3615974509610544"><ele>347.4</ele><time>2026-03-28T14:52:46.999Z</time></trkpt><trkpt lat="46.13251760307117" lon="1.3617444122307345"><ele>347.20000000000005</ele><time>2026-03-28T14:52:47.999Z</time></trkpt><trkpt lat="46.13251596277553" lon="1.3619102321580907"><ele>347.0</ele><time>2026-03-28T14:52:48.999Z</time></trkpt><trkpt lat="46.13250820764827" lon="1.3620661102643348"><ele>347.8</ele><time>2026-03-28T14:52:49.999Z</time></trkpt><trkpt lat="46.13251289297096" lon="1.3622075646443337"><ele>348.6</ele><time>2026-03-28T14:52:50.999Z</time></trkpt><trkpt lat="46.132506149520154" lon="1.3623451522812111"><ele>349.40000000000003</ele><time>2026-03-28T14:52:51.999Z</time></trkpt><trkpt lat="46.132499468220146" lon="1.3624781210034298"><ele>350.20000000000005</ele><time>2026-03-28T14:52:52.999Z</time></trkpt><trkpt lat="46.13248453640888" lon="1.3626015767720634"><ele>351.0</ele><time>2026-03-28T14:52:53.998Z</time></trkpt><trkpt lat="46.132448152376355" lon="1.3627322376356348"><ele>351.0</ele><time>2026-03-28T14:52:54.998Z</time></trkpt><trkpt lat="46.132397500144656" lon="1.3627970823188618"><ele>351.0</ele><time>2026-03-28T14:52:55.998Z</time></trkpt><trkpt lat="46.132400099158474" lon="1.3629519921958475"><ele>351.0</ele><time>2026-03-28T14:52:56.998Z</time></trkpt><trkpt lat="46.132418577123126" lon="1.3630737558406716"><ele>351.0</ele><time>2026-03-28T14:52:57.998Z</time></trkpt><trkpt lat="46.13246210522258" lon="1.3632112238879528"><ele>351.0</ele><time>2026-03-28T14:52:58.998Z</time></trkpt><trkpt lat="46.132454991248714" lon="1.3633526648863836"><ele>351.25</ele><time>2026-03-28T14:52:59.998Z</time></trkpt><trkpt lat="46.13244666667948" lon="1.3634984071303486"><ele>351.5</ele><time>2026-03-28T14:53:00.998Z</time></trkpt><trkpt lat="46.13240283922325" lon="1.3636537719684327"><ele>351.75</ele><time>2026-03-28T14:53:01.998Z</time></trkpt><trkpt lat="46.13238399521412" lon="1.3638165184875277"><ele>352.0</ele><time>2026-03-28T14:53:03Z</time></trkpt><trkpt lat="46.13236553109579" lon="1.3639863758229929"><ele>353.25</ele><time>2026-03-28T14:53:04Z</time></trkpt><trkpt lat="46.132351527331544" lon="1.3641619580499609"><ele>354.5</ele><time>2026-03-28T14:53:05Z</time></trkpt><trkpt lat="46.132342851043774" lon="1.3643421042588237"><ele>355.75</ele><time>2026-03-28T14:53:06Z</time></trkpt><trkpt lat="46.132327538412746" lon="1.364526329551706"><ele>357.0</ele><time>2026-03-28T14:53:07Z</time></trkpt><trkpt lat="46.13232536207107" lon="1.3647124291448312"><ele>357.75</ele><time>2026-03-28T14:53:08Z</time></trkpt><trkpt lat="46.13231588236716" lon="1.364889950186788"><ele>358.5</ele><time>2026-03-28T14:53:09Z</time></trkpt><trkpt lat="46.13229383107354" lon="1.3650933866527277"><ele>359.25</ele><time>2026-03-28T14:53:10Z</time></trkpt><trkpt lat="46.132275235555284" lon="1.365283574919055"><ele>360.0</ele><time>2026-03-28T14:53:11Z</time></trkpt><trkpt lat="46.13226098453359" lon="1.365476127324863"><ele>360.0</ele><time>2026-03-28T14:53:12Z</time></trkpt><trkpt lat="46.132252505218375" lon="1.3656759932937703"><ele>360.0</ele><time>2026-03-28T14:53:13Z</time></trkpt><trkpt lat="46.13224281147986" lon="1.3658693140848053"><ele>360.0</ele><time>2026-03-28T14:53:14Z</time></trkpt><trkpt lat="46.132227720937635" lon="1.366065760989076"><ele>360.0</ele><time>2026-03-28T14:53:15Z</time></trkpt><trkpt lat="46.13221343943758" lon="1.3662645714814063"><ele>360.0</ele><time>2026-03-28T14:53:16Z</time></trkpt><trkpt lat="46.132196720731564" lon="1.3664624951222448"><ele>360.0</ele><time>2026-03-28T14:53:17Z</time></trkpt><trkpt lat="46.13218179972229" lon="1.3666579397794658"><ele>360.0</ele><time>2026-03-28T14:53:18Z</time></trkpt><trkpt lat="46.13217346809658" lon="1.3668369781535237"><ele>360.0</ele><time>2026-03-28T14:53:19Z</time></trkpt><trkpt lat="46.13215117722919" lon="1.3670442246088341"><ele>360.5</ele><time>2026-03-28T14:53:20Z</time></trkpt><trkpt lat="46.13214811457386" lon="1.3672654427421749"><ele>361.0</ele><time>2026-03-28T14:53:21Z</time></trkpt><trkpt lat="46.13213725136637" lon="1.3674761709746928"><ele>361.5</ele><time>2026-03-28T14:53:22Z</time></trkpt><trkpt lat="46.132114152432166" lon="1.3676750866923346"><ele>362.0</ele><time>2026-03-28T14:53:23Z</time></trkpt><trkpt lat="46.13210030769328" lon="1.3678725949427886"><ele>363.0</ele><time>2026-03-28T14:53:24Z</time></trkpt><trkpt lat="46.1320859726225" lon="1.3680778435180898"><ele>364.0</ele><time>2026-03-28T14:53:25Z</time></trkpt><trkpt lat="46.13207225555579" lon="1.3682816157236453"><ele>365.0</ele><time>2026-03-28T14:53:26Z</time></trkpt><trkpt lat="46.13206210265657" lon="1.3684828856374132"><ele>366.0</ele><time>2026-03-28T14:53:27Z</time></trkpt><trkpt lat="46.13205121914723" lon="1.368683689397474"><ele>366.5</ele><time>2026-03-28T14:53:28Z</time></trkpt><trkpt lat="46.13203289302823" lon="1.3688881118208074"><ele>367.0</ele><time>2026-03-28T14:53:29Z</time></trkpt><trkpt lat="46.13202287149615" lon="1.3690954890200493"><ele>367.5</ele><time>2026-03-28T14:53:30Z</time></trkpt><trkpt lat="46.13201240803538" lon="1.3693004501469885"><ele>368.0</ele><time>2026-03-28T14:53:31Z</time></trkpt><trkpt lat="46.13200459717479" lon="1.369505496042546"><ele>368.0</ele><time>2026-03-28T14:53:32Z</time></trkpt><trkpt lat="46.13198988880906" lon="1.3697046033156004"><ele>368.0</ele><time>2026-03-28T14:53:33Z</time></trkpt><trkpt lat="46.13197468758701" lon="1.369901912947706"><ele>368.0</ele><time>2026-03-28T14:53:34Z</time></trkpt><trkpt lat="46.131960283035625" lon="1.3700930892730734"><ele>368.0</ele><time>2026-03-28T14:53:35Z</time></trkpt><trkpt lat="46.13194933252351" lon="1.3702792931285102"><ele>368.0</ele><time>2026-03-28T14:53:36Z</time></trkpt><trkpt lat="46.131937315626864" lon="1.3704517698408687"><ele>368.0</ele><time>2026-03-28T14:53:37Z</time></trkpt><trkpt lat="46.13192615097159" lon="1.370603734615972"><ele>368.0</ele><time>2026-03-28T14:53:38Z</time></trkpt><trkpt lat="46.13191499540192" lon="1.3707308651522323"><ele>368.0</ele><time>2026-03-28T14:53:39Z</time></trkpt><trkpt lat="46.131914250431066" lon="1.3708288791199743"><ele>368.0</ele><time>2026-03-28T14:53:40Z</time></trkpt><trkpt lat="46.13189479841104" lon="1.3709588846172416"><ele>368.5</ele><time>2026-03-28T14:53:42Z</time></trkpt><trkpt lat="46.132008862706506" lon="1.370980697449017"><ele>369.0</ele><time>2026-03-28T14:53:43Z</time></trkpt><trkpt lat="46.132115987220395" lon="1.3710617299887775"><ele>369.5</ele><time>2026-03-28T14:53:45Z</time></trkpt><trkpt lat="46.13219557062151" lon="1.3710281748593918"><ele>370.0</ele><time>2026-03-28T14:53:47Z</time></trkpt><trkpt lat="46.13214152361555" lon="1.3712303142676134"><ele>370.0</ele><time>2026-03-28T14:53:48Z</time></trkpt><trkpt lat="46.13228567621016" lon="1.3711812433353607"><ele>370.0</ele><time>2026-03-28T14:53:49Z</time></trkpt><trkpt lat="46.132332334966094" lon="1.371251831606465"><ele>370.0</ele><time>2026-03-28T14:53:51Z</time></trkpt><trkpt lat="46.132355055846816" lon="1.371336882681796"><ele>370.0</ele><time>2026-03-28T14:56:43.999Z</time></trkpt><trkpt lat="46.13242306172694" lon="1.3713066058734504"><ele>370.0</ele><time>2026-03-28T14:56:46.999Z</time></trkpt><trkpt lat="46.13252498423774" lon="1.3712628147018862"><ele>369.8</ele><time>2026-03-28T14:57:54Z</time></trkpt><trkpt lat="46.132539388867144" lon="1.3711449043169044"><ele>369.6</ele><time>2026-03-28T14:57:56Z</time></trkpt><trkpt lat="46.13265392366652" lon="1.3709827123170841"><ele>369.4</ele><time>2026-03-28T14:58:17.999Z</time></trkpt><trkpt lat="46.13273898409789" lon="1.3710104235296472"><ele>369.2</ele><time>2026-03-28T14:58:18.999Z</time></trkpt><trkpt lat="46.13283369258305" lon="1.3710289013764436"><ele>369.0</ele><time>2026-03-28T14:58:19.999Z</time></trkpt><trkpt lat="46.132962869189754" lon="1.371028479746094"><ele>369.0</ele><time>2026-03-28T14:58:20.999Z</time></trkpt><trkpt lat="46.133075625629566" lon="1.3710524799644617"><ele>369.0</ele><time>2026-03-28T14:58:21.999Z</time></trkpt><trkpt lat="46.133229754618526" lon="1.3710839668538615"><ele>369.0</ele><time>2026-03-28T14:58:22.999Z</time></trkpt><trkpt lat="46.13335320287957" lon="1.3710948520060557"><ele>369.0</ele><time>2026-03-28T14:58:23.999Z</time></trkpt><trkpt lat="46.133469613350364" lon="1.371096755430607"><ele>368.25</ele><time>2026-03-28T14:58:24.999Z</time></trkpt><trkpt lat="46.133579566636165" lon="1.3710847678842835"><ele>367.5</ele><time>2026-03-28T14:58:25.999Z</time></trkpt><trkpt lat="46.133654542815556" lon="1.371079200100272"><ele>366.75</ele><time>2026-03-28T14:58:26.999Z</time></trkpt><trkpt lat="46.13373918157909" lon="1.371063333307555"><ele>366.0</ele><time>2026-03-28T14:58:27.999Z</time></trkpt><trkpt lat="46.13389670594062" lon="1.3711939734403087"><ele>366.0</ele><time>2026-03-28T14:58:30.999Z</time></trkpt><trkpt lat="46.13390834530946" lon="1.37131784527274"><ele>366.0</ele><time>2026-03-28T14:58:31.999Z</time></trkpt><trkpt lat="46.133935812761486" lon="1.3714541939464022"><ele>366.0</ele><time>2026-03-28T14:58:32.999Z</time></trkpt><trkpt lat="46.13393580829434" lon="1.3715775575811486"><ele>366.0</ele><time>2026-03-28T14:58:33.999Z</time></trkpt><trkpt lat="46.133967463657875" lon="1.3716780495379035"><ele>366.0</ele><time>2026-03-28T14:58:34.999Z</time></trkpt><trkpt lat="46.13415882147909" lon="1.3717501510864354"><ele>365.75</ele><time>2026-03-28T14:59:08.998Z</time></trkpt><trkpt lat="46.1342527210956" lon="1.3717201073197618"><ele>365.5</ele><time>2026-03-28T14:59:09.998Z</time></trkpt><trkpt lat="46.134357154013465" lon="1.3716614645234169"><ele>365.25</ele><time>2026-03-28T14:59:10.998Z</time></trkpt><trkpt lat="46.13445478439989" lon="1.3716147805024"><ele>365.0</ele><time>2026-03-28T14:59:11.998Z</time></trkpt><trkpt lat="46.13459140187339" lon="1.371572637630088"><ele>365.0</ele><time>2026-03-28T14:59:12.998Z</time></trkpt><trkpt lat="46.134700923405376" lon="1.3715207185622085"><ele>365.0</ele><time>2026-03-28T14:59:13.998Z</time></trkpt><trkpt lat="46.13481054969531" lon="1.3714687499463791"><ele>365.0</ele><time>2026-03-28T14:59:14.998Z</time></trkpt><trkpt lat="46.13494464296835" lon="1.371384976599209"><ele>365.0</ele><time>2026-03-28T14:59:15.998Z</time></trkpt><trkpt lat="46.135068651602275" lon="1.3713246052220738"><ele>363.75</ele><time>2026-03-28T14:59:16.998Z</time></trkpt><trkpt lat="46.13520866184938" lon="1.3712800386894877"><ele>362.5</ele><time>2026-03-28T14:59:17.998Z</time></trkpt><trkpt lat="46.13534254500281" lon="1.3712168874402526"><ele>361.25</ele><time>2026-03-28T14:59:18.998Z</time></trkpt><trkpt lat="46.135471523984705" lon="1.371145224925974"><ele>360.0</ele><time>2026-03-28T14:59:19.998Z</time></trkpt><trkpt lat="46.135606038029984" lon="1.3710887786990336"><ele>358.6666666666667</ele><time>2026-03-28T14:59:21Z</time></trkpt><trkpt lat="46.13576430055985" lon="1.3710138932182432"><ele>357.33333333333337</ele><time>2026-03-28T14:59:22Z</time></trkpt><trkpt lat="46.13589790482524" lon="1.3709405505599508"><ele>356.0</ele><time>2026-03-28T14:59:23Z</time></trkpt><trkpt lat="46.1360690969143" lon="1.3709153360517516"><ele>356.0</ele><time>2026-03-28T14:59:24Z</time></trkpt><trkpt lat="46.136221675220895" lon="1.3708072258823043"><ele>356.0</ele><time>2026-03-28T14:59:25Z</time></trkpt><trkpt lat="46.13636887665487" lon="1.3707675841747489"><ele>356.0</ele><time>2026-03-28T14:59:26Z</time></trkpt><trkpt lat="46.136510148757914" lon="1.370706089466385"><ele>353.6666666666667</ele><time>2026-03-28T14:59:27Z</time></trkpt><trkpt lat="46.1366646844981" lon="1.3706456032323304"><ele>351.3333333333333</ele><time>2026-03-28T14:59:28Z</time></trkpt><trkpt lat="46.136813396717564" lon="1.3706058753612482"><ele>349.0</ele><time>2026-03-28T14:59:29Z</time></trkpt><trkpt lat="46.13695284814988" lon="1.3705666761887139"><ele>349.0</ele><time>2026-03-28T14:59:30Z</time></trkpt><trkpt lat="46.13711074722421" lon="1.3705236698541972"><ele>349.0</ele><time>2026-03-28T14:59:31Z</time></trkpt><trkpt lat="46.137263429612375" lon="1.3704782978727716"><ele>349.0</ele><time>2026-03-28T14:59:32Z</time></trkpt><trkpt lat="46.137397977384765" lon="1.3704303237477162"><ele>346.5</ele><time>2026-03-28T14:59:33Z</time></trkpt><trkpt lat="46.13754045968809" lon="1.370412465184954"><ele>344.0</ele><time>2026-03-28T14:59:34Z</time></trkpt><trkpt lat="46.137692417361194" lon="1.3704058038934228"><ele>341.5</ele><time>2026-03-28T14:59:35Z</time></trkpt><trkpt lat="46.13782580018063" lon="1.3704049082233767"><ele>339.0</ele><time>2026-03-28T14:59:36Z</time></trkpt><trkpt lat="46.13796270782706" lon="1.370410281771205"><ele>339.0</ele><time>2026-03-28T14:59:37Z</time></trkpt><trkpt lat="46.13808026464128" lon="1.3704414196017005"><ele>339.0</ele><time>2026-03-28T14:59:38Z</time></trkpt><trkpt lat="46.13816835276602" lon="1.37044819883895"><ele>339.0</ele><time>2026-03-28T14:59:39Z</time></trkpt><trkpt lat="46.13826735702562" lon="1.3704928914117578"><ele>339.0</ele><time>2026-03-28T14:59:40Z</time></trkpt><trkpt lat="46.13833979456874" lon="1.3705201702000553"><ele>339.0</ele><time>2026-03-28T14:59:41Z</time></trkpt><trkpt lat="46.13842542969929" lon="1.3705528103351732"><ele>338.25</ele><time>2026-03-28T14:59:43Z</time></trkpt><trkpt lat="46.13851418215464" lon="1.3703207020087131"><ele>337.5</ele><time>2026-03-28T14:59:44Z</time></trkpt><trkpt lat="46.13852462964414" lon="1.370205858511886"><ele>336.75</ele><time>2026-03-28T14:59:45Z</time></trkpt><trkpt lat="46.138541436363255" lon="1.3700522011826566"><ele>336.0</ele><time>2026-03-28T14:59:46Z</time></trkpt><trkpt lat="46.13856661555444" lon="1.36992545098646"><ele>336.0</ele><time>2026-03-28T14:59:47Z</time></trkpt><trkpt lat="46.13862037756586" lon="1.3697917152400592"><ele>336.0</ele><time>2026-03-28T14:59:48Z</time></trkpt><trkpt lat="46.13869442077263" lon="1.3696973226701956"><ele>336.0</ele><time>2026-03-28T14:59:49Z</time></trkpt><trkpt lat="46.13878767024814" lon="1.3696263275914162"><ele>336.0</ele><time>2026-03-28T14:59:50Z</time></trkpt><trkpt lat="46.13889923483298" lon="1.3695817194871702"><ele>336.0</ele><time>2026-03-28T14:59:51Z</time></trkpt><trkpt lat="46.13901689079317" lon="1.3695250749165209"><ele>335.25</ele><time>2026-03-28T14:59:52Z</time></trkpt><trkpt lat="46.13915411896684" lon="1.3694594181221602"><ele>334.5</ele><time>2026-03-28T14:59:53Z</time></trkpt><trkpt lat="46.13928314978189" lon="1.3694050681509946"><ele>333.75</ele><time>2026-03-28T14:59:54Z</time></trkpt><trkpt lat="46.13942090907694" lon="1.3693214322481746"><ele>333.0</ele><time>2026-03-28T14:59:55Z</time></trkpt><trkpt lat="46.13955061957689" lon="1.3692328612981568"><ele>333.0</ele><time>2026-03-28T14:59:56Z</time></trkpt><trkpt lat="46.139688407551354" lon="1.3691765053780032"><ele>333.0</ele><time>2026-03-28T14:59:57Z</time></trkpt><trkpt lat="46.13982186471664" lon="1.369112396213778"><ele>333.0</ele><time>2026-03-28T14:59:58Z</time></trkpt><trkpt lat="46.13996637020131" lon="1.3690205362776973"><ele>333.0</ele><time>2026-03-28T14:59:59Z</time></trkpt><trkpt lat="46.14010167540876" lon="1.3689549785530515"><ele>332.25</ele><time>2026-03-28T15:00:00Z</time></trkpt><trkpt lat="46.14023832090004" lon="1.368914372960463"><ele>331.5</ele><time>2026-03-28T15:00:01Z</time></trkpt><trkpt lat="46.140360451628354" lon="1.368855936768699"><ele>330.75</ele><time>2026-03-28T15:00:01.999Z</time></trkpt><trkpt lat="46.14048260996888" lon="1.3687736028171866"><ele>330.0</ele><time>2026-03-28T15:00:02.999Z</time></trkpt><trkpt lat="46.1406224421006" lon="1.3687305815124429"><ele>329.5</ele><time>2026-03-28T15:00:03.999Z</time></trkpt><trkpt lat="46.140749945242135" lon="1.3686566973922727"><ele>329.0</ele><time>2026-03-28T15:00:04.999Z</time></trkpt><trkpt lat="46.14087518451475" lon="1.3685920344040763"><ele>328.5</ele><time>2026-03-28T15:00:05.999Z</time></trkpt><trkpt lat="46.141013354566205" lon="1.368533611999708"><ele>328.0</ele><time>2026-03-28T15:00:06.999Z</time></trkpt><trkpt lat="46.14114668639247" lon="1.3684709414807446"><ele>328.0</ele><time>2026-03-28T15:00:07.999Z</time></trkpt><trkpt lat="46.141279449074275" lon="1.3684095589874192"><ele>328.0</ele><time>2026-03-28T15:00:08.999Z</time></trkpt><trkpt lat="46.141406254768924" lon="1.368351846948966"><ele>328.0</ele><time>2026-03-28T15:00:09.999Z</time></trkpt><trkpt lat="46.141537632826804" lon="1.3682983868832426"><ele>328.0</ele><time>2026-03-28T15:00:10.999Z</time></trkpt><trkpt lat="46.141663671157936" lon="1.3682401476488546"><ele>328.0</ele><time>2026-03-28T15:00:11.999Z</time></trkpt><trkpt lat="46.141781548388266" lon="1.368196283737735"><ele>328.0</ele><time>2026-03-28T15:00:12.999Z</time></trkpt><trkpt lat="46.14190846976908" lon="1.3681329358894985"><ele>328.0</ele><time>2026-03-28T15:00:13.999Z</time></trkpt><trkpt lat="46.14202771834222" lon="1.3680699778998238"><ele>328.0</ele><time>2026-03-28T15:00:14.999Z</time></trkpt><trkpt lat="46.14215888051112" lon="1.3679897883281629"><ele>327.5</ele><time>2026-03-28T15:00:15.999Z</time></trkpt><trkpt lat="46.14230010114914" lon="1.3679399453913976"><ele>327.0</ele><time>2026-03-28T15:00:16.999Z</time></trkpt><trkpt lat="46.1424315975954" lon="1.3678840717995164"><ele>326.5</ele><time>2026-03-28T15:00:17.999Z</time></trkpt><trkpt lat="46.142547770213284" lon="1.367808306010426"><ele>326.0</ele><time>2026-03-28T15:00:18.999Z</time></trkpt><trkpt lat="46.14268386549265" lon="1.3677700453561337"><ele>324.75</ele><time>2026-03-28T15:00:19.999Z</time></trkpt><trkpt lat="46.14281610932254" lon="1.3677145368607566"><ele>323.5</ele><time>2026-03-28T15:00:20.999Z</time></trkpt><trkpt lat="46.14294144753155" lon="1.3676544509462167"><ele>322.25</ele><time>2026-03-28T15:00:21.999Z</time></trkpt><trkpt lat="46.1430560029388" lon="1.367584665155461"><ele>321.0</ele><time>2026-03-28T15:00:22.999Z</time></trkpt><trkpt lat="46.14317537375287" lon="1.3675362657611243"><ele>319.75</ele><time>2026-03-28T15:00:23.999Z</time></trkpt><trkpt lat="46.14329287470579" lon="1.3674851022483696"><ele>318.5</ele><time>2026-03-28T15:00:24.999Z</time></trkpt><trkpt lat="46.143405849409426" lon="1.3674198839689218"><ele>317.25</ele><time>2026-03-28T15:00:25.999Z</time></trkpt><trkpt lat="46.143517893728365" lon="1.3673463024584984"><ele>316.0</ele><time>2026-03-28T15:00:26.999Z</time></trkpt><trkpt lat="46.14362080621156" lon="1.367291261840455"><ele>316.0</ele><time>2026-03-28T15:00:27.999Z</time></trkpt><trkpt lat="46.14372752826661" lon="1.3672379121224354"><ele>316.0</ele><time>2026-03-28T15:00:28.999Z</time></trkpt><trkpt lat="46.14383114252078" lon="1.3671909607921666"><ele>316.0</ele><time>2026-03-28T15:00:29.999Z</time></trkpt><trkpt lat="46.143936444244154" lon="1.3671381585517637"><ele>316.0</ele><time>2026-03-28T15:00:30.999Z</time></trkpt><trkpt lat="46.14403097763695" lon="1.3670909663767883"><ele>316.0</ele><time>2026-03-28T15:00:31.999Z</time></trkpt><trkpt lat="46.14413969593293" lon="1.3670762380195416"><ele>314.8</ele><time>2026-03-28T15:00:32.999Z</time></trkpt><trkpt lat="46.14423016995848" lon="1.3670224849402026"><ele>313.6</ele><time>2026-03-28T15:00:33.999Z</time></trkpt><trkpt lat="46.144317370553644" lon="1.3669807127452824"><ele>312.4</ele><time>2026-03-28T15:00:34.999Z</time></trkpt><trkpt lat="46.144408390711014" lon="1.3669406162629503"><ele>311.2</ele><time>2026-03-28T15:00:35.999Z</time></trkpt><trkpt lat="46.14450292910377" lon="1.3668995753989792"><ele>310.0</ele><time>2026-03-28T15:00:36.999Z</time></trkpt><trkpt lat="46.144595842685504" lon="1.3668623047854385"><ele>310.0</ele><time>2026-03-28T15:00:37.999Z</time></trkpt><trkpt lat="46.14469444903559" lon="1.3668272628982674"><ele>310.0</ele><time>2026-03-28T15:00:38.999Z</time></trkpt><trkpt lat="46.14478642601251" lon="1.3668023531312712"><ele>310.0</ele><time>2026-03-28T15:00:39.999Z</time></trkpt><trkpt lat="46.14489989616451" lon="1.366737414797759"><ele>310.0</ele><time>2026-03-28T15:00:40.999Z</time></trkpt><trkpt lat="46.14497610935322" lon="1.3667230992871806"><ele>310.0</ele><time>2026-03-28T15:00:41.999Z</time></trkpt><trkpt lat="46.14508342897803" lon="1.3666702331949154"><ele>309.6</ele><time>2026-03-28T15:00:42.999Z</time></trkpt><trkpt lat="46.14517722567691" lon="1.3666637216025233"><ele>309.2</ele><time>2026-03-28T15:00:43.999Z</time></trkpt><trkpt lat="46.14527671909461" lon="1.3666513664137399"><ele>308.8</ele><time>2026-03-28T15:00:44.999Z</time></trkpt><trkpt lat="46.145379961785494" lon="1.366633830970228"><ele>308.4</ele><time>2026-03-28T15:00:45.999Z</time></trkpt><trkpt lat="46.145488069153885" lon="1.3666154270332798"><ele>308.0</ele><time>2026-03-28T15:00:46.999Z</time></trkpt><trkpt lat="46.14557472938481" lon="1.3665962332905557"><ele>308.0</ele><time>2026-03-28T15:00:47.999Z</time></trkpt><trkpt lat="46.14570020055121" lon="1.3665658793035078"><ele>308.0</ele><time>2026-03-28T15:00:48.999Z</time></trkpt><trkpt lat="46.145800056579546" lon="1.3665444888228662"><ele>308.0</ele><time>2026-03-28T15:00:49.999Z</time></trkpt><trkpt lat="46.14589513033244" lon="1.3665166405988785"><ele>308.0</ele><time>2026-03-28T15:00:50.999Z</time></trkpt><trkpt lat="46.14601403447314" lon="1.3664820867576022"><ele>308.0</ele><time>2026-03-28T15:00:51.999Z</time></trkpt><trkpt lat="46.146104081461985" lon="1.3664509382919907"><ele>308.0</ele><time>2026-03-28T15:00:52.998Z</time></trkpt><trkpt lat="46.1462071729158" lon="1.3664278768679954"><ele>308.0</ele><time>2026-03-28T15:00:53.998Z</time></trkpt><trkpt lat="46.14631344139547" lon="1.3663981425952891"><ele>308.0</ele><time>2026-03-28T15:00:54.998Z</time></trkpt><trkpt lat="46.14641608528106" lon="1.366371713272674"><ele>308.0</ele><time>2026-03-28T15:00:55.998Z</time></trkpt><trkpt lat="46.14651389059424" lon="1.3663363702774023"><ele>308.0</ele><time>2026-03-28T15:00:56.998Z</time></trkpt><trkpt lat="46.14661636526056" lon="1.366305388864525"><ele>308.4</ele><time>2026-03-28T15:00:57.998Z</time></trkpt><trkpt lat="46.14669296196328" lon="1.366275253442333"><ele>308.8</ele><time>2026-03-28T15:00:58.998Z</time></trkpt><trkpt lat="46.146812293277904" lon="1.366294475117204"><ele>309.2</ele><time>2026-03-28T15:00:59.998Z</time></trkpt><trkpt lat="46.146925741690524" lon="1.36625162320228"><ele>309.6</ele><time>2026-03-28T15:01:01.998Z</time></trkpt><trkpt lat="46.1469994427588" lon="1.366231980338533"><ele>310.0</ele><time>2026-03-28T15:01:02.998Z</time></trkpt><trkpt lat="46.14708493149477" lon="1.366207367053209"><ele>310.0</ele><time>2026-03-28T15:01:03.998Z</time></trkpt><trkpt lat="46.14716847983996" lon="1.3661825051492524"><ele>310.0</ele><time>2026-03-28T15:01:04.998Z</time></trkpt><trkpt lat="46.14726882926649" lon="1.3661589213194085"><ele>310.0</ele><time>2026-03-28T15:01:05.998Z</time></trkpt><trkpt lat="46.14736840567684" lon="1.366132187748209"><ele>310.0</ele><time>2026-03-28T15:01:06.998Z</time></trkpt><trkpt lat="46.147465480034725" lon="1.3661022511112646"><ele>310.0</ele><time>2026-03-28T15:01:07.998Z</time></trkpt><trkpt lat="46.147549247502" lon="1.366076089468554"><ele>309.8333333333333</ele><time>2026-03-28T15:01:08.998Z</time></trkpt><trkpt lat="46.14763516536659" lon="1.3660638660829476"><ele>309.66666666666663</ele><time>2026-03-28T15:01:09.998Z</time></trkpt><trkpt lat="46.14770908399844" lon="1.3660673687098805"><ele>309.5</ele><time>2026-03-28T15:01:10.998Z</time></trkpt><trkpt lat="46.1477915948447" lon="1.3660703646864876"><ele>309.3333333333333</ele><time>2026-03-28T15:01:12.998Z</time></trkpt><trkpt lat="46.14784980493209" lon="1.3659035514078486"><ele>309.1666666666667</ele><time>2026-03-28T15:01:14.998Z</time></trkpt><trkpt lat="46.14786291791999" lon="1.3658016671990514"><ele>309.0</ele><time>2026-03-28T15:01:15.998Z</time></trkpt><trkpt lat="46.14787877156316" lon="1.3656905287990369"><ele>309.0</ele><time>2026-03-28T15:01:16.998Z</time></trkpt><trkpt lat="46.14788940649701" lon="1.3655638203365696"><ele>309.0</ele><time>2026-03-28T15:01:17.998Z</time></trkpt><trkpt lat="46.14788156991819" lon="1.3654125141020639"><ele>309.0</ele><time>2026-03-28T15:01:18.998Z</time></trkpt><trkpt lat="46.14787659954831" lon="1.3652530778566154"><ele>309.0</ele><time>2026-03-28T15:01:19.998Z</time></trkpt><trkpt lat="46.14787046098171" lon="1.3651016784334662"><ele>309.0</ele><time>2026-03-28T15:01:20.998Z</time></trkpt><trkpt lat="46.147856690266515" lon="1.3649357855366162"><ele>308.75</ele><time>2026-03-28T15:01:21.998Z</time></trkpt><trkpt lat="46.147835535774874" lon="1.3647557452220282"><ele>308.5</ele><time>2026-03-28T15:01:22.998Z</time></trkpt><trkpt lat="46.147827166531386" lon="1.3645922841335565"><ele>308.25</ele><time>2026-03-28T15:01:23.998Z</time></trkpt><trkpt lat="46.14781734109452" lon="1.3644277027850822"><ele>308.0</ele><time>2026-03-28T15:01:24.998Z</time></trkpt><trkpt lat="46.14781883341844" lon="1.3642677218082266"><ele>307.2</ele><time>2026-03-28T15:01:25.998Z</time></trkpt><trkpt lat="46.14781155066372" lon="1.3641096120623493"><ele>306.4</ele><time>2026-03-28T15:01:27Z</time></trkpt><trkpt lat="46.147798754062876" lon="1.36396167961152"><ele>305.59999999999997</ele><time>2026-03-28T15:01:28Z</time></trkpt><trkpt lat="46.14782777524212" lon="1.3638009537887328"><ele>304.8</ele><time>2026-03-28T15:01:29Z</time></trkpt><trkpt lat="46.147838196685264" lon="1.363637489578411"><ele>304.0</ele><time>2026-03-28T15:01:30Z</time></trkpt><trkpt lat="46.14785616073013" lon="1.3634877807639345"><ele>303.8</ele><time>2026-03-28T15:01:31Z</time></trkpt><trkpt lat="46.147875602611755" lon="1.3633338289947732"><ele>303.59999999999997</ele><time>2026-03-28T15:01:32Z</time></trkpt><trkpt lat="46.147896687188044" lon="1.363197460690738"><ele>303.4</ele><time>2026-03-28T15:01:33Z</time></trkpt><trkpt lat="46.14790153827785" lon="1.3630700826410707"><ele>303.2</ele><time>2026-03-28T15:01:34Z</time></trkpt><trkpt lat="46.14791781103505" lon="1.3629199985560656"><ele>303.0</ele><time>2026-03-28T15:01:35Z</time></trkpt><trkpt lat="46.14794210597736" lon="1.362784626488468"><ele>302.8</ele><time>2026-03-28T15:01:36Z</time></trkpt><trkpt lat="46.147960605266796" lon="1.3626462396402583"><ele>302.6</ele><time>2026-03-28T15:01:37Z</time></trkpt><trkpt lat="46.14797526559233" lon="1.3624865061401372"><ele>302.4</ele><time>2026-03-28T15:01:38Z</time></trkpt><trkpt lat="46.147989648591135" lon="1.3623213311204354"><ele>302.2</ele><time>2026-03-28T15:01:39Z</time></trkpt><trkpt lat="46.1479903068439" lon="1.362196339414299"><ele>302.0</ele><time>2026-03-28T15:01:40Z</time></trkpt><trkpt lat="46.147988996141834" lon="1.3620324481526336"><ele>301.0</ele><time>2026-03-28T15:01:41Z</time></trkpt><trkpt lat="46.14798055466717" lon="1.3618563445678407"><ele>300.0</ele><time>2026-03-28T15:01:42Z</time></trkpt><trkpt lat="46.14795775854585" lon="1.3617080776359722"><ele>299.0</ele><time>2026-03-28T15:01:43Z</time></trkpt><trkpt lat="46.1479464302264" lon="1.3615547367274008"><ele>298.0</ele><time>2026-03-28T15:01:44Z</time></trkpt><trkpt lat="46.147927771564476" lon="1.36138773557947"><ele>296.5</ele><time>2026-03-28T15:01:45Z</time></trkpt><trkpt lat="46.147909101606366" lon="1.3612294943591"><ele>295.0</ele><time>2026-03-28T15:01:46Z</time></trkpt><trkpt lat="46.14788753736807" lon="1.3610631955731494"><ele>293.5</ele><time>2026-03-28T15:01:47Z</time></trkpt><trkpt lat="46.14785087203733" lon="1.3609144726917457"><ele>292.0</ele><time>2026-03-28T15:01:48Z</time></trkpt><trkpt lat="46.14783399065353" lon="1.3607426270780154"><ele>292.0</ele><time>2026-03-28T15:01:49Z</time></trkpt><trkpt lat="46.14780128476424" lon="1.3605040093270606"><ele>292.0</ele><time>2026-03-28T15:01:50Z</time></trkpt><trkpt lat="46.1477753865666" lon="1.360308079358329"><ele>292.0</ele><time>2026-03-28T15:01:51Z</time></trkpt><trkpt lat="46.14775284759434" lon="1.3601253788851104"><ele>292.0</ele><time>2026-03-28T15:01:52Z</time></trkpt><trkpt lat="46.14771091477011" lon="1.359963430605321"><ele>292.0</ele><time>2026-03-28T15:01:53Z</time></trkpt><trkpt lat="46.14767606786497" lon="1.3597942986758773"><ele>292.0</ele><time>2026-03-28T15:01:54Z</time></trkpt><trkpt lat="46.14762851072265" lon="1.3595947354496305"><ele>292.0</ele><time>2026-03-28T15:01:55Z</time></trkpt><trkpt lat="46.14760424060919" lon="1.3594457144719476"><ele>292.0</ele><time>2026-03-28T15:01:56Z</time></trkpt><trkpt lat="46.147548209437936" lon="1.3593156028391808"><ele>292.0</ele><time>2026-03-28T15:01:57Z</time></trkpt><trkpt lat="46.14748517082238" lon="1.3591527217959336"><ele>292.0</ele><time>2026-03-28T15:01:58Z</time></trkpt><trkpt lat="46.14742248430626" lon="1.3589836250689513"><ele>292.0</ele><time>2026-03-28T15:01:59Z</time></trkpt><trkpt lat="46.147363570193974" lon="1.358815983150253"><ele>292.0</ele><time>2026-03-28T15:02:00Z</time></trkpt><trkpt lat="46.14730399532352" lon="1.3586025951295224"><ele>292.75</ele><time>2026-03-28T15:02:01Z</time></trkpt><trkpt lat="46.14725826141968" lon="1.3584109268224211"><ele>293.5</ele><time>2026-03-28T15:02:02Z</time></trkpt><trkpt lat="46.14721688915782" lon="1.3582267796541083"><ele>294.25</ele><time>2026-03-28T15:02:03Z</time></trkpt><trkpt lat="46.14716696801359" lon="1.3580305787362397"><ele>295.0</ele><time>2026-03-28T15:02:04Z</time></trkpt><trkpt lat="46.14712236483207" lon="1.357850096976032"><ele>295.0</ele><time>2026-03-28T15:02:04.999Z</time></trkpt><trkpt lat="46.14706509346715" lon="1.3576301391658214"><ele>295.0</ele><time>2026-03-28T15:02:05.999Z</time></trkpt><trkpt lat="46.14701803148206" lon="1.3574409476220688"><ele>295.0</ele><time>2026-03-28T15:02:06.999Z</time></trkpt><trkpt lat="46.14697167010674" lon="1.3572637969539907"><ele>295.0</ele><time>2026-03-28T15:02:07.999Z</time></trkpt><trkpt lat="46.14691022026182" lon="1.3570826711997062"><ele>295.0</ele><time>2026-03-28T15:02:08.999Z</time></trkpt><trkpt lat="46.14685309704969" lon="1.3568934156479129"><ele>295.0</ele><time>2026-03-28T15:02:09.999Z</time></trkpt><trkpt lat="46.14680890183068" lon="1.3566931911072855"><ele>295.0</ele><time>2026-03-28T15:02:10.999Z</time></trkpt><trkpt lat="46.14674602737957" lon="1.3564987860342261"><ele>295.0</ele><time>2026-03-28T15:02:11.999Z</time></trkpt><trkpt lat="46.14667632822409" lon="1.3563115101168242"><ele>294.75</ele><time>2026-03-28T15:02:12.999Z</time></trkpt><trkpt lat="46.1465976796587" lon="1.3561215487332454"><ele>294.5</ele><time>2026-03-28T15:02:13.999Z</time></trkpt><trkpt lat="46.146523725519636" lon="1.355950074832009"><ele>294.25</ele><time>2026-03-28T15:02:14.999Z</time></trkpt><trkpt lat="46.14644600824068" lon="1.355768147993947"><ele>294.0</ele><time>2026-03-28T15:02:15.999Z</time></trkpt><trkpt lat="46.14636636061214" lon="1.3555806336575817"><ele>293.0</ele><time>2026-03-28T15:02:16.999Z</time></trkpt><trkpt lat="46.14628447236565" lon="1.3553902579423527"><ele>292.0</ele><time>2026-03-28T15:02:17.999Z</time></trkpt><trkpt lat="46.146230388936274" lon="1.3552678710112493"><ele>291.0</ele><time>2026-03-28T15:02:18.999Z</time></trkpt><trkpt lat="46.14615393875657" lon="1.3551012981407384"><ele>290.0</ele><time>2026-03-28T15:02:19.999Z</time></trkpt><trkpt lat="46.14607893474901" lon="1.3549453407790983"><ele>290.0</ele><time>2026-03-28T15:02:20.999Z</time></trkpt><trkpt lat="46.14598983237485" lon="1.354766884744188"><ele>290.0</ele><time>2026-03-28T15:02:21.999Z</time></trkpt><trkpt lat="46.14591407844887" lon="1.3546193110926716"><ele>290.0</ele><time>2026-03-28T15:02:22.999Z</time></trkpt><trkpt lat="46.14582640738846" lon="1.3544485231603833"><ele>290.0</ele><time>2026-03-28T15:02:23.999Z</time></trkpt><trkpt lat="46.145740198743866" lon="1.3542805827386228"><ele>290.0</ele><time>2026-03-28T15:02:24.999Z</time></trkpt><trkpt lat="46.145663194554956" lon="1.354130573520472"><ele>290.0</ele><time>2026-03-28T15:02:25.999Z</time></trkpt><trkpt lat="46.145586644182686" lon="1.3539814487826378"><ele>290.0</ele><time>2026-03-28T15:02:26.999Z</time></trkpt><trkpt lat="46.145498967811164" lon="1.3538494333208573"><ele>290.0</ele><time>2026-03-28T15:02:27.999Z</time></trkpt><trkpt lat="46.14543753411599" lon="1.3536806438832978"><ele>290.0</ele><time>2026-03-28T15:02:28.999Z</time></trkpt><trkpt lat="46.145363198578515" lon="1.353514365462805"><ele>290.0</ele><time>2026-03-28T15:02:29.999Z</time></trkpt><trkpt lat="46.14530410667532" lon="1.3533577920397772"><ele>290.0</ele><time>2026-03-28T15:02:30.999Z</time></trkpt><trkpt lat="46.1452564784855" lon="1.3532043140975336"><ele>290.0</ele><time>2026-03-28T15:02:31.999Z</time></trkpt><trkpt lat="46.14524859555575" lon="1.3530275596524106"><ele>290.0</ele><time>2026-03-28T15:02:32.999Z</time></trkpt><trkpt lat="46.14521921804511" lon="1.352837413249161"><ele>290.0</ele><time>2026-03-28T15:02:33.999Z</time></trkpt><trkpt lat="46.14520282138925" lon="1.3526665538382692"><ele>290.0</ele><time>2026-03-28T15:02:34.999Z</time></trkpt><trkpt lat="46.14520065858486" lon="1.3524638652030367"><ele>290.0</ele><time>2026-03-28T15:02:35.999Z</time></trkpt><trkpt lat="46.14518724799715" lon="1.3522817886567398"><ele>290.5</ele><time>2026-03-28T15:02:36.999Z</time></trkpt><trkpt lat="46.14520102970332" lon="1.3521133672167431"><ele>291.0</ele><time>2026-03-28T15:02:37.999Z</time></trkpt><trkpt lat="46.145195617670716" lon="1.351928787448165"><ele>291.5</ele><time>2026-03-28T15:02:38.999Z</time></trkpt><trkpt lat="46.14518006831703" lon="1.3517257416552497"><ele>292.0</ele><time>2026-03-28T15:02:39.999Z</time></trkpt><trkpt lat="46.145152941097344" lon="1.3515121412771671"><ele>291.66666666666663</ele><time>2026-03-28T15:02:40.999Z</time></trkpt><trkpt lat="46.14510951981976" lon="1.3513061365609271"><ele>291.3333333333333</ele><time>2026-03-28T15:02:41.999Z</time></trkpt><trkpt lat="46.14508296922073" lon="1.3510779867676888"><ele>291.0</ele><time>2026-03-28T15:02:42.999Z</time></trkpt><trkpt lat="46.145037025617356" lon="1.3508555057070084"><ele>291.0</ele><time>2026-03-28T15:02:43.999Z</time></trkpt><trkpt lat="46.14498500032246" lon="1.35063029886785"><ele>291.0</ele><time>2026-03-28T15:02:44.999Z</time></trkpt><trkpt lat="46.1449376921766" lon="1.3504129227956085"><ele>291.0</ele><time>2026-03-28T15:02:45.999Z</time></trkpt><trkpt lat="46.14489791325246" lon="1.3501984412714068"><ele>291.0</ele><time>2026-03-28T15:02:46.999Z</time></trkpt><trkpt lat="46.14486415934959" lon="1.3499995370185618"><ele>291.0</ele><time>2026-03-28T15:02:47.999Z</time></trkpt><trkpt lat="46.144831362802634" lon="1.3497960143593195"><ele>291.0</ele><time>2026-03-28T15:02:48.999Z</time></trkpt><trkpt lat="46.144802709065445" lon="1.3495979330324497"><ele>291.0</ele><time>2026-03-28T15:02:49.999Z</time></trkpt><trkpt lat="46.144779566607006" lon="1.3494051442790849"><ele>291.0</ele><time>2026-03-28T15:02:50.999Z</time></trkpt><trkpt lat="46.14475709792514" lon="1.3492126706716632"><ele>291.0</ele><time>2026-03-28T15:02:51.999Z</time></trkpt><trkpt lat="46.14473053474036" lon="1.3490306262958849"><ele>291.0</ele><time>2026-03-28T15:02:52.999Z</time></trkpt><trkpt lat="46.14470551259417" lon="1.3488449000787188"><ele>291.0</ele><time>2026-03-28T15:02:53.999Z</time></trkpt><trkpt lat="46.14469306468513" lon="1.3486661374226894"><ele>291.5</ele><time>2026-03-28T15:02:54.999Z</time></trkpt><trkpt lat="46.14469693725239" lon="1.3485028101707384"><ele>292.0</ele><time>2026-03-28T15:02:55.998Z</time></trkpt><trkpt lat="46.14471999498977" lon="1.3483402469523653"><ele>292.5</ele><time>2026-03-28T15:02:56.998Z</time></trkpt><trkpt lat="46.14474937095667" lon="1.3481752324598988"><ele>293.0</ele><time>2026-03-28T15:02:57.998Z</time></trkpt><trkpt lat="46.144783036732655" lon="1.3479944899292795"><ele>293.5</ele><time>2026-03-28T15:02:58.998Z</time></trkpt><trkpt lat="46.144803178422336" lon="1.3478046693033534"><ele>294.0</ele><time>2026-03-28T15:02:59.998Z</time></trkpt><trkpt lat="46.14484835205523" lon="1.3476069623638331"><ele>294.5</ele><time>2026-03-28T15:03:00.998Z</time></trkpt><trkpt lat="46.144896615376574" lon="1.347405288623179"><ele>295.0</ele><time>2026-03-28T15:03:01.998Z</time></trkpt><trkpt lat="46.14493065262421" lon="1.347199455823251"><ele>295.75</ele><time>2026-03-28T15:03:02.998Z</time></trkpt><trkpt lat="46.144952421332874" lon="1.3469978286420174"><ele>296.5</ele><time>2026-03-28T15:03:03.998Z</time></trkpt><trkpt lat="46.14495146433497" lon="1.3468021799810845"><ele>297.25</ele><time>2026-03-28T15:03:04.998Z</time></trkpt><trkpt lat="46.14496084277438" lon="1.3466002189982178"><ele>298.0</ele><time>2026-03-28T15:03:05.998Z</time></trkpt><trkpt lat="46.14494751889133" lon="1.3463902255936038"><ele>298.3333333333333</ele><time>2026-03-28T15:03:06.998Z</time></trkpt><trkpt lat="46.14496635172641" lon="1.3461587976411893"><ele>298.6666666666667</ele><time>2026-03-28T15:03:07.998Z</time></trkpt><trkpt lat="46.145011457804394" lon="1.3459150488648797"><ele>299.0</ele><time>2026-03-28T15:03:08.998Z</time></trkpt><trkpt lat="46.14505162623827" lon="1.3456832207499858"><ele>299.6666666666667</ele><time>2026-03-28T15:03:09.998Z</time></trkpt><trkpt lat="46.14509599279013" lon="1.345462433933655"><ele>300.3333333333333</ele><time>2026-03-28T15:03:10.998Z</time></trkpt><trkpt lat="46.145139250816015" lon="1.3452422700803042"><ele>301.0</ele><time>2026-03-28T15:03:11.998Z</time></trkpt><trkpt lat="46.14518177839702" lon="1.3450206645612344"><ele>301.0</ele><time>2026-03-28T15:03:12.998Z</time></trkpt><trkpt lat="46.14522455404111" lon="1.3447931897195375"><ele>301.0</ele><time>2026-03-28T15:03:13.998Z</time></trkpt><trkpt lat="46.145267529435614" lon="1.344560440285138"><ele>301.0</ele><time>2026-03-28T15:03:14.998Z</time></trkpt><trkpt lat="46.14531257615965" lon="1.3443069989814054"><ele>301.66666666666663</ele><time>2026-03-28T15:03:15.998Z</time></trkpt><trkpt lat="46.14535923097053" lon="1.3440372568314458"><ele>302.3333333333333</ele><time>2026-03-28T15:03:16.998Z</time></trkpt><trkpt lat="46.145406060419425" lon="1.3437611772196252"><ele>303.0</ele><time>2026-03-28T15:03:17.998Z</time></trkpt><trkpt lat="46.14545450630409" lon="1.3434754723261622"><ele>303.3333333333333</ele><time>2026-03-28T15:03:18.998Z</time></trkpt><trkpt lat="46.145506560003334" lon="1.343186178783349"><ele>303.66666666666663</ele><time>2026-03-28T15:03:19.998Z</time></trkpt><trkpt lat="46.145558271475764" lon="1.3429260540097647"><ele>304.0</ele><time>2026-03-28T15:03:20.998Z</time></trkpt><trkpt lat="46.145611516956464" lon="1.342678405623623"><ele>304.0</ele><time>2026-03-28T15:03:21.998Z</time></trkpt><trkpt lat="46.14566116324818" lon="1.3424387460758196"><ele>304.0</ele><time>2026-03-28T15:03:22.998Z</time></trkpt><trkpt lat="46.14570665680824" lon="1.3422024098416703"><ele>304.0</ele><time>2026-03-28T15:03:23.998Z</time></trkpt><trkpt lat="46.14574943082606" lon="1.341986720446635"><ele>302.0</ele><time>2026-03-28T15:03:24.998Z</time></trkpt><trkpt lat="46.14579005723067" lon="1.3417950803266476"><ele>300.0</ele><time>2026-03-28T15:03:25.998Z</time></trkpt><trkpt lat="46.14583591269382" lon="1.3416157572182867"><ele>298.0</ele><time>2026-03-28T15:03:26.998Z</time></trkpt><trkpt lat="46.14587373418215" lon="1.34150357206882"><ele>296.0</ele><time>2026-03-28T15:03:27.998Z</time></trkpt><trkpt lat="46.145932533137156" lon="1.3413448134671846"><ele>296.0</ele><time>2026-03-28T15:03:28.998Z</time></trkpt><trkpt lat="46.145979119258755" lon="1.341225967195236"><ele>296.0</ele><time>2026-03-28T15:03:29.998Z</time></trkpt><trkpt lat="46.14602694371987" lon="1.3411026973245308"><ele>296.0</ele><time>2026-03-28T15:03:30.998Z</time></trkpt><trkpt lat="46.14609078758648" lon="1.340958833892507"><ele>296.0</ele><time>2026-03-28T15:03:31.998Z</time></trkpt><trkpt lat="46.146137282028015" lon="1.3408516176913496"><ele>296.0</ele><time>2026-03-28T15:03:33Z</time></trkpt><trkpt lat="46.14616161842678" lon="1.34069171629116"><ele>295.40000000000003</ele><time>2026-03-28T15:03:34Z</time></trkpt><trkpt lat="46.1461863009852" lon="1.340528231238865"><ele>294.8</ele><time>2026-03-28T15:03:35Z</time></trkpt><trkpt lat="46.14620195375481" lon="1.3404088245008614"><ele>294.20000000000005</ele><time>2026-03-28T15:03:36Z</time></trkpt><trkpt lat="46.14621226772841" lon="1.340258979064345"><ele>293.6</ele><time>2026-03-28T15:03:37Z</time></trkpt><trkpt lat="46.146223873370616" lon="1.3400742433788504"><ele>293.0</ele><time>2026-03-28T15:03:38Z</time></trkpt><trkpt lat="46.14623711756631" lon="1.3398685357753357"><ele>293.0</ele><time>2026-03-28T15:03:39Z</time></trkpt><trkpt lat="46.14625028963641" lon="1.3396879209439319"><ele>293.0</ele><time>2026-03-28T15:03:40Z</time></trkpt><trkpt lat="46.14626282473098" lon="1.3395160398661203"><ele>293.0</ele><time>2026-03-28T15:03:41Z</time></trkpt><trkpt lat="46.14627849818035" lon="1.339344126859412"><ele>293.0</ele><time>2026-03-28T15:03:42Z</time></trkpt><trkpt lat="46.146284884612825" lon="1.3391754608217485"><ele>293.0</ele><time>2026-03-28T15:03:43Z</time></trkpt><trkpt lat="46.14628851652939" lon="1.3390065927322101"><ele>293.0</ele><time>2026-03-28T15:03:44Z</time></trkpt><trkpt lat="46.14628869305612" lon="1.3388617531590288"><ele>293.0</ele><time>2026-03-28T15:03:45Z</time></trkpt><trkpt lat="46.146293648454225" lon="1.3387033273029565"><ele>293.0</ele><time>2026-03-28T15:03:46Z</time></trkpt><trkpt lat="46.146318120389076" lon="1.3385185026279673"><ele>292.4</ele><time>2026-03-28T15:03:47Z</time></trkpt><trkpt lat="46.14632979059565" lon="1.3384079896002807"><ele>291.8</ele><time>2026-03-28T15:03:48Z</time></trkpt><trkpt lat="46.146344347576466" lon="1.3382207315271395"><ele>291.2</ele><time>2026-03-28T15:03:49Z</time></trkpt><trkpt lat="46.146356046492265" lon="1.338085207597301"><ele>290.6</ele><time>2026-03-28T15:03:50Z</time></trkpt><trkpt lat="46.14636955797954" lon="1.3379488892737215"><ele>290.0</ele><time>2026-03-28T15:03:51Z</time></trkpt><trkpt lat="46.14638479926079" lon="1.3378170769471067"><ele>290.0</ele><time>2026-03-28T15:03:52Z</time></trkpt><trkpt lat="46.14641054060034" lon="1.3376453673782587"><ele>290.0</ele><time>2026-03-28T15:03:53Z</time></trkpt><trkpt lat="46.14642413241044" lon="1.337492100961303"><ele>290.0</ele><time>2026-03-28T15:03:54Z</time></trkpt><trkpt lat="46.14643353513206" lon="1.33737246144468"><ele>290.0</ele><time>2026-03-28T15:03:55Z</time></trkpt><trkpt lat="46.14643785391164" lon="1.3372555921674294"><ele>290.0</ele><time>2026-03-28T15:03:56Z</time></trkpt><trkpt lat="46.14646561617411" lon="1.337151186665816"><ele>290.6</ele><time>2026-03-28T15:03:57Z</time></trkpt><trkpt lat="46.14647947558641" lon="1.3370374622434698"><ele>291.2</ele><time>2026-03-28T15:03:58Z</time></trkpt><trkpt lat="46.146493290204276" lon="1.336924105862447"><ele>291.8</ele><time>2026-03-28T15:03:59Z</time></trkpt><trkpt lat="46.14649601733264" lon="1.3367403863673202"><ele>292.4</ele><time>2026-03-28T15:04:01Z</time></trkpt><trkpt lat="46.14652032550905" lon="1.336594278219352"><ele>293.0</ele><time>2026-03-28T15:04:03Z</time></trkpt><trkpt lat="46.14653142317761" lon="1.3364852161765512"><ele>293.1666666666667</ele><time>2026-03-28T15:04:05Z</time></trkpt><trkpt lat="46.1465405129184" lon="1.336385718323413"><ele>293.33333333333337</ele><time>2026-03-28T15:04:07Z</time></trkpt><trkpt lat="46.14653636573838" lon="1.3362664929014834"><ele>293.5</ele><time>2026-03-28T15:04:10Z</time></trkpt><trkpt lat="46.14653414455578" lon="1.3361499783068544"><ele>293.6666666666667</ele><time>2026-03-28T15:04:12.999Z</time></trkpt><trkpt lat="46.146535215757964" lon="1.3360519823561758"><ele>293.8333333333333</ele><time>2026-03-28T15:04:14.999Z</time></trkpt><trkpt lat="46.14653668254452" lon="1.3359177977423937"><ele>294.0</ele><time>2026-03-28T15:04:17.999Z</time></trkpt><trkpt lat="46.14653925857826" lon="1.3358225101473782"><ele>294.0</ele><time>2026-03-28T15:04:19.999Z</time></trkpt><trkpt lat="46.14652681729585" lon="1.3357053776216072"><ele>294.0</ele><time>2026-03-28T15:04:23.999Z</time></trkpt><trkpt lat="46.14653836624602" lon="1.335582543286011"><ele>294.0</ele><time>2026-03-28T15:04:44.999Z</time></trkpt><trkpt lat="46.146538740032305" lon="1.3354881752834267"><ele>294.0</ele><time>2026-03-28T15:04:46.999Z</time></trkpt><trkpt lat="46.14654075290502" lon="1.3353755882926384"><ele>294.0</ele><time>2026-03-28T15:04:48.999Z</time></trkpt><trkpt lat="46.146525846316806" lon="1.3352568861320178"><ele>294.0</ele><time>2026-03-28T15:04:50.999Z</time></trkpt><trkpt lat="46.14652340169648" lon="1.335148596742714"><ele>293.8333333333333</ele><time>2026-03-28T15:04:51.999Z</time></trkpt><trkpt lat="46.146502142523644" lon="1.3349884345260825"><ele>293.6666666666667</ele><time>2026-03-28T15:04:53.999Z</time></trkpt><trkpt lat="46.146489966537764" lon="1.3348764373745245"><ele>293.5</ele><time>2026-03-28T15:04:54.999Z</time></trkpt><trkpt lat="46.14648239749901" lon="1.3347742998451513"><ele>293.33333333333337</ele><time>2026-03-28T15:04:55.999Z</time></trkpt><trkpt lat="46.146459173766296" lon="1.3346799526324649"><ele>293.1666666666667</ele><time>2026-03-28T15:04:56.999Z</time></trkpt><trkpt lat="46.146457535793886" lon="1.3345811630654114"><ele>293.0</ele><time>2026-03-28T15:04:57.999Z</time></trkpt><trkpt lat="46.14644572746814" lon="1.334468442520702"><ele>292.1666666666667</ele><time>2026-03-28T15:04:58.999Z</time></trkpt><trkpt lat="46.146457176912904" lon="1.3343635621260386"><ele>291.33333333333337</ele><time>2026-03-28T15:04:59.999Z</time></trkpt><trkpt lat="46.14645561773086" lon="1.334247603801212"><ele>290.5</ele><time>2026-03-28T15:05:00.999Z</time></trkpt><trkpt lat="46.14645807276968" lon="1.3341191213665775"><ele>289.6666666666667</ele><time>2026-03-28T15:05:01.998Z</time></trkpt><trkpt lat="46.14646190113415" lon="1.3340029887705667"><ele>288.8333333333333</ele><time>2026-03-28T15:05:02.998Z</time></trkpt><trkpt lat="46.14645232438998" lon="1.333879480228056"><ele>288.0</ele><time>2026-03-28T15:05:03.998Z</time></trkpt><trkpt lat="46.146477898868945" lon="1.3337515484359939"><ele>287.4</ele><time>2026-03-28T15:05:04.998Z</time></trkpt><trkpt lat="46.146478105243844" lon="1.3336153425317727"><ele>286.8</ele><time>2026-03-28T15:05:05.998Z</time></trkpt><trkpt lat="46.14649162976885" lon="1.3334928330153957"><ele>286.2</ele><time>2026-03-28T15:05:06.998Z</time></trkpt><trkpt lat="46.14650403482365" lon="1.3333635814354685"><ele>285.6</ele><time>2026-03-28T15:05:07.998Z</time></trkpt><trkpt lat="46.1465438524027" lon="1.3332043112959164"><ele>285.0</ele><time>2026-03-28T15:05:08.998Z</time></trkpt><trkpt lat="46.14657228753886" lon="1.3330806990185353"><ele>283.8</ele><time>2026-03-28T15:05:09.998Z</time></trkpt><trkpt lat="46.14661043600423" lon="1.3329214422524536"><ele>282.6</ele><time>2026-03-28T15:05:10.998Z</time></trkpt><trkpt lat="46.146634070489604" lon="1.3328160459289071"><ele>281.4</ele><time>2026-03-28T15:05:11.998Z</time></trkpt><trkpt lat="46.14664818609669" lon="1.3326776534167384"><ele>280.2</ele><time>2026-03-28T15:05:12.998Z</time></trkpt><trkpt lat="46.14667845358735" lon="1.332549295886607"><ele>279.0</ele><time>2026-03-28T15:05:13.998Z</time></trkpt><trkpt lat="46.146699255039564" lon="1.3324224068613149"><ele>279.0</ele><time>2026-03-28T15:05:14.998Z</time></trkpt><trkpt lat="46.14671760548429" lon="1.3322899501146828"><ele>279.0</ele><time>2026-03-28T15:05:15.998Z</time></trkpt><trkpt lat="46.146737159278594" lon="1.3321509836964343"><ele>279.0</ele><time>2026-03-28T15:05:16.998Z</time></trkpt><trkpt lat="46.14678015228145" lon="1.3320246762159953"><ele>279.0</ele><time>2026-03-28T15:05:17.998Z</time></trkpt><trkpt lat="46.14680670672914" lon="1.3319013983184795"><ele>279.0</ele><time>2026-03-28T15:05:18.998Z</time></trkpt><trkpt lat="46.14683804716906" lon="1.3317739139621867"><ele>279.2</ele><time>2026-03-28T15:05:19.998Z</time></trkpt><trkpt lat="46.14687486931225" lon="1.3316540481596468"><ele>279.4</ele><time>2026-03-28T15:05:20.998Z</time></trkpt><trkpt lat="46.14691616108761" lon="1.3315487568223512"><ele>279.6</ele><time>2026-03-28T15:05:21.998Z</time></trkpt><trkpt lat="46.14697117133038" lon="1.3314330926555986"><ele>279.8</ele><time>2026-03-28T15:05:22.998Z</time></trkpt><trkpt lat="46.14702654655834" lon="1.3313311144819864"><ele>280.0</ele><time>2026-03-28T15:05:23.998Z</time></trkpt><trkpt lat="46.14707397271434" lon="1.3311965152747933"><ele>280.66666666666663</ele><time>2026-03-28T15:05:24.998Z</time></trkpt><trkpt lat="46.1471406765204" lon="1.3311001872520722"><ele>281.3333333333333</ele><time>2026-03-28T15:05:25.998Z</time></trkpt><trkpt lat="46.14718081439176" lon="1.331005763339027"><ele>282.0</ele><time>2026-03-28T15:05:26.998Z</time></trkpt><trkpt lat="46.14720602652526" lon="1.330919893996638"><ele>282.6666666666667</ele><time>2026-03-28T15:05:27.998Z</time></trkpt><trkpt lat="46.147205370903954" lon="1.3308122801920557"><ele>283.33333333333337</ele><time>2026-03-28T15:05:28.998Z</time></trkpt><trkpt lat="46.147175184508974" lon="1.3306876904251261"><ele>284.0</ele><time>2026-03-28T15:05:29.998Z</time></trkpt><trkpt lat="46.1471314296968" lon="1.3305840934905195"><ele>284.59999999999997</ele><time>2026-03-28T15:05:30.998Z</time></trkpt><trkpt lat="46.14708727483303" lon="1.3304726361560086"><ele>285.2</ele><time>2026-03-28T15:05:31.998Z</time></trkpt><trkpt lat="46.147021841683596" lon="1.3303840103118867"><ele>285.79999999999995</ele><time>2026-03-28T15:05:32.998Z</time></trkpt><trkpt lat="46.14694616724993" lon="1.330303298698596"><ele>286.4</ele><time>2026-03-28T15:05:33.998Z</time></trkpt><trkpt lat="46.14687087767052" lon="1.3302275823612264"><ele>287.0</ele><time>2026-03-28T15:05:34.998Z</time></trkpt><trkpt lat="46.14678597644545" lon="1.3301791171819766"><ele>287.0</ele><time>2026-03-28T15:05:35.998Z</time></trkpt><trkpt lat="46.14671393852985" lon="1.330116960770846"><ele>287.0</ele><time>2026-03-28T15:05:36.998Z</time></trkpt><trkpt lat="46.14663373841459" lon="1.3300468438113067"><ele>287.0</ele><time>2026-03-28T15:05:37.998Z</time></trkpt><trkpt lat="46.1465452204602" lon="1.329962301082368"><ele>287.0</ele><time>2026-03-28T15:05:39Z</time></trkpt><trkpt lat="46.14649411331146" lon="1.329861471059217"><ele>287.0</ele><time>2026-03-28T15:05:40Z</time></trkpt><trkpt lat="46.14644211668029" lon="1.3297601063613707"><ele>289.1666666666667</ele><time>2026-03-28T15:05:41Z</time></trkpt><trkpt lat="46.14641671064366" lon="1.3296694522237196"><ele>291.33333333333337</ele><time>2026-03-28T15:05:42Z</time></trkpt><trkpt lat="46.146399820069085" lon="1.3295484077464585"><ele>293.5</ele><time>2026-03-28T15:05:43Z</time></trkpt><trkpt lat="46.146419992829856" lon="1.3294209258908682"><ele>295.6666666666667</ele><time>2026-03-28T15:05:44Z</time></trkpt><trkpt lat="46.14644220526337" lon="1.329282333275662"><ele>297.8333333333333</ele><time>2026-03-28T15:05:45Z</time></trkpt><trkpt lat="46.14645580132287" lon="1.3291488439049997"><ele>300.0</ele><time>2026-03-28T15:05:46Z</time></trkpt><trkpt lat="46.146500290998446" lon="1.329021795539363"><ele>299.6</ele><time>2026-03-28T15:05:47Z</time></trkpt><trkpt lat="46.146516808137925" lon="1.328873691665154"><ele>299.2</ele><time>2026-03-28T15:05:48Z</time></trkpt><trkpt lat="46.146548965174794" lon="1.328741081304779"><ele>298.8</ele><time>2026-03-28T15:05:49Z</time></trkpt><trkpt lat="46.146580086310934" lon="1.328601292782583"><ele>298.4</ele><time>2026-03-28T15:05:50Z</time></trkpt><trkpt lat="46.14660223679021" lon="1.3284912120429773"><ele>298.0</ele><time>2026-03-28T15:05:51Z</time></trkpt><trkpt lat="46.146638126712475" lon="1.3283106142741685"><ele>297.66666666666663</ele><time>2026-03-28T15:05:52Z</time></trkpt><trkpt lat="46.14665610316649" lon="1.3281967882098527"><ele>297.3333333333333</ele><time>2026-03-28T15:05:53Z</time></trkpt><trkpt lat="46.14667610044293" lon="1.328088303445637"><ele>297.0</ele><time>2026-03-28T15:05:54Z</time></trkpt><trkpt lat="46.14671364762512" lon="1.3279595003234868"><ele>296.6666666666667</ele><time>2026-03-28T15:05:55Z</time></trkpt><trkpt lat="46.146768326857746" lon="1.327869615216294"><ele>296.33333333333337</ele><time>2026-03-28T15:05:56Z</time></trkpt><trkpt lat="46.14682615384692" lon="1.327774555056515"><ele>296.0</ele><time>2026-03-28T15:05:57Z</time></trkpt><trkpt lat="46.14688192982859" lon="1.3276828665346208"><ele>296.0</ele><time>2026-03-28T15:05:58Z</time></trkpt><trkpt lat="46.14693273422203" lon="1.3276005860766569"><ele>296.0</ele><time>2026-03-28T15:05:59Z</time></trkpt><trkpt lat="46.14699460302864" lon="1.3275086380788408"><ele>296.0</ele><time>2026-03-28T15:06:00Z</time></trkpt><trkpt lat="46.147063442700066" lon="1.3274028366558936"><ele>296.0</ele><time>2026-03-28T15:06:01Z</time></trkpt><trkpt lat="46.14713153236775" lon="1.3273310056134904"><ele>296.0</ele><time>2026-03-28T15:06:02Z</time></trkpt><trkpt lat="46.14723705732008" lon="1.3273559714769196"><ele>296.0</ele><time>2026-03-28T15:06:03Z</time></trkpt><trkpt lat="46.147321878634095" lon="1.327370890106874"><ele>296.0</ele><time>2026-03-28T15:06:04Z</time></trkpt><trkpt lat="46.14741695168046" lon="1.3273493943719"><ele>296.0</ele><time>2026-03-28T15:06:05Z</time></trkpt><trkpt lat="46.14751900400485" lon="1.3273091909789185"><ele>296.0</ele><time>2026-03-28T15:06:06Z</time></trkpt><trkpt lat="46.14760199191487" lon="1.3272437839157092"><ele>296.0</ele><time>2026-03-28T15:06:07Z</time></trkpt><trkpt lat="46.14765836312677" lon="1.327178127754428"><ele>294.5</ele><time>2026-03-28T15:06:08Z</time></trkpt><trkpt lat="46.14773424741574" lon="1.32710176375988"><ele>293.0</ele><time>2026-03-28T15:06:09Z</time></trkpt><trkpt lat="46.147780696415644" lon="1.3269898877367887"><ele>291.5</ele><time>2026-03-28T15:06:10Z</time></trkpt><trkpt lat="46.147872702184934" lon="1.3268715402109854"><ele>290.0</ele><time>2026-03-28T15:06:11Z</time></trkpt><trkpt lat="46.147979378059304" lon="1.3266985377452054"><ele>290.0</ele><time>2026-03-28T15:06:12Z</time></trkpt><trkpt lat="46.14806535416473" lon="1.3265381111729193"><ele>290.0</ele><time>2026-03-28T15:06:13Z</time></trkpt><trkpt lat="46.14814844122263" lon="1.3264143919766185"><ele>290.0</ele><time>2026-03-28T15:06:14Z</time></trkpt><trkpt lat="46.148219314700846" lon="1.326286003161679"><ele>290.0</ele><time>2026-03-28T15:06:15Z</time></trkpt><trkpt lat="46.14828040051447" lon="1.3261491255372364"><ele>291.0</ele><time>2026-03-28T15:06:15.999Z</time></trkpt><trkpt lat="46.14834913093626" lon="1.325941858368855"><ele>292.0</ele><time>2026-03-28T15:06:16.999Z</time></trkpt><trkpt lat="46.148401876324314" lon="1.3257349734910735"><ele>293.0</ele><time>2026-03-28T15:06:17.999Z</time></trkpt><trkpt lat="46.148440308926034" lon="1.3255541879896462"><ele>294.0</ele><time>2026-03-28T15:06:18.999Z</time></trkpt><trkpt lat="46.14844563661191" lon="1.3253936044075143"><ele>296.0</ele><time>2026-03-28T15:06:19.999Z</time></trkpt><trkpt lat="46.148468581327215" lon="1.3252205527077947"><ele>298.0</ele><time>2026-03-28T15:06:20.999Z</time></trkpt><trkpt lat="46.14852082909254" lon="1.3250752513375794"><ele>300.0</ele><time>2026-03-28T15:06:21.999Z</time></trkpt><trkpt lat="46.148728892486055" lon="1.3252086458596712"><ele>300.0</ele><time>2026-03-28T15:06:31.999Z</time></trkpt><trkpt lat="46.14884069691214" lon="1.3252473212845948"><ele>300.0</ele><time>2026-03-28T15:06:32.999Z</time></trkpt><trkpt lat="46.14893973726333" lon="1.325271930486185"><ele>300.0</ele><time>2026-03-28T15:06:33.999Z</time></trkpt><trkpt lat="46.14902798346195" lon="1.3253083454811965"><ele>300.0</ele><time>2026-03-28T15:06:34.999Z</time></trkpt><trkpt lat="46.1490954719504" lon="1.3253102661963183"><ele>300.0</ele><time>2026-03-28T15:06:35.999Z</time></trkpt><trkpt lat="46.1491721437255" lon="1.3253321323371978"><ele>297.0</ele><time>2026-03-28T15:06:36.999Z</time></trkpt><trkpt lat="46.149266022794784" lon="1.3253570089834852"><ele>294.0</ele><time>2026-03-28T15:06:37.999Z</time></trkpt><trkpt lat="46.14937130809006" lon="1.3253885237215814"><ele>291.0</ele><time>2026-03-28T15:06:38.999Z</time></trkpt><trkpt lat="46.14948415391634" lon="1.3254384956325542"><ele>288.0</ele><time>2026-03-28T15:06:39.999Z</time></trkpt><trkpt lat="46.14961324371777" lon="1.3254762831636395"><ele>288.0</ele><time>2026-03-28T15:06:40.999Z</time></trkpt><trkpt lat="46.1497254028433" lon="1.325532591430884"><ele>288.0</ele><time>2026-03-28T15:06:41.999Z</time></trkpt><trkpt lat="46.149832870709425" lon="1.3256256797637116"><ele>288.0</ele><time>2026-03-28T15:06:42.999Z</time></trkpt><trkpt lat="46.14991715644599" lon="1.325745379384671"><ele>288.0</ele><time>2026-03-28T15:06:43.999Z</time></trkpt><trkpt lat="46.14996065843786" lon="1.3259171664524498"><ele>288.0</ele><time>2026-03-28T15:06:44.999Z</time></trkpt><trkpt lat="46.14999957898949" lon="1.3260470021481818"><ele>288.0</ele><time>2026-03-28T15:06:45.999Z</time></trkpt><trkpt lat="46.1500099307058" lon="1.3261860527492337"><ele>288.0</ele><time>2026-03-28T15:06:46.999Z</time></trkpt><trkpt lat="46.15003123123633" lon="1.3263239357427885"><ele>288.0</ele><time>2026-03-28T15:06:47.999Z</time></trkpt><trkpt lat="46.15005425161448" lon="1.3264751072079422"><ele>288.0</ele><time>2026-03-28T15:06:48.999Z</time></trkpt><trkpt lat="46.15008304929637" lon="1.3266175549664534"><ele>288.0</ele><time>2026-03-28T15:06:49.999Z</time></trkpt><trkpt lat="46.15013602032415" lon="1.3267674692354459"><ele>288.0</ele><time>2026-03-28T15:06:50.999Z</time></trkpt><trkpt lat="46.15020550986114" lon="1.3269063023854082"><ele>288.0</ele><time>2026-03-28T15:06:51.999Z</time></trkpt><trkpt lat="46.15027094595242" lon="1.3270377630955024"><ele>288.0</ele><time>2026-03-28T15:06:52.999Z</time></trkpt><trkpt lat="46.150325667740695" lon="1.327155682207405"><ele>288.0</ele><time>2026-03-28T15:06:53.999Z</time></trkpt><trkpt lat="46.15038162397369" lon="1.3272582046723183"><ele>288.0</ele><time>2026-03-28T15:06:54.999Z</time></trkpt><trkpt lat="46.15043438899278" lon="1.327338611749191"><ele>288.0</ele><time>2026-03-28T15:06:55.999Z</time></trkpt><trkpt lat="46.15051063889314" lon="1.327417570044288"><ele>288.0</ele><time>2026-03-28T15:06:57.999Z</time></trkpt><trkpt lat="46.15043419196993" lon="1.3273243643839343"><ele>288.0</ele><time>2026-03-28T15:08:43.999Z</time></trkpt><trkpt lat="46.15033483993064" lon="1.3271645877689837"><ele>288.0</ele><time>2026-03-28T15:08:45.999Z</time></trkpt><trkpt lat="46.15028022452414" lon="1.327057302878134"><ele>288.0</ele><time>2026-03-28T15:08:46.999Z</time></trkpt><trkpt lat="46.150256398891514" lon="1.3269187799293793"><ele>288.0</ele><time>2026-03-28T15:08:47.999Z</time></trkpt><trkpt lat="46.15020521701412" lon="1.3267880171109412"><ele>288.0</ele><time>2026-03-28T15:08:48.999Z</time></trkpt><trkpt lat="46.15015360302923" lon="1.3266482895414746"><ele>288.0</ele><time>2026-03-28T15:08:49.999Z</time></trkpt><trkpt lat="46.15009893622771" lon="1.3265070626653443"><ele>288.0</ele><time>2026-03-28T15:08:50.999Z</time></trkpt><trkpt lat="46.15005647910145" lon="1.3263625995401183"><ele>288.4</ele><time>2026-03-28T15:08:51.999Z</time></trkpt><trkpt lat="46.15004266798946" lon="1.3262051081581685"><ele>288.8</ele><time>2026-03-28T15:08:52.999Z</time></trkpt><trkpt lat="46.15000369989932" lon="1.3260557422499522"><ele>289.2</ele><time>2026-03-28T15:08:53.999Z</time></trkpt><trkpt lat="46.149972785819415" lon="1.3259122789092699"><ele>289.6</ele><time>2026-03-28T15:08:54.999Z</time></trkpt><trkpt lat="46.14992495113461" lon="1.3257820685735713"><ele>290.0</ele><time>2026-03-28T15:08:55.999Z</time></trkpt><trkpt lat="46.14986489149839" lon="1.3256714832999767"><ele>290.0</ele><time>2026-03-28T15:08:56.999Z</time></trkpt><trkpt lat="46.14978195712242" lon="1.3255772074748922"><ele>290.0</ele><time>2026-03-28T15:08:57.999Z</time></trkpt><trkpt lat="46.149685711847575" lon="1.3255033422585292"><ele>290.0</ele><time>2026-03-28T15:08:58.999Z</time></trkpt><trkpt lat="46.149586766879835" lon="1.3254439662830981"><ele>290.0</ele><time>2026-03-28T15:08:59.999Z</time></trkpt><trkpt lat="46.149474035505854" lon="1.3254101478579874"><ele>290.0</ele><time>2026-03-28T15:09:00.999Z</time></trkpt><trkpt lat="46.14936542883983" lon="1.3253847139464998"><ele>289.6</ele><time>2026-03-28T15:09:01.999Z</time></trkpt><trkpt lat="46.14925349296371" lon="1.3253519032701577"><ele>289.2</ele><time>2026-03-28T15:09:02.999Z</time></trkpt><trkpt lat="46.149158220053316" lon="1.3253224473302654"><ele>288.8</ele><time>2026-03-28T15:09:03.999Z</time></trkpt><trkpt lat="46.14907520872231" lon="1.3252983894787467"><ele>288.4</ele><time>2026-03-28T15:09:04.999Z</time></trkpt><trkpt lat="46.14900708427704" lon="1.3252731639794302"><ele>288.0</ele><time>2026-03-28T15:09:05.999Z</time></trkpt><trkpt lat="46.148923993480864" lon="1.325251508606679"><ele>290.4</ele><time>2026-03-28T15:09:06.999Z</time></trkpt><trkpt lat="46.14884179124091" lon="1.3251996795708962"><ele>292.8</ele><time>2026-03-28T15:09:07.999Z</time></trkpt><trkpt lat="46.14875043211118" lon="1.325162472096206"><ele>295.2</ele><time>2026-03-28T15:09:08.999Z</time></trkpt><trkpt lat="46.14866805226877" lon="1.3251208912060413"><ele>297.6</ele><time>2026-03-28T15:09:09.999Z</time></trkpt><trkpt lat="46.1485749757495" lon="1.3250736417890383"><ele>300.0</ele><time>2026-03-28T15:09:10.999Z</time></trkpt><trkpt lat="46.14850010420913" lon="1.3249888567817385"><ele>300.0</ele><time>2026-03-28T15:09:11.999Z</time></trkpt><trkpt lat="46.14845318407925" lon="1.3248804372265732"><ele>300.0</ele><time>2026-03-28T15:09:12.999Z</time></trkpt><trkpt lat="46.148432339438635" lon="1.3247201790113214"><ele>300.0</ele><time>2026-03-28T15:09:13.999Z</time></trkpt><trkpt lat="46.14839093027016" lon="1.3245792734610615"><ele>300.0</ele><time>2026-03-28T15:09:14.999Z</time></trkpt><trkpt lat="46.148348851451644" lon="1.3244368344360256"><ele>300.0</ele><time>2026-03-28T15:09:15.999Z</time></trkpt><trkpt lat="46.14830257705744" lon="1.3242896524498986"><ele>299.25</ele><time>2026-03-28T15:09:16.999Z</time></trkpt><trkpt lat="46.148245694138524" lon="1.3241361563875191"><ele>298.5</ele><time>2026-03-28T15:09:17.998Z</time></trkpt><trkpt lat="46.14818018422365" lon="1.3240044023693491"><ele>297.75</ele><time>2026-03-28T15:09:18.998Z</time></trkpt><trkpt lat="46.14815083224256" lon="1.3238475925675903"><ele>297.0</ele><time>2026-03-28T15:09:19.998Z</time></trkpt><trkpt lat="46.1481398371892" lon="1.3236801403762377"><ele>296.6</ele><time>2026-03-28T15:09:20.998Z</time></trkpt><trkpt lat="46.14814816287378" lon="1.3235186232130345"><ele>296.2</ele><time>2026-03-28T15:09:21.998Z</time></trkpt><trkpt lat="46.14818544757326" lon="1.3233610161575986"><ele>295.8</ele><time>2026-03-28T15:09:22.998Z</time></trkpt><trkpt lat="46.14821139100073" lon="1.3232245408800622"><ele>295.4</ele><time>2026-03-28T15:09:23.998Z</time></trkpt><trkpt lat="46.14823441605979" lon="1.3230866707986602"><ele>295.0</ele><time>2026-03-28T15:09:24.998Z</time></trkpt><trkpt lat="46.14823080122237" lon="1.3229390146001174"><ele>298.0</ele><time>2026-03-28T15:09:25.998Z</time></trkpt><trkpt lat="46.14820722197786" lon="1.322806002535592"><ele>301.0</ele><time>2026-03-28T15:09:26.998Z</time></trkpt><trkpt lat="46.14816306139195" lon="1.3226752490005573"><ele>304.0</ele><time>2026-03-28T15:09:27.998Z</time></trkpt><trkpt lat="46.14808690297432" lon="1.3225715459743375"><ele>307.0</ele><time>2026-03-28T15:09:28.998Z</time></trkpt><trkpt lat="46.14799965290572" lon="1.3224693964803182"><ele>310.0</ele><time>2026-03-28T15:09:29.998Z</time></trkpt><trkpt lat="46.14790562056093" lon="1.3223645402174486"><ele>310.0</ele><time>2026-03-28T15:09:30.998Z</time></trkpt><trkpt lat="46.147811284813606" lon="1.322265847997397"><ele>310.0</ele><time>2026-03-28T15:09:31.998Z</time></trkpt><trkpt lat="46.14772753499018" lon="1.3221679434259506"><ele>310.0</ele><time>2026-03-28T15:09:32.998Z</time></trkpt><trkpt lat="46.147641788132326" lon="1.322108295996844"><ele>310.0</ele><time>2026-03-28T15:09:33.998Z</time></trkpt><trkpt lat="46.14756576661027" lon="1.3220471784266192"><ele>310.0</ele><time>2026-03-28T15:09:34.998Z</time></trkpt><trkpt lat="46.147502692172985" lon="1.3220124293523605"><ele>308.2</ele><time>2026-03-28T15:09:35.998Z</time></trkpt><trkpt lat="46.147425005450636" lon="1.321993719437957"><ele>306.4</ele><time>2026-03-28T15:09:36.998Z</time></trkpt><trkpt lat="46.1473333250078" lon="1.3220054911822323"><ele>304.6</ele><time>2026-03-28T15:09:37.998Z</time></trkpt><trkpt lat="46.147247040448136" lon="1.322013043065903"><ele>302.8</ele><time>2026-03-28T15:09:38.998Z</time></trkpt><trkpt lat="46.14713823818653" lon="1.3220184393265773"><ele>301.0</ele><time>2026-03-28T15:09:39.998Z</time></trkpt><trkpt lat="46.14704698542969" lon="1.3219996516626087"><ele>301.0</ele><time>2026-03-28T15:09:40.998Z</time></trkpt><trkpt lat="46.14695055739149" lon="1.3219377877857479"><ele>301.0</ele><time>2026-03-28T15:09:41.998Z</time></trkpt><trkpt lat="46.1468499369032" lon="1.3218874460225105"><ele>301.0</ele><time>2026-03-28T15:09:42.998Z</time></trkpt><trkpt lat="46.14673817447183" lon="1.321832412295712"><ele>301.0</ele><time>2026-03-28T15:09:43.998Z</time></trkpt><trkpt lat="46.146615527971875" lon="1.3217793227757872"><ele>302.0</ele><time>2026-03-28T15:09:44.998Z</time></trkpt><trkpt lat="46.146488170645625" lon="1.3217510596231445"><ele>303.0</ele><time>2026-03-28T15:09:45.998Z</time></trkpt><trkpt lat="46.14636046776448" lon="1.321751216806809"><ele>304.0</ele><time>2026-03-28T15:09:46.998Z</time></trkpt><trkpt lat="46.14624167937424" lon="1.321702888122465"><ele>305.0</ele><time>2026-03-28T15:09:47.998Z</time></trkpt><trkpt lat="46.14612275076083" lon="1.3216808688559003"><ele>305.0</ele><time>2026-03-28T15:09:48.998Z</time></trkpt><trkpt lat="46.146001434715586" lon="1.3216760214511902"><ele>305.0</ele><time>2026-03-28T15:09:49.998Z</time></trkpt><trkpt lat="46.14589582569826" lon="1.3217005738804488"><ele>305.0</ele><time>2026-03-28T15:09:51Z</time></trkpt><trkpt lat="46.14579903064949" lon="1.3217502928830094"><ele>305.0</ele><time>2026-03-28T15:09:52Z</time></trkpt><trkpt lat="46.14570253922744" lon="1.3218178041001365"><ele>305.0</ele><time>2026-03-28T15:09:53Z</time></trkpt><trkpt lat="46.14560936354675" lon="1.3218682473978298"><ele>305.6666666666667</ele><time>2026-03-28T15:09:54Z</time></trkpt><trkpt lat="46.14551332197731" lon="1.3219012741347678"><ele>306.33333333333337</ele><time>2026-03-28T15:09:55Z</time></trkpt><trkpt lat="46.14542175670779" lon="1.321908961913546"><ele>307.0</ele><time>2026-03-28T15:09:56Z</time></trkpt><trkpt lat="46.145334731887296" lon="1.3219140563080114"><ele>307.6666666666667</ele><time>2026-03-28T15:09:57Z</time></trkpt><trkpt lat="46.145250717582556" lon="1.3219251461454373"><ele>308.3333333333333</ele><time>2026-03-28T15:09:58Z</time></trkpt><trkpt lat="46.14517115919797" lon="1.3219407856761454"><ele>309.0</ele><time>2026-03-28T15:09:59Z</time></trkpt><trkpt lat="46.14509962869699" lon="1.3219791761949782"><ele>309.00000000000006</ele><time>2026-03-28T15:10:00Z</time></trkpt><trkpt lat="46.14502589588684" lon="1.3219821439787716"><ele>309.0</ele><time>2026-03-28T15:10:01Z</time></trkpt><trkpt lat="46.14496194432101" lon="1.3219834360593365"><ele>309.0</ele><time>2026-03-28T15:10:02Z</time></trkpt><trkpt lat="46.14489264743814" lon="1.3219812044858787"><ele>309.0</ele><time>2026-03-28T15:10:03Z</time></trkpt><trkpt lat="46.144827075823855" lon="1.321976273841583"><ele>309.0</ele><time>2026-03-28T15:10:04Z</time></trkpt><trkpt lat="46.14476226111579" lon="1.3219781554878498"><ele>309.00000000000006</ele><time>2026-03-28T15:10:05Z</time></trkpt><trkpt lat="46.14469014603536" lon="1.3219835254431038"><ele>309.0</ele><time>2026-03-28T15:10:06Z</time></trkpt><trkpt lat="46.14461517267146" lon="1.3219656804970334"><ele>309.3333333333333</ele><time>2026-03-28T15:10:07Z</time></trkpt><trkpt lat="46.14454929349613" lon="1.3219699469559656"><ele>309.6666666666667</ele><time>2026-03-28T15:10:08Z</time></trkpt><trkpt lat="46.14445256229112" lon="1.3219690810034668"><ele>310.0</ele><time>2026-03-28T15:10:10Z</time></trkpt><trkpt lat="46.14434765186385" lon="1.3219458934424206"><ele>310.33333333333337</ele><time>2026-03-28T15:10:12Z</time></trkpt><trkpt lat="46.14427926035234" lon="1.3219208963491973"><ele>310.6666666666667</ele><time>2026-03-28T15:10:13Z</time></trkpt><trkpt lat="46.144208037785404" lon="1.3218908439927313"><ele>311.0</ele><time>2026-03-28T15:10:14Z</time></trkpt><trkpt lat="46.1441299694225" lon="1.3218579029000541"><ele>311.0</ele><time>2026-03-28T15:10:15Z</time></trkpt><trkpt lat="46.14405052276372" lon="1.3218477113640001"><ele>311.0</ele><time>2026-03-28T15:10:16Z</time></trkpt><trkpt lat="46.14397520413175" lon="1.3218103964535988"><ele>311.0</ele><time>2026-03-28T15:10:17Z</time></trkpt><trkpt lat="46.143905242292924" lon="1.3217810300423092"><ele>311.0</ele><time>2026-03-28T15:10:18Z</time></trkpt><trkpt lat="46.14384262409698" lon="1.3217608366308062"><ele>311.0</ele><time>2026-03-28T15:10:19Z</time></trkpt><trkpt lat="46.14376787676397" lon="1.3217230122474033"><ele>311.0</ele><time>2026-03-28T15:10:20Z</time></trkpt><trkpt lat="46.14367816682495" lon="1.3216803202296934"><ele>311.40000000000003</ele><time>2026-03-28T15:10:21Z</time></trkpt><trkpt lat="46.14359094268916" lon="1.3216087498911515"><ele>311.8</ele><time>2026-03-28T15:10:22Z</time></trkpt><trkpt lat="46.14349071621564" lon="1.3215616663992948"><ele>312.20000000000005</ele><time>2026-03-28T15:10:23Z</time></trkpt><trkpt lat="46.143386797643245" lon="1.3215128484517455"><ele>312.6</ele><time>2026-03-28T15:10:24Z</time></trkpt><trkpt lat="46.14328281774457" lon="1.3214640017120545"><ele>313.0</ele><time>2026-03-28T15:10:25Z</time></trkpt><trkpt lat="46.14317665745407" lon="1.3214141610955363"><ele>312.5</ele><time>2026-03-28T15:10:26Z</time></trkpt><trkpt lat="46.143067774394865" lon="1.3213653766568407"><ele>312.0</ele><time>2026-03-28T15:10:27Z</time></trkpt><trkpt lat="46.14295565428632" lon="1.3213151418890847"><ele>311.5</ele><time>2026-03-28T15:10:28Z</time></trkpt><trkpt lat="46.142842230040685" lon="1.3212643227988985"><ele>311.0</ele><time>2026-03-28T15:10:28.999Z</time></trkpt><trkpt lat="46.142727649109645" lon="1.3212129854511256"><ele>311.0</ele><time>2026-03-28T15:10:29.999Z</time></trkpt><trkpt lat="46.14260962506094" lon="1.3211601054588726"><ele>311.0</ele><time>2026-03-28T15:10:30.999Z</time></trkpt><trkpt lat="46.142492401347724" lon="1.3211051001855707"><ele>311.0</ele><time>2026-03-28T15:10:31.999Z</time></trkpt><trkpt lat="46.14236761407635" lon="1.3210684251089084"><ele>311.0</ele><time>2026-03-28T15:10:32.999Z</time></trkpt><trkpt lat="46.142245752538614" lon="1.3210121407579245"><ele>311.25</ele><time>2026-03-28T15:10:33.999Z</time></trkpt><trkpt lat="46.14212737740378" lon="1.3209562638956585"><ele>311.5</ele><time>2026-03-28T15:10:34.999Z</time></trkpt><trkpt lat="46.1420039586473" lon="1.3208989377629548"><ele>311.75</ele><time>2026-03-28T15:10:35.999Z</time></trkpt><trkpt lat="46.14188333415942" lon="1.3208455693304935"><ele>312.0</ele><time>2026-03-28T15:10:36.999Z</time></trkpt><trkpt lat="46.14176084022761" lon="1.3207907637400838"><ele>312.0</ele><time>2026-03-28T15:10:37.999Z</time></trkpt><trkpt lat="46.14164707368865" lon="1.3207184307803241"><ele>312.0</ele><time>2026-03-28T15:10:38.999Z</time></trkpt><trkpt lat="46.141526000025486" lon="1.3206654972814833"><ele>312.0</ele><time>2026-03-28T15:10:39.999Z</time></trkpt><trkpt lat="46.141405965812865" lon="1.3206130182187161"><ele>312.0</ele><time>2026-03-28T15:10:40.999Z</time></trkpt><trkpt lat="46.1412874789751" lon="1.3205612156697821"><ele>311.75</ele><time>2026-03-28T15:10:41.999Z</time></trkpt><trkpt lat="46.14117270226905" lon="1.3205291118947884"><ele>311.5</ele><time>2026-03-28T15:10:42.999Z</time></trkpt><trkpt lat="46.14105945277317" lon="1.3204731560522138"><ele>311.25</ele><time>2026-03-28T15:10:43.999Z</time></trkpt><trkpt lat="46.140948787897976" lon="1.3204194094514867"><ele>311.0</ele><time>2026-03-28T15:10:44.999Z</time></trkpt><trkpt lat="46.140838126471486" lon="1.3203592311468761"><ele>311.0</ele><time>2026-03-28T15:10:45.999Z</time></trkpt><trkpt lat="46.14072858679164" lon="1.3203053495105006"><ele>311.0</ele><time>2026-03-28T15:10:46.999Z</time></trkpt><trkpt lat="46.140621888972234" lon="1.3202385925836706"><ele>311.0</ele><time>2026-03-28T15:10:47.999Z</time></trkpt><trkpt lat="46.140513707696286" lon="1.3201581349966498"><ele>311.0</ele><time>2026-03-28T15:10:48.999Z</time></trkpt><trkpt lat="46.140415241790194" lon="1.3200795214873455"><ele>311.25</ele><time>2026-03-28T15:10:49.999Z</time></trkpt><trkpt lat="46.14030947513897" lon="1.3199973295458922"><ele>311.5</ele><time>2026-03-28T15:10:50.999Z</time></trkpt><trkpt lat="46.1402093857052" lon="1.3199191223694795"><ele>311.75</ele><time>2026-03-28T15:10:51.999Z</time></trkpt><trkpt lat="46.140111521436175" lon="1.3198285401798755"><ele>312.0</ele><time>2026-03-28T15:10:52.999Z</time></trkpt><trkpt lat="46.14000616806676" lon="1.3197391234869966"><ele>312.0</ele><time>2026-03-28T15:10:53.999Z</time></trkpt><trkpt lat="46.13989951169159" lon="1.3196591852979478"><ele>312.0</ele><time>2026-03-28T15:10:54.999Z</time></trkpt><trkpt lat="46.13979437791442" lon="1.3195749132160317"><ele>312.0</ele><time>2026-03-28T15:10:55.999Z</time></trkpt><trkpt lat="46.13968440163073" lon="1.319488718750102"><ele>312.0</ele><time>2026-03-28T15:10:56.999Z</time></trkpt><trkpt lat="46.13957803337737" lon="1.3194017972267542"><ele>312.0</ele><time>2026-03-28T15:10:57.999Z</time></trkpt><trkpt lat="46.13947579503869" lon="1.3193140192724093"><ele>312.0</ele><time>2026-03-28T15:10:58.999Z</time></trkpt><trkpt lat="46.13937709929714" lon="1.3192082502585567"><ele>312.0</ele><time>2026-03-28T15:10:59.999Z</time></trkpt><trkpt lat="46.13928826331998" lon="1.319089417982792"><ele>312.0</ele><time>2026-03-28T15:11:00.999Z</time></trkpt><trkpt lat="46.139209865525274" lon="1.3189540146228775"><ele>312.0</ele><time>2026-03-28T15:11:01.999Z</time></trkpt><trkpt lat="46.139148588608855" lon="1.318803407666514"><ele>312.0</ele><time>2026-03-28T15:11:02.999Z</time></trkpt><trkpt lat="46.13909543055553" lon="1.3186488370765734"><ele>312.0</ele><time>2026-03-28T15:11:03.999Z</time></trkpt><trkpt lat="46.13906448659059" lon="1.3184796565094483"><ele>312.0</ele><time>2026-03-28T15:11:04.999Z</time></trkpt><trkpt lat="46.13902195616901" lon="1.3183113249649994"><ele>312.25</ele><time>2026-03-28T15:11:05.999Z</time></trkpt><trkpt lat="46.13895945565626" lon="1.318161626325904"><ele>312.5</ele><time>2026-03-28T15:11:06.999Z</time></trkpt><trkpt lat="46.13891159962544" lon="1.3179959933818561"><ele>312.75</ele><time>2026-03-28T15:11:07.999Z</time></trkpt><trkpt lat="46.13886157136167" lon="1.3178292912713965"><ele>313.0</ele><time>2026-03-28T15:11:08.999Z</time></trkpt><trkpt lat="46.13880986746855" lon="1.3176586800961727"><ele>313.0</ele><time>2026-03-28T15:11:09.999Z</time></trkpt><trkpt lat="46.138758361682754" lon="1.3174809927465025"><ele>313.0</ele><time>2026-03-28T15:11:10.999Z</time></trkpt><trkpt lat="46.138703977788595" lon="1.317303775476151"><ele>313.0</ele><time>2026-03-28T15:11:11.999Z</time></trkpt><trkpt lat="46.13864749594084" lon="1.3171303832357013"><ele>313.0</ele><time>2026-03-28T15:11:12.999Z</time></trkpt><trkpt lat="46.138588177942204" lon="1.3169541844820956"><ele>312.0</ele><time>2026-03-28T15:11:13.999Z</time></trkpt><trkpt lat="46.138545840847094" lon="1.3167708906467264"><ele>311.0</ele><time>2026-03-28T15:11:14.999Z</time></trkpt><trkpt lat="46.13848859954059" lon="1.3165874460448488"><ele>310.0</ele><time>2026-03-28T15:11:15.999Z</time></trkpt><trkpt lat="46.13843193912103" lon="1.3164081290288052"><ele>309.0</ele><time>2026-03-28T15:11:16.999Z</time></trkpt><trkpt lat="46.13836617856154" lon="1.3162399107326632"><ele>309.0</ele><time>2026-03-28T15:11:17.999Z</time></trkpt><trkpt lat="46.13830810320921" lon="1.3160676829046531"><ele>309.0</ele><time>2026-03-28T15:11:18.998Z</time></trkpt><trkpt lat="46.13825353175067" lon="1.3158914030774245"><ele>309.0</ele><time>2026-03-28T15:11:19.998Z</time></trkpt><trkpt lat="46.13820132406499" lon="1.3157177363458517"><ele>309.0</ele><time>2026-03-28T15:11:20.998Z</time></trkpt><trkpt lat="46.13816150773461" lon="1.3155551856869014"><ele>309.0</ele><time>2026-03-28T15:11:21.998Z</time></trkpt><trkpt lat="46.138104300705834" lon="1.3153754302561211"><ele>309.0</ele><time>2026-03-28T15:11:22.998Z</time></trkpt><trkpt lat="46.138051715136946" lon="1.3152035825289472"><ele>309.0</ele><time>2026-03-28T15:11:23.998Z</time></trkpt><trkpt lat="46.1380013573719" lon="1.3150289723521327"><ele>309.0</ele><time>2026-03-28T15:11:24.998Z</time></trkpt><trkpt lat="46.137946931069784" lon="1.3148572166277344"><ele>309.0</ele><time>2026-03-28T15:11:25.998Z</time></trkpt><trkpt lat="46.13789077521871" lon="1.3146901813658234"><ele>309.0</ele><time>2026-03-28T15:11:26.998Z</time></trkpt><trkpt lat="46.137831634092116" lon="1.314516255069948"><ele>309.0</ele><time>2026-03-28T15:11:27.998Z</time></trkpt><trkpt lat="46.13776457461441" lon="1.314359653413933"><ele>309.0</ele><time>2026-03-28T15:11:28.998Z</time></trkpt><trkpt lat="46.13769600906973" lon="1.314188956897628"><ele>309.0</ele><time>2026-03-28T15:11:29.998Z</time></trkpt><trkpt lat="46.13763174034677" lon="1.3140280627317356"><ele>309.0</ele><time>2026-03-28T15:11:30.998Z</time></trkpt><trkpt lat="46.13755465387835" lon="1.3138661642883793"><ele>309.0</ele><time>2026-03-28T15:11:31.998Z</time></trkpt><trkpt lat="46.137484378961965" lon="1.3137147167631875"><ele>309.0</ele><time>2026-03-28T15:11:32.998Z</time></trkpt><trkpt lat="46.13740995026324" lon="1.3135526461081632"><ele>309.0</ele><time>2026-03-28T15:11:33.998Z</time></trkpt><trkpt lat="46.13733996422907" lon="1.3133911617987108"><ele>309.0</ele><time>2026-03-28T15:11:34.998Z</time></trkpt><trkpt lat="46.13727549296269" lon="1.3132260130181599"><ele>309.0</ele><time>2026-03-28T15:11:35.998Z</time></trkpt><trkpt lat="46.137212414611334" lon="1.3130814008778848"><ele>309.0</ele><time>2026-03-28T15:11:36.998Z</time></trkpt><trkpt lat="46.13715504491913" lon="1.3129476693756996"><ele>309.0</ele><time>2026-03-28T15:11:37.998Z</time></trkpt><trkpt lat="46.1371038380047" lon="1.312829973934782"><ele>309.0</ele><time>2026-03-28T15:11:38.998Z</time></trkpt><trkpt lat="46.13704318620632" lon="1.3127030818725032"><ele>309.0</ele><time>2026-03-28T15:11:39.998Z</time></trkpt><trkpt lat="46.13697928620761" lon="1.312575549833461"><ele>309.0</ele><time>2026-03-28T15:11:40.998Z</time></trkpt><trkpt lat="46.13691027367699" lon="1.3124387903263577"><ele>309.0</ele><time>2026-03-28T15:11:41.998Z</time></trkpt><trkpt lat="46.13684607967193" lon="1.3122921761546327"><ele>308.5</ele><time>2026-03-28T15:11:42.998Z</time></trkpt><trkpt lat="46.136777944868896" lon="1.3121357761169123"><ele>308.0</ele><time>2026-03-28T15:11:43.998Z</time></trkpt><trkpt lat="46.13670975143422" lon="1.311975923642374"><ele>307.5</ele><time>2026-03-28T15:11:44.998Z</time></trkpt><trkpt lat="46.13664384533411" lon="1.311817572748116"><ele>307.0</ele><time>2026-03-28T15:11:45.998Z</time></trkpt><trkpt lat="46.13658272478919" lon="1.3116467279817865"><ele>307.5</ele><time>2026-03-28T15:11:46.998Z</time></trkpt><trkpt lat="46.13652322673345" lon="1.311474522415373"><ele>308.0</ele><time>2026-03-28T15:11:47.998Z</time></trkpt><trkpt lat="46.13646370125225" lon="1.3112938175889166"><ele>308.5</ele><time>2026-03-28T15:11:48.998Z</time></trkpt><trkpt lat="46.13640530024108" lon="1.3111202197440233"><ele>309.0</ele><time>2026-03-28T15:11:49.998Z</time></trkpt><trkpt lat="46.13634699928409" lon="1.3109392932498358"><ele>309.0</ele><time>2026-03-28T15:11:50.998Z</time></trkpt><trkpt lat="46.1362942886717" lon="1.3107659387640653"><ele>309.0</ele><time>2026-03-28T15:11:51.998Z</time></trkpt><trkpt lat="46.13626199843665" lon="1.3105727971783268"><ele>309.0</ele><time>2026-03-28T15:11:52.998Z</time></trkpt><trkpt lat="46.13622049212957" lon="1.3103900274390923"><ele>309.0</ele><time>2026-03-28T15:11:53.998Z</time></trkpt><trkpt lat="46.13617540231997" lon="1.3102016022445417"><ele>308.0</ele><time>2026-03-28T15:11:54.998Z</time></trkpt><trkpt lat="46.13612634275709" lon="1.3100199289936842"><ele>307.0</ele><time>2026-03-28T15:11:55.998Z</time></trkpt><trkpt lat="46.136063616074104" lon="1.3098433672152212"><ele>306.0</ele><time>2026-03-28T15:11:57Z</time></trkpt><trkpt lat="46.13603469903643" lon="1.3096558207188995"><ele>305.0</ele><time>2026-03-28T15:11:58Z</time></trkpt><trkpt lat="46.13597991904971" lon="1.309494017869359"><ele>304.75</ele><time>2026-03-28T15:11:59Z</time></trkpt><trkpt lat="46.13593585618335" lon="1.3093163567310857"><ele>304.5</ele><time>2026-03-28T15:12:00Z</time></trkpt><trkpt lat="46.135892525958695" lon="1.3091449687182182"><ele>304.25</ele><time>2026-03-28T15:12:01Z</time></trkpt><trkpt lat="46.13585147577723" lon="1.3089773383936116"><ele>304.0</ele><time>2026-03-28T15:12:02Z</time></trkpt><trkpt lat="46.13581486836814" lon="1.308811629794619"><ele>304.25</ele><time>2026-03-28T15:12:03Z</time></trkpt><trkpt lat="46.13579270738654" lon="1.3086404168565802"><ele>304.5</ele><time>2026-03-28T15:12:04Z</time></trkpt><trkpt lat="46.13574104176075" lon="1.3084762192373982"><ele>304.75</ele><time>2026-03-28T15:12:05Z</time></trkpt><trkpt lat="46.13570485395248" lon="1.3083043826343423"><ele>305.0</ele><time>2026-03-28T15:12:06Z</time></trkpt><trkpt lat="46.13567472827913" lon="1.3081363054154007"><ele>304.6</ele><time>2026-03-28T15:12:07Z</time></trkpt><trkpt lat="46.135646547100635" lon="1.3079722790129407"><ele>304.2</ele><time>2026-03-28T15:12:08Z</time></trkpt><trkpt lat="46.135625141273074" lon="1.3078193849734703"><ele>303.8</ele><time>2026-03-28T15:12:09Z</time></trkpt><trkpt lat="46.135604811674014" lon="1.3076782033871448"><ele>303.4</ele><time>2026-03-28T15:12:10Z</time></trkpt><trkpt lat="46.13558664917205" lon="1.3075467466493018"><ele>303.0</ele><time>2026-03-28T15:12:11Z</time></trkpt><trkpt lat="46.13558387736055" lon="1.307419452618868"><ele>303.0</ele><time>2026-03-28T15:12:12Z</time></trkpt><trkpt lat="46.13555797118867" lon="1.3073187891474176"><ele>303.0</ele><time>2026-03-28T15:12:13Z</time></trkpt><trkpt lat="46.13551780413524" lon="1.3072435395031783"><ele>303.0</ele><time>2026-03-28T15:12:14Z</time></trkpt><trkpt lat="46.13540774443282" lon="1.3072042587096022"><ele>303.0</ele><time>2026-03-28T15:12:16Z</time></trkpt><trkpt lat="46.135336340283494" lon="1.3072332847662365"><ele>303.0</ele><time>2026-03-28T15:12:17Z</time></trkpt><trkpt lat="46.13522781849916" lon="1.3072885831639052"><ele>303.0</ele><time>2026-03-28T15:12:19Z</time></trkpt><trkpt lat="46.135143537688236" lon="1.307284634870149"><ele>303.0</ele><time>2026-03-28T15:12:21Z</time></trkpt><trkpt lat="46.13507032723865" lon="1.307276539545972"><ele>303.0</ele><time>2026-03-28T15:12:27Z</time></trkpt><trkpt lat="46.135076730685086" lon="1.3075000195481967"><ele>303.0</ele><time>2026-03-28T15:12:29Z</time></trkpt><trkpt lat="46.13511457185714" lon="1.307624053684006"><ele>303.0</ele><time>2026-03-28T15:12:30Z</time></trkpt><trkpt lat="46.13514555686362" lon="1.3077678591146036"><ele>303.0</ele><time>2026-03-28T15:12:31Z</time></trkpt><trkpt lat="46.13517749278065" lon="1.3079220518271675"><ele>303.5</ele><time>2026-03-28T15:12:32Z</time></trkpt><trkpt lat="46.13521632353734" lon="1.3081009503707612"><ele>304.0</ele><time>2026-03-28T15:12:33Z</time></trkpt><trkpt lat="46.13525486713539" lon="1.3082966352537284"><ele>304.5</ele><time>2026-03-28T15:12:34Z</time></trkpt><trkpt lat="46.13529805331013" lon="1.3084995707108003"><ele>305.0</ele><time>2026-03-28T15:12:35Z</time></trkpt><trkpt lat="46.135340700699174" lon="1.3087055888418886"><ele>305.33333333333337</ele><time>2026-03-28T15:12:36Z</time></trkpt><trkpt lat="46.13538378903527" lon="1.308913697939863"><ele>305.6666666666667</ele><time>2026-03-28T15:12:37Z</time></trkpt><trkpt lat="46.135426740718906" lon="1.3091238372718383"><ele>306.0</ele><time>2026-03-28T15:12:38Z</time></trkpt><trkpt lat="46.13546506723601" lon="1.3093359348384916"><ele>306.0</ele><time>2026-03-28T15:12:39Z</time></trkpt><trkpt lat="46.135504169763905" lon="1.3095473301901523"><ele>306.0</ele><time>2026-03-28T15:12:39.999Z</time></trkpt><trkpt lat="46.135556652473454" lon="1.3097498781632326"><ele>306.0</ele><time>2026-03-28T15:12:40.999Z</time></trkpt><trkpt lat="46.135597644232966" lon="1.3099435476561605"><ele>306.0</ele><time>2026-03-28T15:12:41.999Z</time></trkpt><trkpt lat="46.135620487583715" lon="1.3101295163175322"><ele>306.6</ele><time>2026-03-28T15:12:42.999Z</time></trkpt><trkpt lat="46.13564989327394" lon="1.3103060173950571"><ele>307.20000000000005</ele><time>2026-03-28T15:12:43.999Z</time></trkpt><trkpt lat="46.13567668567494" lon="1.3104506912985696"><ele>307.79999999999995</ele><time>2026-03-28T15:12:44.999Z</time></trkpt><trkpt lat="46.13569759375052" lon="1.3105638582711525"><ele>308.4</ele><time>2026-03-28T15:12:45.999Z</time></trkpt><trkpt lat="46.13568792667547" lon="1.3106860013923163"><ele>309.0</ele><time>2026-03-28T15:12:47.999Z</time></trkpt><trkpt lat="46.135705185741855" lon="1.3108023281900987"><ele>309.0</ele><time>2026-03-28T15:12:49.999Z</time></trkpt><trkpt lat="46.13571914763053" lon="1.3109369433951759"><ele>309.0</ele><time>2026-03-28T15:12:50.999Z</time></trkpt><trkpt lat="46.135734227852986" lon="1.3110804157318199"><ele>309.0</ele><time>2026-03-28T15:12:51.999Z</time></trkpt><trkpt lat="46.13574672593547" lon="1.3112220859516466"><ele>309.0</ele><time>2026-03-28T15:12:52.999Z</time></trkpt><trkpt lat="46.13575610784918" lon="1.3113419162055309"><ele>309.0</ele><time>2026-03-28T15:12:53.999Z</time></trkpt><trkpt lat="46.13576205576091" lon="1.3114545625488598"><ele>309.0</ele><time>2026-03-28T15:12:54.999Z</time></trkpt><trkpt lat="46.13576733323081" lon="1.3115818931232393"><ele>309.0</ele><time>2026-03-28T15:12:56.999Z</time></trkpt><trkpt lat="46.13568720455416" lon="1.3114146321687872"><ele>309.0</ele><time>2026-03-28T15:13:03.999Z</time></trkpt><trkpt lat="46.13568081620013" lon="1.3112807422779773"><ele>309.0</ele><time>2026-03-28T15:13:04.999Z</time></trkpt><trkpt lat="46.13567978287669" lon="1.311111731126884"><ele>309.0</ele><time>2026-03-28T15:13:05.999Z</time></trkpt><trkpt lat="46.13566808874062" lon="1.3109731045513435"><ele>309.0</ele><time>2026-03-28T15:13:06.999Z</time></trkpt><trkpt lat="46.135649885134235" lon="1.310854706996718"><ele>309.0</ele><time>2026-03-28T15:13:07.999Z</time></trkpt><trkpt lat="46.13561300067997" lon="1.3107402206993133"><ele>309.0</ele><time>2026-03-28T15:13:08.999Z</time></trkpt><trkpt lat="46.135556944758655" lon="1.3106408692049953"><ele>309.0</ele><time>2026-03-28T15:13:09.999Z</time></trkpt><trkpt lat="46.13546374925559" lon="1.3105713970626842"><ele>309.0</ele><time>2026-03-28T15:13:10.999Z</time></trkpt><trkpt lat="46.135351318398" lon="1.3104878664375323"><ele>309.0</ele><time>2026-03-28T15:13:11.999Z</time></trkpt><trkpt lat="46.13522655404402" lon="1.3104012259867917"><ele>309.0</ele><time>2026-03-28T15:13:12.999Z</time></trkpt><trkpt lat="46.135121420217494" lon="1.3103015953123247"><ele>309.0</ele><time>2026-03-28T15:13:13.999Z</time></trkpt><trkpt lat="46.13502688654516" lon="1.3102041913671958"><ele>309.0</ele><time>2026-03-28T15:13:14.999Z</time></trkpt><trkpt lat="46.13492784856545" lon="1.310126702958304"><ele>308.5</ele><time>2026-03-28T15:13:15.999Z</time></trkpt><trkpt lat="46.13483258070964" lon="1.3100362488288266"><ele>308.0</ele><time>2026-03-28T15:13:16.999Z</time></trkpt><trkpt lat="46.13474498010371" lon="1.3099309172382645"><ele>307.5</ele><time>2026-03-28T15:13:17.999Z</time></trkpt><trkpt lat="46.134654199671886" lon="1.3098464044253315"><ele>307.0</ele><time>2026-03-28T15:13:18.999Z</time></trkpt><trkpt lat="46.13455597035209" lon="1.309754955005431"><ele>307.0</ele><time>2026-03-28T15:13:19.999Z</time></trkpt><trkpt lat="46.134455073046254" lon="1.309659573453607"><ele>307.0</ele><time>2026-03-28T15:13:20.999Z</time></trkpt><trkpt lat="46.13435435921184" lon="1.3095640109562767"><ele>307.0</ele><time>2026-03-28T15:13:21.999Z</time></trkpt><trkpt lat="46.134256450493496" lon="1.3094693980739827"><ele>307.0</ele><time>2026-03-28T15:13:22.999Z</time></trkpt><trkpt lat="46.1341716544838" lon="1.3093825793239182"><ele>307.0</ele><time>2026-03-28T15:13:23.999Z</time></trkpt><trkpt lat="46.13409550589281" lon="1.309303567642902"><ele>307.0</ele><time>2026-03-28T15:13:24.999Z</time></trkpt><trkpt lat="46.13402070641462" lon="1.3092465988305078"><ele>307.0</ele><time>2026-03-28T15:13:25.999Z</time></trkpt><trkpt lat="46.13394916244139" lon="1.3091920996348683"><ele>307.0</ele><time>2026-03-28T15:13:26.999Z</time></trkpt><trkpt lat="46.13387957304296" lon="1.3091407495755467"><ele>307.0</ele><time>2026-03-28T15:13:27.999Z</time></trkpt><trkpt lat="46.13378991699624" lon="1.3090734280004341"><ele>307.0</ele><time>2026-03-28T15:13:28.999Z</time></trkpt><trkpt lat="46.13368324457768" lon="1.30903060133795"><ele>305.5</ele><time>2026-03-28T15:13:29.999Z</time></trkpt><trkpt lat="46.13357825579056" lon="1.3089691522540405"><ele>304.0</ele><time>2026-03-28T15:13:30.999Z</time></trkpt><trkpt lat="46.13346393462695" lon="1.3089108963326765"><ele>302.5</ele><time>2026-03-28T15:13:31.998Z</time></trkpt><trkpt lat="46.133342728150076" lon="1.308848483122081"><ele>301.0</ele><time>2026-03-28T15:13:32.998Z</time></trkpt><trkpt lat="46.133216324272986" lon="1.3087765338740724"><ele>300.0</ele><time>2026-03-28T15:13:33.998Z</time></trkpt><trkpt lat="46.133073332223226" lon="1.3086965860322186"><ele>299.0</ele><time>2026-03-28T15:13:34.998Z</time></trkpt><trkpt lat="46.13292670450451" lon="1.3086320991282645"><ele>298.0</ele><time>2026-03-28T15:13:35.998Z</time></trkpt><trkpt lat="46.13279151800965" lon="1.3085745400271585"><ele>297.0</ele><time>2026-03-28T15:13:36.998Z</time></trkpt><trkpt lat="46.13267487625351" lon="1.3084907315207692"><ele>297.0</ele><time>2026-03-28T15:13:37.998Z</time></trkpt><trkpt lat="46.1325551368327" lon="1.3084507827422889"><ele>297.0</ele><time>2026-03-28T15:13:38.998Z</time></trkpt><trkpt lat="46.132433230313566" lon="1.3083801330135876"><ele>297.0</ele><time>2026-03-28T15:13:39.998Z</time></trkpt><trkpt lat="46.13231205078873" lon="1.308320256359345"><ele>297.0</ele><time>2026-03-28T15:13:40.998Z</time></trkpt><trkpt lat="46.13219900271745" lon="1.3082409725886208"><ele>296.4</ele><time>2026-03-28T15:13:41.998Z</time></trkpt><trkpt lat="46.13207895846686" lon="1.3082057700008498"><ele>295.79999999999995</ele><time>2026-03-28T15:13:42.998Z</time></trkpt><trkpt lat="46.131974702581516" lon="1.3081482304309258"><ele>295.2</ele><time>2026-03-28T15:13:43.998Z</time></trkpt><trkpt lat="46.13187963832172" lon="1.308096932465347"><ele>294.59999999999997</ele><time>2026-03-28T15:13:44.998Z</time></trkpt><trkpt lat="46.131795120071466" lon="1.308063245598208"><ele>294.0</ele><time>2026-03-28T15:13:45.998Z</time></trkpt><trkpt lat="46.13172670099562" lon="1.3080331962726788"><ele>294.0</ele><time>2026-03-28T15:13:46.998Z</time></trkpt><trkpt lat="46.13164583500839" lon="1.3079947389270457"><ele>294.0</ele><time>2026-03-28T15:13:48.998Z</time></trkpt><trkpt lat="46.13156069570933" lon="1.3079804986386065"><ele>294.0</ele><time>2026-03-28T15:13:54.998Z</time></trkpt><trkpt lat="46.13147478468247" lon="1.308178393286874"><ele>294.0</ele><time>2026-03-28T15:13:56.998Z</time></trkpt><trkpt lat="46.13142871596736" lon="1.30830711589451"><ele>294.0</ele><time>2026-03-28T15:13:57.998Z</time></trkpt><trkpt lat="46.131393091505586" lon="1.3084467184500275"><ele>293.5</ele><time>2026-03-28T15:13:58.998Z</time></trkpt><trkpt lat="46.13135777495322" lon="1.3086060971092077"><ele>293.0</ele><time>2026-03-28T15:13:59.998Z</time></trkpt><trkpt lat="46.13133684092381" lon="1.308787156140397"><ele>292.5</ele><time>2026-03-28T15:14:00.998Z</time></trkpt><trkpt lat="46.13129918609747" lon="1.3089688309570284"><ele>292.0</ele><time>2026-03-28T15:14:01.998Z</time></trkpt><trkpt lat="46.1312572091207" lon="1.30915682180131"><ele>290.5</ele><time>2026-03-28T15:14:03Z</time></trkpt><trkpt lat="46.13122722766981" lon="1.3093568947218728"><ele>289.0</ele><time>2026-03-28T15:14:04Z</time></trkpt><trkpt lat="46.13119363915849" lon="1.3095584872334691"><ele>287.5</ele><time>2026-03-28T15:14:05Z</time></trkpt><trkpt lat="46.13114853406311" lon="1.309752071548603"><ele>286.0</ele><time>2026-03-28T15:14:06Z</time></trkpt><trkpt lat="46.13110639297534" lon="1.309943666439048"><ele>285.75</ele><time>2026-03-28T15:14:07Z</time></trkpt><trkpt lat="46.131049788392" lon="1.310133216592437"><ele>285.5</ele><time>2026-03-28T15:14:08Z</time></trkpt><trkpt lat="46.13099919603123" lon="1.3103195442817785"><ele>285.25</ele><time>2026-03-28T15:14:09Z</time></trkpt><trkpt lat="46.13093518506826" lon="1.310472215217347"><ele>285.0</ele><time>2026-03-28T15:14:10Z</time></trkpt><trkpt lat="46.13086948220661" lon="1.3106206187480687"><ele>284.75</ele><time>2026-03-28T15:14:11Z</time></trkpt><trkpt lat="46.13079541845303" lon="1.3107676989116868"><ele>284.5</ele><time>2026-03-28T15:14:12Z</time></trkpt><trkpt lat="46.13073888825777" lon="1.3109347268455658"><ele>284.25</ele><time>2026-03-28T15:14:13Z</time></trkpt><trkpt lat="46.13070576436771" lon="1.311118540481179"><ele>284.0</ele><time>2026-03-28T15:14:14Z</time></trkpt><trkpt lat="46.13065715222497" lon="1.3113000374947155"><ele>283.75</ele><time>2026-03-28T15:14:15Z</time></trkpt><trkpt lat="46.13063932932015" lon="1.3114903622485377"><ele>283.5</ele><time>2026-03-28T15:14:16Z</time></trkpt><trkpt lat="46.1306508734307" lon="1.311686074880654"><ele>283.25</ele><time>2026-03-28T15:14:17Z</time></trkpt><trkpt lat="46.13065885003406" lon="1.3118790771101385"><ele>283.0</ele><time>2026-03-28T15:14:18Z</time></trkpt><trkpt lat="46.13066919473927" lon="1.3120732252711682"><ele>282.75</ele><time>2026-03-28T15:14:19Z</time></trkpt><trkpt lat="46.13068924450797" lon="1.3122645261013386"><ele>282.5</ele><time>2026-03-28T15:14:20Z</time></trkpt><trkpt lat="46.13069467477917" lon="1.3124215204572738"><ele>282.25</ele><time>2026-03-28T15:14:21Z</time></trkpt><trkpt lat="46.130707436790345" lon="1.3125675432897483"><ele>282.0</ele><time>2026-03-28T15:14:22Z</time></trkpt><trkpt lat="46.13072660837679" lon="1.3127190889148515"><ele>281.0</ele><time>2026-03-28T15:14:23Z</time></trkpt><trkpt lat="46.13074259311614" lon="1.3128791755385782"><ele>280.0</ele><time>2026-03-28T15:14:24Z</time></trkpt><trkpt lat="46.13075357435313" lon="1.313045787000093"><ele>279.0</ele><time>2026-03-28T15:14:25Z</time></trkpt><trkpt lat="46.13075385788496" lon="1.3132116564918626"><ele>278.0</ele><time>2026-03-28T15:14:26Z</time></trkpt><trkpt lat="46.13073512752238" lon="1.313370089646178"><ele>278.0</ele><time>2026-03-28T15:14:27Z</time></trkpt><trkpt lat="46.130674807097975" lon="1.3135089649281937"><ele>278.0</ele><time>2026-03-28T15:14:28Z</time></trkpt><trkpt lat="46.13058585943203" lon="1.3136122703643807"><ele>278.0</ele><time>2026-03-28T15:14:29Z</time></trkpt><trkpt lat="46.130479127436104" lon="1.3136858651242262"><ele>278.0</ele><time>2026-03-28T15:14:30Z</time></trkpt><trkpt lat="46.13037472716884" lon="1.3137714530152875"><ele>278.0</ele><time>2026-03-28T15:14:31Z</time></trkpt><trkpt lat="46.130276363173294" lon="1.3138880062854863"><ele>278.0</ele><time>2026-03-28T15:14:32Z</time></trkpt><trkpt lat="46.13019324846971" lon="1.3140400062146367"><ele>278.0</ele><time>2026-03-28T15:14:33Z</time></trkpt><trkpt lat="46.13011361673844" lon="1.3142130681044806"><ele>278.0</ele><time>2026-03-28T15:14:34Z</time></trkpt><trkpt lat="46.13005864143266" lon="1.3143916173794652"><ele>276.6</ele><time>2026-03-28T15:14:35Z</time></trkpt><trkpt lat="46.13000868338533" lon="1.3145408830870864"><ele>275.20000000000005</ele><time>2026-03-28T15:14:36Z</time></trkpt><trkpt lat="46.12997587031801" lon="1.3146625860681609"><ele>273.8</ele><time>2026-03-28T15:14:37Z</time></trkpt><trkpt lat="46.129920171542395" lon="1.3147207316564775"><ele>272.40000000000003</ele><time>2026-03-28T15:14:38Z</time></trkpt><trkpt lat="46.12980106567276" lon="1.3146428665492453"><ele>271.0</ele><time>2026-03-28T15:14:39.999Z</time></trkpt><trkpt lat="46.12973644378193" lon="1.314601785972113"><ele>271.0</ele><time>2026-03-28T15:14:40.999Z</time></trkpt><trkpt lat="46.12967156548808" lon="1.3145581482448787"><ele>271.0</ele><time>2026-03-28T15:14:41.999Z</time></trkpt><trkpt lat="46.12960535591104" lon="1.314507977634854"><ele>271.0</ele><time>2026-03-28T15:14:42.999Z</time></trkpt><trkpt lat="46.12953343574501" lon="1.3144493919022546"><ele>271.0</ele><time>2026-03-28T15:14:43.999Z</time></trkpt><trkpt lat="46.12946244029511" lon="1.3144015911666003"><ele>271.0</ele><time>2026-03-28T15:14:44.999Z</time></trkpt><trkpt lat="46.12939652761759" lon="1.3143493261229846"><ele>271.0</ele><time>2026-03-28T15:14:45.999Z</time></trkpt><trkpt lat="46.129337486718626" lon="1.3142690003732072"><ele>271.0</ele><time>2026-03-28T15:14:46.999Z</time></trkpt><trkpt lat="46.129241509220805" lon="1.3141642024233953"><ele>271.0</ele><time>2026-03-28T15:14:48.999Z</time></trkpt><trkpt lat="46.12914673990161" lon="1.314032877973761"><ele>271.0</ele><time>2026-03-28T15:14:50.999Z</time></trkpt><trkpt lat="46.129099269107414" lon="1.3139704594719577"><ele>271.0</ele><time>2026-03-28T15:14:51.999Z</time></trkpt><trkpt lat="46.12905638388828" lon="1.3138969180181133"><ele>271.0</ele><time>2026-03-28T15:14:52.999Z</time></trkpt><trkpt lat="46.12900775391482" lon="1.313812552528895"><ele>269.0</ele><time>2026-03-28T15:14:53.999Z</time></trkpt><trkpt lat="46.12896177209713" lon="1.3137302849429295"><ele>267.0</ele><time>2026-03-28T15:14:54.999Z</time></trkpt><trkpt lat="46.128909727786194" lon="1.3136503724138366"><ele>265.0</ele><time>2026-03-28T15:14:55.999Z</time></trkpt><trkpt lat="46.12884806913177" lon="1.313580984533071"><ele>263.0</ele><time>2026-03-28T15:14:56.999Z</time></trkpt><trkpt lat="46.12879749882823" lon="1.313496134211169"><ele>261.0</ele><time>2026-03-28T15:14:57.999Z</time></trkpt><trkpt lat="46.12873812701865" lon="1.3134296921254824"><ele>259.0</ele><time>2026-03-28T15:14:58.999Z</time></trkpt><trkpt lat="46.128679599544185" lon="1.3133697647073377"><ele>259.0</ele><time>2026-03-28T15:14:59.999Z</time></trkpt><trkpt lat="46.12860790201537" lon="1.3132987441344897"><ele>259.0</ele><time>2026-03-28T15:15:01.999Z</time></trkpt><trkpt lat="46.12852045862127" lon="1.3132195196344052"><ele>259.0</ele><time>2026-03-28T15:15:05.999Z</time></trkpt><trkpt lat="46.12843443603664" lon="1.3131542754661256"><ele>259.0</ele><time>2026-03-28T15:15:07.999Z</time></trkpt><trkpt lat="46.12835530376281" lon="1.3131256074947384"><ele>259.0</ele><time>2026-03-28T15:15:09.999Z</time></trkpt><trkpt lat="46.12827288777066" lon="1.3130644735561443"><ele>257.66666666666663</ele><time>2026-03-28T15:15:11.999Z</time></trkpt><trkpt lat="46.12819444173627" lon="1.3130232060115952"><ele>256.3333333333333</ele><time>2026-03-28T15:15:13.999Z</time></trkpt><trkpt lat="46.12811086897556" lon="1.3129696721026647"><ele>255.0</ele><time>2026-03-28T15:15:16.999Z</time></trkpt><trkpt lat="46.12805416727538" lon="1.312914095423502"><ele>253.66666666666669</ele><time>2026-03-28T15:15:18.999Z</time></trkpt><trkpt lat="46.127999401320444" lon="1.3128424167815078"><ele>252.33333333333334</ele><time>2026-03-28T15:15:21.999Z</time></trkpt><trkpt lat="46.12794593725647" lon="1.3127698316197043"><ele>251.0</ele><time>2026-03-28T15:15:26.999Z</time></trkpt><trkpt lat="46.12790883960423" lon="1.3126833166532261"><ele>251.0</ele><time>2026-03-28T15:15:31.998Z</time></trkpt><trkpt lat="46.12783105821255" lon="1.3126059964852934"><ele>251.00000000000003</ele><time>2026-03-28T15:15:34.998Z</time></trkpt><trkpt lat="46.12777626659285" lon="1.3125382243269488"><ele>251.00000000000003</ele><time>2026-03-28T15:15:36.998Z</time></trkpt><trkpt lat="46.12771869965774" lon="1.312467019358376"><ele>251.0</ele><time>2026-03-28T15:15:38.998Z</time></trkpt><trkpt lat="46.12780518154757" lon="1.3122245740387355"><ele>251.0</ele><time>2026-03-28T15:15:39.998Z</time></trkpt><trkpt lat="46.12778383930875" lon="1.312078324705584"><ele>251.33333333333334</ele><time>2026-03-28T15:15:41.998Z</time></trkpt><trkpt lat="46.12776588189868" lon="1.3119294073549488"><ele>251.66666666666669</ele><time>2026-03-28T15:15:43.998Z</time></trkpt><trkpt lat="46.12777434294536" lon="1.3118198833576595"><ele>252.0</ele><time>2026-03-28T15:15:45.998Z</time></trkpt><trkpt lat="46.12778392258028" lon="1.3117205702427"><ele>252.33333333333331</ele><time>2026-03-28T15:15:49.998Z</time></trkpt><trkpt lat="46.12771785523765" lon="1.3116907740807542"><ele>252.66666666666666</ele><time>2026-03-28T15:17:21.999Z</time></trkpt><trkpt lat="46.127678945995534" lon="1.311762710465434"><ele>253.0</ele><time>2026-03-28T15:17:25.999Z</time></trkpt><trkpt lat="46.12773981669616" lon="1.3118810050885912"><ele>252.99999999999997</ele><time>2026-03-28T15:17:27.999Z</time></trkpt><trkpt lat="46.127752478783655" lon="1.3120397146825757"><ele>253.0</ele><time>2026-03-28T15:17:29.999Z</time></trkpt><trkpt lat="46.12776055562817" lon="1.3121333360611764"><ele>253.0</ele><time>2026-03-28T15:17:30.999Z</time></trkpt><trkpt lat="46.127773463639606" lon="1.3122301413056823"><ele>253.0</ele><time>2026-03-28T15:17:31.999Z</time></trkpt><trkpt lat="46.12779626615755" lon="1.3123429697543603"><ele>252.99999999999997</ele><time>2026-03-28T15:17:32.999Z</time></trkpt><trkpt lat="46.12780334941689" lon="1.3124411773416402"><ele>253.0</ele><time>2026-03-28T15:17:33.999Z</time></trkpt><trkpt lat="46.12783984486332" lon="1.3125800658482114"><ele>252.66666666666666</ele><time>2026-03-28T15:17:35.999Z</time></trkpt><trkpt lat="46.12788773103399" lon="1.3126891462978447"><ele>252.33333333333331</ele><time>2026-03-28T15:17:37.999Z</time></trkpt><trkpt lat="46.127922194771976" lon="1.3127722506818973"><ele>252.0</ele><time>2026-03-28T15:17:39.998Z</time></trkpt><trkpt lat="46.1279669618105" lon="1.3128372395734647"><ele>251.66666666666669</ele><time>2026-03-28T15:17:41.998Z</time></trkpt><trkpt lat="46.128026330188746" lon="1.3129106708785079"><ele>251.33333333333334</ele><time>2026-03-28T15:17:43.998Z</time></trkpt><trkpt lat="46.12809089515995" lon="1.3129976618701265"><ele>251.0</ele><time>2026-03-28T15:17:45.998Z</time></trkpt><trkpt lat="46.128179343866904" lon="1.3130603023657774"><ele>252.33333333333334</ele><time>2026-03-28T15:17:47.998Z</time></trkpt><trkpt lat="46.12828702361508" lon="1.313113227942708"><ele>253.66666666666669</ele><time>2026-03-28T15:17:49.998Z</time></trkpt><trkpt lat="46.128343353722734" lon="1.3131557059353394"><ele>255.0</ele><time>2026-03-28T15:17:50.998Z</time></trkpt><trkpt lat="46.12845095022594" lon="1.3132285105101649"><ele>256.3333333333333</ele><time>2026-03-28T15:17:52.998Z</time></trkpt><trkpt lat="46.12851242802768" lon="1.3132637800868598"><ele>257.66666666666663</ele><time>2026-03-28T15:17:53.998Z</time></trkpt><trkpt lat="46.128570467570036" lon="1.3133106631651807"><ele>259.0</ele><time>2026-03-28T15:17:54.998Z</time></trkpt><trkpt lat="46.1286343736497" lon="1.3133571736609575"><ele>259.0</ele><time>2026-03-28T15:17:55.998Z</time></trkpt><trkpt lat="46.12873822495775" lon="1.313467236508023"><ele>259.0</ele><time>2026-03-28T15:17:57.998Z</time></trkpt><trkpt lat="46.12878858946879" lon="1.3135295045973496"><ele>259.0</ele><time>2026-03-28T15:17:58.998Z</time></trkpt><trkpt lat="46.12884381381839" lon="1.3135964627706245"><ele>259.0</ele><time>2026-03-28T15:17:59.998Z</time></trkpt><trkpt lat="46.128900060614875" lon="1.3136639973203648"><ele>259.0</ele><time>2026-03-28T15:18:00.998Z</time></trkpt><trkpt lat="46.1289369765215" lon="1.3137418805958594"><ele>259.0</ele><time>2026-03-28T15:18:01.998Z</time></trkpt><trkpt lat="46.1289949216948" lon="1.3138033422796516"><ele>259.0</ele><time>2026-03-28T15:18:02.998Z</time></trkpt><trkpt lat="46.129037088721425" lon="1.3138865287489465"><ele>259.0</ele><time>2026-03-28T15:18:03.998Z</time></trkpt><trkpt lat="46.129080000776625" lon="1.3139657984535942"><ele>259.0</ele><time>2026-03-28T15:18:04.998Z</time></trkpt><trkpt lat="46.12912081407677" lon="1.3140396807721422"><ele>259.0</ele><time>2026-03-28T15:18:05.998Z</time></trkpt><trkpt lat="46.12915836905411" lon="1.3141182972651486"><ele>259.0</ele><time>2026-03-28T15:18:06.998Z</time></trkpt><trkpt lat="46.1292213449679" lon="1.314220494427227"><ele>259.0</ele><time>2026-03-28T15:18:08.998Z</time></trkpt><trkpt lat="46.12931269416731" lon="1.3142917401946799"><ele>261.0</ele><time>2026-03-28T15:18:29Z</time></trkpt><trkpt lat="46.12940326329218" lon="1.3143936487601473"><ele>263.0</ele><time>2026-03-28T15:18:31Z</time></trkpt><trkpt lat="46.129463882324416" lon="1.314446830867994"><ele>265.0</ele><time>2026-03-28T15:18:32Z</time></trkpt><trkpt lat="46.129530526883876" lon="1.3145011126740116"><ele>267.0</ele><time>2026-03-28T15:18:33Z</time></trkpt><trkpt lat="46.12960555976851" lon="1.314564198222165"><ele>269.0</ele><time>2026-03-28T15:18:34Z</time></trkpt><trkpt lat="46.12966210843691" lon="1.3146168256979434"><ele>271.0</ele><time>2026-03-28T15:18:35Z</time></trkpt><trkpt lat="46.12977230637138" lon="1.3146723359721324"><ele>271.0</ele><time>2026-03-28T15:18:37Z</time></trkpt><trkpt lat="46.129842808065426" lon="1.3147243659642238"><ele>271.0</ele><time>2026-03-28T15:18:39Z</time></trkpt><trkpt lat="46.12987295648083" lon="1.3148168717989255"><ele>271.0</ele><time>2026-03-28T15:18:41Z</time></trkpt><trkpt lat="46.129815644875876" lon="1.3149335920348144"><ele>271.0</ele><time>2026-03-28T15:18:43Z</time></trkpt><trkpt lat="46.12976440210148" lon="1.3149968609279403"><ele>271.0</ele><time>2026-03-28T15:18:44Z</time></trkpt><trkpt lat="46.129710796507304" lon="1.3150721242862211"><ele>271.0</ele><time>2026-03-28T15:18:45Z</time></trkpt><trkpt lat="46.129649802948585" lon="1.3151509269903428"><ele>271.5</ele><time>2026-03-28T15:18:46Z</time></trkpt><trkpt lat="46.12958025547548" lon="1.315230829745871"><ele>272.0</ele><time>2026-03-28T15:18:47Z</time></trkpt><trkpt lat="46.129528472644914" lon="1.3153135867116583"><ele>272.5</ele><time>2026-03-28T15:18:48Z</time></trkpt><trkpt lat="46.12944825387575" lon="1.3154358336412162"><ele>273.0</ele><time>2026-03-28T15:18:50Z</time></trkpt><trkpt lat="46.12939647030066" lon="1.3155119611332873"><ele>273.5</ele><time>2026-03-28T15:18:51Z</time></trkpt><trkpt lat="46.12934404290666" lon="1.3156032225059604"><ele>274.0</ele><time>2026-03-28T15:18:52Z</time></trkpt><trkpt lat="46.1292935188167" lon="1.3157081134414597"><ele>274.59999999999997</ele><time>2026-03-28T15:18:53Z</time></trkpt><trkpt lat="46.129245288083176" lon="1.31581664669628"><ele>275.2</ele><time>2026-03-28T15:18:54Z</time></trkpt><trkpt lat="46.1291985164375" lon="1.3159373793071554"><ele>275.79999999999995</ele><time>2026-03-28T15:18:55Z</time></trkpt><trkpt lat="46.12915453048085" lon="1.3160639948931256"><ele>276.4</ele><time>2026-03-28T15:18:55.999Z</time></trkpt><trkpt lat="46.1291106347697" lon="1.3161972056905842"><ele>277.0</ele><time>2026-03-28T15:18:56.999Z</time></trkpt><trkpt lat="46.129062665926625" lon="1.3163352187849346"><ele>276.5</ele><time>2026-03-28T15:18:57.999Z</time></trkpt><trkpt lat="46.12901646792988" lon="1.3164820426269932"><ele>276.0</ele><time>2026-03-28T15:18:58.999Z</time></trkpt><trkpt lat="46.12897103545796" lon="1.3166313275728054"><ele>275.5</ele><time>2026-03-28T15:18:59.999Z</time></trkpt><trkpt lat="46.12892233138176" lon="1.3167831572618791"><ele>275.0</ele><time>2026-03-28T15:19:00.999Z</time></trkpt><trkpt lat="46.12887015533485" lon="1.3169333365207188"><ele>275.0</ele><time>2026-03-28T15:19:01.999Z</time></trkpt><trkpt lat="46.128823413492746" lon="1.317084970288462"><ele>275.0</ele><time>2026-03-28T15:19:02.999Z</time></trkpt><trkpt lat="46.12878323912075" lon="1.3172419509947115"><ele>275.0</ele><time>2026-03-28T15:19:03.999Z</time></trkpt><trkpt lat="46.128742742548184" lon="1.3174060042786329"><ele>275.0</ele><time>2026-03-28T15:19:04.999Z</time></trkpt><trkpt lat="46.12870953496633" lon="1.3175745871823938"><ele>275.25</ele><time>2026-03-28T15:19:05.999Z</time></trkpt><trkpt lat="46.12868044746152" lon="1.3177464210814451"><ele>275.5</ele><time>2026-03-28T15:19:06.999Z</time></trkpt><trkpt lat="46.12865194757589" lon="1.317923378498859"><ele>275.75</ele><time>2026-03-28T15:19:07.999Z</time></trkpt><trkpt lat="46.128622922188164" lon="1.3181018914526166"><ele>276.0</ele><time>2026-03-28T15:19:08.999Z</time></trkpt><trkpt lat="46.12859318211446" lon="1.3182629508395158"><ele>275.6</ele><time>2026-03-28T15:19:09.999Z</time></trkpt><trkpt lat="46.12855882519145" lon="1.3184006672329194"><ele>275.20000000000005</ele><time>2026-03-28T15:19:10.999Z</time></trkpt><trkpt lat="46.12852130965013" lon="1.3185372954742975"><ele>274.79999999999995</ele><time>2026-03-28T15:19:11.999Z</time></trkpt><trkpt lat="46.12848767231956" lon="1.3186784304119763"><ele>274.4</ele><time>2026-03-28T15:19:12.999Z</time></trkpt><trkpt lat="46.12844923485585" lon="1.318817285208358"><ele>274.0</ele><time>2026-03-28T15:19:13.999Z</time></trkpt><trkpt lat="46.12840717647483" lon="1.318958489899201"><ele>273.0</ele><time>2026-03-28T15:19:14.999Z</time></trkpt><trkpt lat="46.12836757421281" lon="1.3191032882597755"><ele>272.0</ele><time>2026-03-28T15:19:15.999Z</time></trkpt><trkpt lat="46.1283243371611" lon="1.3192489576430293"><ele>271.0</ele><time>2026-03-28T15:19:16.999Z</time></trkpt><trkpt lat="46.12828521635883" lon="1.3193959321703934"><ele>270.0</ele><time>2026-03-28T15:19:17.999Z</time></trkpt><trkpt lat="46.12823451363353" lon="1.3195417895157804"><ele>269.0</ele><time>2026-03-28T15:19:18.999Z</time></trkpt><trkpt lat="46.12820349032604" lon="1.3196807401673387"><ele>267.59999999999997</ele><time>2026-03-28T15:19:19.999Z</time></trkpt><trkpt lat="46.12819626154021" lon="1.3198210631263814"><ele>266.2</ele><time>2026-03-28T15:19:20.999Z</time></trkpt><trkpt lat="46.128171169941794" lon="1.3199506740266194"><ele>264.79999999999995</ele><time>2026-03-28T15:19:21.999Z</time></trkpt><trkpt lat="46.128147847139914" lon="1.320086428727941"><ele>263.4</ele><time>2026-03-28T15:19:22.999Z</time></trkpt><trkpt lat="46.128122850718356" lon="1.3202185981789227"><ele>262.0</ele><time>2026-03-28T15:19:23.999Z</time></trkpt><trkpt lat="46.12809210742487" lon="1.320350489895593"><ele>262.0</ele><time>2026-03-28T15:19:24.999Z</time></trkpt><trkpt lat="46.12805615987295" lon="1.320476392647059"><ele>262.0</ele><time>2026-03-28T15:19:25.999Z</time></trkpt><trkpt lat="46.128013723629564" lon="1.3205918397355765"><ele>262.0</ele><time>2026-03-28T15:19:26.999Z</time></trkpt><trkpt lat="46.12797122062996" lon="1.3207048344166914"><ele>262.0</ele><time>2026-03-28T15:19:27.999Z</time></trkpt><trkpt lat="46.12792592647204" lon="1.3208132149752139"><ele>262.0</ele><time>2026-03-28T15:19:28.999Z</time></trkpt><trkpt lat="46.12788222278209" lon="1.3209211408487043"><ele>262.0</ele><time>2026-03-28T15:19:29.999Z</time></trkpt><trkpt lat="46.12783980477829" lon="1.3210246268097705"><ele>262.5</ele><time>2026-03-28T15:19:30.999Z</time></trkpt><trkpt lat="46.12779744742878" lon="1.321126595711672"><ele>263.0</ele><time>2026-03-28T15:19:31.999Z</time></trkpt><trkpt lat="46.1277541160506" lon="1.3212267178108865"><ele>263.5</ele><time>2026-03-28T15:19:32.999Z</time></trkpt><trkpt lat="46.12771195058048" lon="1.321326217296556"><ele>264.0</ele><time>2026-03-28T15:19:33.999Z</time></trkpt><trkpt lat="46.12767090260355" lon="1.3214283541739067"><ele>264.5</ele><time>2026-03-28T15:19:34.999Z</time></trkpt><trkpt lat="46.1276328678957" lon="1.3215269815654302"><ele>265.0</ele><time>2026-03-28T15:19:35.999Z</time></trkpt><trkpt lat="46.12759100983702" lon="1.3216244914607567"><ele>265.3333333333333</ele><time>2026-03-28T15:19:36.999Z</time></trkpt><trkpt lat="46.12754942755193" lon="1.3217191301107991"><ele>265.66666666666663</ele><time>2026-03-28T15:19:37.999Z</time></trkpt><trkpt lat="46.12751169463322" lon="1.3218164715001244"><ele>266.0</ele><time>2026-03-28T15:19:38.999Z</time></trkpt><trkpt lat="46.1274768114844" lon="1.32191439622242"><ele>266.3333333333333</ele><time>2026-03-28T15:19:39.999Z</time></trkpt><trkpt lat="46.12742530250686" lon="1.321997070552058"><ele>266.6666666666667</ele><time>2026-03-28T15:19:40.999Z</time></trkpt><trkpt lat="46.12739180872091" lon="1.3221033078267888"><ele>267.0</ele><time>2026-03-28T15:19:41.999Z</time></trkpt><trkpt lat="46.1273695005977" lon="1.3222175858095442"><ele>267.3333333333333</ele><time>2026-03-28T15:19:42.999Z</time></trkpt><trkpt lat="46.12736146100637" lon="1.3223325097785579"><ele>267.6666666666667</ele><time>2026-03-28T15:19:43.999Z</time></trkpt><trkpt lat="46.12737711202584" lon="1.3224513758945065"><ele>268.0</ele><time>2026-03-28T15:19:44.999Z</time></trkpt><trkpt lat="46.12742029058168" lon="1.3225480282482258"><ele>268.33333333333337</ele><time>2026-03-28T15:19:45.999Z</time></trkpt><trkpt lat="46.127453035345994" lon="1.3226472831387288"><ele>268.6666666666667</ele><time>2026-03-28T15:19:46.999Z</time></trkpt><trkpt lat="46.12748659638636" lon="1.3227488286700648"><ele>269.0</ele><time>2026-03-28T15:19:47.998Z</time></trkpt><trkpt lat="46.12751188011524" lon="1.3228598767917055"><ele>269.1666666666667</ele><time>2026-03-28T15:19:48.998Z</time></trkpt><trkpt lat="46.12752090819343" lon="1.322981408795171"><ele>269.33333333333337</ele><time>2026-03-28T15:19:49.998Z</time></trkpt><trkpt lat="46.12751488116859" lon="1.3231082049434288"><ele>269.5</ele><time>2026-03-28T15:19:50.998Z</time></trkpt><trkpt lat="46.12749435962249" lon="1.3232367600713921"><ele>269.6666666666667</ele><time>2026-03-28T15:19:51.998Z</time></trkpt><trkpt lat="46.12746838042205" lon="1.3233630304897475"><ele>269.8333333333333</ele><time>2026-03-28T15:19:52.998Z</time></trkpt><trkpt lat="46.127434882617244" lon="1.32348935333126"><ele>270.0</ele><time>2026-03-28T15:19:53.998Z</time></trkpt><trkpt lat="46.12739373890428" lon="1.3236135043779647"><ele>270.0</ele><time>2026-03-28T15:19:54.998Z</time></trkpt><trkpt lat="46.127355012381706" lon="1.3237376519163044"><ele>270.0</ele><time>2026-03-28T15:19:55.998Z</time></trkpt><trkpt lat="46.12731101045121" lon="1.3238663255131096"><ele>270.0</ele><time>2026-03-28T15:19:56.998Z</time></trkpt><trkpt lat="46.12725539921704" lon="1.3239854699547375"><ele>270.0</ele><time>2026-03-28T15:19:57.998Z</time></trkpt><trkpt lat="46.12719047963571" lon="1.3240970616031429"><ele>270.0</ele><time>2026-03-28T15:19:58.998Z</time></trkpt><trkpt lat="46.127124482589835" lon="1.3242030277224213"><ele>270.4</ele><time>2026-03-28T15:19:59.998Z</time></trkpt><trkpt lat="46.12706026821616" lon="1.324314594249789"><ele>270.8</ele><time>2026-03-28T15:20:00.998Z</time></trkpt><trkpt lat="46.126999465644396" lon="1.3244267175850333"><ele>271.2</ele><time>2026-03-28T15:20:01.998Z</time></trkpt><trkpt lat="46.12694322377907" lon="1.3245379948126565"><ele>271.6</ele><time>2026-03-28T15:20:02.998Z</time></trkpt><trkpt lat="46.126894819515506" lon="1.3246574938798417"><ele>272.0</ele><time>2026-03-28T15:20:03.998Z</time></trkpt><trkpt lat="46.126857916653826" lon="1.3247798331544123"><ele>272.2</ele><time>2026-03-28T15:20:04.998Z</time></trkpt><trkpt lat="46.126826500234436" lon="1.3249065531135042"><ele>272.4</ele><time>2026-03-28T15:20:05.998Z</time></trkpt><trkpt lat="46.12678709044849" lon="1.3250482422209353"><ele>272.6</ele><time>2026-03-28T15:20:06.998Z</time></trkpt><trkpt lat="46.12676260789983" lon="1.3251877854481284"><ele>272.8</ele><time>2026-03-28T15:20:07.998Z</time></trkpt><trkpt lat="46.126741721949195" lon="1.3253339346001898"><ele>273.0</ele><time>2026-03-28T15:20:08.998Z</time></trkpt><trkpt lat="46.126707598527126" lon="1.3254791683054452"><ele>273.8</ele><time>2026-03-28T15:20:09.998Z</time></trkpt><trkpt lat="46.12665662085159" lon="1.3256137854088785"><ele>274.6</ele><time>2026-03-28T15:20:10.998Z</time></trkpt><trkpt lat="46.12658781143321" lon="1.325728003434441"><ele>275.4</ele><time>2026-03-28T15:20:11.998Z</time></trkpt><trkpt lat="46.12652543972828" lon="1.3258346135892616"><ele>276.2</ele><time>2026-03-28T15:20:12.998Z</time></trkpt><trkpt lat="46.12646863892529" lon="1.3259594634626157"><ele>277.0</ele><time>2026-03-28T15:20:13.998Z</time></trkpt><trkpt lat="46.12641587608989" lon="1.3260854213058537"><ele>274.66666666666663</ele><time>2026-03-28T15:20:14.998Z</time></trkpt><trkpt lat="46.126382542359536" lon="1.3262233006575106"><ele>272.3333333333333</ele><time>2026-03-28T15:20:15.998Z</time></trkpt><trkpt lat="46.12636554058046" lon="1.3263336113357016"><ele>270.0</ele><time>2026-03-28T15:20:16.998Z</time></trkpt><trkpt lat="46.12635887487163" lon="1.3264284426583877"><ele>267.6666666666667</ele><time>2026-03-28T15:20:17.998Z</time></trkpt><trkpt lat="46.12636662915034" lon="1.3265320424369709"><ele>265.33333333333337</ele><time>2026-03-28T15:20:18.998Z</time></trkpt><trkpt lat="46.12637307173815" lon="1.3266485971908688"><ele>263.0</ele><time>2026-03-28T15:20:19.998Z</time></trkpt><trkpt lat="46.12639733861479" lon="1.3267820164511934"><ele>263.0</ele><time>2026-03-28T15:20:21Z</time></trkpt><trkpt lat="46.126425530191675" lon="1.3269299129692222"><ele>263.0</ele><time>2026-03-28T15:20:22Z</time></trkpt><trkpt lat="46.12646422701549" lon="1.327081491189957"><ele>263.0</ele><time>2026-03-28T15:20:23Z</time></trkpt><trkpt lat="46.126498153365446" lon="1.3272414784678706"><ele>263.0</ele><time>2026-03-28T15:20:24Z</time></trkpt><trkpt lat="46.12652929218691" lon="1.3274076774958141"><ele>262.0</ele><time>2026-03-28T15:20:25Z</time></trkpt><trkpt lat="46.12654729664058" lon="1.3275801128997855"><ele>261.0</ele><time>2026-03-28T15:20:26Z</time></trkpt><trkpt lat="46.1265422200611" lon="1.3277577647743553"><ele>260.0</ele><time>2026-03-28T15:20:27Z</time></trkpt><trkpt lat="46.126527962892226" lon="1.3279278485518449"><ele>259.0</ele><time>2026-03-28T15:20:28Z</time></trkpt><trkpt lat="46.12650542788362" lon="1.3280896623235754"><ele>258.8</ele><time>2026-03-28T15:20:29Z</time></trkpt><trkpt lat="46.12646142132905" lon="1.3282368563476603"><ele>258.59999999999997</ele><time>2026-03-28T15:20:30Z</time></trkpt><trkpt lat="46.12641053032163" lon="1.3283771122499286"><ele>258.4</ele><time>2026-03-28T15:20:31Z</time></trkpt><trkpt lat="46.12633448423429" lon="1.3284881311850913"><ele>258.2</ele><time>2026-03-28T15:20:32Z</time></trkpt><trkpt lat="46.126248542895055" lon="1.3285776866096743"><ele>258.0</ele><time>2026-03-28T15:20:33Z</time></trkpt><trkpt lat="46.126162382154355" lon="1.3286520861463398"><ele>258.0</ele><time>2026-03-28T15:20:34Z</time></trkpt><trkpt lat="46.1260865454107" lon="1.328750633908618"><ele>258.0</ele><time>2026-03-28T15:20:35Z</time></trkpt><trkpt lat="46.12602477796028" lon="1.3288715218695244"><ele>258.0</ele><time>2026-03-28T15:20:36Z</time></trkpt><trkpt lat="46.12598853131506" lon="1.3290093782356869"><ele>258.0</ele><time>2026-03-28T15:20:37Z</time></trkpt><trkpt lat="46.12595868905633" lon="1.3291532862852962"><ele>258.0</ele><time>2026-03-28T15:20:38Z</time></trkpt><trkpt lat="46.12595729005011" lon="1.3293070176546429"><ele>258.0</ele><time>2026-03-28T15:20:39Z</time></trkpt><trkpt lat="46.12598166871125" lon="1.329454486974495"><ele>258.0</ele><time>2026-03-28T15:20:40Z</time></trkpt><trkpt lat="46.12602889527904" lon="1.3295880820105115"><ele>258.0</ele><time>2026-03-28T15:20:41Z</time></trkpt><trkpt lat="46.12608290644546" lon="1.3297159185737046"><ele>258.0</ele><time>2026-03-28T15:20:42Z</time></trkpt><trkpt lat="46.12613041872782" lon="1.3298445338475586"><ele>258.0</ele><time>2026-03-28T15:20:43Z</time></trkpt><trkpt lat="46.12614926961284" lon="1.3299811500761585"><ele>259.2</ele><time>2026-03-28T15:20:44Z</time></trkpt><trkpt lat="46.12614198826771" lon="1.3301191120740323"><ele>260.4</ele><time>2026-03-28T15:20:45Z</time></trkpt><trkpt lat="46.12613024436484" lon="1.3302487901158382"><ele>261.59999999999997</ele><time>2026-03-28T15:20:46Z</time></trkpt><trkpt lat="46.1260978084472" lon="1.3303631803099767"><ele>262.8</ele><time>2026-03-28T15:20:47Z</time></trkpt><trkpt lat="46.12604684582383" lon="1.3304803442045388"><ele>264.0</ele><time>2026-03-28T15:20:48Z</time></trkpt><trkpt lat="46.125988795362716" lon="1.3305732656165665"><ele>264.4</ele><time>2026-03-28T15:20:49Z</time></trkpt><trkpt lat="46.125912040215624" lon="1.3306505276695946"><ele>264.79999999999995</ele><time>2026-03-28T15:20:50Z</time></trkpt><trkpt lat="46.12582427917599" lon="1.3307139139245456"><ele>265.20000000000005</ele><time>2026-03-28T15:20:51Z</time></trkpt><trkpt lat="46.1257310536087" lon="1.330762959424593"><ele>265.6</ele><time>2026-03-28T15:20:52Z</time></trkpt><trkpt lat="46.125629209087855" lon="1.330811542924804"><ele>266.0</ele><time>2026-03-28T15:20:53Z</time></trkpt><trkpt lat="46.12551690434807" lon="1.3308751272598407"><ele>266.0</ele><time>2026-03-28T15:20:54Z</time></trkpt><trkpt lat="46.12540965436351" lon="1.3309443554423674"><ele>266.0</ele><time>2026-03-28T15:20:55Z</time></trkpt><trkpt lat="46.12532746035516" lon="1.3310402949537676"><ele>266.0</ele><time>2026-03-28T15:20:56Z</time></trkpt><trkpt lat="46.1252747222922" lon="1.3311701053694454"><ele>266.0</ele><time>2026-03-28T15:20:57Z</time></trkpt><trkpt lat="46.12524851022134" lon="1.3313283895184758"><ele>266.0</ele><time>2026-03-28T15:20:58Z</time></trkpt><trkpt lat="46.125252863556256" lon="1.3314988104374916"><ele>267.25</ele><time>2026-03-28T15:20:58.999Z</time></trkpt><trkpt lat="46.12527635915265" lon="1.3316829513546338"><ele>268.5</ele><time>2026-03-28T15:20:59.999Z</time></trkpt><trkpt lat="46.1253501739128" lon="1.3318533734365807"><ele>269.75</ele><time>2026-03-28T15:21:00.999Z</time></trkpt><trkpt lat="46.12542600543836" lon="1.3320252087576563"><ele>271.0</ele><time>2026-03-28T15:21:01.999Z</time></trkpt><trkpt lat="46.12549130439594" lon="1.3321933064684628"><ele>272.40000000000003</ele><time>2026-03-28T15:21:02.999Z</time></trkpt><trkpt lat="46.12553499229527" lon="1.3323586517629868"><ele>273.8</ele><time>2026-03-28T15:21:03.999Z</time></trkpt><trkpt lat="46.125545906299365" lon="1.3325218769757698"><ele>275.20000000000005</ele><time>2026-03-28T15:21:04.999Z</time></trkpt><trkpt lat="46.12552571870394" lon="1.332666102245938"><ele>276.6</ele><time>2026-03-28T15:21:05.999Z</time></trkpt><trkpt lat="46.12547686810301" lon="1.3327831631285987"><ele>278.0</ele><time>2026-03-28T15:21:06.999Z</time></trkpt><trkpt lat="46.1254140510056" lon="1.3328616487043854"><ele>278.0</ele><time>2026-03-28T15:21:07.999Z</time></trkpt><trkpt lat="46.12535039522287" lon="1.3329108229100426"><ele>278.0</ele><time>2026-03-28T15:21:08.999Z</time></trkpt><trkpt lat="46.12528830335961" lon="1.3329601824289201"><ele>278.0</ele><time>2026-03-28T15:21:09.999Z</time></trkpt><trkpt lat="46.12523056423989" lon="1.3330084248389336"><ele>278.0</ele><time>2026-03-28T15:21:10.999Z</time></trkpt><trkpt lat="46.12513883836605" lon="1.3330786614852301"><ele>278.0</ele><time>2026-03-28T15:21:12.999Z</time></trkpt><trkpt lat="46.125059392178706" lon="1.3331579277641814"><ele>278.0</ele><time>2026-03-28T15:21:14.999Z</time></trkpt><trkpt lat="46.12499375902453" lon="1.3332230924303363"><ele>277.57142857142856</ele><time>2026-03-28T15:21:17.999Z</time></trkpt><trkpt lat="46.124938002717606" lon="1.3332940289167978"><ele>277.14285714285717</ele><time>2026-03-28T15:21:21.999Z</time></trkpt><trkpt lat="46.124910358624" lon="1.3333810243409188"><ele>276.7142857142857</ele><time>2026-03-28T15:21:23.999Z</time></trkpt><trkpt lat="46.12487440521568" lon="1.3334605263892076"><ele>276.2857142857143</ele><time>2026-03-28T15:21:25.999Z</time></trkpt><trkpt lat="46.12482256960174" lon="1.333560081866234"><ele>275.85714285714283</ele><time>2026-03-28T15:21:28.999Z</time></trkpt><trkpt lat="46.1247897173629" lon="1.3336511294192983"><ele>275.42857142857144</ele><time>2026-03-28T15:21:31.999Z</time></trkpt><trkpt lat="46.12475476905255" lon="1.3337569122264257"><ele>275.0</ele><time>2026-03-28T15:21:35.999Z</time></trkpt><trkpt lat="46.12471859072716" lon="1.3338573521635166"><ele>276.2</ele><time>2026-03-28T15:21:38.999Z</time></trkpt><trkpt lat="46.12467319277784" lon="1.3339780763734803"><ele>277.4</ele><time>2026-03-28T15:21:40.999Z</time></trkpt><trkpt lat="46.12461449197512" lon="1.3341137137793124"><ele>278.6</ele><time>2026-03-28T15:21:42.999Z</time></trkpt><trkpt lat="46.12454657843489" lon="1.3342713256643766"><ele>279.8</ele><time>2026-03-28T15:21:44.999Z</time></trkpt><trkpt lat="46.12450742450312" lon="1.334354378441026"><ele>281.0</ele><time>2026-03-28T15:21:45.999Z</time></trkpt><trkpt lat="46.124466135365424" lon="1.3344407310009625"><ele>281.0</ele><time>2026-03-28T15:21:46.999Z</time></trkpt><trkpt lat="46.1244209337261" lon="1.3345378155254417"><ele>281.0</ele><time>2026-03-28T15:21:47.999Z</time></trkpt><trkpt lat="46.12436652537634" lon="1.3346320944412002"><ele>281.0</ele><time>2026-03-28T15:21:48.999Z</time></trkpt><trkpt lat="46.12430315035769" lon="1.3347182078144761"><ele>281.0</ele><time>2026-03-28T15:21:49.999Z</time></trkpt><trkpt lat="46.12422950548398" lon="1.3348020931050937"><ele>281.0</ele><time>2026-03-28T15:21:50.998Z</time></trkpt><trkpt lat="46.124154855836075" lon="1.3348788977997612"><ele>281.0</ele><time>2026-03-28T15:21:51.998Z</time></trkpt><trkpt lat="46.12407571070157" lon="1.3349502316045863"><ele>282.0</ele><time>2026-03-28T15:21:52.998Z</time></trkpt><trkpt lat="46.12399654000815" lon="1.3350198788456524"><ele>283.0</ele><time>2026-03-28T15:21:53.998Z</time></trkpt><trkpt lat="46.12391228196669" lon="1.3350777319927014"><ele>284.0</ele><time>2026-03-28T15:21:54.998Z</time></trkpt><trkpt lat="46.1238248073023" lon="1.3351221462472476"><ele>285.0</ele><time>2026-03-28T15:21:55.998Z</time></trkpt><trkpt lat="46.12373571672726" lon="1.3351514884200935"><ele>286.0</ele><time>2026-03-28T15:21:56.998Z</time></trkpt><trkpt lat="46.12364668960169" lon="1.3351579395704127"><ele>286.0</ele><time>2026-03-28T15:21:57.998Z</time></trkpt><trkpt lat="46.12355988126367" lon="1.335158641952006"><ele>286.0</ele><time>2026-03-28T15:21:58.998Z</time></trkpt><trkpt lat="46.12347641553978" lon="1.3351438177837145"><ele>286.0</ele><time>2026-03-28T15:21:59.998Z</time></trkpt><trkpt lat="46.123397734865534" lon="1.33512008056286"><ele>286.0</ele><time>2026-03-28T15:22:00.998Z</time></trkpt><trkpt lat="46.123319513282695" lon="1.3350879763509036"><ele>286.0</ele><time>2026-03-28T15:22:01.998Z</time></trkpt><trkpt lat="46.12324356379276" lon="1.3350671330074557"><ele>286.0</ele><time>2026-03-28T15:22:02.998Z</time></trkpt><trkpt lat="46.12316958836123" lon="1.3350624606450954"><ele>285.71428571428567</ele><time>2026-03-28T15:22:03.998Z</time></trkpt><trkpt lat="46.12309916727907" lon="1.33507337938514"><ele>285.42857142857144</ele><time>2026-03-28T15:22:04.998Z</time></trkpt><trkpt lat="46.12303139786351" lon="1.335092378854456"><ele>285.1428571428571</ele><time>2026-03-28T15:22:05.998Z</time></trkpt><trkpt lat="46.122963778876496" lon="1.3351233179922748"><ele>284.85714285714283</ele><time>2026-03-28T15:22:06.998Z</time></trkpt><trkpt lat="46.12289496188098" lon="1.3351642102758696"><ele>284.57142857142856</ele><time>2026-03-28T15:22:07.998Z</time></trkpt><trkpt lat="46.122824420452716" lon="1.3352148959479717"><ele>284.2857142857143</ele><time>2026-03-28T15:22:08.998Z</time></trkpt><trkpt lat="46.122748329886626" lon="1.3352639480631376"><ele>284.0</ele><time>2026-03-28T15:22:09.998Z</time></trkpt><trkpt lat="46.122673035270694" lon="1.3353196302622898"><ele>284.0</ele><time>2026-03-28T15:22:10.998Z</time></trkpt><trkpt lat="46.12258974390622" lon="1.3353646514732362"><ele>284.0</ele><time>2026-03-28T15:22:11.998Z</time></trkpt><trkpt lat="46.122489267204834" lon="1.335408194517099"><ele>284.0</ele><time>2026-03-28T15:22:12.998Z</time></trkpt><trkpt lat="46.122399120478235" lon="1.3354625459706546"><ele>284.0</ele><time>2026-03-28T15:22:13.998Z</time></trkpt><trkpt lat="46.12230204091766" lon="1.3355198290522847"><ele>284.0</ele><time>2026-03-28T15:22:14.998Z</time></trkpt><trkpt lat="46.12220094341843" lon="1.335566517162323"><ele>284.4</ele><time>2026-03-28T15:22:15.998Z</time></trkpt><trkpt lat="46.12210423073862" lon="1.3356157507739894"><ele>284.79999999999995</ele><time>2026-03-28T15:22:16.998Z</time></trkpt><trkpt lat="46.12199146258322" lon="1.3356356515722874"><ele>285.20000000000005</ele><time>2026-03-28T15:22:17.998Z</time></trkpt><trkpt lat="46.12188172259628" lon="1.3356462470935755"><ele>285.6</ele><time>2026-03-28T15:22:18.998Z</time></trkpt><trkpt lat="46.121769114976004" lon="1.335654664987744"><ele>286.0</ele><time>2026-03-28T15:22:19.998Z</time></trkpt><trkpt lat="46.12165994702058" lon="1.3356709418056614"><ele>285.0</ele><time>2026-03-28T15:22:20.998Z</time></trkpt><trkpt lat="46.12155517779575" lon="1.335698091663973"><ele>284.0</ele><time>2026-03-28T15:22:21.998Z</time></trkpt><trkpt lat="46.121449989082066" lon="1.3357381954071021"><ele>283.0</ele><time>2026-03-28T15:22:22.998Z</time></trkpt><trkpt lat="46.12135045675335" lon="1.3357924742384737"><ele>282.0</ele><time>2026-03-28T15:22:23.998Z</time></trkpt><trkpt lat="46.12124955122851" lon="1.3358533882606693"><ele>281.0</ele><time>2026-03-28T15:22:24.998Z</time></trkpt><trkpt lat="46.12114934168737" lon="1.335917802233591"><ele>281.0</ele><time>2026-03-28T15:22:26Z</time></trkpt><trkpt lat="46.12104363583814" lon="1.335970540764956"><ele>281.0</ele><time>2026-03-28T15:22:27Z</time></trkpt><trkpt lat="46.12094324918632" lon="1.3360389046326298"><ele>281.0</ele><time>2026-03-28T15:22:28Z</time></trkpt><trkpt lat="46.12084428617428" lon="1.336118440220064"><ele>281.0</ele><time>2026-03-28T15:22:29Z</time></trkpt><trkpt lat="46.120747958133165" lon="1.336201314640488"><ele>281.0</ele><time>2026-03-28T15:22:30Z</time></trkpt><trkpt lat="46.12064490434773" lon="1.3362671818298755"><ele>279.75</ele><time>2026-03-28T15:22:31Z</time></trkpt><trkpt lat="46.12053463539844" lon="1.336306555049418"><ele>278.5</ele><time>2026-03-28T15:22:32Z</time></trkpt><trkpt lat="46.1204182299246" lon="1.3363101958229207"><ele>277.25</ele><time>2026-03-28T15:22:33Z</time></trkpt><trkpt lat="46.12029956776212" lon="1.336289073916373"><ele>276.0</ele><time>2026-03-28T15:22:34Z</time></trkpt><trkpt lat="46.12018137261993" lon="1.3362732460362134"><ele>276.0</ele><time>2026-03-28T15:22:35Z</time></trkpt><trkpt lat="46.12005771908123" lon="1.3362792873912475"><ele>276.0</ele><time>2026-03-28T15:22:36Z</time></trkpt><trkpt lat="46.11993511553826" lon="1.3363148967541179"><ele>276.0</ele><time>2026-03-28T15:22:37Z</time></trkpt><trkpt lat="46.11980977847734" lon="1.3363579922992384"><ele>276.0</ele><time>2026-03-28T15:22:38Z</time></trkpt><trkpt lat="46.11968795930517" lon="1.3364069494340216"><ele>274.5</ele><time>2026-03-28T15:22:39Z</time></trkpt><trkpt lat="46.11956579278331" lon="1.3364528495435115"><ele>273.0</ele><time>2026-03-28T15:22:40Z</time></trkpt><trkpt lat="46.11944228107372" lon="1.3364969205104702"><ele>271.5</ele><time>2026-03-28T15:22:41Z</time></trkpt><trkpt lat="46.1193231160823" lon="1.336533095403761"><ele>270.0</ele><time>2026-03-28T15:22:42Z</time></trkpt><trkpt lat="46.11920429853931" lon="1.3365610248720468"><ele>270.0</ele><time>2026-03-28T15:22:43Z</time></trkpt><trkpt lat="46.11908973443789" lon="1.3365854426492705"><ele>270.0</ele><time>2026-03-28T15:22:44Z</time></trkpt><trkpt lat="46.118979109511805" lon="1.3366176766880813"><ele>270.0</ele><time>2026-03-28T15:22:45Z</time></trkpt><trkpt lat="46.11887177501709" lon="1.3366587200221112"><ele>270.0</ele><time>2026-03-28T15:22:46Z</time></trkpt><trkpt lat="46.118771046065866" lon="1.3367231272577935"><ele>269.4</ele><time>2026-03-28T15:22:47Z</time></trkpt><trkpt lat="46.11867767970601" lon="1.3367978542261116"><ele>268.8</ele><time>2026-03-28T15:22:48Z</time></trkpt><trkpt lat="46.11859764845535" lon="1.3368968781365065"><ele>268.2</ele><time>2026-03-28T15:22:49Z</time></trkpt><trkpt lat="46.11852751050281" lon="1.3370163384362515"><ele>267.6</ele><time>2026-03-28T15:22:50Z</time></trkpt><trkpt lat="46.1184732545044" lon="1.3371500347455958"><ele>267.0</ele><time>2026-03-28T15:22:51Z</time></trkpt><trkpt lat="46.118427930987366" lon="1.3372905350196278"><ele>266.0</ele><time>2026-03-28T15:22:52Z</time></trkpt><trkpt lat="46.118399440667154" lon="1.3374337510724241"><ele>265.0</ele><time>2026-03-28T15:22:53Z</time></trkpt><trkpt lat="46.1183708484345" lon="1.3375751779769784"><ele>264.0</ele><time>2026-03-28T15:22:54Z</time></trkpt><trkpt lat="46.118320638502254" lon="1.3377048262926103"><ele>263.0</ele><time>2026-03-28T15:22:55Z</time></trkpt><trkpt lat="46.11825450946072" lon="1.3378199158562611"><ele>262.0</ele><time>2026-03-28T15:22:56Z</time></trkpt><trkpt lat="46.118173273867" lon="1.3379133409202488"><ele>260.4</ele><time>2026-03-28T15:22:57Z</time></trkpt><trkpt lat="46.11806946934254" lon="1.337946536554284"><ele>258.79999999999995</ele><time>2026-03-28T15:22:58Z</time></trkpt><trkpt lat="46.11797272017855" lon="1.3380109277039478"><ele>257.2</ele><time>2026-03-28T15:22:59Z</time></trkpt><trkpt lat="46.11787396066183" lon="1.338042607845737"><ele>255.6</ele><time>2026-03-28T15:23:00Z</time></trkpt><trkpt lat="46.11777320389392" lon="1.3380559664861884"><ele>254.0</ele><time>2026-03-28T15:23:01Z</time></trkpt><trkpt lat="46.117678141046134" lon="1.3381099441472768"><ele>253.85714285714286</ele><time>2026-03-28T15:23:02Z</time></trkpt><trkpt lat="46.117593242328695" lon="1.3381372895492039"><ele>253.71428571428572</ele><time>2026-03-28T15:23:03Z</time></trkpt><trkpt lat="46.11752573467427" lon="1.3381463806492175"><ele>253.57142857142858</ele><time>2026-03-28T15:23:04Z</time></trkpt><trkpt lat="46.117457143219866" lon="1.338163705473485"><ele>253.42857142857144</ele><time>2026-03-28T15:23:04.999Z</time></trkpt><trkpt lat="46.117393753701556" lon="1.3381825409532233"><ele>253.28571428571428</ele><time>2026-03-28T15:23:05.999Z</time></trkpt><trkpt lat="46.11733139800187" lon="1.338202846604127"><ele>253.14285714285717</ele><time>2026-03-28T15:23:06.999Z</time></trkpt><trkpt lat="46.117243355244575" lon="1.3382270635021487"><ele>253.00000000000003</ele><time>2026-03-28T15:23:08.999Z</time></trkpt><trkpt lat="46.11715989635273" lon="1.3383085662871488"><ele>253.60000000000002</ele><time>2026-03-28T15:24:43Z</time></trkpt><trkpt lat="46.117026986900406" lon="1.3382223216202527"><ele>254.20000000000002</ele><time>2026-03-28T15:24:45Z</time></trkpt><trkpt lat="46.11694963653299" lon="1.3381643151712193"><ele>254.8</ele><time>2026-03-28T15:24:46Z</time></trkpt><trkpt lat="46.116881268126875" lon="1.3381019148903213"><ele>255.4</ele><time>2026-03-28T15:24:47Z</time></trkpt><trkpt lat="46.11680652555002" lon="1.3380358916265307"><ele>256.0</ele><time>2026-03-28T15:24:48Z</time></trkpt><trkpt lat="46.11670458105135" lon="1.3379527493588375"><ele>256.0</ele><time>2026-03-28T15:24:49Z</time></trkpt><trkpt lat="46.11662092074632" lon="1.3378798948277437"><ele>256.0</ele><time>2026-03-28T15:24:50Z</time></trkpt><trkpt lat="46.11652695530084" lon="1.3378129292246643"><ele>256.0</ele><time>2026-03-28T15:24:51Z</time></trkpt><trkpt lat="46.1164202722112" lon="1.337741968673526"><ele>256.0</ele><time>2026-03-28T15:24:52Z</time></trkpt><trkpt lat="46.11632112603276" lon="1.3376779920753517"><ele>256.0</ele><time>2026-03-28T15:24:53Z</time></trkpt><trkpt lat="46.11623599824181" lon="1.3376392575722744"><ele>259.0</ele><time>2026-03-28T15:24:54Z</time></trkpt><trkpt lat="46.116156773293696" lon="1.3375613070480863"><ele>262.0</ele><time>2026-03-28T15:24:55Z</time></trkpt><trkpt lat="46.11606444545008" lon="1.3374753341538328"><ele>265.0</ele><time>2026-03-28T15:24:56Z</time></trkpt><trkpt lat="46.116003780597836" lon="1.3373693188453049"><ele>268.0</ele><time>2026-03-28T15:24:57Z</time></trkpt><trkpt lat="46.11592815526686" lon="1.3372629344158626"><ele>271.0</ele><time>2026-03-28T15:24:58Z</time></trkpt><trkpt lat="46.115862495142245" lon="1.337161635747706"><ele>271.75</ele><time>2026-03-28T15:24:58.999Z</time></trkpt><trkpt lat="46.11578024007999" lon="1.3370682899212791"><ele>272.5</ele><time>2026-03-28T15:24:59.999Z</time></trkpt><trkpt lat="46.1156792532892" lon="1.3369520897812297"><ele>273.25</ele><time>2026-03-28T15:25:00.999Z</time></trkpt><trkpt lat="46.11558617716587" lon="1.3368186219494311"><ele>274.0</ele><time>2026-03-28T15:25:01.999Z</time></trkpt><trkpt lat="46.11552508995687" lon="1.3366898328115013"><ele>274.2</ele><time>2026-03-28T15:25:02.999Z</time></trkpt><trkpt lat="46.11550804263858" lon="1.33652720706115"><ele>274.4</ele><time>2026-03-28T15:25:03.999Z</time></trkpt><trkpt lat="46.115509312999826" lon="1.3363518027971661"><ele>274.6</ele><time>2026-03-28T15:25:04.999Z</time></trkpt><trkpt lat="46.11551865975626" lon="1.336200809308722"><ele>274.8</ele><time>2026-03-28T15:25:05.999Z</time></trkpt><trkpt lat="46.11548970363466" lon="1.336085682960205"><ele>275.0</ele><time>2026-03-28T15:25:06.999Z</time></trkpt><trkpt lat="46.115436520197285" lon="1.3359763506599727"><ele>275.75</ele><time>2026-03-28T15:25:07.999Z</time></trkpt><trkpt lat="46.11534161541066" lon="1.3358202876373255"><ele>276.5</ele><time>2026-03-28T15:25:08.999Z</time></trkpt><trkpt lat="46.11526397307347" lon="1.3357029855813063"><ele>277.25</ele><time>2026-03-28T15:25:09.999Z</time></trkpt><trkpt lat="46.115199140637685" lon="1.3355953081355343"><ele>278.0</ele><time>2026-03-28T15:25:10.999Z</time></trkpt><trkpt lat="46.115139335367395" lon="1.3354784915714146"><ele>278.4</ele><time>2026-03-28T15:25:11.999Z</time></trkpt><trkpt lat="46.1150905692136" lon="1.3353486784329855"><ele>278.8</ele><time>2026-03-28T15:25:12.999Z</time></trkpt><trkpt lat="46.11504411617746" lon="1.3352069461337646"><ele>279.2</ele><time>2026-03-28T15:25:13.999Z</time></trkpt><trkpt lat="46.1150025311855" lon="1.3350639722364954"><ele>279.6</ele><time>2026-03-28T15:25:14.999Z</time></trkpt><trkpt lat="46.11495851893673" lon="1.334917459186019"><ele>280.0</ele><time>2026-03-28T15:25:15.999Z</time></trkpt><trkpt lat="46.11491266240246" lon="1.3347721522795202"><ele>280.6</ele><time>2026-03-28T15:25:16.999Z</time></trkpt><trkpt lat="46.11487184631808" lon="1.334621803727116"><ele>281.2</ele><time>2026-03-28T15:25:17.999Z</time></trkpt><trkpt lat="46.11482494899518" lon="1.3344765753115422"><ele>281.8</ele><time>2026-03-28T15:25:18.999Z</time></trkpt><trkpt lat="46.11476847682373" lon="1.3343436261220583"><ele>282.4</ele><time>2026-03-28T15:25:19.999Z</time></trkpt><trkpt lat="46.11471245438597" lon="1.334209187236908"><ele>283.0</ele><time>2026-03-28T15:25:20.999Z</time></trkpt><trkpt lat="46.11464404775039" lon="1.3340821130574134"><ele>283.0</ele><time>2026-03-28T15:25:21.999Z</time></trkpt><trkpt lat="46.11457251849839" lon="1.333957730755181"><ele>283.0</ele><time>2026-03-28T15:25:22.999Z</time></trkpt><trkpt lat="46.114491919224996" lon="1.3338371100557354"><ele>283.0</ele><time>2026-03-28T15:25:23.999Z</time></trkpt><trkpt lat="46.11440986156022" lon="1.33371525153095"><ele>283.0</ele><time>2026-03-28T15:25:24.999Z</time></trkpt><trkpt lat="46.11432847911287" lon="1.3335863702925974"><ele>284.0</ele><time>2026-03-28T15:25:25.999Z</time></trkpt><trkpt lat="46.1142511700798" lon="1.3334600189252852"><ele>285.0</ele><time>2026-03-28T15:25:26.999Z</time></trkpt><trkpt lat="46.11416993276529" lon="1.33333590793271"><ele>286.0</ele><time>2026-03-28T15:25:27.999Z</time></trkpt><trkpt lat="46.11409195152924" lon="1.3332085668330087"><ele>287.0</ele><time>2026-03-28T15:25:28.999Z</time></trkpt><trkpt lat="46.114006294016896" lon="1.3330809207679786"><ele>288.75</ele><time>2026-03-28T15:25:29.999Z</time></trkpt><trkpt lat="46.11390985990386" lon="1.3329353897057064"><ele>290.5</ele><time>2026-03-28T15:25:30.999Z</time></trkpt><trkpt lat="46.11381088668023" lon="1.3327912551101386"><ele>292.25</ele><time>2026-03-28T15:25:31.999Z</time></trkpt><trkpt lat="46.113708247972546" lon="1.3326377304802834"><ele>294.0</ele><time>2026-03-28T15:25:32.999Z</time></trkpt><trkpt lat="46.11361723067671" lon="1.3324615460492837"><ele>294.0</ele><time>2026-03-28T15:25:33.999Z</time></trkpt><trkpt lat="46.113512649836096" lon="1.332299285614146"><ele>294.0</ele><time>2026-03-28T15:25:34.999Z</time></trkpt><trkpt lat="46.11340022554847" lon="1.3321620308678082"><ele>294.0</ele><time>2026-03-28T15:25:35.999Z</time></trkpt><trkpt lat="46.11330509497346" lon="1.3320325081115898"><ele>294.0</ele><time>2026-03-28T15:25:36.999Z</time></trkpt><trkpt lat="46.113203981786064" lon="1.331920282463305"><ele>294.5</ele><time>2026-03-28T15:25:37.999Z</time></trkpt><trkpt lat="46.11307396218819" lon="1.3318973342478657"><ele>295.0</ele><time>2026-03-28T15:25:38.999Z</time></trkpt><trkpt lat="46.112935552976396" lon="1.3318824593680023"><ele>295.5</ele><time>2026-03-28T15:25:39.999Z</time></trkpt><trkpt lat="46.112795470041675" lon="1.3318508089262415"><ele>296.0</ele><time>2026-03-28T15:25:40.999Z</time></trkpt><trkpt lat="46.11265081658409" lon="1.3318259217715096"><ele>296.0</ele><time>2026-03-28T15:25:41.999Z</time></trkpt><trkpt lat="46.11250679315728" lon="1.3317679606577508"><ele>296.0</ele><time>2026-03-28T15:25:42.999Z</time></trkpt><trkpt lat="46.11237368470723" lon="1.3316770547709833"><ele>296.0</ele><time>2026-03-28T15:25:43.999Z</time></trkpt><trkpt lat="46.11226359934094" lon="1.3315812101450373"><ele>296.0</ele><time>2026-03-28T15:25:44.999Z</time></trkpt><trkpt lat="46.11215521896981" lon="1.331514474202549"><ele>296.6</ele><time>2026-03-28T15:25:45.999Z</time></trkpt><trkpt lat="46.11206860995752" lon="1.3314336726233416"><ele>297.20000000000005</ele><time>2026-03-28T15:25:46.999Z</time></trkpt><trkpt lat="46.112005153250294" lon="1.331360540185287"><ele>297.79999999999995</ele><time>2026-03-28T15:25:47.999Z</time></trkpt><trkpt lat="46.111925316375796" lon="1.331343595038668"><ele>298.4</ele><time>2026-03-28T15:25:49.999Z</time></trkpt><trkpt lat="46.11183391289644" lon="1.3313681835434308"><ele>299.0</ele><time>2026-03-28T15:25:55.999Z</time></trkpt><trkpt lat="46.11174075126878" lon="1.3313826437026322"><ele>299.0</ele><time>2026-03-28T15:25:57.999Z</time></trkpt><trkpt lat="46.11164128334375" lon="1.3313974996924633"><ele>299.0</ele><time>2026-03-28T15:25:59.998Z</time></trkpt><trkpt lat="46.111559508292174" lon="1.3314229558189994"><ele>299.0</ele><time>2026-03-28T15:26:01.998Z</time></trkpt><trkpt lat="46.11149466100786" lon="1.3314469684481745"><ele>299.0</ele><time>2026-03-28T15:26:03.998Z</time></trkpt><trkpt lat="46.111425511406665" lon="1.3314774793859785"><ele>299.0</ele><time>2026-03-28T15:26:05.998Z</time></trkpt><trkpt lat="46.11118736416482" lon="1.3308894790629364"><ele>300.4</ele><time>2026-03-28T15:26:09.998Z</time></trkpt><trkpt lat="46.11110312538027" lon="1.3307645301555437"><ele>301.79999999999995</ele><time>2026-03-28T15:26:11.998Z</time></trkpt><trkpt lat="46.11106053035367" lon="1.330695360475551"><ele>303.20000000000005</ele><time>2026-03-28T15:26:12.998Z</time></trkpt><trkpt lat="46.11099198076058" lon="1.3306081905033131"><ele>304.6</ele><time>2026-03-28T15:26:14.998Z</time></trkpt><trkpt lat="46.11092133267756" lon="1.3304932832940772"><ele>306.0</ele><time>2026-03-28T15:26:16.998Z</time></trkpt><trkpt lat="46.11084657476373" lon="1.330386362763371"><ele>306.25</ele><time>2026-03-28T15:26:18.998Z</time></trkpt><trkpt lat="46.11076548629237" lon="1.3302749249747436"><ele>306.5</ele><time>2026-03-28T15:26:20.998Z</time></trkpt><trkpt lat="46.11066980503706" lon="1.330184892232027"><ele>306.75</ele><time>2026-03-28T15:26:22.998Z</time></trkpt><trkpt lat="46.1105688136699" lon="1.330107653097216"><ele>307.0</ele><time>2026-03-28T15:26:24.998Z</time></trkpt><trkpt lat="46.11045956216191" lon="1.3300553286595056"><ele>307.4</ele><time>2026-03-28T15:26:26.998Z</time></trkpt><trkpt lat="46.110360188257026" lon="1.3299957864014338"><ele>307.79999999999995</ele><time>2026-03-28T15:26:28.998Z</time></trkpt><trkpt lat="46.11026046332166" lon="1.3299591774512847"><ele>308.2</ele><time>2026-03-28T15:26:30.998Z</time></trkpt><trkpt lat="46.11017023214541" lon="1.3299058466429923"><ele>308.59999999999997</ele><time>2026-03-28T15:26:32.998Z</time></trkpt><trkpt lat="46.110062124201384" lon="1.3298690324541058"><ele>309.0</ele><time>2026-03-28T15:26:34.998Z</time></trkpt><trkpt lat="46.10997352452335" lon="1.3298056615731446"><ele>309.2</ele><time>2026-03-28T15:26:36.998Z</time></trkpt><trkpt lat="46.10987825087368" lon="1.329733532989262"><ele>309.4</ele><time>2026-03-28T15:26:39Z</time></trkpt><trkpt lat="46.109784860485675" lon="1.3296822582989023"><ele>309.6</ele><time>2026-03-28T15:26:41Z</time></trkpt><trkpt lat="46.10969931203519" lon="1.329610773479781"><ele>309.8</ele><time>2026-03-28T15:26:43Z</time></trkpt><trkpt lat="46.109605727371566" lon="1.3295464551674352"><ele>310.0</ele><time>2026-03-28T15:26:45Z</time></trkpt><trkpt lat="46.109503483134894" lon="1.3295332419337142"><ele>311.2</ele><time>2026-03-28T15:26:47Z</time></trkpt><trkpt lat="46.10939651393425" lon="1.3294891505462065"><ele>312.4</ele><time>2026-03-28T15:26:49Z</time></trkpt><trkpt lat="46.10929495632735" lon="1.3294502038191172"><ele>313.6</ele><time>2026-03-28T15:26:51Z</time></trkpt><trkpt lat="46.10920162375877" lon="1.3293917148823893"><ele>314.8</ele><time>2026-03-28T15:26:53Z</time></trkpt><trkpt lat="46.109113835561836" lon="1.3293206987515807"><ele>316.0</ele><time>2026-03-28T15:26:55Z</time></trkpt><trkpt lat="46.109018365290694" lon="1.329269792543206"><ele>316.0</ele><time>2026-03-28T15:26:57Z</time></trkpt><trkpt lat="46.10893306008288" lon="1.3291937994191847"><ele>316.0</ele><time>2026-03-28T15:26:59Z</time></trkpt><trkpt lat="46.10884543864076" lon="1.329101917086941"><ele>316.0</ele><time>2026-03-28T15:27:01Z</time></trkpt><trkpt lat="46.108758140385" lon="1.3290065929192239"><ele>316.0</ele><time>2026-03-28T15:27:03Z</time></trkpt><trkpt lat="46.10865519544728" lon="1.3289242763682039"><ele>316.0</ele><time>2026-03-28T15:27:05Z</time></trkpt><trkpt lat="46.108598145089445" lon="1.3288848802625317"><ele>316.5</ele><time>2026-03-28T15:27:06Z</time></trkpt><trkpt lat="46.10848784805886" lon="1.3288093568790638"><ele>317.0</ele><time>2026-03-28T15:27:08Z</time></trkpt><trkpt lat="46.108386746615025" lon="1.328730040768732"><ele>317.5</ele><time>2026-03-28T15:27:09.999Z</time></trkpt><trkpt lat="46.10827416223087" lon="1.3286732830614605"><ele>318.0</ele><time>2026-03-28T15:27:11.999Z</time></trkpt><trkpt lat="46.10817722171455" lon="1.3286177019405687"><ele>318.5</ele><time>2026-03-28T15:27:13.999Z</time></trkpt><trkpt lat="46.10806768127714" lon="1.328560581905858"><ele>319.0</ele><time>2026-03-28T15:27:15.999Z</time></trkpt><trkpt lat="46.1079790695485" lon="1.32848194245673"><ele>319.5</ele><time>2026-03-28T15:27:17.999Z</time></trkpt><trkpt lat="46.10788178562814" lon="1.3283869533356532"><ele>320.0</ele><time>2026-03-28T15:27:19.999Z</time></trkpt><trkpt lat="46.10777641643275" lon="1.3283222692663406"><ele>320.0</ele><time>2026-03-28T15:27:21.999Z</time></trkpt><trkpt lat="46.10772245896044" lon="1.328260873545185"><ele>320.0</ele><time>2026-03-28T15:27:22.999Z</time></trkpt><trkpt lat="46.1076176058453" lon="1.3281772606448485"><ele>320.0</ele><time>2026-03-28T15:27:24.999Z</time></trkpt><trkpt lat="46.107491676999175" lon="1.3281477772976757"><ele>320.0</ele><time>2026-03-28T15:27:26.999Z</time></trkpt><trkpt lat="46.10742846160036" lon="1.328134247471375"><ele>320.0</ele><time>2026-03-28T15:27:27.999Z</time></trkpt><trkpt lat="46.107304852370454" lon="1.3281056756632754"><ele>321.0</ele><time>2026-03-28T15:27:29.999Z</time></trkpt><trkpt lat="46.107231543394334" lon="1.3280920615288758"><ele>322.0</ele><time>2026-03-28T15:27:30.999Z</time></trkpt><trkpt lat="46.10711113457193" lon="1.3280432675102087"><ele>323.0</ele><time>2026-03-28T15:27:32.999Z</time></trkpt><trkpt lat="46.10699697936483" lon="1.3279663404599555"><ele>324.0</ele><time>2026-03-28T15:27:34.999Z</time></trkpt><trkpt lat="46.10689212284853" lon="1.3278707205605318"><ele>325.0</ele><time>2026-03-28T15:27:36.999Z</time></trkpt><trkpt lat="46.106789894289015" lon="1.3277705383586662"><ele>325.0</ele><time>2026-03-28T15:27:38.999Z</time></trkpt><trkpt lat="46.106690762171695" lon="1.3277385731091038"><ele>325.0</ele><time>2026-03-28T15:27:40.999Z</time></trkpt><trkpt lat="46.106578231141455" lon="1.3276925599920595"><ele>325.0</ele><time>2026-03-28T15:27:42.999Z</time></trkpt><trkpt lat="46.10652085122256" lon="1.3276510781922304"><ele>325.0</ele><time>2026-03-28T15:27:43.999Z</time></trkpt><trkpt lat="46.10640991887572" lon="1.3276096655988694"><ele>325.0</ele><time>2026-03-28T15:27:45.999Z</time></trkpt><trkpt lat="46.106330841262725" lon="1.3276018976074424"><ele>325.4</ele><time>2026-03-28T15:27:46.999Z</time></trkpt><trkpt lat="46.106206399464874" lon="1.3276302577075758"><ele>325.8</ele><time>2026-03-28T15:27:48.999Z</time></trkpt><trkpt lat="46.10611585728346" lon="1.3276252340218229"><ele>326.20000000000005</ele><time>2026-03-28T15:27:49.999Z</time></trkpt><trkpt lat="46.10602682810784" lon="1.3276015274081412"><ele>326.6</ele><time>2026-03-28T15:27:50.999Z</time></trkpt><trkpt lat="46.105958438086255" lon="1.3275883288488433"><ele>327.0</ele><time>2026-03-28T15:27:51.999Z</time></trkpt><trkpt lat="46.10585661242694" lon="1.3275411715036487"><ele>327.5</ele><time>2026-03-28T15:27:53.999Z</time></trkpt><trkpt lat="46.10573147220121" lon="1.327521939589933"><ele>328.0</ele><time>2026-03-28T15:27:55.999Z</time></trkpt><trkpt lat="46.10565849205865" lon="1.3275129823947494"><ele>328.5</ele><time>2026-03-28T15:27:56.999Z</time></trkpt><trkpt lat="46.10558160748337" lon="1.3275125939820087"><ele>329.0</ele><time>2026-03-28T15:27:57.999Z</time></trkpt><trkpt lat="46.10551332368599" lon="1.3275177452222422"><ele>329.5</ele><time>2026-03-28T15:27:58.999Z</time></trkpt><trkpt lat="46.10543384477565" lon="1.327516776997704"><ele>330.0</ele><time>2026-03-28T15:27:59.999Z</time></trkpt><trkpt lat="46.10535723531981" lon="1.3275211787183574"><ele>330.00000000000006</ele><time>2026-03-28T15:28:00.999Z</time></trkpt><trkpt lat="46.105278299465155" lon="1.3275301339602412"><ele>330.0</ele><time>2026-03-28T15:28:01.999Z</time></trkpt><trkpt lat="46.10520345916685" lon="1.3275293770681802"><ele>330.0</ele><time>2026-03-28T15:28:02.999Z</time></trkpt><trkpt lat="46.10513308103883" lon="1.3275540776456005"><ele>330.0</ele><time>2026-03-28T15:28:03.999Z</time></trkpt><trkpt lat="46.10506084182202" lon="1.327562271110368"><ele>330.0</ele><time>2026-03-28T15:28:04.999Z</time></trkpt><trkpt lat="46.10499448828316" lon="1.3275782924488975"><ele>330.00000000000006</ele><time>2026-03-28T15:28:05.999Z</time></trkpt><trkpt lat="46.104922350841264" lon="1.3276121847113727"><ele>330.0</ele><time>2026-03-28T15:28:06.999Z</time></trkpt><trkpt lat="46.10484878779323" lon="1.3276540720444676"><ele>329.42857142857144</ele><time>2026-03-28T15:28:07.999Z</time></trkpt><trkpt lat="46.104774912034536" lon="1.32767193734175"><ele>328.8571428571429</ele><time>2026-03-28T15:28:08.999Z</time></trkpt><trkpt lat="46.104708449003134" lon="1.327707267001522"><ele>328.28571428571433</ele><time>2026-03-28T15:28:09.999Z</time></trkpt><trkpt lat="46.104635695537745" lon="1.3277478759758394"><ele>327.7142857142857</ele><time>2026-03-28T15:28:10.999Z</time></trkpt><trkpt lat="46.10456636350834" lon="1.3277812248075265"><ele>327.1428571428571</ele><time>2026-03-28T15:28:11.999Z</time></trkpt><trkpt lat="46.104492099885945" lon="1.3277931340953792"><ele>326.5714285714286</ele><time>2026-03-28T15:28:12.999Z</time></trkpt><trkpt lat="46.10442148640108" lon="1.3278201951739954"><ele>326.0</ele><time>2026-03-28T15:28:13.998Z</time></trkpt><trkpt lat="46.104355577070315" lon="1.327854589312797"><ele>326.0</ele><time>2026-03-28T15:28:14.998Z</time></trkpt><trkpt lat="46.104292598695174" lon="1.327881797722192"><ele>326.0</ele><time>2026-03-28T15:28:15.998Z</time></trkpt><trkpt lat="46.10421164486577" lon="1.327904437705123"><ele>326.0</ele><time>2026-03-28T15:28:16.998Z</time></trkpt><trkpt lat="46.10414757895927" lon="1.3279391181231868"><ele>326.0</ele><time>2026-03-28T15:28:17.998Z</time></trkpt><trkpt lat="46.104081846284515" lon="1.3279634806574492"><ele>326.0</ele><time>2026-03-28T15:28:18.998Z</time></trkpt><trkpt lat="46.104015103614515" lon="1.3279942788097778"><ele>326.0</ele><time>2026-03-28T15:28:19.998Z</time></trkpt><trkpt lat="46.103952391241435" lon="1.3280236328562"><ele>326.0</ele><time>2026-03-28T15:28:20.998Z</time></trkpt><trkpt lat="46.10385413031811" lon="1.3280816356485434"><ele>326.1666666666667</ele><time>2026-03-28T15:28:22.998Z</time></trkpt><trkpt lat="46.10373976510615" lon="1.3281474212190527"><ele>326.33333333333337</ele><time>2026-03-28T15:28:24.998Z</time></trkpt><trkpt lat="46.103676171168466" lon="1.3281761507787282"><ele>326.5</ele><time>2026-03-28T15:28:25.998Z</time></trkpt><trkpt lat="46.103611857912135" lon="1.3282013553490526"><ele>326.6666666666667</ele><time>2026-03-28T15:28:26.998Z</time></trkpt><trkpt lat="46.103550363841585" lon="1.3282409595703009"><ele>326.8333333333333</ele><time>2026-03-28T15:28:27.998Z</time></trkpt><trkpt lat="46.1034800434421" lon="1.328277734612136"><ele>327.0</ele><time>2026-03-28T15:28:28.998Z</time></trkpt><trkpt lat="46.10339891765306" lon="1.3283040082428013"><ele>327.0</ele><time>2026-03-28T15:28:29.998Z</time></trkpt><trkpt lat="46.10330339885021" lon="1.3283268228979255"><ele>327.0</ele><time>2026-03-28T15:28:30.998Z</time></trkpt><trkpt lat="46.10320913598482" lon="1.3283437173799495"><ele>327.0</ele><time>2026-03-28T15:28:31.998Z</time></trkpt><trkpt lat="46.10311525233961" lon="1.328360590636225"><ele>327.0</ele><time>2026-03-28T15:28:32.998Z</time></trkpt><trkpt lat="46.10300973146841" lon="1.3283868526395604"><ele>327.0</ele><time>2026-03-28T15:28:33.998Z</time></trkpt><trkpt lat="46.10291432702527" lon="1.3284370101045764"><ele>327.8</ele><time>2026-03-28T15:28:34.998Z</time></trkpt><trkpt lat="46.1028223102774" lon="1.328483774638507"><ele>328.6</ele><time>2026-03-28T15:28:35.998Z</time></trkpt><trkpt lat="46.10273149144644" lon="1.3285457464307449"><ele>329.40000000000003</ele><time>2026-03-28T15:28:36.998Z</time></trkpt><trkpt lat="46.102631519219095" lon="1.3286026330669214"><ele>330.20000000000005</ele><time>2026-03-28T15:28:37.998Z</time></trkpt><trkpt lat="46.10253649703287" lon="1.3286598267054897"><ele>331.0</ele><time>2026-03-28T15:28:38.998Z</time></trkpt><trkpt lat="46.10244130405111" lon="1.3287249264435474"><ele>331.20000000000005</ele><time>2026-03-28T15:28:39.998Z</time></trkpt><trkpt lat="46.102341347203236" lon="1.3287631186231605"><ele>331.40000000000003</ele><time>2026-03-28T15:28:40.998Z</time></trkpt><trkpt lat="46.102238404200584" lon="1.3288261647781787"><ele>331.6</ele><time>2026-03-28T15:28:41.998Z</time></trkpt><trkpt lat="46.10213990891546" lon="1.32886724983222"><ele>331.8</ele><time>2026-03-28T15:28:42.998Z</time></trkpt><trkpt lat="46.10204490331567" lon="1.3289015537117608"><ele>332.0</ele><time>2026-03-28T15:28:44Z</time></trkpt><trkpt lat="46.10196788431416" lon="1.328927006190208"><ele>332.33333333333337</ele><time>2026-03-28T15:28:45Z</time></trkpt><trkpt lat="46.10184000275793" lon="1.328947385604579"><ele>332.6666666666667</ele><time>2026-03-28T15:28:47Z</time></trkpt><trkpt lat="46.10177032623575" lon="1.3289581195020295"><ele>333.0</ele><time>2026-03-28T15:28:48Z</time></trkpt><trkpt lat="46.10170183468037" lon="1.328982865886914"><ele>333.3333333333333</ele><time>2026-03-28T15:28:49Z</time></trkpt><trkpt lat="46.101634553089184" lon="1.3289975318620362"><ele>333.66666666666663</ele><time>2026-03-28T15:28:50Z</time></trkpt><trkpt lat="46.10156426423752" lon="1.3290261462458017"><ele>334.0</ele><time>2026-03-28T15:28:51Z</time></trkpt><trkpt lat="46.10148793603103" lon="1.3290577315707248"><ele>334.0</ele><time>2026-03-28T15:28:52Z</time></trkpt><trkpt lat="46.10141747959989" lon="1.3290829881504984"><ele>334.0</ele><time>2026-03-28T15:28:53Z</time></trkpt><trkpt lat="46.101354419707725" lon="1.329095191326418"><ele>334.0</ele><time>2026-03-28T15:28:54Z</time></trkpt><trkpt lat="46.10123687745863" lon="1.3291266728132176"><ele>334.0</ele><time>2026-03-28T15:28:56Z</time></trkpt><trkpt lat="46.10112730191206" lon="1.329177013941522"><ele>334.0</ele><time>2026-03-28T15:28:58Z</time></trkpt><trkpt lat="46.10101005464193" lon="1.3292302692997362"><ele>334.0</ele><time>2026-03-28T15:29:00Z</time></trkpt><trkpt lat="46.1009060150826" lon="1.3293017793422581"><ele>334.0</ele><time>2026-03-28T15:29:02Z</time></trkpt><trkpt lat="46.10083484968116" lon="1.3293632547745824"><ele>334.0</ele><time>2026-03-28T15:29:04Z</time></trkpt><trkpt lat="46.1007577787297" lon="1.329403725801064"><ele>334.0</ele><time>2026-03-28T15:29:06Z</time></trkpt><trkpt lat="46.10069455302198" lon="1.3294571331129899"><ele>334.0</ele><time>2026-03-28T15:29:14Z</time></trkpt><trkpt lat="46.10062684153803" lon="1.3295114898490683"><ele>334.0</ele><time>2026-03-28T15:29:16Z</time></trkpt><trkpt lat="46.10055104182292" lon="1.3295838019354045"><ele>333.79999999999995</ele><time>2026-03-28T15:29:18Z</time></trkpt><trkpt lat="46.10047518222812" lon="1.3296507970487084"><ele>333.59999999999997</ele><time>2026-03-28T15:29:20Z</time></trkpt><trkpt lat="46.100404667898026" lon="1.3297347583836798"><ele>333.4</ele><time>2026-03-28T15:29:22Z</time></trkpt><trkpt lat="46.100324640313126" lon="1.3298170925998876"><ele>333.2</ele><time>2026-03-28T15:29:23.999Z</time></trkpt><trkpt lat="46.10024147570617" lon="1.3298810697602788"><ele>333.0</ele><time>2026-03-28T15:29:25.999Z</time></trkpt><trkpt lat="46.100139234843" lon="1.3299240820707587"><ele>334.0</ele><time>2026-03-28T15:29:27.999Z</time></trkpt><trkpt lat="46.10004900581655" lon="1.330005567934438"><ele>335.0</ele><time>2026-03-28T15:29:29.999Z</time></trkpt><trkpt lat="46.09995594737907" lon="1.3301037276001355"><ele>336.0</ele><time>2026-03-28T15:29:31.999Z</time></trkpt><trkpt lat="46.09989572881138" lon="1.3301305070304026"><ele>337.0</ele><time>2026-03-28T15:29:32.999Z</time></trkpt><trkpt lat="46.09978600023363" lon="1.330177561536284"><ele>338.0</ele><time>2026-03-28T15:29:34.999Z</time></trkpt><trkpt lat="46.09967011577015" lon="1.3302296011367694"><ele>338.0</ele><time>2026-03-28T15:29:36.999Z</time></trkpt><trkpt lat="46.09956799258551" lon="1.3302962279087103"><ele>338.0</ele><time>2026-03-28T15:29:38.999Z</time></trkpt><trkpt lat="46.09945210384545" lon="1.3303195409845958"><ele>338.0</ele><time>2026-03-28T15:29:40.999Z</time></trkpt><trkpt lat="46.09934186432909" lon="1.3303479890461678"><ele>338.0</ele><time>2026-03-28T15:29:42.999Z</time></trkpt><trkpt lat="46.099231679405186" lon="1.3303825733410508"><ele>338.0</ele><time>2026-03-28T15:29:44.999Z</time></trkpt><trkpt lat="46.09912034475159" lon="1.3304175312777382"><ele>338.0</ele><time>2026-03-28T15:29:46.999Z</time></trkpt><trkpt lat="46.099014382650786" lon="1.3304526104643386"><ele>338.0</ele><time>2026-03-28T15:29:48.999Z</time></trkpt><trkpt lat="46.098922435786704" lon="1.3304746762215063"><ele>338.0</ele><time>2026-03-28T15:29:50.999Z</time></trkpt><trkpt lat="46.09883356120597" lon="1.330512603703375"><ele>338.0</ele><time>2026-03-28T15:29:52.999Z</time></trkpt><trkpt lat="46.09874490909374" lon="1.3305428791481981"><ele>338.79999999999995</ele><time>2026-03-28T15:29:54.999Z</time></trkpt><trkpt lat="46.0986445533222" lon="1.330571026091442"><ele>339.6</ele><time>2026-03-28T15:29:56.999Z</time></trkpt><trkpt lat="46.0985328300226" lon="1.3305970393302762"><ele>340.4</ele><time>2026-03-28T15:29:58.999Z</time></trkpt><trkpt lat="46.098430723229974" lon="1.330636057932953"><ele>341.20000000000005</ele><time>2026-03-28T15:30:00.999Z</time></trkpt><trkpt lat="46.09833312342915" lon="1.3306823357092712"><ele>342.0</ele><time>2026-03-28T15:30:02.999Z</time></trkpt><trkpt lat="46.09824421317207" lon="1.3307118675484702"><ele>342.20000000000005</ele><time>2026-03-28T15:30:04.999Z</time></trkpt><trkpt lat="46.09814950309242" lon="1.330758210491211"><ele>342.4</ele><time>2026-03-28T15:30:06.999Z</time></trkpt><trkpt lat="46.098052687518" lon="1.3307806550272103"><ele>342.6</ele><time>2026-03-28T15:30:08.999Z</time></trkpt><trkpt lat="46.0979584219672" lon="1.3308231400038302"><ele>342.79999999999995</ele><time>2026-03-28T15:30:10.999Z</time></trkpt><trkpt lat="46.097868554923764" lon="1.3308518152234068"><ele>343.0</ele><time>2026-03-28T15:30:12.999Z</time></trkpt><trkpt lat="46.09778453110838" lon="1.3308717749524632"><ele>343.0</ele><time>2026-03-28T15:30:14.999Z</time></trkpt><trkpt lat="46.097681911194336" lon="1.3308928859507523"><ele>343.0</ele><time>2026-03-28T15:30:16.999Z</time></trkpt><trkpt lat="46.0975785527307" lon="1.3309153853366034"><ele>343.0</ele><time>2026-03-28T15:30:18.999Z</time></trkpt><trkpt lat="46.09749025846185" lon="1.3309474355812563"><ele>343.0</ele><time>2026-03-28T15:30:20.999Z</time></trkpt><trkpt lat="46.097402367728364" lon="1.3309878390134575"><ele>343.0</ele><time>2026-03-28T15:30:22.999Z</time></trkpt><trkpt lat="46.09731408101973" lon="1.3310294069676363"><ele>343.3333333333333</ele><time>2026-03-28T15:30:24.999Z</time></trkpt><trkpt lat="46.097226948342765" lon="1.33108522931289"><ele>343.66666666666663</ele><time>2026-03-28T15:30:26.998Z</time></trkpt><trkpt lat="46.0971537315166" lon="1.331149999675401"><ele>344.0</ele><time>2026-03-28T15:30:28.998Z</time></trkpt><trkpt lat="46.09708214778917" lon="1.3312161036726566"><ele>344.3333333333333</ele><time>2026-03-28T15:30:30.998Z</time></trkpt><trkpt lat="46.09701437191454" lon="1.3312900688248366"><ele>344.6666666666667</ele><time>2026-03-28T15:30:32.998Z</time></trkpt><trkpt lat="46.09695007589449" lon="1.3313431242628646"><ele>345.0</ele><time>2026-03-28T15:30:34.998Z</time></trkpt><trkpt lat="46.09686614709767" lon="1.331411871945318"><ele>345.8</ele><time>2026-03-28T15:30:42.998Z</time></trkpt><trkpt lat="46.09681851347805" lon="1.3315009798779067"><ele>346.6</ele><time>2026-03-28T15:30:43.998Z</time></trkpt><trkpt lat="46.09676896555192" lon="1.3315976580034232"><ele>347.4</ele><time>2026-03-28T15:30:44.998Z</time></trkpt><trkpt lat="46.096707010623035" lon="1.3317046633569851"><ele>348.2</ele><time>2026-03-28T15:30:45.998Z</time></trkpt><trkpt lat="46.09664924794601" lon="1.3318158056587357"><ele>349.0</ele><time>2026-03-28T15:30:46.998Z</time></trkpt><trkpt lat="46.0965488388144" lon="1.3319392137306052"><ele>349.75</ele><time>2026-03-28T15:30:47.998Z</time></trkpt><trkpt lat="46.09646854510705" lon="1.3320713023278548"><ele>350.5</ele><time>2026-03-28T15:30:48.998Z</time></trkpt><trkpt lat="46.0963883904634" lon="1.3321985605870306"><ele>351.25</ele><time>2026-03-28T15:30:50Z</time></trkpt><trkpt lat="46.09630794206526" lon="1.3323142475122973"><ele>352.0</ele><time>2026-03-28T15:30:51Z</time></trkpt><trkpt lat="46.09622861336436" lon="1.3324395656768595"><ele>353.0</ele><time>2026-03-28T15:30:52Z</time></trkpt><trkpt lat="46.09612691552018" lon="1.3325385169029065"><ele>354.0</ele><time>2026-03-28T15:30:53Z</time></trkpt><trkpt lat="46.09605144784298" lon="1.332676900418673"><ele>355.0</ele><time>2026-03-28T15:30:54Z</time></trkpt><trkpt lat="46.09595667146271" lon="1.3327822917558048"><ele>356.0</ele><time>2026-03-28T15:30:55Z</time></trkpt><trkpt lat="46.09587531872399" lon="1.3329088525774646"><ele>356.0</ele><time>2026-03-28T15:30:56Z</time></trkpt><trkpt lat="46.09577311726047" lon="1.3329956964312648"><ele>356.0</ele><time>2026-03-28T15:30:57Z</time></trkpt><trkpt lat="46.09566639456535" lon="1.333082020838765"><ele>356.0</ele><time>2026-03-28T15:30:58Z</time></trkpt><trkpt lat="46.09555706514187" lon="1.333167620744133"><ele>356.0</ele><time>2026-03-28T15:30:59Z</time></trkpt><trkpt lat="46.09544243165083" lon="1.3332217711479124"><ele>358.0</ele><time>2026-03-28T15:31:00Z</time></trkpt><trkpt lat="46.09532180321297" lon="1.3332782494537494"><ele>360.0</ele><time>2026-03-28T15:31:01Z</time></trkpt><trkpt lat="46.09520693377524" lon="1.3333190556886645"><ele>362.0</ele><time>2026-03-28T15:31:02Z</time></trkpt><trkpt lat="46.095092668693745" lon="1.3333767205347187"><ele>364.0</ele><time>2026-03-28T15:31:03Z</time></trkpt><trkpt lat="46.09496610068625" lon="1.3334112300984386"><ele>364.5</ele><time>2026-03-28T15:31:04Z</time></trkpt><trkpt lat="46.09484485982472" lon="1.3334665307730165"><ele>365.0</ele><time>2026-03-28T15:31:05Z</time></trkpt><trkpt lat="46.09470619470785" lon="1.3335325164509004"><ele>365.5</ele><time>2026-03-28T15:31:06Z</time></trkpt><trkpt lat="46.09458092804555" lon="1.333603313653408"><ele>366.0</ele><time>2026-03-28T15:31:07Z</time></trkpt><trkpt lat="46.094449766119084" lon="1.3336881589735123"><ele>366.0</ele><time>2026-03-28T15:31:08Z</time></trkpt><trkpt lat="46.094332006156705" lon="1.3338093995573579"><ele>366.0</ele><time>2026-03-28T15:31:09Z</time></trkpt><trkpt lat="46.09421265686223" lon="1.3339083869639428"><ele>366.0</ele><time>2026-03-28T15:31:10Z</time></trkpt><trkpt lat="46.094093097188285" lon="1.3340093919133968"><ele>366.0</ele><time>2026-03-28T15:31:11Z</time></trkpt><trkpt lat="46.093975107978466" lon="1.334105267225973"><ele>366.25</ele><time>2026-03-28T15:31:12Z</time></trkpt><trkpt lat="46.093867873505154" lon="1.334223052643856"><ele>366.5</ele><time>2026-03-28T15:31:13Z</time></trkpt><trkpt lat="46.093757792117025" lon="1.3343083795907462"><ele>366.75</ele><time>2026-03-28T15:31:14Z</time></trkpt><trkpt lat="46.09366246207861" lon="1.334390251241486"><ele>367.0</ele><time>2026-03-28T15:31:15Z</time></trkpt><trkpt lat="46.09356582533084" lon="1.3344777969197459"><ele>367.0</ele><time>2026-03-28T15:31:16Z</time></trkpt><trkpt lat="46.0934642543962" lon="1.3345692469352688"><ele>367.0</ele><time>2026-03-28T15:31:17Z</time></trkpt><trkpt lat="46.09336414942638" lon="1.3346693829535623"><ele>367.0</ele><time>2026-03-28T15:31:18Z</time></trkpt><trkpt lat="46.09326273754578" lon="1.3347623205003614"><ele>367.0</ele><time>2026-03-28T15:31:19Z</time></trkpt><trkpt lat="46.093157171160826" lon="1.3348475802748616"><ele>367.5</ele><time>2026-03-28T15:31:20Z</time></trkpt><trkpt lat="46.09305910819291" lon="1.3349463221894493"><ele>368.0</ele><time>2026-03-28T15:31:21Z</time></trkpt><trkpt lat="46.09297321317313" lon="1.3350476141664087"><ele>368.5</ele><time>2026-03-28T15:31:22Z</time></trkpt><trkpt lat="46.09289993393855" lon="1.335171072607024"><ele>369.0</ele><time>2026-03-28T15:31:23Z</time></trkpt><trkpt lat="46.092849000538735" lon="1.335306226188822"><ele>369.0</ele><time>2026-03-28T15:31:24Z</time></trkpt><trkpt lat="46.092804957542576" lon="1.335450188675467"><ele>369.0</ele><time>2026-03-28T15:31:25Z</time></trkpt><trkpt lat="46.092762480642406" lon="1.33560196501891"><ele>369.0</ele><time>2026-03-28T15:31:26Z</time></trkpt><trkpt lat="46.09272191660886" lon="1.3357554295481708"><ele>369.0</ele><time>2026-03-28T15:31:27Z</time></trkpt><trkpt lat="46.09268482667212" lon="1.3359009735975234"><ele>369.0</ele><time>2026-03-28T15:31:28Z</time></trkpt><trkpt lat="46.0926442306063" lon="1.336031748955819"><ele>370.6</ele><time>2026-03-28T15:31:29Z</time></trkpt><trkpt lat="46.09257531718453" lon="1.336144969543673"><ele>372.2</ele><time>2026-03-28T15:31:30Z</time></trkpt><trkpt lat="46.092492824201514" lon="1.3362279100931687"><ele>373.8</ele><time>2026-03-28T15:31:31Z</time></trkpt><trkpt lat="46.09239664675829" lon="1.3362822833256969"><ele>375.40000000000003</ele><time>2026-03-28T15:31:32Z</time></trkpt><trkpt lat="46.092290601148115" lon="1.3362818947710933"><ele>377.0</ele><time>2026-03-28T15:31:33Z</time></trkpt><trkpt lat="46.0921853857368" lon="1.3362867966990748"><ele>378.0</ele><time>2026-03-28T15:31:34Z</time></trkpt><trkpt lat="46.09208050697327" lon="1.3362916808129826"><ele>379.0</ele><time>2026-03-28T15:31:35Z</time></trkpt><trkpt lat="46.09198037387182" lon="1.3363009460627218"><ele>380.0</ele><time>2026-03-28T15:31:36Z</time></trkpt><trkpt lat="46.09189360817684" lon="1.336296401397483"><ele>381.0</ele><time>2026-03-28T15:31:37Z</time></trkpt><trkpt lat="46.09183074456119" lon="1.3362839987410824"><ele>382.0</ele><time>2026-03-28T15:31:37.999Z</time></trkpt><trkpt lat="46.09174094917323" lon="1.3362789106735173"><ele>383.0</ele><time>2026-03-28T15:31:39.999Z</time></trkpt><trkpt lat="46.09167493194592" lon="1.3362864632610276"><ele>383.0</ele><time>2026-03-28T15:32:02.999Z</time></trkpt><trkpt lat="46.091600890067184" lon="1.3362910774679126"><ele>383.0</ele><time>2026-03-28T15:32:04.999Z</time></trkpt><trkpt lat="46.09149819148358" lon="1.3363011202541601"><ele>383.0</ele><time>2026-03-28T15:32:06.999Z</time></trkpt><trkpt lat="46.09143416600301" lon="1.3363064874262924"><ele>383.0</ele><time>2026-03-28T15:32:07.999Z</time></trkpt><trkpt lat="46.091342249079524" lon="1.3362931046663924"><ele>383.0</ele><time>2026-03-28T15:32:09.999Z</time></trkpt><trkpt lat="46.09131550986152" lon="1.3365645996859477"><ele>384.6666666666667</ele><time>2026-03-28T15:32:11.999Z</time></trkpt><trkpt lat="46.09131692807166" lon="1.3366697614305727"><ele>386.33333333333337</ele><time>2026-03-28T15:32:12.999Z</time></trkpt><trkpt lat="46.09132595040693" lon="1.3367749163888825"><ele>388.0</ele><time>2026-03-28T15:32:13.999Z</time></trkpt><trkpt lat="46.091313124325346" lon="1.3368791663018214"><ele>389.6666666666667</ele><time>2026-03-28T15:32:14.999Z</time></trkpt><trkpt lat="46.091324559881194" lon="1.3369948092576744"><ele>391.3333333333333</ele><time>2026-03-28T15:32:15.999Z</time></trkpt><trkpt lat="46.091329440041555" lon="1.3371179091956384"><ele>393.0</ele><time>2026-03-28T15:32:16.999Z</time></trkpt><trkpt lat="46.091331738450755" lon="1.3372518328271918"><ele>394.0</ele><time>2026-03-28T15:32:17.999Z</time></trkpt><trkpt lat="46.09132551231837" lon="1.3373872480540157"><ele>395.0</ele><time>2026-03-28T15:32:18.999Z</time></trkpt><trkpt lat="46.09133174753836" lon="1.3375215588717764"><ele>396.0</ele><time>2026-03-28T15:32:19.999Z</time></trkpt><trkpt lat="46.09133739967151" lon="1.3376136278590967"><ele>397.0</ele><time>2026-03-28T15:32:20.999Z</time></trkpt><trkpt lat="46.09134407082398" lon="1.337714164360195"><ele>398.0</ele><time>2026-03-28T15:32:44.998Z</time></trkpt><trkpt lat="46.091353827410835" lon="1.3378122702795956"><ele>399.0</ele><time>2026-03-28T15:32:45.998Z</time></trkpt><trkpt lat="46.09137309606897" lon="1.3379554049076654"><ele>399.0</ele><time>2026-03-28T15:32:46.998Z</time></trkpt><trkpt lat="46.091407904676" lon="1.3381006843175922"><ele>399.0</ele><time>2026-03-28T15:32:47.998Z</time></trkpt><trkpt lat="46.09140049861425" lon="1.3382282879315062"><ele>399.0</ele><time>2026-03-28T15:32:48.998Z</time></trkpt><trkpt lat="46.091397750763484" lon="1.3383210991283783"><ele>399.0</ele><time>2026-03-28T15:32:49.998Z</time></trkpt><trkpt lat="46.091385122837046" lon="1.3384196390679934"><ele>399.0</ele><time>2026-03-28T15:32:51.998Z</time></trkpt><trkpt lat="46.09163315359845" lon="1.3383310441245184"><ele>399.0</ele><time>2026-03-28T15:32:56Z</time></trkpt><trkpt lat="46.091739480330375" lon="1.3382342905906852"><ele>399.0</ele><time>2026-03-28T15:32:58Z</time></trkpt><trkpt lat="46.09181097326842" lon="1.338175948576329"><ele>399.0</ele><time>2026-03-28T15:32:59Z</time></trkpt><trkpt lat="46.09187844719402" lon="1.3381104724529491"><ele>399.0</ele><time>2026-03-28T15:33:00Z</time></trkpt><trkpt lat="46.09194522483368" lon="1.338053061320586"><ele>399.0</ele><time>2026-03-28T15:33:01Z</time></trkpt><trkpt lat="46.0920143387342" lon="1.3380041813776244"><ele>399.0</ele><time>2026-03-28T15:33:02Z</time></trkpt><trkpt lat="46.09207371700181" lon="1.3379445961483232"><ele>398.7142857142857</ele><time>2026-03-28T15:33:03Z</time></trkpt><trkpt lat="46.09213425449207" lon="1.3378954699255767"><ele>398.42857142857144</ele><time>2026-03-28T15:33:04Z</time></trkpt><trkpt lat="46.09221223018883" lon="1.3378610430089275"><ele>398.1428571428571</ele><time>2026-03-28T15:33:05Z</time></trkpt><trkpt lat="46.09227407023154" lon="1.3378428674834717"><ele>397.8571428571429</ele><time>2026-03-28T15:33:06Z</time></trkpt><trkpt lat="46.09235111413802" lon="1.3378540150855034"><ele>397.57142857142856</ele><time>2026-03-28T15:33:07Z</time></trkpt><trkpt lat="46.09241551942306" lon="1.3378686535596265"><ele>397.2857142857143</ele><time>2026-03-28T15:33:08Z</time></trkpt><trkpt lat="46.09249226185986" lon="1.337899806277579"><ele>397.0</ele><time>2026-03-28T15:33:09Z</time></trkpt><trkpt lat="46.09256711905591" lon="1.3379307707052996"><ele>397.0</ele><time>2026-03-28T15:33:10Z</time></trkpt><trkpt lat="46.09263620311538" lon="1.3379551928346225"><ele>397.0</ele><time>2026-03-28T15:33:11Z</time></trkpt><trkpt lat="46.09271133120069" lon="1.337965121352955"><ele>397.0</ele><time>2026-03-28T15:33:12Z</time></trkpt><trkpt lat="46.09278007412044" lon="1.337992528144695"><ele>397.0</ele><time>2026-03-28T15:33:13Z</time></trkpt><trkpt lat="46.09284238712287" lon="1.3380222052791158"><ele>397.0</ele><time>2026-03-28T15:33:14Z</time></trkpt><trkpt lat="46.09290570906851" lon="1.3380274174965585"><ele>397.0</ele><time>2026-03-28T15:33:15Z</time></trkpt><trkpt lat="46.09296956380942" lon="1.3380327111658887"><ele>397.0</ele><time>2026-03-28T15:33:16Z</time></trkpt><trkpt lat="46.09303346009562" lon="1.3380455032322403"><ele>397.00000000000006</ele><time>2026-03-28T15:33:17Z</time></trkpt><trkpt lat="46.0931546518735" lon="1.338055998989459"><ele>397.0</ele><time>2026-03-28T15:33:19Z</time></trkpt><trkpt lat="46.09327072315826" lon="1.3380947775065355"><ele>397.0</ele><time>2026-03-28T15:33:21Z</time></trkpt><trkpt lat="46.093334849671606" lon="1.3381153804199415"><ele>397.0</ele><time>2026-03-28T15:33:22Z</time></trkpt><trkpt lat="46.093401627672556" lon="1.3381301718869714"><ele>397.00000000000006</ele><time>2026-03-28T15:33:23Z</time></trkpt><trkpt lat="46.093474749374955" lon="1.3381427971722204"><ele>397.0</ele><time>2026-03-28T15:33:24Z</time></trkpt><trkpt lat="46.09354685175041" lon="1.3381528509704337"><ele>397.6666666666667</ele><time>2026-03-28T15:33:25Z</time></trkpt><trkpt lat="46.09363637383921" lon="1.3381819015604586"><ele>398.33333333333337</ele><time>2026-03-28T15:33:26Z</time></trkpt><trkpt lat="46.09375248033409" lon="1.3381799010634505"><ele>399.0</ele><time>2026-03-28T15:33:28Z</time></trkpt><trkpt lat="46.09381558552024" lon="1.3382015481321086"><ele>399.66666666666663</ele><time>2026-03-28T15:33:29Z</time></trkpt><trkpt lat="46.09389906641684" lon="1.3382554938650055"><ele>400.3333333333333</ele><time>2026-03-28T15:33:30Z</time></trkpt><trkpt lat="46.093959440019994" lon="1.3382974781908321"><ele>401.0</ele><time>2026-03-28T15:33:31Z</time></trkpt><trkpt lat="46.09402057101905" lon="1.3383557559347965"><ele>401.66666666666663</ele><time>2026-03-28T15:33:32Z</time></trkpt><trkpt lat="46.09408879354502" lon="1.3383982686628126"><ele>402.3333333333333</ele><time>2026-03-28T15:33:33Z</time></trkpt><trkpt lat="46.09413781291842" lon="1.338459299000253"><ele>403.0</ele><time>2026-03-28T15:33:34Z</time></trkpt><trkpt lat="46.09419223394517" lon="1.3385049578292594"><ele>403.66666666666663</ele><time>2026-03-28T15:33:35Z</time></trkpt><trkpt lat="46.09424417542178" lon="1.3385641501346286"><ele>404.3333333333333</ele><time>2026-03-28T15:33:36Z</time></trkpt><trkpt lat="46.094316627302696" lon="1.3385824943253408"><ele>405.0</ele><time>2026-03-28T15:33:37Z</time></trkpt><trkpt lat="46.094441223282246" lon="1.3386181207784118"><ele>405.0</ele><time>2026-03-28T15:33:39Z</time></trkpt><trkpt lat="46.094542625834094" lon="1.3386026130753295"><ele>405.0</ele><time>2026-03-28T15:33:41Z</time></trkpt><trkpt lat="46.094606309793456" lon="1.338523835220942"><ele>405.0</ele><time>2026-03-28T15:33:42Z</time></trkpt><trkpt lat="46.094673813879474" lon="1.3385034405205247"><ele>405.0</ele><time>2026-03-28T15:33:43Z</time></trkpt><trkpt lat="46.094753323716105" lon="1.338494990651631"><ele>405.0</ele><time>2026-03-28T15:33:44Z</time></trkpt><trkpt lat="46.0948311537451" lon="1.3384905227489354"><ele>405.0</ele><time>2026-03-28T15:33:44.999Z</time></trkpt><trkpt lat="46.09489826043684" lon="1.3384946028028082"><ele>405.1666666666667</ele><time>2026-03-28T15:33:45.999Z</time></trkpt><trkpt lat="46.09497508192548" lon="1.338491828620903"><ele>405.33333333333337</ele><time>2026-03-28T15:33:46.999Z</time></trkpt><trkpt lat="46.09505512648529" lon="1.3385081664802998"><ele>405.5</ele><time>2026-03-28T15:33:47.999Z</time></trkpt><trkpt lat="46.095125452843135" lon="1.338528105202988"><ele>405.6666666666667</ele><time>2026-03-28T15:33:48.999Z</time></trkpt><trkpt lat="46.09520067857485" lon="1.3385383651815939"><ele>405.83333333333337</ele><time>2026-03-28T15:33:49.999Z</time></trkpt><trkpt lat="46.0953090480121" lon="1.3386455767613468"><ele>406.0</ele><time>2026-03-28T15:33:51.999Z</time></trkpt><trkpt lat="46.09538050142277" lon="1.3387129429882605"><ele>406.00000000000006</ele><time>2026-03-28T15:33:52.999Z</time></trkpt><trkpt lat="46.095440771580314" lon="1.3387708668452876"><ele>406.0</ele><time>2026-03-28T15:33:53.999Z</time></trkpt><trkpt lat="46.095505139066894" lon="1.3388288969012296"><ele>406.0</ele><time>2026-03-28T15:33:54.999Z</time></trkpt><trkpt lat="46.09557599205784" lon="1.3388824582013794"><ele>406.0</ele><time>2026-03-28T15:33:55.999Z</time></trkpt><trkpt lat="46.09565380609812" lon="1.3389200526794194"><ele>406.00000000000006</ele><time>2026-03-28T15:33:56.999Z</time></trkpt><trkpt lat="46.09573704570386" lon="1.3389543281194887"><ele>406.0</ele><time>2026-03-28T15:33:57.999Z</time></trkpt><trkpt lat="46.09582441056668" lon="1.3389877743784466"><ele>405.83333333333337</ele><time>2026-03-28T15:33:58.999Z</time></trkpt><trkpt lat="46.09589065071002" lon="1.339010750300655"><ele>405.6666666666667</ele><time>2026-03-28T15:33:59.999Z</time></trkpt><trkpt lat="46.09595710669817" lon="1.3390046787640786"><ele>405.5</ele><time>2026-03-28T15:34:00.999Z</time></trkpt><trkpt lat="46.09603675634497" lon="1.3390124805832793"><ele>405.33333333333337</ele><time>2026-03-28T15:34:01.999Z</time></trkpt><trkpt lat="46.096145427065025" lon="1.3389169268953733"><ele>405.1666666666667</ele><time>2026-03-28T15:34:03.999Z</time></trkpt><trkpt lat="46.096186285169566" lon="1.338838301392151"><ele>405.0</ele><time>2026-03-28T15:34:04.999Z</time></trkpt><trkpt lat="46.096260556521635" lon="1.3388184096399804"><ele>405.3333333333333</ele><time>2026-03-28T15:34:05.999Z</time></trkpt><trkpt lat="46.0963233546041" lon="1.3387954498155614"><ele>405.66666666666663</ele><time>2026-03-28T15:34:06.999Z</time></trkpt><trkpt lat="46.09640586966716" lon="1.3387392629390777"><ele>406.0</ele><time>2026-03-28T15:34:08.999Z</time></trkpt><trkpt lat="46.096486313232816" lon="1.3387238791419345"><ele>406.3333333333333</ele><time>2026-03-28T15:34:09.999Z</time></trkpt><trkpt lat="46.096554529711234" lon="1.3387654260680246"><ele>406.66666666666663</ele><time>2026-03-28T15:34:10.999Z</time></trkpt><trkpt lat="46.09661278438316" lon="1.3388104312949494"><ele>407.0</ele><time>2026-03-28T15:34:11.999Z</time></trkpt><trkpt lat="46.096677164743156" lon="1.338891549360801"><ele>405.8333333333333</ele><time>2026-03-28T15:34:12.999Z</time></trkpt><trkpt lat="46.096738502674" lon="1.3389659056289016"><ele>404.66666666666663</ele><time>2026-03-28T15:34:13.999Z</time></trkpt><trkpt lat="46.09678384804983" lon="1.3390498856174242"><ele>403.5</ele><time>2026-03-28T15:34:14.999Z</time></trkpt><trkpt lat="46.09683808154526" lon="1.3391427247011687"><ele>402.33333333333337</ele><time>2026-03-28T15:34:15.999Z</time></trkpt><trkpt lat="46.096902805862655" lon="1.3392020605545405"><ele>401.1666666666667</ele><time>2026-03-28T15:34:16.999Z</time></trkpt><trkpt lat="46.096955716206864" lon="1.3392746273330314"><ele>400.0</ele><time>2026-03-28T15:34:17.999Z</time></trkpt><trkpt lat="46.09699507537288" lon="1.3393609579335484"><ele>400.00000000000006</ele><time>2026-03-28T15:34:18.999Z</time></trkpt><trkpt lat="46.09702339947644" lon="1.339452434484613"><ele>400.0</ele><time>2026-03-28T15:34:19.999Z</time></trkpt><trkpt lat="46.09704402653018" lon="1.3395592932462974"><ele>400.0</ele><time>2026-03-28T15:34:20.999Z</time></trkpt><trkpt lat="46.097086611614536" lon="1.3397241631028756"><ele>400.0</ele><time>2026-03-28T15:34:22.999Z</time></trkpt><trkpt lat="46.09710867967667" lon="1.3398230653435057"><ele>400.00000000000006</ele><time>2026-03-28T15:34:23.999Z</time></trkpt><trkpt lat="46.09714385607345" lon="1.33992010502712"><ele>400.0</ele><time>2026-03-28T15:34:24.999Z</time></trkpt><trkpt lat="46.09715942538171" lon="1.3400376201426027"><ele>399.50000000000006</ele><time>2026-03-28T15:34:25.999Z</time></trkpt><trkpt lat="46.0971846027186" lon="1.3401494052162066"><ele>399.0</ele><time>2026-03-28T15:34:26.999Z</time></trkpt><trkpt lat="46.09718879716251" lon="1.340274554588939"><ele>398.5</ele><time>2026-03-28T15:34:27.999Z</time></trkpt><trkpt lat="46.09720348034536" lon="1.3403673808241625"><ele>398.0</ele><time>2026-03-28T15:34:28.999Z</time></trkpt><trkpt lat="46.09724142145593" lon="1.3404628044763014"><ele>397.50000000000006</ele><time>2026-03-28T15:34:29.999Z</time></trkpt><trkpt lat="46.0972586437282" lon="1.340627852386765"><ele>397.0</ele><time>2026-03-28T15:34:31.999Z</time></trkpt><trkpt lat="46.09723625092062" lon="1.3407285544531466"><ele>395.50000000000006</ele><time>2026-03-28T15:34:32.999Z</time></trkpt><trkpt lat="46.09723507031819" lon="1.340842985456976"><ele>394.0</ele><time>2026-03-28T15:34:33.999Z</time></trkpt><trkpt lat="46.09722466078236" lon="1.340933429962846"><ele>392.5</ele><time>2026-03-28T15:34:34.999Z</time></trkpt><trkpt lat="46.097236442871434" lon="1.3410439737804516"><ele>391.0</ele><time>2026-03-28T15:34:35.999Z</time></trkpt><trkpt lat="46.097233599158024" lon="1.341149604678069"><ele>389.50000000000006</ele><time>2026-03-28T15:34:36.999Z</time></trkpt><trkpt lat="46.09721303154125" lon="1.3412407797757795"><ele>388.0</ele><time>2026-03-28T15:34:37.999Z</time></trkpt><trkpt lat="46.097157050819206" lon="1.341401087397736"><ele>388.00000000000006</ele><time>2026-03-28T15:34:39.999Z</time></trkpt><trkpt lat="46.097119669756566" lon="1.341488611950016"><ele>388.0</ele><time>2026-03-28T15:34:40.999Z</time></trkpt><trkpt lat="46.09708082193799" lon="1.3415777306634071"><ele>388.0</ele><time>2026-03-28T15:34:41.999Z</time></trkpt><trkpt lat="46.097039844225314" lon="1.3416726146397513"><ele>388.0</ele><time>2026-03-28T15:34:42.998Z</time></trkpt><trkpt lat="46.09698915291838" lon="1.3417519525895814"><ele>388.00000000000006</ele><time>2026-03-28T15:34:43.998Z</time></trkpt><trkpt lat="46.09692771942472" lon="1.3418269940897074"><ele>388.0</ele><time>2026-03-28T15:34:44.998Z</time></trkpt><trkpt lat="46.096881254633246" lon="1.3419079838798953"><ele>388.00000000000006</ele><time>2026-03-28T15:34:45.998Z</time></trkpt><trkpt lat="46.09683502389126" lon="1.3419917463888273"><ele>388.0</ele><time>2026-03-28T15:34:46.998Z</time></trkpt><trkpt lat="46.096788835716296" lon="1.3420708465511173"><ele>388.0</ele><time>2026-03-28T15:34:47.998Z</time></trkpt><trkpt lat="46.096752366118245" lon="1.3421568609333094"><ele>388.0</ele><time>2026-03-28T15:34:48.998Z</time></trkpt><trkpt lat="46.09670239744055" lon="1.3422316466844888"><ele>388.00000000000006</ele><time>2026-03-28T15:34:49.998Z</time></trkpt><trkpt lat="46.09666128325889" lon="1.3423405642197757"><ele>388.0</ele><time>2026-03-28T15:34:50.998Z</time></trkpt><trkpt lat="46.09661715722172" lon="1.3424386165313107"><ele>388.0</ele><time>2026-03-28T15:34:51.998Z</time></trkpt><trkpt lat="46.096550034994024" lon="1.3425182474197954"><ele>388.0</ele><time>2026-03-28T15:34:52.998Z</time></trkpt><trkpt lat="46.09652618368711" lon="1.3426179911974945"><ele>388.0</ele><time>2026-03-28T15:34:53.998Z</time></trkpt><trkpt lat="46.0964631314526" lon="1.3427755416939646"><ele>388.0</ele><time>2026-03-28T15:34:55.998Z</time></trkpt><trkpt lat="46.09643362318199" lon="1.3429082332585462"><ele>388.0</ele><time>2026-03-28T15:34:57.998Z</time></trkpt><trkpt lat="46.096351615878895" lon="1.343011608947637"><ele>388.33333333333337</ele><time>2026-03-28T15:34:59.998Z</time></trkpt><trkpt lat="46.09625297040698" lon="1.343099080623186"><ele>388.6666666666667</ele><time>2026-03-28T15:35:02Z</time></trkpt><trkpt lat="46.09617841935134" lon="1.3431390206871057"><ele>389.0</ele><time>2026-03-28T15:35:03Z</time></trkpt><trkpt lat="46.09611183048565" lon="1.3431794640501162"><ele>389.33333333333337</ele><time>2026-03-28T15:35:04Z</time></trkpt><trkpt lat="46.09603514086503" lon="1.3432190885830682"><ele>389.6666666666667</ele><time>2026-03-28T15:35:05Z</time></trkpt><trkpt lat="46.09594707325905" lon="1.3432625826435938"><ele>390.0</ele><time>2026-03-28T15:35:06Z</time></trkpt><trkpt lat="46.095869079865366" lon="1.343319589530838"><ele>390.0</ele><time>2026-03-28T15:35:07Z</time></trkpt><trkpt lat="46.09580404074949" lon="1.3434042136726196"><ele>390.0</ele><time>2026-03-28T15:35:08Z</time></trkpt><trkpt lat="46.09572477492796" lon="1.3434696044240964"><ele>390.0</ele><time>2026-03-28T15:35:09Z</time></trkpt><trkpt lat="46.09566531547546" lon="1.3435342518329123"><ele>390.0</ele><time>2026-03-28T15:35:10Z</time></trkpt><trkpt lat="46.09559778710766" lon="1.3435944580101045"><ele>390.0</ele><time>2026-03-28T15:35:11Z</time></trkpt><trkpt lat="46.0955337797771" lon="1.343642724794518"><ele>390.0</ele><time>2026-03-28T15:35:12Z</time></trkpt><trkpt lat="46.09544273585566" lon="1.3437713632788493"><ele>388.3333333333333</ele><time>2026-03-28T15:35:14Z</time></trkpt><trkpt lat="46.09541307441659" lon="1.3438676483074794"><ele>386.6666666666667</ele><time>2026-03-28T15:35:15Z</time></trkpt><trkpt lat="46.095403317954464" lon="1.3439766887368771"><ele>385.0</ele><time>2026-03-28T15:35:16Z</time></trkpt><trkpt lat="46.09538532134235" lon="1.3440724277411287"><ele>383.33333333333337</ele><time>2026-03-28T15:35:17Z</time></trkpt><trkpt lat="46.09532101771379" lon="1.344189758745028"><ele>381.6666666666667</ele><time>2026-03-28T15:35:19Z</time></trkpt><trkpt lat="46.095203851903925" lon="1.3442399483990575"><ele>380.0</ele><time>2026-03-28T15:35:21Z</time></trkpt><trkpt lat="46.09513376677082" lon="1.3442442285169705"><ele>380.0</ele><time>2026-03-28T15:35:22Z</time></trkpt><trkpt lat="46.0950557568811" lon="1.3442463192650695"><ele>380.0</ele><time>2026-03-28T15:35:23Z</time></trkpt><trkpt lat="46.09498280653847" lon="1.344234681685906"><ele>380.0</ele><time>2026-03-28T15:35:24Z</time></trkpt><trkpt lat="46.094904516590944" lon="1.3442542278227612"><ele>380.0</ele><time>2026-03-28T15:35:25Z</time></trkpt><trkpt lat="46.0948194097611" lon="1.3442378806081394"><ele>380.0</ele><time>2026-03-28T15:35:26Z</time></trkpt><trkpt lat="46.094756722839065" lon="1.344208637983869"><ele>380.0</ele><time>2026-03-28T15:35:27Z</time></trkpt><trkpt lat="46.094651992696086" lon="1.3441306644962616"><ele>378.33333333333337</ele><time>2026-03-28T15:35:29Z</time></trkpt><trkpt lat="46.09456594668781" lon="1.3440108228403342"><ele>376.6666666666667</ele><time>2026-03-28T15:35:31Z</time></trkpt><trkpt lat="46.09448306740527" lon="1.343956828687463"><ele>375.0</ele><time>2026-03-28T15:35:33Z</time></trkpt><trkpt lat="46.094433833853614" lon="1.343885773650238"><ele>373.3333333333333</ele><time>2026-03-28T15:35:36Z</time></trkpt><trkpt lat="46.09442380215358" lon="1.3437881865798431"><ele>371.66666666666663</ele><time>2026-03-28T15:35:49Z</time></trkpt><trkpt lat="46.09445907615367" lon="1.343701898336117"><ele>370.0</ele><time>2026-03-28T15:35:50.999Z</time></trkpt><trkpt lat="46.09452592076615" lon="1.343601042207951"><ele>369.4</ele><time>2026-03-28T15:35:52.999Z</time></trkpt><trkpt lat="46.094605697039434" lon="1.3434907888865624"><ele>368.8</ele><time>2026-03-28T15:35:54.999Z</time></trkpt><trkpt lat="46.094695292772194" lon="1.3433807429811728"><ele>368.20000000000005</ele><time>2026-03-28T15:35:56.999Z</time></trkpt><trkpt lat="46.09475381825376" lon="1.3433339172981118"><ele>367.6</ele><time>2026-03-28T15:35:57.999Z</time></trkpt><trkpt lat="46.094845657818105" lon="1.3432464901976857"><ele>367.0</ele><time>2026-03-28T15:35:59.999Z</time></trkpt><trkpt lat="46.0949483701826" lon="1.3431824601397575"><ele>368.20000000000005</ele><time>2026-03-28T15:36:01.999Z</time></trkpt><trkpt lat="46.09499546894005" lon="1.3430297914029834"><ele>369.4</ele><time>2026-03-28T15:36:03.999Z</time></trkpt><trkpt lat="46.094979785082984" lon="1.342910873582147"><ele>370.6</ele><time>2026-03-28T15:36:05.999Z</time></trkpt><trkpt lat="46.09491386667188" lon="1.3427451498982528"><ele>371.79999999999995</ele><time>2026-03-28T15:36:07.999Z</time></trkpt><trkpt lat="46.09488598598809" lon="1.3426477431767327"><ele>373.0</ele><time>2026-03-28T15:36:08.999Z</time></trkpt><trkpt lat="46.0947734448658" lon="1.3425772111780008"><ele>373.0</ele><time>2026-03-28T15:36:10.999Z</time></trkpt><trkpt lat="46.094683415859876" lon="1.3424960226177032"><ele>373.0</ele><time>2026-03-28T15:36:12.999Z</time></trkpt><trkpt lat="46.09457468949371" lon="1.3424525254613202"><ele>373.0</ele><time>2026-03-28T15:36:14.999Z</time></trkpt><trkpt lat="46.094435858709275" lon="1.342433587660175"><ele>373.0</ele><time>2026-03-28T15:36:16.999Z</time></trkpt><trkpt lat="46.09438388172453" lon="1.3423781240095511"><ele>373.0</ele><time>2026-03-28T15:36:17.999Z</time></trkpt><trkpt lat="46.09428169474094" lon="1.3422901966388487"><ele>373.0</ele><time>2026-03-28T15:36:19.999Z</time></trkpt><trkpt lat="46.094167838281585" lon="1.3422290280066689"><ele>373.0</ele><time>2026-03-28T15:36:21.999Z</time></trkpt><trkpt lat="46.094054675348914" lon="1.3421696688261149"><ele>373.0</ele><time>2026-03-28T15:36:23.999Z</time></trkpt><trkpt lat="46.09399328539597" lon="1.3420967402201347"><ele>373.0</ele><time>2026-03-28T15:36:24.999Z</time></trkpt><trkpt lat="46.09395612400889" lon="1.3420224070019033"><ele>373.0</ele><time>2026-03-28T15:36:25.999Z</time></trkpt><trkpt lat="46.09388717634938" lon="1.3419905191469574"><ele>374.3333333333333</ele><time>2026-03-28T15:36:26.999Z</time></trkpt><trkpt lat="46.09382743027664" lon="1.3419415550410239"><ele>375.66666666666663</ele><time>2026-03-28T15:36:27.999Z</time></trkpt><trkpt lat="46.09379280083078" lon="1.3418607501557114"><ele>377.0</ele><time>2026-03-28T15:36:28.999Z</time></trkpt><trkpt lat="46.09373725591192" lon="1.3418034064231088"><ele>378.3333333333333</ele><time>2026-03-28T15:36:29.999Z</time></trkpt><trkpt lat="46.09368452502487" lon="1.3417359755779759"><ele>379.6666666666667</ele><time>2026-03-28T15:36:30.999Z</time></trkpt><trkpt lat="46.09363624265502" lon="1.341637935571464"><ele>381.0</ele><time>2026-03-28T15:36:31.999Z</time></trkpt><trkpt lat="46.09349102111422" lon="1.341582811595448"><ele>381.0</ele><time>2026-03-28T15:36:33.999Z</time></trkpt><trkpt lat="46.09340732812072" lon="1.3415995708995694"><ele>381.0</ele><time>2026-03-28T15:36:34.999Z</time></trkpt><trkpt lat="46.09333078609999" lon="1.3415958873682463"><ele>381.0</ele><time>2026-03-28T15:36:35.999Z</time></trkpt><trkpt lat="46.09324666150331" lon="1.3415838260322577"><ele>381.0</ele><time>2026-03-28T15:36:36.999Z</time></trkpt><trkpt lat="46.09314588050806" lon="1.3415791044482892"><ele>381.0</ele><time>2026-03-28T15:36:37.999Z</time></trkpt><trkpt lat="46.09302975756963" lon="1.3415841465731788"><ele>381.20000000000005</ele><time>2026-03-28T15:36:38.999Z</time></trkpt><trkpt lat="46.09292247303427" lon="1.3415797818178448"><ele>381.40000000000003</ele><time>2026-03-28T15:36:39.999Z</time></trkpt><trkpt lat="46.092825535865714" lon="1.3415558614662106"><ele>381.6</ele><time>2026-03-28T15:36:40.999Z</time></trkpt><trkpt lat="46.09273242232658" lon="1.341519381053201"><ele>381.8</ele><time>2026-03-28T15:36:41.999Z</time></trkpt><trkpt lat="46.092644793205544" lon="1.3414604112964403"><ele>382.0</ele><time>2026-03-28T15:36:42.999Z</time></trkpt><trkpt lat="46.092564352131305" lon="1.3414069575846144"><ele>382.66666666666663</ele><time>2026-03-28T15:36:43.999Z</time></trkpt><trkpt lat="46.09248660852202" lon="1.341373951753034"><ele>383.3333333333333</ele><time>2026-03-28T15:36:44.999Z</time></trkpt><trkpt lat="46.092423276696024" lon="1.3413372219660986"><ele>384.0</ele><time>2026-03-28T15:36:45.999Z</time></trkpt><trkpt lat="46.09236539257657" lon="1.3412905538017459"><ele>384.66666666666663</ele><time>2026-03-28T15:36:46.998Z</time></trkpt><trkpt lat="46.09231656498411" lon="1.3412220899352956"><ele>385.3333333333333</ele><time>2026-03-28T15:36:47.998Z</time></trkpt><trkpt lat="46.092269299220966" lon="1.34115460339121"><ele>386.0</ele><time>2026-03-28T15:36:48.998Z</time></trkpt><trkpt lat="46.09220174362333" lon="1.3410274869318863"><ele>386.99999999999994</ele><time>2026-03-28T15:36:50.998Z</time></trkpt><trkpt lat="46.09213126485447" lon="1.3409865550789213"><ele>388.0</ele><time>2026-03-28T15:36:51.998Z</time></trkpt><trkpt lat="46.09202504155958" lon="1.340961423884499"><ele>389.0</ele><time>2026-03-28T15:36:53.998Z</time></trkpt><trkpt lat="46.09192892442473" lon="1.3409520252882197"><ele>390.0</ele><time>2026-03-28T15:36:54.998Z</time></trkpt><trkpt lat="46.09183317809866" lon="1.3409478635733236"><ele>390.99999999999994</ele><time>2026-03-28T15:36:55.998Z</time></trkpt><trkpt lat="46.0917665448354" lon="1.3409785454858267"><ele>392.0</ele><time>2026-03-28T15:36:56.998Z</time></trkpt><trkpt lat="46.09165598254999" lon="1.3409726111370983"><ele>391.8</ele><time>2026-03-28T15:36:58.998Z</time></trkpt><trkpt lat="46.091578220536185" lon="1.340975300782952"><ele>391.6</ele><time>2026-03-28T15:36:59.998Z</time></trkpt><trkpt lat="46.09145625342042" lon="1.3409775390343253"><ele>391.40000000000003</ele><time>2026-03-28T15:37:01.998Z</time></trkpt><trkpt lat="46.09132858189475" lon="1.3409910289862554"><ele>391.20000000000005</ele><time>2026-03-28T15:37:03.998Z</time></trkpt><trkpt lat="46.09126560744356" lon="1.3409899608431946"><ele>391.0</ele><time>2026-03-28T15:37:04.998Z</time></trkpt><trkpt lat="46.09119683513031" lon="1.3409888858081764"><ele>390.99999999999994</ele><time>2026-03-28T15:37:05.998Z</time></trkpt><trkpt lat="46.09112779359843" lon="1.3409719117751697"><ele>391.0</ele><time>2026-03-28T15:37:06.998Z</time></trkpt><trkpt lat="46.09105720363091" lon="1.340971762129271"><ele>391.0</ele><time>2026-03-28T15:37:08Z</time></trkpt><trkpt lat="46.09099308400994" lon="1.3409577002092996"><ele>391.0</ele><time>2026-03-28T15:37:09Z</time></trkpt><trkpt lat="46.09092422650693" lon="1.3409265225448224"><ele>391.0</ele><time>2026-03-28T15:37:10Z</time></trkpt><trkpt lat="46.09086045956569" lon="1.3408821555959103"><ele>390.99999999999994</ele><time>2026-03-28T15:37:11Z</time></trkpt><trkpt lat="46.090790988638524" lon="1.3408455685630132"><ele>391.0</ele><time>2026-03-28T15:37:12Z</time></trkpt><trkpt lat="46.090727006454024" lon="1.3407982143866806"><ele>391.00000000000006</ele><time>2026-03-28T15:37:13Z</time></trkpt><trkpt lat="46.09066175273057" lon="1.3407213282778916"><ele>391.0</ele><time>2026-03-28T15:37:14Z</time></trkpt><trkpt lat="46.090590294339336" lon="1.340677113597448"><ele>391.0</ele><time>2026-03-28T15:37:15Z</time></trkpt><trkpt lat="46.090519872636946" lon="1.3406065316944824"><ele>391.0</ele><time>2026-03-28T15:37:16Z</time></trkpt><trkpt lat="46.09046727292416" lon="1.3405514051768062"><ele>391.00000000000006</ele><time>2026-03-28T15:37:17Z</time></trkpt><trkpt lat="46.09039700773727" lon="1.340487147199557"><ele>391.0</ele><time>2026-03-28T15:37:18Z</time></trkpt><trkpt lat="46.09033227931478" lon="1.340418199971778"><ele>391.57142857142856</ele><time>2026-03-28T15:37:19Z</time></trkpt><trkpt lat="46.090262230832195" lon="1.3403557743271433"><ele>392.1428571428571</ele><time>2026-03-28T15:37:20Z</time></trkpt><trkpt lat="46.09020528130042" lon="1.3402903574946359"><ele>392.71428571428567</ele><time>2026-03-28T15:37:21Z</time></trkpt><trkpt lat="46.09014489386166" lon="1.340249991670839"><ele>393.2857142857143</ele><time>2026-03-28T15:37:22Z</time></trkpt><trkpt lat="46.09008386135912" lon="1.3402119779836175"><ele>393.8571428571429</ele><time>2026-03-28T15:37:23Z</time></trkpt><trkpt lat="46.09002442128549" lon="1.340176997087557"><ele>394.4285714285714</ele><time>2026-03-28T15:37:24Z</time></trkpt><trkpt lat="46.08995863207352" lon="1.3401413237780666"><ele>395.0</ele><time>2026-03-28T15:37:25Z</time></trkpt><trkpt lat="46.089861629787585" lon="1.3401057858877221"><ele>395.3333333333333</ele><time>2026-03-28T15:37:27Z</time></trkpt><trkpt lat="46.089790050203796" lon="1.3401104596884754"><ele>395.66666666666663</ele><time>2026-03-28T15:37:45Z</time></trkpt><trkpt lat="46.089682682894995" lon="1.34015215958171"><ele>396.0</ele><time>2026-03-28T15:37:51Z</time></trkpt><trkpt lat="46.08960692341938" lon="1.3402166642823719"><ele>396.33333333333337</ele><time>2026-03-28T15:37:52Z</time></trkpt><trkpt lat="46.08952201611287" lon="1.340210885036114"><ele>396.6666666666667</ele><time>2026-03-28T15:37:52.999Z</time></trkpt><trkpt lat="46.08945207329904" lon="1.3402548753444847"><ele>397.0</ele><time>2026-03-28T15:37:53.999Z</time></trkpt><trkpt lat="46.089390544630184" lon="1.3402824882906486"><ele>397.00000000000006</ele><time>2026-03-28T15:37:54.999Z</time></trkpt><trkpt lat="46.089316262432455" lon="1.3403027033377797"><ele>397.0</ele><time>2026-03-28T15:37:55.999Z</time></trkpt><trkpt lat="46.08923925340091" lon="1.3403213203690263"><ele>397.0</ele><time>2026-03-28T15:37:56.999Z</time></trkpt><trkpt lat="46.08915800791135" lon="1.3403332470210298"><ele>397.0</ele><time>2026-03-28T15:37:57.999Z</time></trkpt><trkpt lat="46.0890737640884" lon="1.3403530000868504"><ele>397.00000000000006</ele><time>2026-03-28T15:37:58.999Z</time></trkpt><trkpt lat="46.088990335825265" lon="1.340382930471925"><ele>397.0</ele><time>2026-03-28T15:37:59.999Z</time></trkpt><trkpt lat="46.08892152488389" lon="1.340413364929256"><ele>397.50000000000006</ele><time>2026-03-28T15:38:00.999Z</time></trkpt><trkpt lat="46.088851290136525" lon="1.3404551600532448"><ele>398.0</ele><time>2026-03-28T15:38:01.999Z</time></trkpt><trkpt lat="46.088784545310666" lon="1.3405002172599523"><ele>398.5</ele><time>2026-03-28T15:38:02.999Z</time></trkpt><trkpt lat="46.08872072229023" lon="1.3405567244400782"><ele>399.0</ele><time>2026-03-28T15:38:03.999Z</time></trkpt><trkpt lat="46.08865365017708" lon="1.3406327482782179"><ele>399.50000000000006</ele><time>2026-03-28T15:38:04.999Z</time></trkpt><trkpt lat="46.08859880882678" lon="1.3407137195135845"><ele>400.0</ele><time>2026-03-28T15:38:05.999Z</time></trkpt><trkpt lat="46.08853519830769" lon="1.340784720493279"><ele>398.33333333333337</ele><time>2026-03-28T15:38:06.999Z</time></trkpt><trkpt lat="46.08847076301345" lon="1.3408478656343292"><ele>396.6666666666667</ele><time>2026-03-28T15:38:07.999Z</time></trkpt><trkpt lat="46.08839484099313" lon="1.3408837379321792"><ele>395.0</ele><time>2026-03-28T15:38:08.999Z</time></trkpt><trkpt lat="46.088313137350085" lon="1.3409182995888809"><ele>393.33333333333337</ele><time>2026-03-28T15:38:09.999Z</time></trkpt><trkpt lat="46.08823879437418" lon="1.3409477815383473"><ele>391.6666666666667</ele><time>2026-03-28T15:38:10.999Z</time></trkpt><trkpt lat="46.0881610906328" lon="1.34091148595428"><ele>390.0</ele><time>2026-03-28T15:38:11.999Z</time></trkpt><trkpt lat="46.088081624335075" lon="1.340886610399639"><ele>389.2</ele><time>2026-03-28T15:38:12.999Z</time></trkpt><trkpt lat="46.08799577604255" lon="1.340877017912316"><ele>388.4</ele><time>2026-03-28T15:38:13.999Z</time></trkpt><trkpt lat="46.08791916096156" lon="1.3408199834913306"><ele>387.6</ele><time>2026-03-28T15:38:14.999Z</time></trkpt><trkpt lat="46.08782757707569" lon="1.340803162307067"><ele>386.8</ele><time>2026-03-28T15:38:15.999Z</time></trkpt><trkpt lat="46.087737615467574" lon="1.34077818312914"><ele>386.0</ele><time>2026-03-28T15:38:16.999Z</time></trkpt><trkpt lat="46.08764473413816" lon="1.3407467899714653"><ele>386.0</ele><time>2026-03-28T15:38:17.999Z</time></trkpt><trkpt lat="46.08754785698418" lon="1.3407333821779086"><ele>386.0</ele><time>2026-03-28T15:38:18.999Z</time></trkpt><trkpt lat="46.0874540219738" lon="1.3407334492373857"><ele>386.0</ele><time>2026-03-28T15:38:19.999Z</time></trkpt><trkpt lat="46.087365184068034" lon="1.3407618988381573"><ele>386.0</ele><time>2026-03-28T15:38:20.999Z</time></trkpt><trkpt lat="46.087273949155446" lon="1.3407939715545014"><ele>386.0</ele><time>2026-03-28T15:38:21.999Z</time></trkpt><trkpt lat="46.08717858794393" lon="1.340797925229826"><ele>385.4</ele><time>2026-03-28T15:38:22.999Z</time></trkpt><trkpt lat="46.08709008945734" lon="1.340846205066648"><ele>384.8</ele><time>2026-03-28T15:38:23.999Z</time></trkpt><trkpt lat="46.086996215325996" lon="1.3408607871924643"><ele>384.2</ele><time>2026-03-28T15:38:24.999Z</time></trkpt><trkpt lat="46.08689879529919" lon="1.3408459802410408"><ele>383.59999999999997</ele><time>2026-03-28T15:38:25.999Z</time></trkpt><trkpt lat="46.0867982368826" lon="1.340838758351784"><ele>383.0</ele><time>2026-03-28T15:38:26.999Z</time></trkpt><trkpt lat="46.08670069445198" lon="1.340821448141693"><ele>383.0</ele><time>2026-03-28T15:38:27.999Z</time></trkpt><trkpt lat="46.086605870510304" lon="1.3407901883246207"><ele>383.0</ele><time>2026-03-28T15:38:28.999Z</time></trkpt><trkpt lat="46.08650750494359" lon="1.3407646110897657"><ele>383.0</ele><time>2026-03-28T15:38:29.999Z</time></trkpt><trkpt lat="46.08640841618181" lon="1.340740520746332"><ele>383.0</ele><time>2026-03-28T15:38:30.999Z</time></trkpt><trkpt lat="46.08631701984613" lon="1.3407159808073346"><ele>383.0</ele><time>2026-03-28T15:38:31.999Z</time></trkpt><trkpt lat="46.086221516063894" lon="1.340690380231968"><ele>382.83333333333337</ele><time>2026-03-28T15:38:32.999Z</time></trkpt><trkpt lat="46.086125398468226" lon="1.3406968993606454"><ele>382.6666666666667</ele><time>2026-03-28T15:38:33.999Z</time></trkpt><trkpt lat="46.086041779436876" lon="1.3407594919329255"><ele>382.5</ele><time>2026-03-28T15:38:34.999Z</time></trkpt><trkpt lat="46.085978839040216" lon="1.3408363884810988"><ele>382.3333333333333</ele><time>2026-03-28T15:38:35.999Z</time></trkpt><trkpt lat="46.085922455065585" lon="1.3409177067257945"><ele>382.16666666666663</ele><time>2026-03-28T15:38:36.999Z</time></trkpt><trkpt lat="46.08588212630375" lon="1.3409987080049053"><ele>382.0</ele><time>2026-03-28T15:38:37.999Z</time></trkpt><trkpt lat="46.08583888072648" lon="1.341086401023159"><ele>383.20000000000005</ele><time>2026-03-28T15:38:39.999Z</time></trkpt><trkpt lat="46.085733235165534" lon="1.3410633729099342"><ele>384.4</ele><time>2026-03-28T15:38:42.999Z</time></trkpt><trkpt lat="46.08565383783275" lon="1.3409833440732035"><ele>385.6</ele><time>2026-03-28T15:38:44.999Z</time></trkpt><trkpt lat="46.08559201180763" lon="1.34091302261224"><ele>386.79999999999995</ele><time>2026-03-28T15:38:46.998Z</time></trkpt><trkpt lat="46.0855126430932" lon="1.340816440953557"><ele>388.0</ele><time>2026-03-28T15:39:28Z</time></trkpt><trkpt lat="46.08540361755463" lon="1.3406736254160805"><ele>389.75</ele><time>2026-03-28T15:39:30Z</time></trkpt><trkpt lat="46.08533555046531" lon="1.3405347251460185"><ele>391.5</ele><time>2026-03-28T15:39:32Z</time></trkpt><trkpt lat="46.085293403709414" lon="1.340455929036374"><ele>393.25</ele><time>2026-03-28T15:39:34Z</time></trkpt><trkpt lat="46.08525283484467" lon="1.3403465326931259"><ele>395.0</ele><time>2026-03-28T15:39:38Z</time></trkpt><trkpt lat="46.084870526730896" lon="1.3405053531448172"><ele>395.5</ele><time>2026-03-28T15:39:39Z</time></trkpt><trkpt lat="46.084748490045875" lon="1.3404981372591667"><ele>396.0</ele><time>2026-03-28T15:39:41Z</time></trkpt><trkpt lat="46.0846344152672" lon="1.340474490934938"><ele>396.5</ele><time>2026-03-28T15:39:43Z</time></trkpt><trkpt lat="46.08452075365485" lon="1.3404905541979801"><ele>397.0</ele><time>2026-03-28T15:39:45Z</time></trkpt><trkpt lat="46.08442215982521" lon="1.3404683097340204"><ele>397.0</ele><time>2026-03-28T15:39:47Z</time></trkpt><trkpt lat="46.084315564591854" lon="1.3404382800558696"><ele>397.0</ele><time>2026-03-28T15:39:49Z</time></trkpt><trkpt lat="46.084203632392324" lon="1.340424310934921"><ele>397.0</ele><time>2026-03-28T15:39:51Z</time></trkpt><trkpt lat="46.08409039818057" lon="1.3403976995831774"><ele>397.0</ele><time>2026-03-28T15:39:53Z</time></trkpt><trkpt lat="46.084025012964545" lon="1.3403885454473146"><ele>397.0</ele><time>2026-03-28T15:39:54Z</time></trkpt><trkpt lat="46.083960313231316" lon="1.3403839947594411"><ele>397.2857142857143</ele><time>2026-03-28T15:39:55Z</time></trkpt><trkpt lat="46.083892719282616" lon="1.3403707103057416"><ele>397.57142857142856</ele><time>2026-03-28T15:39:56Z</time></trkpt><trkpt lat="46.08382352015779" lon="1.3403604995736367"><ele>397.8571428571429</ele><time>2026-03-28T15:39:57Z</time></trkpt><trkpt lat="46.08375944699943" lon="1.3403596233219122"><ele>398.1428571428571</ele><time>2026-03-28T15:39:58Z</time></trkpt><trkpt lat="46.08369062551632" lon="1.3403567645669585"><ele>398.42857142857144</ele><time>2026-03-28T15:39:58.999Z</time></trkpt><trkpt lat="46.08362157834182" lon="1.340356569154442"><ele>398.7142857142857</ele><time>2026-03-28T15:39:59.999Z</time></trkpt><trkpt lat="46.08355292518932" lon="1.3403515941916946"><ele>399.0</ele><time>2026-03-28T15:40:00.999Z</time></trkpt><trkpt lat="46.083484666301295" lon="1.3403621545300142"><ele>399.0</ele><time>2026-03-28T15:40:01.999Z</time></trkpt><trkpt lat="46.08341846441495" lon="1.340357495742202"><ele>399.0</ele><time>2026-03-28T15:40:02.999Z</time></trkpt><trkpt lat="46.08330320344909" lon="1.340360285632648"><ele>399.0</ele><time>2026-03-28T15:40:04.999Z</time></trkpt><trkpt lat="46.083195125474695" lon="1.340379876255473"><ele>399.0</ele><time>2026-03-28T15:40:06.999Z</time></trkpt><trkpt lat="46.08312793050491" lon="1.3404943997449303"><ele>399.0</ele><time>2026-03-28T15:40:08.999Z</time></trkpt><trkpt lat="46.083060695603535" lon="1.3405971156517726"><ele>400.4</ele><time>2026-03-28T15:40:10.999Z</time></trkpt><trkpt lat="46.08296980528817" lon="1.3406157629969853"><ele>401.79999999999995</ele><time>2026-03-28T15:40:15.999Z</time></trkpt><trkpt lat="46.08288068014054" lon="1.3406929137510828"><ele>403.20000000000005</ele><time>2026-03-28T15:40:17.999Z</time></trkpt><trkpt lat="46.0828279582338" lon="1.3408359509995416"><ele>404.6</ele><time>2026-03-28T15:40:19.999Z</time></trkpt><trkpt lat="46.08280694062055" lon="1.3409905823367407"><ele>406.0</ele><time>2026-03-28T15:40:21.999Z</time></trkpt><trkpt lat="46.08283326484081" lon="1.3411127747436822"><ele>406.00000000000006</ele><time>2026-03-28T15:40:23.999Z</time></trkpt><trkpt lat="46.082861608642304" lon="1.341267884189315"><ele>406.0</ele><time>2026-03-28T15:40:26.999Z</time></trkpt><trkpt lat="46.082852932285086" lon="1.3413815823178328"><ele>406.0</ele><time>2026-03-28T15:40:27.999Z</time></trkpt><trkpt lat="46.082844840181366" lon="1.341481544899818"><ele>406.0</ele><time>2026-03-28T15:40:29.999Z</time></trkpt><trkpt lat="46.082825994035915" lon="1.3415867589832386"><ele>406.00000000000006</ele><time>2026-03-28T15:40:31.999Z</time></trkpt><trkpt lat="46.082880601620616" lon="1.3417221197582672"><ele>406.0</ele><time>2026-03-28T15:40:33.999Z</time></trkpt><trkpt lat="46.08290369521828" lon="1.3418290613571315"><ele>406.1666666666667</ele><time>2026-03-28T15:40:34.999Z</time></trkpt><trkpt lat="46.08290485098133" lon="1.3419474885710212"><ele>406.33333333333337</ele><time>2026-03-28T15:40:36.999Z</time></trkpt><trkpt lat="46.082907512044805" lon="1.3420383552327764"><ele>406.5</ele><time>2026-03-28T15:40:38.999Z</time></trkpt><trkpt lat="46.08290943845833" lon="1.34215161795508"><ele>406.66666666666663</ele><time>2026-03-28T15:40:40.999Z</time></trkpt><trkpt lat="46.08290807135814" lon="1.3422534086542315"><ele>406.8333333333333</ele><time>2026-03-28T15:40:42.999Z</time></trkpt><trkpt lat="46.08289451637541" lon="1.3424208341508563"><ele>407.0</ele><time>2026-03-28T15:40:44.999Z</time></trkpt><trkpt lat="46.082876612552525" lon="1.3425712159206513"><ele>406.6</ele><time>2026-03-28T15:40:46.999Z</time></trkpt><trkpt lat="46.082847226243906" lon="1.3427120384075264"><ele>406.20000000000005</ele><time>2026-03-28T15:40:48.999Z</time></trkpt><trkpt lat="46.08282778381679" lon="1.3428441851106658"><ele>405.8</ele><time>2026-03-28T15:40:50.998Z</time></trkpt><trkpt lat="46.08280126901652" lon="1.342969376041628"><ele>405.4</ele><time>2026-03-28T15:40:52.998Z</time></trkpt><trkpt lat="46.08272888967122" lon="1.3430974964015274"><ele>405.0</ele><time>2026-03-28T15:40:54.998Z</time></trkpt><trkpt lat="46.082645837440495" lon="1.3431956739956161"><ele>403.6666666666667</ele><time>2026-03-28T15:40:56.998Z</time></trkpt><trkpt lat="46.08254043483296" lon="1.343294411768001"><ele>402.33333333333337</ele><time>2026-03-28T15:40:58.998Z</time></trkpt><trkpt lat="46.0824794726734" lon="1.3433464096896153"><ele>401.0</ele><time>2026-03-28T15:40:59.998Z</time></trkpt><trkpt lat="46.08240498082511" lon="1.3433889749285899"><ele>399.6666666666667</ele><time>2026-03-28T15:41:00.998Z</time></trkpt><trkpt lat="46.08234211781265" lon="1.3434400112631235"><ele>398.33333333333337</ele><time>2026-03-28T15:41:01.998Z</time></trkpt><trkpt lat="46.08228342169522" lon="1.3435009695373037"><ele>397.0</ele><time>2026-03-28T15:41:02.998Z</time></trkpt><trkpt lat="46.08216149072531" lon="1.3435266177778662"><ele>397.00000000000006</ele><time>2026-03-28T15:41:04.998Z</time></trkpt><trkpt lat="46.08210133422467" lon="1.3435549390360693"><ele>397.0</ele><time>2026-03-28T15:41:08.998Z</time></trkpt><trkpt lat="46.08202240643046" lon="1.3435946384928248"><ele>397.0</ele><time>2026-03-28T15:41:10.998Z</time></trkpt><trkpt lat="46.08192003919664" lon="1.3436621224500813"><ele>397.0</ele><time>2026-03-28T15:41:12.998Z</time></trkpt><trkpt lat="46.081837416286554" lon="1.3437252081565334"><ele>397.00000000000006</ele><time>2026-03-28T15:41:14.998Z</time></trkpt><trkpt lat="46.081788770191295" lon="1.3438063524562947"><ele>397.0</ele><time>2026-03-28T15:41:17.998Z</time></trkpt><trkpt lat="46.08173735088472" lon="1.3438752279736395"><ele>395.6666666666667</ele><time>2026-03-28T15:41:21Z</time></trkpt><trkpt lat="46.08169810134369" lon="1.3439567377668806"><ele>394.33333333333337</ele><time>2026-03-28T15:41:23Z</time></trkpt><trkpt lat="46.08165325510379" lon="1.344071132858455"><ele>393.0</ele><time>2026-03-28T15:41:25Z</time></trkpt><trkpt lat="46.08157929892377" lon="1.3442068819000175"><ele>391.66666666666663</ele><time>2026-03-28T15:41:27Z</time></trkpt><trkpt lat="46.081528635005775" lon="1.3442687422085526"><ele>390.3333333333333</ele><time>2026-03-28T15:41:28Z</time></trkpt><trkpt lat="46.081477602316234" lon="1.3443810149289246"><ele>389.0</ele><time>2026-03-28T15:41:30Z</time></trkpt><trkpt lat="46.08145460028782" lon="1.3444749673111038"><ele>388.79999999999995</ele><time>2026-03-28T15:41:36Z</time></trkpt><trkpt lat="46.08151870406457" lon="1.3445572563308468"><ele>388.59999999999997</ele><time>2026-03-28T15:41:40Z</time></trkpt><trkpt lat="46.08156981807864" lon="1.3446610241537316"><ele>388.4</ele><time>2026-03-28T15:41:43Z</time></trkpt><trkpt lat="46.08165761425096" lon="1.3447613573498345"><ele>388.2</ele><time>2026-03-28T15:41:45Z</time></trkpt><trkpt lat="46.08172827120501" lon="1.3448668066297043"><ele>388.0</ele><time>2026-03-28T15:41:47Z</time></trkpt><trkpt lat="46.08178981691238" lon="1.3449455187064463"><ele>386.83333333333337</ele><time>2026-03-28T15:41:49Z</time></trkpt><trkpt lat="46.081830523054464" lon="1.345042505760771"><ele>385.6666666666667</ele><time>2026-03-28T15:41:51Z</time></trkpt><trkpt lat="46.08189192466525" lon="1.3450787828529667"><ele>384.5</ele><time>2026-03-28T15:41:53Z</time></trkpt><trkpt lat="46.08191161177078" lon="1.3451990153221234"><ele>383.33333333333337</ele><time>2026-03-28T15:41:56Z</time></trkpt><trkpt lat="46.08197105325484" lon="1.3451154832291603"><ele>382.1666666666667</ele><time>2026-03-28T15:42:00.999Z</time></trkpt><trkpt lat="46.08198262419985" lon="1.3450024637787736"><ele>381.0</ele><time>2026-03-28T15:42:02.999Z</time></trkpt><trkpt lat="46.08201774329039" lon="1.3448973451324346"><ele>381.0</ele><time>2026-03-28T15:42:05.999Z</time></trkpt><trkpt lat="46.08210676493693" lon="1.3448895696501093"><ele>381.0</ele><time>2026-03-28T15:42:07.999Z</time></trkpt><trkpt lat="46.08220176013475" lon="1.3449103756802527"><ele>381.0</ele><time>2026-03-28T15:42:09.999Z</time></trkpt><trkpt lat="46.08226744311575" lon="1.344980967954454"><ele>381.0</ele><time>2026-03-28T15:42:11.999Z</time></trkpt><trkpt lat="46.082346155770146" lon="1.3450016688909165"><ele>381.0</ele><time>2026-03-28T15:42:13.999Z</time></trkpt><trkpt lat="46.08244227364245" lon="1.3450060032079376"><ele>381.0</ele><time>2026-03-28T15:42:16.999Z</time></trkpt><trkpt lat="46.08255335416868" lon="1.344955952738084"><ele>380.0</ele><time>2026-03-28T15:42:19.999Z</time></trkpt><trkpt lat="46.08265235331339" lon="1.3450117540041677"><ele>379.0</ele><time>2026-03-28T15:42:21.999Z</time></trkpt><trkpt lat="46.08272776236874" lon="1.3449493662374543"><ele>378.0</ele><time>2026-03-28T15:42:24.999Z</time></trkpt><trkpt lat="46.08279877538174" lon="1.3449685064119008"><ele>377.0</ele><time>2026-03-28T15:42:26.999Z</time></trkpt><trkpt lat="46.08283397709193" lon="1.3450819303762531"><ele>376.0</ele><time>2026-03-28T15:42:28.999Z</time></trkpt><trkpt lat="46.08286636505256" lon="1.345194948973202"><ele>375.0</ele><time>2026-03-28T15:42:30.999Z</time></trkpt><trkpt lat="46.082895047969075" lon="1.345308265901943"><ele>375.0</ele><time>2026-03-28T15:42:32.999Z</time></trkpt><trkpt lat="46.0829503498309" lon="1.3453998345770877"><ele>375.0</ele><time>2026-03-28T15:42:34.999Z</time></trkpt><trkpt lat="46.08303648158547" lon="1.3454706626160924"><ele>375.0</ele><time>2026-03-28T15:42:36.999Z</time></trkpt><trkpt lat="46.08310038849631" lon="1.3454715401286028"><ele>375.0</ele><time>2026-03-28T15:42:38.999Z</time></trkpt><trkpt lat="46.083164668799625" lon="1.3454862365279832"><ele>375.0</ele><time>2026-03-28T15:42:40.999Z</time></trkpt><trkpt lat="46.08324461992805" lon="1.3455187613227084"><ele>375.0</ele><time>2026-03-28T15:42:42.999Z</time></trkpt><trkpt lat="46.08330804469028" lon="1.3456328719940958"><ele>374.0</ele><time>2026-03-28T15:42:44.999Z</time></trkpt><trkpt lat="46.083246882993166" lon="1.345748033044189"><ele>373.0</ele><time>2026-03-28T15:42:47.998Z</time></trkpt><trkpt lat="46.0831963103337" lon="1.3458210122729102"><ele>372.0</ele><time>2026-03-28T15:42:49.998Z</time></trkpt><trkpt lat="46.08314613702944" lon="1.3458885186305902"><ele>371.0</ele><time>2026-03-28T15:42:51.998Z</time></trkpt><trkpt lat="46.08309160123945" lon="1.3459652843065113"><ele>370.0</ele><time>2026-03-28T15:42:53.998Z</time></trkpt><trkpt lat="46.083044986841635" lon="1.3460493698597322"><ele>369.0</ele><time>2026-03-28T15:42:55.998Z</time></trkpt><trkpt lat="46.08299277341717" lon="1.3461494461407124"><ele>369.0</ele><time>2026-03-28T15:42:57.998Z</time></trkpt><trkpt lat="46.08294567578859" lon="1.3462392775413385"><ele>369.0</ele><time>2026-03-28T15:42:59.998Z</time></trkpt><trkpt lat="46.08296859992702" lon="1.3463343228614546"><ele>369.0</ele><time>2026-03-28T15:43:01.998Z</time></trkpt><trkpt lat="46.0830101273169" lon="1.3464462168330855"><ele>369.0</ele><time>2026-03-28T15:43:03.998Z</time></trkpt><trkpt lat="46.08304522726537" lon="1.346539238365243"><ele>369.0</ele><time>2026-03-28T15:43:05.998Z</time></trkpt><trkpt lat="46.083091161691314" lon="1.3466564116257957"><ele>369.0</ele><time>2026-03-28T15:43:09.998Z</time></trkpt><trkpt lat="46.08314568726257" lon="1.3467538797118688"><ele>369.6</ele><time>2026-03-28T15:43:11.998Z</time></trkpt><trkpt lat="46.08320812603994" lon="1.346876891828501"><ele>370.2</ele><time>2026-03-28T15:43:13.998Z</time></trkpt><trkpt lat="46.08328245827179" lon="1.3469933947546953"><ele>370.8</ele><time>2026-03-28T15:43:15.998Z</time></trkpt><trkpt lat="46.083342427577186" lon="1.3471236026120952"><ele>371.40000000000003</ele><time>2026-03-28T15:43:17.998Z</time></trkpt><trkpt lat="46.08338973445718" lon="1.3472365874460899"><ele>372.0</ele><time>2026-03-28T15:43:19.998Z</time></trkpt><trkpt lat="46.08342333794353" lon="1.347319453453171"><ele>373.3333333333333</ele><time>2026-03-28T15:43:21.998Z</time></trkpt><trkpt lat="46.0834843657835" lon="1.3474382136019423"><ele>374.6666666666667</ele><time>2026-03-28T15:43:23.998Z</time></trkpt><trkpt lat="46.08353529263271" lon="1.3475114453521646"><ele>376.0</ele><time>2026-03-28T15:43:26Z</time></trkpt><trkpt lat="46.08363682880118" lon="1.3475382798133477"><ele>377.33333333333337</ele><time>2026-03-28T15:43:28Z</time></trkpt><trkpt lat="46.08373165838332" lon="1.3475476546826866"><ele>378.6666666666667</ele><time>2026-03-28T15:43:30Z</time></trkpt><trkpt lat="46.083806641149614" lon="1.3475501489621537"><ele>380.0</ele><time>2026-03-28T15:43:32Z</time></trkpt><trkpt lat="46.08385303665343" lon="1.3476216482328145"><ele>380.0</ele><time>2026-03-28T15:43:34Z</time></trkpt><trkpt lat="46.08387142873598" lon="1.3477311408663384"><ele>380.0</ele><time>2026-03-28T15:43:36Z</time></trkpt><trkpt lat="46.08392558651731" lon="1.3477947607128735"><ele>380.0</ele><time>2026-03-28T15:43:38Z</time></trkpt><trkpt lat="46.08397939815741" lon="1.3478665526300209"><ele>380.0</ele><time>2026-03-28T15:43:40Z</time></trkpt><trkpt lat="46.084033412335984" lon="1.3479457758016922"><ele>380.0</ele><time>2026-03-28T15:43:42Z</time></trkpt><trkpt lat="46.084105585313615" lon="1.3480507355757918"><ele>380.0</ele><time>2026-03-28T15:43:44Z</time></trkpt><trkpt lat="46.08417265016405" lon="1.3481502131119971"><ele>380.33333333333337</ele><time>2026-03-28T15:43:46Z</time></trkpt><trkpt lat="46.08422466191972" lon="1.3482095355313466"><ele>380.6666666666667</ele><time>2026-03-28T15:43:48Z</time></trkpt><trkpt lat="46.08422196746455" lon="1.3483313043596366"><ele>381.0</ele><time>2026-03-28T15:43:53Z</time></trkpt><trkpt lat="46.08408972465802" lon="1.3483867881821363"><ele>381.3333333333333</ele><time>2026-03-28T15:43:55Z</time></trkpt><trkpt lat="46.08405576326397" lon="1.3484668937769737"><ele>381.66666666666663</ele><time>2026-03-28T15:43:56Z</time></trkpt><trkpt lat="46.08400655654242" lon="1.3485583367360225"><ele>382.0</ele><time>2026-03-28T15:43:57Z</time></trkpt><trkpt lat="46.08396136371423" lon="1.3486540905209539"><ele>382.0</ele><time>2026-03-28T15:43:58Z</time></trkpt><trkpt lat="46.08390609215119" lon="1.3487508954948433"><ele>382.0</ele><time>2026-03-28T15:43:59Z</time></trkpt><trkpt lat="46.08385457550949" lon="1.3488419854152334"><ele>382.0</ele><time>2026-03-28T15:44:00Z</time></trkpt><trkpt lat="46.08380101677721" lon="1.348939493531966"><ele>382.0</ele><time>2026-03-28T15:44:01Z</time></trkpt><trkpt lat="46.08375864548824" lon="1.3490521667784217"><ele>382.0</ele><time>2026-03-28T15:44:02Z</time></trkpt><trkpt lat="46.08369494481033" lon="1.349139716606286"><ele>382.0</ele><time>2026-03-28T15:44:03Z</time></trkpt><trkpt lat="46.08364097379367" lon="1.3492401207466422"><ele>382.5</ele><time>2026-03-28T15:44:03.999Z</time></trkpt><trkpt lat="46.08358544095826" lon="1.3493407793405243"><ele>383.0</ele><time>2026-03-28T15:44:04.999Z</time></trkpt><trkpt lat="46.08352744427204" lon="1.349441469476096"><ele>383.5</ele><time>2026-03-28T15:44:05.999Z</time></trkpt><trkpt lat="46.08347136284916" lon="1.3495407217633886"><ele>384.0</ele><time>2026-03-28T15:44:06.999Z</time></trkpt><trkpt lat="46.08341745398834" lon="1.3496396190519946"><ele>384.50000000000006</ele><time>2026-03-28T15:44:07.999Z</time></trkpt><trkpt lat="46.0833624584819" lon="1.3497405098627664"><ele>385.0</ele><time>2026-03-28T15:44:08.999Z</time></trkpt><trkpt lat="46.08332489092982" lon="1.3498569653622856"><ele>386.2</ele><time>2026-03-28T15:44:09.999Z</time></trkpt><trkpt lat="46.08328062244483" lon="1.3499647028433848"><ele>387.4</ele><time>2026-03-28T15:44:10.999Z</time></trkpt><trkpt lat="46.08325538724861" lon="1.3500863650253503"><ele>388.6</ele><time>2026-03-28T15:44:11.999Z</time></trkpt><trkpt lat="46.083243135378204" lon="1.3502115591769182"><ele>389.8</ele><time>2026-03-28T15:44:12.999Z</time></trkpt><trkpt lat="46.083283488242564" lon="1.3503304858862413"><ele>391.0</ele><time>2026-03-28T15:44:13.999Z</time></trkpt><trkpt lat="46.08331653370616" lon="1.3504734960522127"><ele>392.8</ele><time>2026-03-28T15:44:14.999Z</time></trkpt><trkpt lat="46.083367351974864" lon="1.3505641638647636"><ele>394.6</ele><time>2026-03-28T15:44:15.999Z</time></trkpt><trkpt lat="46.083420153107845" lon="1.3506750832122736"><ele>396.4</ele><time>2026-03-28T15:44:16.999Z</time></trkpt><trkpt lat="46.08346499344052" lon="1.3507935513888691"><ele>398.2</ele><time>2026-03-28T15:44:17.999Z</time></trkpt><trkpt lat="46.08351403790413" lon="1.350911609569179"><ele>400.0</ele><time>2026-03-28T15:44:18.999Z</time></trkpt><trkpt lat="46.08355732530934" lon="1.3510393428396572"><ele>400.0</ele><time>2026-03-28T15:44:19.999Z</time></trkpt><trkpt lat="46.08362054240762" lon="1.3511592424281034"><ele>400.0</ele><time>2026-03-28T15:44:20.999Z</time></trkpt><trkpt lat="46.083678218773" lon="1.3512933894292993"><ele>400.0</ele><time>2026-03-28T15:44:21.999Z</time></trkpt><trkpt lat="46.083723675476" lon="1.3514167229068468"><ele>400.0</ele><time>2026-03-28T15:44:22.999Z</time></trkpt><trkpt lat="46.08376648882383" lon="1.351536824970218"><ele>400.0</ele><time>2026-03-28T15:44:23.999Z</time></trkpt><trkpt lat="46.08379993307287" lon="1.351641061462018"><ele>401.50000000000006</ele><time>2026-03-28T15:44:24.999Z</time></trkpt><trkpt lat="46.083814259196515" lon="1.3517573193462749"><ele>403.0</ele><time>2026-03-28T15:44:25.999Z</time></trkpt><trkpt lat="46.08376262741239" lon="1.3518660886305514"><ele>404.5</ele><time>2026-03-28T15:44:26.999Z</time></trkpt><trkpt lat="46.0837242445175" lon="1.3519697491919511"><ele>406.0</ele><time>2026-03-28T15:44:27.999Z</time></trkpt><trkpt lat="46.08368523950955" lon="1.3520968245432894"><ele>407.50000000000006</ele><time>2026-03-28T15:44:28.999Z</time></trkpt><trkpt lat="46.08363403900854" lon="1.352185969799749"><ele>409.0</ele><time>2026-03-28T15:44:29.999Z</time></trkpt><trkpt lat="46.08358402805887" lon="1.352282852368918"><ele>409.6666666666667</ele><time>2026-03-28T15:44:30.999Z</time></trkpt><trkpt lat="46.083552598777906" lon="1.3523769627113278"><ele>410.33333333333337</ele><time>2026-03-28T15:44:31.999Z</time></trkpt><trkpt lat="46.08350901620041" lon="1.3524509545378296"><ele>411.0</ele><time>2026-03-28T15:44:32.999Z</time></trkpt><trkpt lat="46.08349281165821" lon="1.3525597773140698"><ele>411.66666666666663</ele><time>2026-03-28T15:44:33.999Z</time></trkpt><trkpt lat="46.083573245456826" lon="1.352685616015956"><ele>412.3333333333333</ele><time>2026-03-28T15:44:34.999Z</time></trkpt><trkpt lat="46.08365395118384" lon="1.3527722063700756"><ele>413.0</ele><time>2026-03-28T15:44:35.999Z</time></trkpt><trkpt lat="46.083739521323245" lon="1.3528716756797496"><ele>413.0</ele><time>2026-03-28T15:44:36.999Z</time></trkpt><trkpt lat="46.08381228403021" lon="1.3529751448352771"><ele>413.0</ele><time>2026-03-28T15:44:37.999Z</time></trkpt><trkpt lat="46.0839018116839" lon="1.3531024540639431"><ele>413.0</ele><time>2026-03-28T15:44:38.999Z</time></trkpt><trkpt lat="46.08398168181996" lon="1.3532037183425258"><ele>413.0</ele><time>2026-03-28T15:44:39.999Z</time></trkpt><trkpt lat="46.084044053857035" lon="1.3533179007316043"><ele>413.0</ele><time>2026-03-28T15:44:40.999Z</time></trkpt><trkpt lat="46.08408636776776" lon="1.353441738756364"><ele>413.3333333333333</ele><time>2026-03-28T15:44:41.999Z</time></trkpt><trkpt lat="46.0841361614482" lon="1.3535600883704322"><ele>413.66666666666663</ele><time>2026-03-28T15:44:42.999Z</time></trkpt><trkpt lat="46.084179888900884" lon="1.353665548886032"><ele>414.0</ele><time>2026-03-28T15:44:43.999Z</time></trkpt><trkpt lat="46.0842121280102" lon="1.3537512991374039"><ele>414.33333333333337</ele><time>2026-03-28T15:44:44.999Z</time></trkpt><trkpt lat="46.084218768873086" lon="1.353861294376378"><ele>414.6666666666667</ele><time>2026-03-28T15:44:46.999Z</time></trkpt><trkpt lat="46.08413884923739" lon="1.3539488372442026"><ele>415.0</ele><time>2026-03-28T15:45:39Z</time></trkpt><trkpt lat="46.08405808962742" lon="1.3539689380359357"><ele>417.2</ele><time>2026-03-28T15:45:41Z</time></trkpt><trkpt lat="46.0839749813496" lon="1.3540031457303099"><ele>419.4</ele><time>2026-03-28T15:45:43Z</time></trkpt><trkpt lat="46.083984945866675" lon="1.3541957019348998"><ele>421.6</ele><time>2026-03-28T15:45:46Z</time></trkpt><trkpt lat="46.08402161983113" lon="1.3543384457524568"><ele>423.8</ele><time>2026-03-28T15:45:48Z</time></trkpt><trkpt lat="46.08399613424752" lon="1.3544620091938622"><ele>426.0</ele><time>2026-03-28T15:45:50Z</time></trkpt><trkpt lat="46.08394640841222" lon="1.3546301809049857"><ele>426.4285714285714</ele><time>2026-03-28T15:45:52Z</time></trkpt><trkpt lat="46.08392397223072" lon="1.354719711302639"><ele>426.85714285714283</ele><time>2026-03-28T15:45:53Z</time></trkpt><trkpt lat="46.08390364843131" lon="1.3548061882044866"><ele>427.2857142857143</ele><time>2026-03-28T15:45:54Z</time></trkpt><trkpt lat="46.0838849056753" lon="1.354895578421975"><ele>427.71428571428567</ele><time>2026-03-28T15:45:55Z</time></trkpt><trkpt lat="46.083880057382906" lon="1.3549950033407947"><ele>428.14285714285717</ele><time>2026-03-28T15:45:56Z</time></trkpt><trkpt lat="46.0838934867547" lon="1.3550989670945388"><ele>428.57142857142856</ele><time>2026-03-28T15:45:57Z</time></trkpt><trkpt lat="46.08391856768755" lon="1.3551941752071992"><ele>429.0</ele><time>2026-03-28T15:45:58Z</time></trkpt><trkpt lat="46.08395323505814" lon="1.3552883714378172"><ele>429.0</ele><time>2026-03-28T15:45:59Z</time></trkpt><trkpt lat="46.08399319570988" lon="1.3553776300540956"><ele>429.0</ele><time>2026-03-28T15:46:00Z</time></trkpt><trkpt lat="46.084037107993055" lon="1.3554740963164704"><ele>429.0</ele><time>2026-03-28T15:46:01Z</time></trkpt><trkpt lat="46.08408118244931" lon="1.35556732011558"><ele>429.0</ele><time>2026-03-28T15:46:02Z</time></trkpt><trkpt lat="46.08412596365595" lon="1.3556620387775944"><ele>429.0</ele><time>2026-03-28T15:46:03Z</time></trkpt><trkpt lat="46.084185474512985" lon="1.355747620879517"><ele>429.0</ele><time>2026-03-28T15:46:04Z</time></trkpt><trkpt lat="46.08422678080783" lon="1.355857959091462"><ele>429.4</ele><time>2026-03-28T15:46:05Z</time></trkpt><trkpt lat="46.08427551613814" lon="1.3559706323146727"><ele>429.79999999999995</ele><time>2026-03-28T15:46:06Z</time></trkpt><trkpt lat="46.08432615884019" lon="1.3560892144882968"><ele>430.20000000000005</ele><time>2026-03-28T15:46:07Z</time></trkpt><trkpt lat="46.08437338457897" lon="1.3562183639228698"><ele>430.6</ele><time>2026-03-28T15:46:08Z</time></trkpt><trkpt lat="46.08441312936378" lon="1.3563414009909498"><ele>431.0</ele><time>2026-03-28T15:46:09Z</time></trkpt><trkpt lat="46.08444320208227" lon="1.3564558902171011"><ele>430.99999999999994</ele><time>2026-03-28T15:46:09.999Z</time></trkpt><trkpt lat="46.08446603501084" lon="1.356553434697531"><ele>431.0</ele><time>2026-03-28T15:46:10.999Z</time></trkpt><trkpt lat="46.084508707858" lon="1.3567103267889593"><ele>431.0</ele><time>2026-03-28T15:46:12.999Z</time></trkpt><trkpt lat="46.08454166320005" lon="1.3568268129655772"><ele>431.0</ele><time>2026-03-28T15:46:14.999Z</time></trkpt><trkpt lat="46.0845815031093" lon="1.356913910748313"><ele>430.99999999999994</ele><time>2026-03-28T15:46:16.999Z</time></trkpt><trkpt lat="46.08464284002782" lon="1.3569680911356965"><ele>431.0</ele><time>2026-03-28T15:46:17.999Z</time></trkpt><trkpt lat="46.08471273239569" lon="1.3570658317852091"><ele>431.0</ele><time>2026-03-28T15:46:18.999Z</time></trkpt><trkpt lat="46.08480895397193" lon="1.3571676647426243"><ele>431.0</ele><time>2026-03-28T15:46:19.999Z</time></trkpt><trkpt lat="46.0849135938486" lon="1.35728594415787"><ele>431.0</ele><time>2026-03-28T15:46:20.999Z</time></trkpt><trkpt lat="46.08503913296225" lon="1.357411326677366"><ele>431.0</ele><time>2026-03-28T15:46:21.999Z</time></trkpt><trkpt lat="46.08513511461759" lon="1.35752550120811"><ele>429.8333333333333</ele><time>2026-03-28T15:46:22.999Z</time></trkpt><trkpt lat="46.085205218503134" lon="1.357600384158639"><ele>428.66666666666663</ele><time>2026-03-28T15:46:23.999Z</time></trkpt><trkpt lat="46.08527439110471" lon="1.357652639632808"><ele>427.5</ele><time>2026-03-28T15:46:24.999Z</time></trkpt><trkpt lat="46.085336750736936" lon="1.357706646533414"><ele>426.33333333333337</ele><time>2026-03-28T15:46:27.999Z</time></trkpt><trkpt lat="46.08529559524343" lon="1.3576207429557574"><ele>425.1666666666667</ele><time>2026-03-28T15:46:37.999Z</time></trkpt><trkpt lat="46.08519624030237" lon="1.3575459028803005"><ele>424.0</ele><time>2026-03-28T15:46:39.999Z</time></trkpt><trkpt lat="46.08512847184234" lon="1.3574544306231917"><ele>424.0</ele><time>2026-03-28T15:46:40.999Z</time></trkpt><trkpt lat="46.08501703970955" lon="1.3574079936611831"><ele>424.0</ele><time>2026-03-28T15:46:41.999Z</time></trkpt><trkpt lat="46.08492533873808" lon="1.3573358864250167"><ele>424.0</ele><time>2026-03-28T15:46:42.999Z</time></trkpt><trkpt lat="46.084911423296404" lon="1.3572190288581245"><ele>424.0</ele><time>2026-03-28T15:46:43.999Z</time></trkpt><trkpt lat="46.08498423983323" lon="1.357204014158879"><ele>424.0</ele><time>2026-03-28T15:46:46.999Z</time></trkpt><trkpt lat="46.085082422688416" lon="1.3572425765805443"><ele>424.00000000000006</ele><time>2026-03-28T15:46:49.999Z</time></trkpt><trkpt lat="46.08514927204114" lon="1.3572787832623188"><ele>424.0</ele><time>2026-03-28T15:46:51.999Z</time></trkpt><trkpt lat="46.08522027243169" lon="1.3573205625039246"><ele>424.0</ele><time>2026-03-28T15:46:54.999Z</time></trkpt><trkpt lat="46.08528752799778" lon="1.3573151298809512"><ele>424.0</ele><time>2026-03-28T15:46:58.999Z</time></trkpt><trkpt lat="46.08537648102085" lon="1.3573454929035964"><ele>424.00000000000006</ele><time>2026-03-28T15:47:02.998Z</time></trkpt><trkpt lat="46.085443056880656" lon="1.3573810819492373"><ele>424.0</ele><time>2026-03-28T15:47:04.998Z</time></trkpt><trkpt lat="46.08553318592264" lon="1.357432359655604"><ele>424.00000000000006</ele><time>2026-03-28T15:47:06.998Z</time></trkpt><trkpt lat="46.08561562349413" lon="1.3574678468109673"><ele>424.0</ele><time>2026-03-28T15:47:08.998Z</time></trkpt><trkpt lat="46.08569135082621" lon="1.3574852981973367"><ele>424.0</ele><time>2026-03-28T15:47:10.998Z</time></trkpt><trkpt lat="46.08575832692245" lon="1.3575150995572811"><ele>424.0</ele><time>2026-03-28T15:47:12.998Z</time></trkpt><trkpt lat="46.085800690471935" lon="1.3576192184112783"><ele>424.00000000000006</ele><time>2026-03-28T15:47:14.998Z</time></trkpt><trkpt lat="46.085829676418584" lon="1.3577514682907463"><ele>424.0</ele><time>2026-03-28T15:47:16.998Z</time></trkpt><trkpt lat="46.08588724937141" lon="1.3578877417721298"><ele>422.6</ele><time>2026-03-28T15:47:18.998Z</time></trkpt><trkpt lat="46.08593367210414" lon="1.3580769688528762"><ele>421.2</ele><time>2026-03-28T15:47:20.998Z</time></trkpt><trkpt lat="46.085963066230924" lon="1.3582012887509898"><ele>419.8</ele><time>2026-03-28T15:47:21.998Z</time></trkpt><trkpt lat="46.0860116497169" lon="1.358304337417197"><ele>418.40000000000003</ele><time>2026-03-28T15:47:22.998Z</time></trkpt><trkpt lat="46.08607097490858" lon="1.3583675175985646"><ele>417.0</ele><time>2026-03-28T15:47:23.998Z</time></trkpt><trkpt lat="46.08612584650378" lon="1.358427518066906"><ele>417.0</ele><time>2026-03-28T15:47:24.998Z</time></trkpt><trkpt lat="46.086087086080305" lon="1.358620683060926"><ele>417.0</ele><time>2026-03-28T15:47:25.998Z</time></trkpt><trkpt lat="46.08615341057037" lon="1.3586711696359721"><ele>417.0</ele><time>2026-03-28T15:47:28.998Z</time></trkpt><trkpt lat="46.08622974209664" lon="1.3588124462475344"><ele>417.0</ele><time>2026-03-28T15:47:30.998Z</time></trkpt><trkpt lat="46.086309138203845" lon="1.358910978782295"><ele>417.0</ele><time>2026-03-28T15:47:31.998Z</time></trkpt><trkpt lat="46.08640875549424" lon="1.3590185024713333"><ele>417.75</ele><time>2026-03-28T15:47:32.998Z</time></trkpt><trkpt lat="46.0865055409165" lon="1.359144531853284"><ele>418.5</ele><time>2026-03-28T15:47:33.998Z</time></trkpt><trkpt lat="46.08660118658106" lon="1.3592914529447775"><ele>419.25</ele><time>2026-03-28T15:47:34.998Z</time></trkpt><trkpt lat="46.08670902535726" lon="1.3594309370012208"><ele>420.0</ele><time>2026-03-28T15:47:35.998Z</time></trkpt><trkpt lat="46.086827120881225" lon="1.359576514523341"><ele>418.0</ele><time>2026-03-28T15:47:36.998Z</time></trkpt><trkpt lat="46.08692894675157" lon="1.359738884081201"><ele>416.0</ele><time>2026-03-28T15:47:38Z</time></trkpt><trkpt lat="46.08703899138887" lon="1.3599002982794717"><ele>414.0</ele><time>2026-03-28T15:47:39Z</time></trkpt><trkpt lat="46.087169605140296" lon="1.3600562783036987"><ele>414.0</ele><time>2026-03-28T15:47:40Z</time></trkpt><trkpt lat="46.08728672114245" lon="1.3602198888365646"><ele>414.0</ele><time>2026-03-28T15:47:41Z</time></trkpt><trkpt lat="46.08740258685425" lon="1.3603866660172144"><ele>414.0</ele><time>2026-03-28T15:47:42Z</time></trkpt><trkpt lat="46.08750724071992" lon="1.360526656145513"><ele>412.5</ele><time>2026-03-28T15:47:43Z</time></trkpt><trkpt lat="46.08761435457316" lon="1.3606592331370448"><ele>411.0</ele><time>2026-03-28T15:47:44Z</time></trkpt><trkpt lat="46.08772239955197" lon="1.3607844012260102"><ele>409.5</ele><time>2026-03-28T15:47:45Z</time></trkpt><trkpt lat="46.08783991873377" lon="1.3608910776854544"><ele>408.0</ele><time>2026-03-28T15:47:46Z</time></trkpt><trkpt lat="46.08797959572891" lon="1.3609736345899963"><ele>408.0</ele><time>2026-03-28T15:47:47Z</time></trkpt><trkpt lat="46.08812145312002" lon="1.3610456678659157"><ele>408.0</ele><time>2026-03-28T15:47:48Z</time></trkpt><trkpt lat="46.08825665466555" lon="1.3610819142328434"><ele>408.0</ele><time>2026-03-28T15:47:49Z</time></trkpt><trkpt lat="46.08838687885206" lon="1.3611443853753726"><ele>408.0</ele><time>2026-03-28T15:47:50Z</time></trkpt><trkpt lat="46.0885088140336" lon="1.3611819150483782"><ele>408.0</ele><time>2026-03-28T15:47:51Z</time></trkpt><trkpt lat="46.08863070904062" lon="1.361181405755255"><ele>408.0</ele><time>2026-03-28T15:47:52Z</time></trkpt><trkpt lat="46.088760238441076" lon="1.3611704787025314"><ele>408.0</ele><time>2026-03-28T15:47:53Z</time></trkpt><trkpt lat="46.08889528712652" lon="1.3611412225692006"><ele>408.0</ele><time>2026-03-28T15:47:54Z</time></trkpt><trkpt lat="46.089033641690015" lon="1.3611116581785427"><ele>409.25</ele><time>2026-03-28T15:47:55Z</time></trkpt><trkpt lat="46.08917535860767" lon="1.3610686836532429"><ele>410.5</ele><time>2026-03-28T15:47:56Z</time></trkpt><trkpt lat="46.08931979751637" lon="1.3610295029113644"><ele>411.75</ele><time>2026-03-28T15:47:57Z</time></trkpt><trkpt lat="46.08946755014468" lon="1.361000893356667"><ele>413.0</ele><time>2026-03-28T15:47:58Z</time></trkpt><trkpt lat="46.08960814741134" lon="1.3609427553658295"><ele>413.0</ele><time>2026-03-28T15:47:59Z</time></trkpt><trkpt lat="46.08973773394099" lon="1.3608714720823083"><ele>413.0</ele><time>2026-03-28T15:48:00Z</time></trkpt><trkpt lat="46.08984832949291" lon="1.3608220589714684"><ele>413.0</ele><time>2026-03-28T15:48:01Z</time></trkpt><trkpt lat="46.089939761392685" lon="1.3607834418572107"><ele>413.0</ele><time>2026-03-28T15:48:02Z</time></trkpt><trkpt lat="46.09000298652563" lon="1.360760574805051"><ele>413.0</ele><time>2026-03-28T15:48:03Z</time></trkpt><trkpt lat="46.09008262101817" lon="1.360715072081217"><ele>413.0</ele><time>2026-03-28T15:48:05Z</time></trkpt><trkpt lat="46.090147101795615" lon="1.3606961245199796"><ele>413.0</ele><time>2026-03-28T15:48:07Z</time></trkpt><trkpt lat="46.09015245990982" lon="1.3608242357965947"><ele>413.0</ele><time>2026-03-28T15:48:15.999Z</time></trkpt><trkpt lat="46.09006863777878" lon="1.360895705339397"><ele>413.0</ele><time>2026-03-28T15:48:16.999Z</time></trkpt><trkpt lat="46.08997323174986" lon="1.360977133890718"><ele>413.0</ele><time>2026-03-28T15:48:17.999Z</time></trkpt><trkpt lat="46.089884233580996" lon="1.361090425249394"><ele>413.0</ele><time>2026-03-28T15:48:18.999Z</time></trkpt><trkpt lat="46.08977459177644" lon="1.3611970057396006"><ele>413.0</ele><time>2026-03-28T15:48:19.999Z</time></trkpt><trkpt lat="46.08966105061669" lon="1.3613236268918867"><ele>413.0</ele><time>2026-03-28T15:48:20.999Z</time></trkpt><trkpt lat="46.089554021317525" lon="1.3614641310641915"><ele>413.0</ele><time>2026-03-28T15:48:21.999Z</time></trkpt><trkpt lat="46.08944814954291" lon="1.361599191095998"><ele>411.5</ele><time>2026-03-28T15:48:22.999Z</time></trkpt><trkpt lat="46.089354374083015" lon="1.3617229094146932"><ele>410.0</ele><time>2026-03-28T15:48:23.999Z</time></trkpt><trkpt lat="46.08924985622179" lon="1.3618439649757086"><ele>408.5</ele><time>2026-03-28T15:48:24.999Z</time></trkpt><trkpt lat="46.08915141212536" lon="1.3619718161478265"><ele>407.0</ele><time>2026-03-28T15:48:25.999Z</time></trkpt><trkpt lat="46.0890517560442" lon="1.3621010911241334"><ele>407.20000000000005</ele><time>2026-03-28T15:48:26.999Z</time></trkpt><trkpt lat="46.08895549640535" lon="1.3622287770881691"><ele>407.4</ele><time>2026-03-28T15:48:27.999Z</time></trkpt><trkpt lat="46.08886304774812" lon="1.362336027542121"><ele>407.6</ele><time>2026-03-28T15:48:28.999Z</time></trkpt><trkpt lat="46.08878645739655" lon="1.3624289354221475"><ele>407.79999999999995</ele><time>2026-03-28T15:48:29.999Z</time></trkpt><trkpt lat="46.08872858826969" lon="1.3625134190914803"><ele>408.0</ele><time>2026-03-28T15:48:30.999Z</time></trkpt><trkpt lat="46.08868433927954" lon="1.3625898789363033"><ele>408.0</ele><time>2026-03-28T15:48:31.999Z</time></trkpt><trkpt lat="46.088632137541936" lon="1.3626551390617374"><ele>408.0</ele><time>2026-03-28T15:48:33.999Z</time></trkpt><trkpt lat="46.08873888946152" lon="1.362861495313451"><ele>408.0</ele><time>2026-03-28T15:48:34.999Z</time></trkpt><trkpt lat="46.08878907696671" lon="1.3630035974079926"><ele>408.0</ele><time>2026-03-28T15:48:35.999Z</time></trkpt><trkpt lat="46.08882359929763" lon="1.363163119457529"><ele>408.25</ele><time>2026-03-28T15:48:36.999Z</time></trkpt><trkpt lat="46.08883003269185" lon="1.363346037283432"><ele>408.5</ele><time>2026-03-28T15:48:37.999Z</time></trkpt><trkpt lat="46.08883169088411" lon="1.3635273566962889"><ele>408.75</ele><time>2026-03-28T15:48:38.999Z</time></trkpt><trkpt lat="46.088824719344174" lon="1.3637117787591597"><ele>409.0</ele><time>2026-03-28T15:48:39.999Z</time></trkpt><trkpt lat="46.08880573424671" lon="1.3638886429286818"><ele>409.2</ele><time>2026-03-28T15:48:41.999Z</time></trkpt><trkpt lat="46.08879791391463" lon="1.3640078148269166"><ele>409.4</ele><time>2026-03-28T15:48:42.999Z</time></trkpt><trkpt lat="46.08878919512065" lon="1.3641631714580753"><ele>409.6</ele><time>2026-03-28T15:48:43.999Z</time></trkpt><trkpt lat="46.088777451524585" lon="1.3643246891832317"><ele>409.8</ele><time>2026-03-28T15:48:44.999Z</time></trkpt><trkpt lat="46.088754826815006" lon="1.36447586371207"><ele>410.0</ele><time>2026-03-28T15:48:45.999Z</time></trkpt><trkpt lat="46.088716098376864" lon="1.364617689210318"><ele>409.6</ele><time>2026-03-28T15:48:46.999Z</time></trkpt><trkpt lat="46.08866160239733" lon="1.3647347926812456"><ele>409.2</ele><time>2026-03-28T15:48:47.999Z</time></trkpt><trkpt lat="46.08859371716322" lon="1.3648640846140947"><ele>408.79999999999995</ele><time>2026-03-28T15:48:48.999Z</time></trkpt><trkpt lat="46.08852224535117" lon="1.3649899937620553"><ele>408.4</ele><time>2026-03-28T15:48:49.999Z</time></trkpt><trkpt lat="46.08845926745458" lon="1.3651067735204239"><ele>408.0</ele><time>2026-03-28T15:48:50.999Z</time></trkpt><trkpt lat="46.08840943135959" lon="1.3652266831972997"><ele>408.0</ele><time>2026-03-28T15:48:51.999Z</time></trkpt><trkpt lat="46.08841022930379" lon="1.3653929118675727"><ele>408.0</ele><time>2026-03-28T15:48:52.999Z</time></trkpt><trkpt lat="46.088416898992705" lon="1.3655465958811248"><ele>408.0</ele><time>2026-03-28T15:48:53.999Z</time></trkpt><trkpt lat="46.08841282478764" lon="1.3657001556320822"><ele>408.0</ele><time>2026-03-28T15:48:54.999Z</time></trkpt><trkpt lat="46.088426956260804" lon="1.3658589042869875"><ele>408.0</ele><time>2026-03-28T15:48:55.999Z</time></trkpt><trkpt lat="46.08846224980689" lon="1.3660062286321855"><ele>408.0</ele><time>2026-03-28T15:48:56.999Z</time></trkpt><trkpt lat="46.08849574749445" lon="1.3661519988435895"><ele>408.0</ele><time>2026-03-28T15:48:57.999Z</time></trkpt><trkpt lat="46.08855639479403" lon="1.3662717191605402"><ele>408.0</ele><time>2026-03-28T15:48:58.999Z</time></trkpt><trkpt lat="46.08863830697916" lon="1.3663745558579712"><ele>408.0</ele><time>2026-03-28T15:48:59.999Z</time></trkpt><trkpt lat="46.08873839859553" lon="1.3664534240310295"><ele>408.0</ele><time>2026-03-28T15:49:00.999Z</time></trkpt><trkpt lat="46.088847385645856" lon="1.3665258492900045"><ele>409.25</ele><time>2026-03-28T15:49:01.999Z</time></trkpt><trkpt lat="46.088967915205686" lon="1.3666118086926062"><ele>410.5</ele><time>2026-03-28T15:49:02.999Z</time></trkpt><trkpt lat="46.0890942793198" lon="1.3667066741923082"><ele>411.75</ele><time>2026-03-28T15:49:03.999Z</time></trkpt><trkpt lat="46.08922321962005" lon="1.3668120283142635"><ele>413.0</ele><time>2026-03-28T15:49:04.999Z</time></trkpt><trkpt lat="46.08933902248186" lon="1.3668996566864207"><ele>413.0</ele><time>2026-03-28T15:49:05.999Z</time></trkpt><trkpt lat="46.08947504475247" lon="1.36696392939175"><ele>413.0</ele><time>2026-03-28T15:49:06.999Z</time></trkpt><trkpt lat="46.08959488632764" lon="1.367049274378464"><ele>413.0</ele><time>2026-03-28T15:49:07.999Z</time></trkpt><trkpt lat="46.08968951505719" lon="1.3671214520179271"><ele>413.0</ele><time>2026-03-28T15:49:08.998Z</time></trkpt><trkpt lat="46.08978413681038" lon="1.3671848521174768"><ele>413.79999999999995</ele><time>2026-03-28T15:49:09.998Z</time></trkpt><trkpt lat="46.089874037796584" lon="1.367271848995431"><ele>414.6</ele><time>2026-03-28T15:49:10.998Z</time></trkpt><trkpt lat="46.0899610672339" lon="1.3673362652263703"><ele>415.4</ele><time>2026-03-28T15:49:11.998Z</time></trkpt><trkpt lat="46.09003708241893" lon="1.3674066312868778"><ele>416.20000000000005</ele><time>2026-03-28T15:49:12.998Z</time></trkpt><trkpt lat="46.090113778839324" lon="1.3674691821206197"><ele>417.0</ele><time>2026-03-28T15:49:13.998Z</time></trkpt><trkpt lat="46.09018252585224" lon="1.3675380985783272"><ele>417.0</ele><time>2026-03-28T15:49:14.998Z</time></trkpt><trkpt lat="46.090246526708434" lon="1.3676095890038666"><ele>417.0</ele><time>2026-03-28T15:49:15.998Z</time></trkpt><trkpt lat="46.0903034892567" lon="1.3676765256073202"><ele>417.0</ele><time>2026-03-28T15:49:16.998Z</time></trkpt><trkpt lat="46.09036016395945" lon="1.3677438921224243"><ele>417.0</ele><time>2026-03-28T15:49:17.998Z</time></trkpt><trkpt lat="46.0904110435632" lon="1.3678118729897282"><ele>417.0</ele><time>2026-03-28T15:49:18.998Z</time></trkpt><trkpt lat="46.090461777803256" lon="1.367873623168331"><ele>417.0</ele><time>2026-03-28T15:49:19.998Z</time></trkpt><trkpt lat="46.09051050833991" lon="1.3679338619222778"><ele>417.0</ele><time>2026-03-28T15:49:20.998Z</time></trkpt><trkpt lat="46.09060197603026" lon="1.368033028061008"><ele>416.6</ele><time>2026-03-28T15:49:22.998Z</time></trkpt><trkpt lat="46.090686762605856" lon="1.368130379326756"><ele>416.20000000000005</ele><time>2026-03-28T15:49:24.998Z</time></trkpt><trkpt lat="46.09077742612284" lon="1.3682376392364135"><ele>415.8</ele><time>2026-03-28T15:49:26.998Z</time></trkpt><trkpt lat="46.090876618939376" lon="1.3683324638176846"><ele>415.4</ele><time>2026-03-28T15:49:28.998Z</time></trkpt><trkpt lat="46.090957507628694" lon="1.3684237611227408"><ele>415.0</ele><time>2026-03-28T15:49:30.998Z</time></trkpt><trkpt lat="46.090979398357476" lon="1.3685209330548334"><ele>415.00000000000006</ele><time>2026-03-28T15:49:32.998Z</time></trkpt><trkpt lat="46.09091734925453" lon="1.3686254596419882"><ele>415.0</ele><time>2026-03-28T15:49:34.998Z</time></trkpt><trkpt lat="46.09086089700453" lon="1.3687557588639991"><ele>415.0</ele><time>2026-03-28T15:49:36.998Z</time></trkpt><trkpt lat="46.09079897666652" lon="1.3688431919459165"><ele>415.0</ele><time>2026-03-28T15:49:38.998Z</time></trkpt><trkpt lat="46.09074765317977" lon="1.3688968793597887"><ele>415.00000000000006</ele><time>2026-03-28T15:49:40.998Z</time></trkpt><trkpt lat="46.090696154375955" lon="1.3689605254234134"><ele>415.0</ele><time>2026-03-28T15:49:45Z</time></trkpt><trkpt lat="46.09077909945298" lon="1.3690830061305146"><ele>416.2</ele><time>2026-03-28T15:49:46Z</time></trkpt><trkpt lat="46.090885460994784" lon="1.3691342689292472"><ele>417.4</ele><time>2026-03-28T15:49:48Z</time></trkpt><trkpt lat="46.09095879758882" lon="1.3692032072797125"><ele>418.6</ele><time>2026-03-28T15:49:50Z</time></trkpt><trkpt lat="46.09103834512497" lon="1.3692739576543251"><ele>419.8</ele><time>2026-03-28T15:49:52Z</time></trkpt><trkpt lat="46.091098528892424" lon="1.369365356010837"><ele>421.0</ele><time>2026-03-28T15:49:54Z</time></trkpt><trkpt lat="46.09116319789791" lon="1.3694672114201571"><ele>421.00000000000006</ele><time>2026-03-28T15:49:56Z</time></trkpt><trkpt lat="46.091211547078494" lon="1.369529777369137"><ele>421.0</ele><time>2026-03-28T15:49:58Z</time></trkpt><trkpt lat="46.091261830138244" lon="1.369642237167534"><ele>421.0</ele><time>2026-03-28T15:50:02Z</time></trkpt><trkpt lat="46.09130732760467" lon="1.369715848972948"><ele>421.0</ele><time>2026-03-28T15:50:05Z</time></trkpt><trkpt lat="46.09142401414918" lon="1.3697056626126562"><ele>421.00000000000006</ele><time>2026-03-28T15:50:08Z</time></trkpt><trkpt lat="46.09150448394344" lon="1.369626285445433"><ele>421.0</ele><time>2026-03-28T15:50:09Z</time></trkpt><trkpt lat="46.091605418980286" lon="1.3695446499238595"><ele>419.6666666666667</ele><time>2026-03-28T15:50:10Z</time></trkpt><trkpt lat="46.091746606159134" lon="1.3694852437181058"><ele>418.33333333333337</ele><time>2026-03-28T15:50:11Z</time></trkpt><trkpt lat="46.09188775325861" lon="1.3693879957910762"><ele>417.0</ele><time>2026-03-28T15:50:12Z</time></trkpt><trkpt lat="46.09203651957229" lon="1.3693194458713307"><ele>417.0</ele><time>2026-03-28T15:50:13Z</time></trkpt><trkpt lat="46.092184685229256" lon="1.369247874063002"><ele>417.0</ele><time>2026-03-28T15:50:14Z</time></trkpt><trkpt lat="46.09231108464701" lon="1.3691319083376656"><ele>417.0</ele><time>2026-03-28T15:50:15Z</time></trkpt><trkpt lat="46.09244175341525" lon="1.369025631655127"><ele>415.6</ele><time>2026-03-28T15:50:16Z</time></trkpt><trkpt lat="46.092542774139694" lon="1.368897991240169"><ele>414.20000000000005</ele><time>2026-03-28T15:50:17Z</time></trkpt><trkpt lat="46.092623111960435" lon="1.3688156960312932"><ele>412.8</ele><time>2026-03-28T15:50:18Z</time></trkpt><trkpt lat="46.09268459674192" lon="1.3687511384252882"><ele>411.4</ele><time>2026-03-28T15:50:19Z</time></trkpt><trkpt lat="46.092748903048204" lon="1.3687052054286108"><ele>410.0</ele><time>2026-03-28T15:50:20Z</time></trkpt><trkpt lat="46.09281474288759" lon="1.3686537377533794"><ele>410.0</ele><time>2026-03-28T15:50:21Z</time></trkpt><trkpt lat="46.09288068174649" lon="1.3686315779227403"><ele>410.0</ele><time>2026-03-28T15:50:22Z</time></trkpt><trkpt lat="46.093192524774175" lon="1.3680520675252177"><ele>410.3333333333333</ele><time>2026-03-28T15:50:27.999Z</time></trkpt><trkpt lat="46.093278028339796" lon="1.3679434675729836"><ele>410.66666666666663</ele><time>2026-03-28T15:50:29.999Z</time></trkpt><trkpt lat="46.09332614370256" lon="1.3678801011472013"><ele>411.0</ele><time>2026-03-28T15:50:30.999Z</time></trkpt><trkpt lat="46.0933779715729" lon="1.3678036170511907"><ele>411.33333333333337</ele><time>2026-03-28T15:50:31.999Z</time></trkpt><trkpt lat="46.09341628765994" lon="1.367707863427264"><ele>411.6666666666667</ele><time>2026-03-28T15:50:32.999Z</time></trkpt><trkpt lat="46.09344743114007" lon="1.367620153255393"><ele>412.0</ele><time>2026-03-28T15:50:33.999Z</time></trkpt><trkpt lat="46.09349339810075" lon="1.3675300527660776"><ele>412.00000000000006</ele><time>2026-03-28T15:50:34.999Z</time></trkpt><trkpt lat="46.09353437081754" lon="1.3674330798253622"><ele>412.0</ele><time>2026-03-28T15:50:35.999Z</time></trkpt><trkpt lat="46.093568320894526" lon="1.3673343704069938"><ele>412.0</ele><time>2026-03-28T15:50:36.999Z</time></trkpt><trkpt lat="46.09362026925084" lon="1.3672447717960736"><ele>412.0</ele><time>2026-03-28T15:50:37.999Z</time></trkpt><trkpt lat="46.09367069594191" lon="1.3671614530251053"><ele>412.00000000000006</ele><time>2026-03-28T15:50:38.999Z</time></trkpt><trkpt lat="46.0937187752861" lon="1.3670890567692788"><ele>412.0</ele><time>2026-03-28T15:50:39.999Z</time></trkpt><trkpt lat="46.0937641689548" lon="1.36699576810403"><ele>411.6</ele><time>2026-03-28T15:50:40.999Z</time></trkpt><trkpt lat="46.09382060820233" lon="1.3669246329105202"><ele>411.20000000000005</ele><time>2026-03-28T15:50:41.999Z</time></trkpt><trkpt lat="46.09389663714457" lon="1.3667871148687405"><ele>410.8</ele><time>2026-03-28T15:50:43.999Z</time></trkpt><trkpt lat="46.09398914644339" lon="1.3666588864719216"><ele>410.4</ele><time>2026-03-28T15:50:45.999Z</time></trkpt><trkpt lat="46.094051016159376" lon="1.3665475173635417"><ele>410.0</ele><time>2026-03-28T15:50:47.999Z</time></trkpt><trkpt lat="46.094109207226374" lon="1.3664873424964323"><ele>408.8333333333333</ele><time>2026-03-28T15:50:49.999Z</time></trkpt><trkpt lat="46.094200935316906" lon="1.3664422379061743"><ele>407.66666666666663</ele><time>2026-03-28T15:50:53.999Z</time></trkpt><trkpt lat="46.09431663991176" lon="1.366485875015871"><ele>406.5</ele><time>2026-03-28T15:50:55.999Z</time></trkpt><trkpt lat="46.09438567036708" lon="1.366492637329068"><ele>405.33333333333337</ele><time>2026-03-28T15:50:56.999Z</time></trkpt><trkpt lat="46.094461494671364" lon="1.3664934775915987"><ele>404.1666666666667</ele><time>2026-03-28T15:50:57.999Z</time></trkpt><trkpt lat="46.09453076260351" lon="1.3665055063360623"><ele>403.0</ele><time>2026-03-28T15:50:58.999Z</time></trkpt><trkpt lat="46.0945934046053" lon="1.3665315795746162"><ele>403.0</ele><time>2026-03-28T15:50:59.999Z</time></trkpt><trkpt lat="46.094710267330775" lon="1.3665322401829976"><ele>403.0</ele><time>2026-03-28T15:51:01.999Z</time></trkpt><trkpt lat="46.09482703539951" lon="1.3665207028415722"><ele>403.0</ele><time>2026-03-28T15:51:03.999Z</time></trkpt><trkpt lat="46.09493356238059" lon="1.3665130903724836"><ele>403.0</ele><time>2026-03-28T15:51:05.999Z</time></trkpt><trkpt lat="46.09501447327211" lon="1.3664907312733972"><ele>403.0</ele><time>2026-03-28T15:51:07.999Z</time></trkpt><trkpt lat="46.09509062109988" lon="1.3663742940514014"><ele>403.0</ele><time>2026-03-28T15:51:09.999Z</time></trkpt><trkpt lat="46.09515285454401" lon="1.3663209378109022"><ele>403.0</ele><time>2026-03-28T15:51:10.999Z</time></trkpt><trkpt lat="46.09521922204031" lon="1.3663170424320117"><ele>403.0</ele><time>2026-03-28T15:51:11.999Z</time></trkpt><trkpt lat="46.09530713386448" lon="1.3663323094229411"><ele>403.0</ele><time>2026-03-28T15:51:12.999Z</time></trkpt><trkpt lat="46.09537191705009" lon="1.3663487902346927"><ele>403.0</ele><time>2026-03-28T15:51:13.999Z</time></trkpt><trkpt lat="46.0954493841694" lon="1.3663577499907205"><ele>403.0</ele><time>2026-03-28T15:51:14.999Z</time></trkpt><trkpt lat="46.09551387975411" lon="1.3663781618877873"><ele>403.0</ele><time>2026-03-28T15:51:15.999Z</time></trkpt><trkpt lat="46.09557010757103" lon="1.3664333697327962"><ele>403.0</ele><time>2026-03-28T15:51:16.999Z</time></trkpt><trkpt lat="46.09564148513493" lon="1.3664510747680934"><ele>403.0</ele><time>2026-03-28T15:51:17.998Z</time></trkpt><trkpt lat="46.09571825443524" lon="1.3664849089049895"><ele>403.0</ele><time>2026-03-28T15:51:18.998Z</time></trkpt><trkpt lat="46.095845181700305" lon="1.366504668763595"><ele>403.0</ele><time>2026-03-28T15:51:20.998Z</time></trkpt><trkpt lat="46.095919932091434" lon="1.3665756289827584"><ele>403.0</ele><time>2026-03-28T15:51:22.998Z</time></trkpt><trkpt lat="46.09591596829846" lon="1.3667126480993848"><ele>402.42857142857144</ele><time>2026-03-28T15:51:24.998Z</time></trkpt><trkpt lat="46.09593810527958" lon="1.366800466241217"><ele>401.85714285714283</ele><time>2026-03-28T15:51:25.998Z</time></trkpt><trkpt lat="46.0959593205364" lon="1.3668948543726844"><ele>401.2857142857143</ele><time>2026-03-28T15:51:26.998Z</time></trkpt><trkpt lat="46.0959866267804" lon="1.3670116906445455"><ele>400.7142857142857</ele><time>2026-03-28T15:51:27.998Z</time></trkpt><trkpt lat="46.09600236709742" lon="1.367115703204824"><ele>400.1428571428571</ele><time>2026-03-28T15:51:28.998Z</time></trkpt><trkpt lat="46.096013660069296" lon="1.3672213893600422"><ele>399.57142857142856</ele><time>2026-03-28T15:51:29.998Z</time></trkpt><trkpt lat="46.0960356801897" lon="1.3673245643858905"><ele>399.0</ele><time>2026-03-28T15:51:30.998Z</time></trkpt><trkpt lat="46.09605844974901" lon="1.3674987827808691"><ele>399.0</ele><time>2026-03-28T15:51:32.998Z</time></trkpt><trkpt lat="46.096091050046965" lon="1.3676276444083542"><ele>399.0</ele><time>2026-03-28T15:51:34.998Z</time></trkpt><trkpt lat="46.09616477758468" lon="1.3677755869798087"><ele>399.0</ele><time>2026-03-28T15:51:36.998Z</time></trkpt><trkpt lat="46.09622963055147" lon="1.3678892115890102"><ele>399.0</ele><time>2026-03-28T15:51:38.998Z</time></trkpt><trkpt lat="46.09634252332568" lon="1.367953146541612"><ele>399.0</ele><time>2026-03-28T15:51:40.998Z</time></trkpt><trkpt lat="46.09646388127342" lon="1.3679921772742625"><ele>398.79999999999995</ele><time>2026-03-28T15:51:42.998Z</time></trkpt><trkpt lat="46.096566897839416" lon="1.3680879524040679"><ele>398.59999999999997</ele><time>2026-03-28T15:51:44.998Z</time></trkpt><trkpt lat="46.09663474624109" lon="1.3681342632443783"><ele>398.4</ele><time>2026-03-28T15:51:45.998Z</time></trkpt><trkpt lat="46.096692548941974" lon="1.368171691498656"><ele>398.2</ele><time>2026-03-28T15:51:46.998Z</time></trkpt><trkpt lat="46.09680578577834" lon="1.3682074690556345"><ele>398.0</ele><time>2026-03-28T15:51:48.998Z</time></trkpt><trkpt lat="46.096915696799705" lon="1.368192408930874"><ele>397.3333333333333</ele><time>2026-03-28T15:51:51Z</time></trkpt><trkpt lat="46.09697251346542" lon="1.3681418369797491"><ele>396.66666666666663</ele><time>2026-03-28T15:51:52Z</time></trkpt><trkpt lat="46.09708412178172" lon="1.3680739233196733"><ele>396.0</ele><time>2026-03-28T15:51:54Z</time></trkpt><trkpt lat="46.09715196759694" lon="1.3680446327367883"><ele>395.33333333333337</ele><time>2026-03-28T15:51:55Z</time></trkpt><trkpt lat="46.09726786360933" lon="1.3679996165574546"><ele>394.6666666666667</ele><time>2026-03-28T15:51:57Z</time></trkpt><trkpt lat="46.097318154077556" lon="1.3679355581703077"><ele>394.0</ele><time>2026-03-28T15:51:58Z</time></trkpt><trkpt lat="46.09740943259191" lon="1.3679107148932985"><ele>393.4</ele><time>2026-03-28T15:51:59Z</time></trkpt><trkpt lat="46.09753900528301" lon="1.367888555121584"><ele>392.79999999999995</ele><time>2026-03-28T15:52:01Z</time></trkpt><trkpt lat="46.09762008015097" lon="1.3679341316628908"><ele>392.20000000000005</ele><time>2026-03-28T15:52:03Z</time></trkpt><trkpt lat="46.09772241011232" lon="1.3679997539251691"><ele>391.6</ele><time>2026-03-28T15:52:05Z</time></trkpt><trkpt lat="46.09783015595967" lon="1.368032679397385"><ele>391.0</ele><time>2026-03-28T15:52:07Z</time></trkpt><trkpt lat="46.09792293641119" lon="1.3680377472697633"><ele>389.20000000000005</ele><time>2026-03-28T15:52:09Z</time></trkpt><trkpt lat="46.09800324464195" lon="1.3679880014988586"><ele>387.40000000000003</ele><time>2026-03-28T15:52:11Z</time></trkpt><trkpt lat="46.098077449029994" lon="1.3678846831441644"><ele>385.6</ele><time>2026-03-28T15:52:13Z</time></trkpt><trkpt lat="46.09817663456544" lon="1.3679033581261526"><ele>383.8</ele><time>2026-03-28T15:52:15Z</time></trkpt><trkpt lat="46.098284672570955" lon="1.3679205213629904"><ele>382.0</ele><time>2026-03-28T15:52:17Z</time></trkpt><trkpt lat="46.098348656193735" lon="1.3679246001925682"><ele>382.6</ele><time>2026-03-28T15:52:18Z</time></trkpt><trkpt lat="46.09844556508411" lon="1.3679390339641186"><ele>383.20000000000005</ele><time>2026-03-28T15:52:20Z</time></trkpt><trkpt lat="46.09853848562098" lon="1.3680029086835732"><ele>383.8</ele><time>2026-03-28T15:52:22Z</time></trkpt><trkpt lat="46.09863973702368" lon="1.3680185577967605"><ele>384.4</ele><time>2026-03-28T15:52:24Z</time></trkpt><trkpt lat="46.09869921489887" lon="1.368056687642242"><ele>385.0</ele><time>2026-03-28T15:52:25Z</time></trkpt><trkpt lat="46.098807168974055" lon="1.3681111866109696"><ele>385.0</ele><time>2026-03-28T15:52:27Z</time></trkpt><trkpt lat="46.09892038148181" lon="1.368119533794422"><ele>385.0</ele><time>2026-03-28T15:52:28.999Z</time></trkpt><trkpt lat="46.09902791414272" lon="1.3681854767216342"><ele>385.0</ele><time>2026-03-28T15:52:30.999Z</time></trkpt><trkpt lat="46.09912388732192" lon="1.3682550343320745"><ele>385.0</ele><time>2026-03-28T15:52:32.999Z</time></trkpt><trkpt lat="46.09922381524176" lon="1.3682623801840021"><ele>385.0</ele><time>2026-03-28T15:52:34.999Z</time></trkpt><trkpt lat="46.099289739528544" lon="1.3682828576270838"><ele>383.6</ele><time>2026-03-28T15:52:35.999Z</time></trkpt><trkpt lat="46.099388198750816" lon="1.3683309678151407"><ele>382.2</ele><time>2026-03-28T15:52:37.999Z</time></trkpt><trkpt lat="46.09951480514388" lon="1.3683638682101742"><ele>380.79999999999995</ele><time>2026-03-28T15:52:39.999Z</time></trkpt><trkpt lat="46.09960702448614" lon="1.3683713242961029"><ele>379.4</ele><time>2026-03-28T15:52:41.999Z</time></trkpt><trkpt lat="46.09971719787559" lon="1.3683714841780221"><ele>378.0</ele><time>2026-03-28T15:52:43.999Z</time></trkpt><trkpt lat="46.09979510534335" lon="1.3683162412398655"><ele>378.0</ele><time>2026-03-28T15:52:45.999Z</time></trkpt><trkpt lat="46.09985045071441" lon="1.3682080051502379"><ele>378.0</ele><time>2026-03-28T15:52:47.999Z</time></trkpt><trkpt lat="46.09991425023009" lon="1.3681112145692378"><ele>378.0</ele><time>2026-03-28T15:52:49.999Z</time></trkpt><trkpt lat="46.099948287336744" lon="1.3680304543572908"><ele>378.0</ele><time>2026-03-28T15:52:51.999Z</time></trkpt><trkpt lat="46.099991164368674" lon="1.3679407380304176"><ele>378.0</ele><time>2026-03-28T15:52:53.999Z</time></trkpt><trkpt lat="46.10004071658211" lon="1.3678799387157503"><ele>378.0</ele><time>2026-03-28T15:52:55.999Z</time></trkpt><trkpt lat="46.10009608581944" lon="1.3678157998514593"><ele>375.8333333333333</ele><time>2026-03-28T15:52:57.999Z</time></trkpt><trkpt lat="46.10014426980249" lon="1.3677143007181807"><ele>373.6666666666667</ele><time>2026-03-28T15:52:59.999Z</time></trkpt><trkpt lat="46.10020601155599" lon="1.367660898560033"><ele>371.5</ele><time>2026-03-28T15:53:01.999Z</time></trkpt><trkpt lat="46.10028079666758" lon="1.3675583007965473"><ele>369.33333333333337</ele><time>2026-03-28T15:53:03.999Z</time></trkpt><trkpt lat="46.10033016010282" lon="1.3674878009012728"><ele>367.1666666666667</ele><time>2026-03-28T15:53:05.999Z</time></trkpt><trkpt lat="46.100412933608354" lon="1.367430167913789"><ele>365.0</ele><time>2026-03-28T15:53:08.999Z</time></trkpt><trkpt lat="46.1004928578518" lon="1.3673174254350495"><ele>365.0</ele><time>2026-03-28T15:53:11.999Z</time></trkpt><trkpt lat="46.100542963926436" lon="1.3671944089116355"><ele>365.0</ele><time>2026-03-28T15:53:13.999Z</time></trkpt><trkpt lat="46.10062400895416" lon="1.3672083476340273"><ele>365.0</ele><time>2026-03-28T15:53:18.999Z</time></trkpt><trkpt lat="46.10070645864491" lon="1.3672986271943333"><ele>365.0</ele><time>2026-03-28T15:53:20.999Z</time></trkpt><trkpt lat="46.10078938517447" lon="1.3673356625905229"><ele>365.0</ele><time>2026-03-28T15:53:22.998Z</time></trkpt><trkpt lat="46.100868708145654" lon="1.3674184727215601"><ele>363.33333333333337</ele><time>2026-03-28T15:53:25.998Z</time></trkpt><trkpt lat="46.10091161431353" lon="1.3674855321375832"><ele>361.6666666666667</ele><time>2026-03-28T15:53:27.998Z</time></trkpt><trkpt lat="46.100971840352095" lon="1.3675487660822006"><ele>360.0</ele><time>2026-03-28T15:53:30.998Z</time></trkpt><trkpt lat="46.10101183959872" lon="1.3676193248813098"><ele>358.3333333333333</ele><time>2026-03-28T15:53:32.998Z</time></trkpt><trkpt lat="46.101086106569205" lon="1.367698525022847"><ele>356.66666666666663</ele><time>2026-03-28T15:53:34.998Z</time></trkpt><trkpt lat="46.10115325817857" lon="1.3677562986323553"><ele>355.0</ele><time>2026-03-28T15:53:36.998Z</time></trkpt><trkpt lat="46.101249650999726" lon="1.3678454759805192"><ele>355.0</ele><time>2026-03-28T15:53:38.998Z</time></trkpt><trkpt lat="46.10132522363953" lon="1.367915608672803"><ele>355.0</ele><time>2026-03-28T15:53:39.998Z</time></trkpt><trkpt lat="46.101406554501835" lon="1.367965021349436"><ele>355.0</ele><time>2026-03-28T15:53:40.998Z</time></trkpt><trkpt lat="46.1014672207594" lon="1.367991025551912"><ele>355.0</ele><time>2026-03-28T15:53:41.998Z</time></trkpt><trkpt lat="46.10155704647277" lon="1.368088815470138"><ele>355.0</ele><time>2026-03-28T15:53:43.998Z</time></trkpt><trkpt lat="46.101618629041425" lon="1.3681641659320174"><ele>355.0</ele><time>2026-03-28T15:53:44.998Z</time></trkpt><trkpt lat="46.10169362782063" lon="1.3682216996895373"><ele>355.5</ele><time>2026-03-28T15:53:45.998Z</time></trkpt><trkpt lat="46.101750491646214" lon="1.3682997500347194"><ele>356.0</ele><time>2026-03-28T15:53:46.998Z</time></trkpt><trkpt lat="46.101788109740866" lon="1.3683981454184482"><ele>356.5</ele><time>2026-03-28T15:53:47.998Z</time></trkpt><trkpt lat="46.101813675541955" lon="1.3685023476163707"><ele>357.0</ele><time>2026-03-28T15:53:48.998Z</time></trkpt><trkpt lat="46.10181261502004" lon="1.3686179400814038"><ele>357.5</ele><time>2026-03-28T15:53:49.998Z</time></trkpt><trkpt lat="46.10179536357046" lon="1.3687231924608168"><ele>358.0</ele><time>2026-03-28T15:53:50.998Z</time></trkpt><trkpt lat="46.10177298672969" lon="1.368844075234379"><ele>359.66666666666663</ele><time>2026-03-28T15:53:51.998Z</time></trkpt><trkpt lat="46.101743057538705" lon="1.3689594982740216"><ele>361.3333333333333</ele><time>2026-03-28T15:53:52.998Z</time></trkpt><trkpt lat="46.10170947358721" lon="1.3690655118675346"><ele>363.0</ele><time>2026-03-28T15:53:53.998Z</time></trkpt><trkpt lat="46.1016791400307" lon="1.369167628675298"><ele>364.6666666666667</ele><time>2026-03-28T15:53:54.998Z</time></trkpt><trkpt lat="46.10166266368666" lon="1.3693093491315937"><ele>366.33333333333337</ele><time>2026-03-28T15:53:57Z</time></trkpt><trkpt lat="46.10170759108102" lon="1.3693929246936656"><ele>368.0</ele><time>2026-03-28T15:53:58Z</time></trkpt><trkpt lat="46.10177137486538" lon="1.3695232379853934"><ele>368.0</ele><time>2026-03-28T15:54:00Z</time></trkpt><trkpt lat="46.101810172221015" lon="1.369606750000032"><ele>368.0</ele><time>2026-03-28T15:54:01Z</time></trkpt><trkpt lat="46.101874638220956" lon="1.369678153353095"><ele>368.0</ele><time>2026-03-28T15:54:02Z</time></trkpt><trkpt lat="46.10195621824692" lon="1.3697230288583098"><ele>368.0</ele><time>2026-03-28T15:54:03Z</time></trkpt><trkpt lat="46.10204080179068" lon="1.3697450638808137"><ele>368.0</ele><time>2026-03-28T15:54:04Z</time></trkpt><trkpt lat="46.102126873600994" lon="1.3697497645287475"><ele>368.0</ele><time>2026-03-28T15:54:05Z</time></trkpt><trkpt lat="46.10220067415301" lon="1.3697528593939552"><ele>368.0</ele><time>2026-03-28T15:54:06Z</time></trkpt><trkpt lat="46.10227501491788" lon="1.3697483069754623"><ele>368.0</ele><time>2026-03-28T15:54:07Z</time></trkpt><trkpt lat="46.10235416044038" lon="1.369823077932306"><ele>368.0</ele><time>2026-03-28T15:54:09Z</time></trkpt><trkpt lat="46.10241077571273" lon="1.3699802970289219"><ele>368.0</ele><time>2026-03-28T15:54:12Z</time></trkpt><trkpt lat="46.102393174301504" lon="1.370098988993758"><ele>368.0</ele><time>2026-03-28T15:54:13Z</time></trkpt><trkpt lat="46.102403904778164" lon="1.370221096471094"><ele>368.0</ele><time>2026-03-28T15:54:14Z</time></trkpt><trkpt lat="46.10241403003605" lon="1.3703595455679005"><ele>368.0</ele><time>2026-03-28T15:54:15Z</time></trkpt><trkpt lat="46.102428916416784" lon="1.370494590682774"><ele>368.0</ele><time>2026-03-28T15:54:16Z</time></trkpt><trkpt lat="46.1024411744157" lon="1.3706245081766262"><ele>368.0</ele><time>2026-03-28T15:54:17Z</time></trkpt><trkpt lat="46.10244618122384" lon="1.3707470113741191"><ele>368.0</ele><time>2026-03-28T15:54:18Z</time></trkpt><trkpt lat="46.102478263196694" lon="1.3708764195892404"><ele>367.5</ele><time>2026-03-28T15:54:19Z</time></trkpt><trkpt lat="46.1024828698748" lon="1.3710026543007383"><ele>367.0</ele><time>2026-03-28T15:54:20Z</time></trkpt><trkpt lat="46.102480216532506" lon="1.3711201968550097"><ele>366.5</ele><time>2026-03-28T15:54:21Z</time></trkpt><trkpt lat="46.102491314419424" lon="1.3712303582624403"><ele>366.0</ele><time>2026-03-28T15:54:22Z</time></trkpt><trkpt lat="46.10250127091547" lon="1.3713321855699665"><ele>365.5</ele><time>2026-03-28T15:54:23Z</time></trkpt><trkpt lat="46.102523952245356" lon="1.3714439271505576"><ele>365.0</ele><time>2026-03-28T15:54:24Z</time></trkpt><trkpt lat="46.10255222836965" lon="1.3715530348811225"><ele>366.2</ele><time>2026-03-28T15:54:25Z</time></trkpt><trkpt lat="46.10257655431221" lon="1.3716582082168285"><ele>367.4</ele><time>2026-03-28T15:54:26Z</time></trkpt><trkpt lat="46.10260247946106" lon="1.3717790926145437"><ele>368.6</ele><time>2026-03-28T15:54:27Z</time></trkpt><trkpt lat="46.10263185802409" lon="1.3719088931835086"><ele>369.8</ele><time>2026-03-28T15:54:28Z</time></trkpt><trkpt lat="46.10265464661465" lon="1.3720540151719145"><ele>371.0</ele><time>2026-03-28T15:54:29Z</time></trkpt><trkpt lat="46.10269098202085" lon="1.3722088252470646"><ele>371.25</ele><time>2026-03-28T15:54:30Z</time></trkpt><trkpt lat="46.10271814311483" lon="1.3723682623146825"><ele>371.5</ele><time>2026-03-28T15:54:31Z</time></trkpt><trkpt lat="46.102730453652136" lon="1.3725354306447468"><ele>371.75</ele><time>2026-03-28T15:54:32Z</time></trkpt><trkpt lat="46.10274253260459" lon="1.3726992731061265"><ele>372.0</ele><time>2026-03-28T15:54:33Z</time></trkpt><trkpt lat="46.10274768134157" lon="1.3728652621833162"><ele>372.0</ele><time>2026-03-28T15:54:34Z</time></trkpt><trkpt lat="46.102746142137896" lon="1.3730022650841363"><ele>372.0</ele><time>2026-03-28T15:54:35Z</time></trkpt><trkpt lat="46.10274199947026" lon="1.3731266534234239"><ele>372.0</ele><time>2026-03-28T15:54:36Z</time></trkpt><trkpt lat="46.102733994678516" lon="1.3732406382036153"><ele>372.0</ele><time>2026-03-28T15:54:36.999Z</time></trkpt><trkpt lat="46.10272148172743" lon="1.373388412915656"><ele>372.0</ele><time>2026-03-28T15:54:38.999Z</time></trkpt><trkpt lat="46.10270579403348" lon="1.3734908171212754"><ele>372.0</ele><time>2026-03-28T15:54:41.999Z</time></trkpt><trkpt lat="46.10270902216617" lon="1.3735861551079296"><ele>371.25</ele><time>2026-03-28T15:55:16.999Z</time></trkpt><trkpt lat="46.10268814637172" lon="1.3737097792498667"><ele>370.5</ele><time>2026-03-28T15:56:00.998Z</time></trkpt><trkpt lat="46.10261645220846" lon="1.373827493709401"><ele>369.75</ele><time>2026-03-28T15:56:03Z</time></trkpt><trkpt lat="46.10254732510044" lon="1.3739768024533388"><ele>369.0</ele><time>2026-03-28T15:56:05Z</time></trkpt><trkpt lat="46.10247409790777" lon="1.3741359384066771"><ele>368.1666666666667</ele><time>2026-03-28T15:56:07Z</time></trkpt><trkpt lat="46.10243209338425" lon="1.3742222935040627"><ele>367.3333333333333</ele><time>2026-03-28T15:56:08Z</time></trkpt><trkpt lat="46.10239869516008" lon="1.3743031394613592"><ele>366.5</ele><time>2026-03-28T15:56:09Z</time></trkpt><trkpt lat="46.10235949609431" lon="1.3743769827708365"><ele>365.66666666666663</ele><time>2026-03-28T15:56:10Z</time></trkpt><trkpt lat="46.10229312450365" lon="1.3745050452277647"><ele>364.8333333333333</ele><time>2026-03-28T15:56:12Z</time></trkpt><trkpt lat="46.10223828270154" lon="1.3746040571358464"><ele>364.0</ele><time>2026-03-28T15:56:14Z</time></trkpt><trkpt lat="46.10221213790431" lon="1.3747108297846076"><ele>363.5</ele><time>2026-03-28T15:56:18Z</time></trkpt><trkpt lat="46.10223114685413" lon="1.3748087052280829"><ele>363.0</ele><time>2026-03-28T15:56:20Z</time></trkpt><trkpt lat="46.10228767691837" lon="1.3748865668223893"><ele>362.5</ele><time>2026-03-28T15:56:24Z</time></trkpt><trkpt lat="46.10239366471133" lon="1.3749264311839156"><ele>362.0</ele><time>2026-03-28T15:56:26Z</time></trkpt><trkpt lat="46.10246472713492" lon="1.3748992800598625"><ele>361.5</ele><time>2026-03-28T15:56:27Z</time></trkpt><trkpt lat="46.10253146081863" lon="1.3748508377829147"><ele>361.0</ele><time>2026-03-28T15:56:28Z</time></trkpt><trkpt lat="46.10261541101134" lon="1.3748102043036694"><ele>361.0</ele><time>2026-03-28T15:56:29Z</time></trkpt><trkpt lat="46.102709034364686" lon="1.3747796334938527"><ele>361.0</ele><time>2026-03-28T15:56:30Z</time></trkpt><trkpt lat="46.102809457848906" lon="1.3747491309808848"><ele>361.0</ele><time>2026-03-28T15:56:31Z</time></trkpt><trkpt lat="46.10292116329193" lon="1.3747173667608046"><ele>361.0</ele><time>2026-03-28T15:56:32Z</time></trkpt><trkpt lat="46.10303173446145" lon="1.3746849138388328"><ele>361.0</ele><time>2026-03-28T15:56:33Z</time></trkpt><trkpt lat="46.10314091803813" lon="1.3746451642787012"><ele>360.8</ele><time>2026-03-28T15:56:34Z</time></trkpt><trkpt lat="46.103250234460916" lon="1.3745947291871297"><ele>360.6</ele><time>2026-03-28T15:56:35Z</time></trkpt><trkpt lat="46.10335498999071" lon="1.3745341310823906"><ele>360.4</ele><time>2026-03-28T15:56:36Z</time></trkpt><trkpt lat="46.10344152877421" lon="1.3744397214194297"><ele>360.2</ele><time>2026-03-28T15:56:37Z</time></trkpt><trkpt lat="46.103526428980835" lon="1.3743323681755872"><ele>360.0</ele><time>2026-03-28T15:56:38Z</time></trkpt><trkpt lat="46.10362612037634" lon="1.3742460666753853"><ele>360.0</ele><time>2026-03-28T15:56:39Z</time></trkpt><trkpt lat="46.10370644551709" lon="1.3741157732326525"><ele>360.0</ele><time>2026-03-28T15:56:40Z</time></trkpt><trkpt lat="46.10377960388157" lon="1.3739720699844065"><ele>360.0</ele><time>2026-03-28T15:56:41Z</time></trkpt><trkpt lat="46.103878450253234" lon="1.3738411215016628"><ele>360.0</ele><time>2026-03-28T15:56:42Z</time></trkpt><trkpt lat="46.10396601157893" lon="1.3737051591891187"><ele>360.5</ele><time>2026-03-28T15:56:42.999Z</time></trkpt><trkpt lat="46.104058516375545" lon="1.3735570590302655"><ele>361.0</ele><time>2026-03-28T15:56:43.999Z</time></trkpt><trkpt lat="46.10415354102184" lon="1.373419856774478"><ele>361.5</ele><time>2026-03-28T15:56:44.999Z</time></trkpt><trkpt lat="46.104242269695256" lon="1.3732923955541507"><ele>362.0</ele><time>2026-03-28T15:56:45.999Z</time></trkpt><trkpt lat="46.104349747418865" lon="1.3731885098220706"><ele>359.0</ele><time>2026-03-28T15:56:46.999Z</time></trkpt><trkpt lat="46.10446732242084" lon="1.3731045868839953"><ele>356.0</ele><time>2026-03-28T15:56:47.999Z</time></trkpt><trkpt lat="46.10458031758082" lon="1.373039766534422"><ele>353.0</ele><time>2026-03-28T15:56:48.999Z</time></trkpt><trkpt lat="46.10470991820335" lon="1.37298190756478"><ele>350.0</ele><time>2026-03-28T15:56:49.999Z</time></trkpt><trkpt lat="46.104850105090584" lon="1.372924270293912"><ele>347.75</ele><time>2026-03-28T15:56:50.999Z</time></trkpt><trkpt lat="46.10499567381585" lon="1.372873743086301"><ele>345.5</ele><time>2026-03-28T15:56:51.999Z</time></trkpt><trkpt lat="46.10513535320888" lon="1.372829702961936"><ele>343.25</ele><time>2026-03-28T15:56:52.999Z</time></trkpt><trkpt lat="46.10526647034289" lon="1.3727653205174206"><ele>341.0</ele><time>2026-03-28T15:56:53.999Z</time></trkpt><trkpt lat="46.10539058933304" lon="1.37269003905757"><ele>341.0</ele><time>2026-03-28T15:56:54.999Z</time></trkpt><trkpt lat="46.10551656585866" lon="1.3726066789049027"><ele>341.0</ele><time>2026-03-28T15:56:55.999Z</time></trkpt><trkpt lat="46.1056266919526" lon="1.3725089569126636"><ele>341.0</ele><time>2026-03-28T15:56:56.999Z</time></trkpt><trkpt lat="46.10574834291746" lon="1.3723925788279967"><ele>341.0</ele><time>2026-03-28T15:56:57.999Z</time></trkpt><trkpt lat="46.10583886540765" lon="1.3722428425500062"><ele>339.75</ele><time>2026-03-28T15:56:58.999Z</time></trkpt><trkpt lat="46.1059125322553" lon="1.3720721783586156"><ele>338.5</ele><time>2026-03-28T15:56:59.999Z</time></trkpt><trkpt lat="46.1059873841309" lon="1.3719086852123081"><ele>337.25</ele><time>2026-03-28T15:57:00.999Z</time></trkpt><trkpt lat="46.1060612037264" lon="1.371736632504666"><ele>336.0</ele><time>2026-03-28T15:57:01.999Z</time></trkpt><trkpt lat="46.10614723105121" lon="1.3715732042332995"><ele>336.0</ele><time>2026-03-28T15:57:02.999Z</time></trkpt><trkpt lat="46.10624045756338" lon="1.371420951028786"><ele>336.0</ele><time>2026-03-28T15:57:03.999Z</time></trkpt><trkpt lat="46.10632367690636" lon="1.3712559044863721"><ele>336.0</ele><time>2026-03-28T15:57:04.999Z</time></trkpt><trkpt lat="46.106398743344414" lon="1.371103319895293"><ele>336.0</ele><time>2026-03-28T15:57:05.999Z</time></trkpt><trkpt lat="46.10647061125445" lon="1.3709572368137786"><ele>335.0</ele><time>2026-03-28T15:57:06.999Z</time></trkpt><trkpt lat="46.10654075311357" lon="1.3708146624193014"><ele>334.0</ele><time>2026-03-28T15:57:07.999Z</time></trkpt><trkpt lat="46.10661089051702" lon="1.3706725209288364"><ele>333.0</ele><time>2026-03-28T15:57:08.999Z</time></trkpt><trkpt lat="46.10667055112027" lon="1.3705114326835606"><ele>332.0</ele><time>2026-03-28T15:57:09.999Z</time></trkpt><trkpt lat="46.106733443484345" lon="1.370375044790984"><ele>331.0</ele><time>2026-03-28T15:57:10.999Z</time></trkpt><trkpt lat="46.10679273318259" lon="1.3702485493434111"><ele>330.0</ele><time>2026-03-28T15:57:11.999Z</time></trkpt><trkpt lat="46.106841637925335" lon="1.370141550793451"><ele>329.0</ele><time>2026-03-28T15:57:12.999Z</time></trkpt><trkpt lat="46.10687987049341" lon="1.3700533553690797"><ele>328.0</ele><time>2026-03-28T15:57:13.999Z</time></trkpt><trkpt lat="46.10693580249547" lon="1.3700006585296371"><ele>327.0</ele><time>2026-03-28T15:57:14.999Z</time></trkpt><trkpt lat="46.10707636914441" lon="1.370186091444605"><ele>327.0</ele><time>2026-03-28T15:57:17.999Z</time></trkpt><trkpt lat="46.10714080915855" lon="1.3702770715914345"><ele>327.0</ele><time>2026-03-28T15:57:18.999Z</time></trkpt><trkpt lat="46.10725686292715" lon="1.3704323810499248"><ele>327.0</ele><time>2026-03-28T15:57:19.999Z</time></trkpt><trkpt lat="46.107350067232964" lon="1.3705900985196133"><ele>327.0</ele><time>2026-03-28T15:57:20.999Z</time></trkpt><trkpt lat="46.10744806373646" lon="1.3707625755152426"><ele>328.0</ele><time>2026-03-28T15:57:21.999Z</time></trkpt><trkpt lat="46.107548419619704" lon="1.3709511066608748"><ele>329.0</ele><time>2026-03-28T15:57:22.999Z</time></trkpt><trkpt lat="46.10764576010114" lon="1.371140960812158"><ele>330.0</ele><time>2026-03-28T15:57:23.999Z</time></trkpt><trkpt lat="46.10773643768996" lon="1.3712952590244518"><ele>330.75</ele><time>2026-03-28T15:57:24.999Z</time></trkpt><trkpt lat="46.107809225455725" lon="1.3714375321612047"><ele>331.5</ele><time>2026-03-28T15:57:25.999Z</time></trkpt><trkpt lat="46.10786028715331" lon="1.3715507732761683"><ele>332.25</ele><time>2026-03-28T15:57:26.999Z</time></trkpt><trkpt lat="46.10785923419265" lon="1.371646591991386"><ele>333.0</ele><time>2026-03-28T15:57:32.999Z</time></trkpt><trkpt lat="46.10770642554907" lon="1.3718095783886988"><ele>333.0</ele><time>2026-03-28T15:57:35.998Z</time></trkpt><trkpt lat="46.10763543036417" lon="1.3718796464456908"><ele>333.0</ele><time>2026-03-28T15:57:37.998Z</time></trkpt><trkpt lat="46.107556106171636" lon="1.3719538751257594"><ele>333.0</ele><time>2026-03-28T15:57:39.998Z</time></trkpt><trkpt lat="46.10747701391059" lon="1.372004767587965"><ele>333.0</ele><time>2026-03-28T15:57:41.998Z</time></trkpt><trkpt lat="46.107421698263614" lon="1.3719456211475134"><ele>333.0</ele><time>2026-03-28T15:57:44.998Z</time></trkpt></trkseg></trk></gpx>